<?xml version="1.0" encoding="UTF-8" standalone="no" ?>
<gpx xmlns="http://www.topografix.com/GPX/1/1" xmlns:xsi="http://www.w3.org/2001/XMLSchema-instance" xsi:schemaLocation="http://www.topografix.com/GPX/1/1 http://www.topografix.com/GPX/1/1/gpx.xsd" version="1.1" creator="VisuGPX - https://www.visugpx.com">
  <metadata>
    <name>VTT seul le 6 octobre 2021</name>
    <desc><![CDATA[A 15h 15, je suis parti seul, avec cuissard long, bonnet sous le casque, 3 couches de vêtements et gants longs car c'était plutôt frisquet. Le but était d'aller à Bougnon et de passer au dessus de la nouvelle route contournant Port (km 13,5). Retour par Grattery, Charmoille et Pusy : beaucoup de route au total, mais ça m'a permis de faire plus de 30 km (mon record de l'année). A l'arrivée je suis passé prendre des nouvelles chez Jacky qui n'était pas là mais A-marie m'a informé (j'ai évité tout sourire car il me manque une dent ...)]]></desc>
  </metadata>
  <wpt lat="47.64453" lon="6.18329">
    <ele>234.5</ele>
    <name><![CDATA[0000335]]></name>
    <type><![CDATA[Point de départ]]></type>
  </wpt>
  <wpt lat="47.64437" lon="6.18325">
    <ele>231</ele>
    <name><![CDATA[0000336]]></name>
    <desc><![CDATA[<p><br /><h3>Nom: Segment: 1</h3><br />Heure de départ: 10/06/2021 15:16<br/>Heure d'arrivée: 10/06/2021 18:01<br/>Distance: 30,6km (02:45)<br/>Temps déplacement: 02:21<br/>Vitesse moyenne: 11,07 km/h<br/>Vitesse moyenne mouv.: 12,97 km/h<br/>Vitesse Max.: 38,33 km/h<br/>Altitude minimale: 203 m<br/>Altitude maximale: 292 m<br/>Vitesse de montée: 303,1 m/h<br/>Vitesse de descente: -319,2 m/h<br/>Gain d'altitude: 396 m<br/>Perte d'altitude: -389 m<br/>Temps de montée: 01:18<br/>Temps de descente: 01:13<br/></p>]]></desc>
    <type><![CDATA[Point d'arrivée]]></type>
  </wpt>
  <trk>
    <name><![CDATA[2021-10-06 15:16]]></name>
    <desc><![CDATA[<p>Heure de départ: 10/06/2021 15:16<br/>Heure d'arrivée: 10/06/2021 18:01<br/>Distance: 30,6 km (02:45)<br/>Temps déplacement: 02:21<br/>Vitesse moyenne: 11,07 km/h<br/>Vitesse moyenne mouv.: 12,98 km/h<br/>Vitesse Max.: 38,33 km/h<br/>Altitude minimale: 203 m<br/>Altitude maximale: 292 m<br/>Vitesse de montée: 223,3 m/h<br/>Vitesse de descente: -265 m/h<br/>Gain d'altitude: 307 m<br/>Perte d'altitude: -301 m<br/>Temps de montée: 01:22<br/>Temps de descente: 01:08<br/></p><hr align="center" width="480" style="height: 2px; width: 517px"/>]]></desc>
    <trkseg>
      <trkpt lat="47.64453" lon="6.18329">
        <ele>234.5</ele>
        <time>2021-10-06T13:16:08Z</time>
      </trkpt>
      <trkpt lat="47.64453" lon="6.18322">
        <ele>233.7</ele>
        <time>2021-10-06T13:16:19Z</time>
      </trkpt>
      <trkpt lat="47.6445" lon="6.18313">
        <ele>232.3</ele>
        <time>2021-10-06T13:16:22Z</time>
      </trkpt>
      <trkpt lat="47.64447" lon="6.18306">
        <ele>231</ele>
        <time>2021-10-06T13:16:24Z</time>
      </trkpt>
      <trkpt lat="47.64443" lon="6.18301">
        <ele>229.9</ele>
        <time>2021-10-06T13:16:25Z</time>
      </trkpt>
      <trkpt lat="47.64438" lon="6.18297">
        <ele>228.7</ele>
        <time>2021-10-06T13:16:27Z</time>
      </trkpt>
      <trkpt lat="47.64434" lon="6.18294">
        <ele>227.8</ele>
        <time>2021-10-06T13:16:30Z</time>
      </trkpt>
      <trkpt lat="47.64429" lon="6.18288">
        <ele>226.6</ele>
        <time>2021-10-06T13:16:32Z</time>
      </trkpt>
      <trkpt lat="47.64426" lon="6.18278">
        <ele>225.2</ele>
        <time>2021-10-06T13:16:34Z</time>
      </trkpt>
      <trkpt lat="47.64421" lon="6.18281">
        <ele>224.9</ele>
        <time>2021-10-06T13:16:38Z</time>
      </trkpt>
      <trkpt lat="47.64415" lon="6.18279">
        <ele>224</ele>
        <time>2021-10-06T13:16:40Z</time>
      </trkpt>
      <trkpt lat="47.64408" lon="6.18271">
        <ele>223.3</ele>
        <time>2021-10-06T13:16:43Z</time>
      </trkpt>
      <trkpt lat="47.64404" lon="6.18267">
        <ele>222.9</ele>
        <time>2021-10-06T13:16:46Z</time>
      </trkpt>
      <trkpt lat="47.64396" lon="6.18257">
        <ele>222.1</ele>
        <time>2021-10-06T13:16:49Z</time>
      </trkpt>
      <trkpt lat="47.64387" lon="6.18246">
        <ele>221.7</ele>
        <time>2021-10-06T13:16:52Z</time>
      </trkpt>
      <trkpt lat="47.64379" lon="6.18236">
        <ele>221.8</ele>
        <time>2021-10-06T13:16:54Z</time>
      </trkpt>
      <trkpt lat="47.64375" lon="6.18231">
        <ele>221.8</ele>
        <time>2021-10-06T13:16:57Z</time>
      </trkpt>
      <trkpt lat="47.6437" lon="6.18226">
        <ele>221.9</ele>
        <time>2021-10-06T13:16:58Z</time>
      </trkpt>
      <trkpt lat="47.64366" lon="6.1822">
        <ele>222</ele>
        <time>2021-10-06T13:17:00Z</time>
      </trkpt>
      <trkpt lat="47.64363" lon="6.18216">
        <ele>222</ele>
        <time>2021-10-06T13:17:02Z</time>
      </trkpt>
      <trkpt lat="47.64359" lon="6.18212">
        <ele>222.1</ele>
        <time>2021-10-06T13:17:04Z</time>
      </trkpt>
      <trkpt lat="47.64355" lon="6.18207">
        <ele>222.2</ele>
        <time>2021-10-06T13:17:08Z</time>
      </trkpt>
      <trkpt lat="47.64351" lon="6.18201">
        <ele>222.3</ele>
        <time>2021-10-06T13:17:11Z</time>
      </trkpt>
      <trkpt lat="47.64344" lon="6.18197">
        <ele>222.3</ele>
        <time>2021-10-06T13:17:12Z</time>
      </trkpt>
      <trkpt lat="47.64338" lon="6.18193">
        <ele>222.4</ele>
        <time>2021-10-06T13:17:15Z</time>
      </trkpt>
      <trkpt lat="47.64333" lon="6.18192">
        <ele>222.4</ele>
        <time>2021-10-06T13:17:16Z</time>
      </trkpt>
      <trkpt lat="47.64326" lon="6.1819">
        <ele>222.3</ele>
        <time>2021-10-06T13:17:17Z</time>
      </trkpt>
      <trkpt lat="47.64318" lon="6.18189">
        <ele>222.2</ele>
        <time>2021-10-06T13:17:20Z</time>
      </trkpt>
      <trkpt lat="47.6431" lon="6.18191">
        <ele>222.1</ele>
        <time>2021-10-06T13:17:22Z</time>
      </trkpt>
      <trkpt lat="47.64304" lon="6.18192">
        <ele>222</ele>
        <time>2021-10-06T13:17:24Z</time>
      </trkpt>
      <trkpt lat="47.64295" lon="6.18196">
        <ele>221.9</ele>
        <time>2021-10-06T13:17:27Z</time>
      </trkpt>
      <trkpt lat="47.64288" lon="6.18199">
        <ele>221.8</ele>
        <time>2021-10-06T13:17:28Z</time>
      </trkpt>
      <trkpt lat="47.64283" lon="6.18201">
        <ele>221.7</ele>
        <time>2021-10-06T13:17:31Z</time>
      </trkpt>
      <trkpt lat="47.64279" lon="6.18203">
        <ele>221.7</ele>
        <time>2021-10-06T13:17:32Z</time>
      </trkpt>
      <trkpt lat="47.64273" lon="6.18206">
        <ele>221.6</ele>
        <time>2021-10-06T13:17:35Z</time>
      </trkpt>
      <trkpt lat="47.6427" lon="6.18211">
        <ele>221.6</ele>
        <time>2021-10-06T13:17:39Z</time>
      </trkpt>
      <trkpt lat="47.64272" lon="6.18218">
        <ele>221.7</ele>
        <time>2021-10-06T13:17:42Z</time>
      </trkpt>
      <trkpt lat="47.64273" lon="6.18226">
        <ele>221.7</ele>
        <time>2021-10-06T13:17:46Z</time>
      </trkpt>
      <trkpt lat="47.64268" lon="6.1823">
        <ele>221.7</ele>
        <time>2021-10-06T13:17:50Z</time>
      </trkpt>
      <trkpt lat="47.64263" lon="6.18233">
        <ele>221.7</ele>
        <time>2021-10-06T13:17:53Z</time>
      </trkpt>
      <trkpt lat="47.64261" lon="6.18227">
        <ele>221.7</ele>
        <time>2021-10-06T13:18:17Z</time>
      </trkpt>
      <trkpt lat="47.64257" lon="6.18225">
        <ele>221.7</ele>
        <time>2021-10-06T13:18:55Z</time>
      </trkpt>
      <trkpt lat="47.6426" lon="6.18231">
        <ele>221.7</ele>
        <time>2021-10-06T13:19:41Z</time>
      </trkpt>
      <trkpt lat="47.64262" lon="6.18237">
        <ele>221.8</ele>
        <time>2021-10-06T13:19:43Z</time>
      </trkpt>
      <trkpt lat="47.64267" lon="6.18239">
        <ele>221.7</ele>
        <time>2021-10-06T13:20:00Z</time>
      </trkpt>
      <trkpt lat="47.64271" lon="6.18234">
        <ele>221.7</ele>
        <time>2021-10-06T13:20:05Z</time>
      </trkpt>
      <trkpt lat="47.64274" lon="6.18228">
        <ele>221.7</ele>
        <time>2021-10-06T13:20:05Z</time>
      </trkpt>
      <trkpt lat="47.64273" lon="6.18217">
        <ele>221.7</ele>
        <time>2021-10-06T13:20:08Z</time>
      </trkpt>
      <trkpt lat="47.64276" lon="6.1821">
        <ele>221.7</ele>
        <time>2021-10-06T13:20:11Z</time>
      </trkpt>
      <trkpt lat="47.64284" lon="6.18207">
        <ele>221.7</ele>
        <time>2021-10-06T13:20:14Z</time>
      </trkpt>
      <trkpt lat="47.6429" lon="6.18204">
        <ele>221.8</ele>
        <time>2021-10-06T13:20:16Z</time>
      </trkpt>
      <trkpt lat="47.64297" lon="6.182">
        <ele>221.8</ele>
        <time>2021-10-06T13:20:20Z</time>
      </trkpt>
      <trkpt lat="47.64302" lon="6.18197">
        <ele>221.9</ele>
        <time>2021-10-06T13:20:21Z</time>
      </trkpt>
      <trkpt lat="47.64307" lon="6.18196">
        <ele>222</ele>
        <time>2021-10-06T13:20:22Z</time>
      </trkpt>
      <trkpt lat="47.64312" lon="6.18194">
        <ele>222.1</ele>
        <time>2021-10-06T13:20:23Z</time>
      </trkpt>
      <trkpt lat="47.64327" lon="6.18194">
        <ele>222.3</ele>
        <time>2021-10-06T13:20:26Z</time>
      </trkpt>
      <trkpt lat="47.64338" lon="6.18198">
        <ele>222.3</ele>
        <time>2021-10-06T13:20:29Z</time>
      </trkpt>
      <trkpt lat="47.64343" lon="6.182">
        <ele>222.3</ele>
        <time>2021-10-06T13:20:30Z</time>
      </trkpt>
      <trkpt lat="47.6435" lon="6.18204">
        <ele>222.2</ele>
        <time>2021-10-06T13:20:32Z</time>
      </trkpt>
      <trkpt lat="47.64355" lon="6.18211">
        <ele>222.1</ele>
        <time>2021-10-06T13:20:32Z</time>
      </trkpt>
      <trkpt lat="47.64359" lon="6.18214">
        <ele>222</ele>
        <time>2021-10-06T13:20:35Z</time>
      </trkpt>
      <trkpt lat="47.64364" lon="6.18219">
        <ele>222</ele>
        <time>2021-10-06T13:20:35Z</time>
      </trkpt>
      <trkpt lat="47.6437" lon="6.18226">
        <ele>221.9</ele>
        <time>2021-10-06T13:20:39Z</time>
      </trkpt>
      <trkpt lat="47.64381" lon="6.18239">
        <ele>221.8</ele>
        <time>2021-10-06T13:20:39Z</time>
      </trkpt>
      <trkpt lat="47.64385" lon="6.18244">
        <ele>221.7</ele>
        <time>2021-10-06T13:20:40Z</time>
      </trkpt>
      <trkpt lat="47.64389" lon="6.18249">
        <ele>221.7</ele>
        <time>2021-10-06T13:20:41Z</time>
      </trkpt>
      <trkpt lat="47.64393" lon="6.18254">
        <ele>221.9</ele>
        <time>2021-10-06T13:20:42Z</time>
      </trkpt>
      <trkpt lat="47.64397" lon="6.18259">
        <ele>222.2</ele>
        <time>2021-10-06T13:20:43Z</time>
      </trkpt>
      <trkpt lat="47.64401" lon="6.18263">
        <ele>222.6</ele>
        <time>2021-10-06T13:20:44Z</time>
      </trkpt>
      <trkpt lat="47.64405" lon="6.18267">
        <ele>222.9</ele>
        <time>2021-10-06T13:20:45Z</time>
      </trkpt>
      <trkpt lat="47.64408" lon="6.18271">
        <ele>223.3</ele>
        <time>2021-10-06T13:20:46Z</time>
      </trkpt>
      <trkpt lat="47.64412" lon="6.18276">
        <ele>223.7</ele>
        <time>2021-10-06T13:20:47Z</time>
      </trkpt>
      <trkpt lat="47.64416" lon="6.18282">
        <ele>224.3</ele>
        <time>2021-10-06T13:20:51Z</time>
      </trkpt>
      <trkpt lat="47.64427" lon="6.18293">
        <ele>226.7</ele>
        <time>2021-10-06T13:20:54Z</time>
      </trkpt>
      <trkpt lat="47.64433" lon="6.183">
        <ele>228.1</ele>
        <time>2021-10-06T13:20:56Z</time>
      </trkpt>
      <trkpt lat="47.6444" lon="6.18304">
        <ele>229.6</ele>
        <time>2021-10-06T13:20:56Z</time>
      </trkpt>
      <trkpt lat="47.64444" lon="6.183">
        <ele>230</ele>
        <time>2021-10-06T13:21:00Z</time>
      </trkpt>
      <trkpt lat="47.64447" lon="6.18295">
        <ele>229.9</ele>
        <time>2021-10-06T13:21:01Z</time>
      </trkpt>
      <trkpt lat="47.64452" lon="6.18289">
        <ele>230.1</ele>
        <time>2021-10-06T13:21:01Z</time>
      </trkpt>
      <trkpt lat="47.64457" lon="6.18285">
        <ele>230.3</ele>
        <time>2021-10-06T13:21:03Z</time>
      </trkpt>
      <trkpt lat="47.64461" lon="6.18279">
        <ele>230.2</ele>
        <time>2021-10-06T13:21:05Z</time>
      </trkpt>
      <trkpt lat="47.64465" lon="6.18273">
        <ele>230</ele>
        <time>2021-10-06T13:21:07Z</time>
      </trkpt>
      <trkpt lat="47.6447" lon="6.18264">
        <ele>229.6</ele>
        <time>2021-10-06T13:21:10Z</time>
      </trkpt>
      <trkpt lat="47.64473" lon="6.18259">
        <ele>229.3</ele>
        <time>2021-10-06T13:21:12Z</time>
      </trkpt>
      <trkpt lat="47.64477" lon="6.18252">
        <ele>228.8</ele>
        <time>2021-10-06T13:21:14Z</time>
      </trkpt>
      <trkpt lat="47.64482" lon="6.18243">
        <ele>228.6</ele>
        <time>2021-10-06T13:21:18Z</time>
      </trkpt>
      <trkpt lat="47.64489" lon="6.1823">
        <ele>228.5</ele>
        <time>2021-10-06T13:21:21Z</time>
      </trkpt>
      <trkpt lat="47.64493" lon="6.18221">
        <ele>228.4</ele>
        <time>2021-10-06T13:21:21Z</time>
      </trkpt>
      <trkpt lat="47.64495" lon="6.18214">
        <ele>228</ele>
        <time>2021-10-06T13:21:25Z</time>
      </trkpt>
      <trkpt lat="47.64497" lon="6.18207">
        <ele>227.7</ele>
        <time>2021-10-06T13:21:25Z</time>
      </trkpt>
      <trkpt lat="47.64499" lon="6.18199">
        <ele>227.3</ele>
        <time>2021-10-06T13:21:29Z</time>
      </trkpt>
      <trkpt lat="47.64501" lon="6.1819">
        <ele>227</ele>
        <time>2021-10-06T13:21:31Z</time>
      </trkpt>
      <trkpt lat="47.64502" lon="6.18183">
        <ele>226.5</ele>
        <time>2021-10-06T13:21:32Z</time>
      </trkpt>
      <trkpt lat="47.64497" lon="6.1816">
        <ele>224.8</ele>
        <time>2021-10-06T13:21:35Z</time>
      </trkpt>
      <trkpt lat="47.64498" lon="6.18152">
        <ele>224.6</ele>
        <time>2021-10-06T13:21:37Z</time>
      </trkpt>
      <trkpt lat="47.64496" lon="6.18145">
        <ele>224.4</ele>
        <time>2021-10-06T13:21:38Z</time>
      </trkpt>
      <trkpt lat="47.64496" lon="6.18125">
        <ele>224</ele>
        <time>2021-10-06T13:21:41Z</time>
      </trkpt>
      <trkpt lat="47.64499" lon="6.18109">
        <ele>223.6</ele>
        <time>2021-10-06T13:21:44Z</time>
      </trkpt>
      <trkpt lat="47.64501" lon="6.18102">
        <ele>223.6</ele>
        <time>2021-10-06T13:21:45Z</time>
      </trkpt>
      <trkpt lat="47.64503" lon="6.18091">
        <ele>223.8</ele>
        <time>2021-10-06T13:21:45Z</time>
      </trkpt>
      <trkpt lat="47.64505" lon="6.18083">
        <ele>224.1</ele>
        <time>2021-10-06T13:21:47Z</time>
      </trkpt>
      <trkpt lat="47.64507" lon="6.18076">
        <ele>224.4</ele>
        <time>2021-10-06T13:21:51Z</time>
      </trkpt>
      <trkpt lat="47.6451" lon="6.18068">
        <ele>224.9</ele>
        <time>2021-10-06T13:21:51Z</time>
      </trkpt>
      <trkpt lat="47.64513" lon="6.18059">
        <ele>225.3</ele>
        <time>2021-10-06T13:21:56Z</time>
      </trkpt>
      <trkpt lat="47.64515" lon="6.18053">
        <ele>225.6</ele>
        <time>2021-10-06T13:21:58Z</time>
      </trkpt>
      <trkpt lat="47.64516" lon="6.18045">
        <ele>225.6</ele>
        <time>2021-10-06T13:22:00Z</time>
      </trkpt>
      <trkpt lat="47.64511" lon="6.18044">
        <ele>224.7</ele>
        <time>2021-10-06T13:22:02Z</time>
      </trkpt>
      <trkpt lat="47.64508" lon="6.1805">
        <ele>224.4</ele>
        <time>2021-10-06T13:22:02Z</time>
      </trkpt>
      <trkpt lat="47.64508" lon="6.18058">
        <ele>224.5</ele>
        <time>2021-10-06T13:22:04Z</time>
      </trkpt>
      <trkpt lat="47.64507" lon="6.18066">
        <ele>224.3</ele>
        <time>2021-10-06T13:22:08Z</time>
      </trkpt>
      <trkpt lat="47.64505" lon="6.18072">
        <ele>224</ele>
        <time>2021-10-06T13:22:10Z</time>
      </trkpt>
      <trkpt lat="47.64503" lon="6.18083">
        <ele>223.6</ele>
        <time>2021-10-06T13:22:12Z</time>
      </trkpt>
      <trkpt lat="47.64501" lon="6.18091">
        <ele>223.3</ele>
        <time>2021-10-06T13:22:13Z</time>
      </trkpt>
      <trkpt lat="47.64499" lon="6.18099">
        <ele>223.4</ele>
        <time>2021-10-06T13:22:14Z</time>
      </trkpt>
      <trkpt lat="47.64496" lon="6.18112">
        <ele>223.7</ele>
        <time>2021-10-06T13:22:14Z</time>
      </trkpt>
      <trkpt lat="47.64494" lon="6.18124">
        <ele>223.9</ele>
        <time>2021-10-06T13:22:18Z</time>
      </trkpt>
      <trkpt lat="47.64493" lon="6.18142">
        <ele>224.3</ele>
        <time>2021-10-06T13:22:20Z</time>
      </trkpt>
      <trkpt lat="47.64494" lon="6.18149">
        <ele>224.5</ele>
        <time>2021-10-06T13:22:21Z</time>
      </trkpt>
      <trkpt lat="47.64497" lon="6.1817">
        <ele>225.1</ele>
        <time>2021-10-06T13:22:22Z</time>
      </trkpt>
      <trkpt lat="47.64498" lon="6.1818">
        <ele>225.8</ele>
        <time>2021-10-06T13:22:26Z</time>
      </trkpt>
      <trkpt lat="47.64498" lon="6.18187">
        <ele>226.4</ele>
        <time>2021-10-06T13:22:27Z</time>
      </trkpt>
      <trkpt lat="47.64495" lon="6.18199">
        <ele>227.1</ele>
        <time>2021-10-06T13:22:29Z</time>
      </trkpt>
      <trkpt lat="47.64494" lon="6.1821">
        <ele>227.7</ele>
        <time>2021-10-06T13:22:29Z</time>
      </trkpt>
      <trkpt lat="47.64492" lon="6.18218">
        <ele>228</ele>
        <time>2021-10-06T13:22:33Z</time>
      </trkpt>
      <trkpt lat="47.64489" lon="6.18226">
        <ele>228.3</ele>
        <time>2021-10-06T13:22:35Z</time>
      </trkpt>
      <trkpt lat="47.64485" lon="6.18233">
        <ele>228.4</ele>
        <time>2021-10-06T13:22:35Z</time>
      </trkpt>
      <trkpt lat="47.64483" lon="6.18238">
        <ele>228.5</ele>
        <time>2021-10-06T13:22:39Z</time>
      </trkpt>
      <trkpt lat="47.6448" lon="6.18243">
        <ele>228.4</ele>
        <time>2021-10-06T13:22:40Z</time>
      </trkpt>
      <trkpt lat="47.64474" lon="6.18254">
        <ele>228.7</ele>
        <time>2021-10-06T13:22:40Z</time>
      </trkpt>
      <trkpt lat="47.6447" lon="6.18261">
        <ele>229.1</ele>
        <time>2021-10-06T13:22:44Z</time>
      </trkpt>
      <trkpt lat="47.64461" lon="6.18274">
        <ele>229.5</ele>
        <time>2021-10-06T13:22:45Z</time>
      </trkpt>
      <trkpt lat="47.64457" lon="6.18278">
        <ele>229.5</ele>
        <time>2021-10-06T13:22:47Z</time>
      </trkpt>
      <trkpt lat="47.64453" lon="6.18282">
        <ele>229.4</ele>
        <time>2021-10-06T13:22:49Z</time>
      </trkpt>
      <trkpt lat="47.64449" lon="6.18288">
        <ele>229.4</ele>
        <time>2021-10-06T13:22:54Z</time>
      </trkpt>
      <trkpt lat="47.64445" lon="6.18294">
        <ele>229.5</ele>
        <time>2021-10-06T13:22:54Z</time>
      </trkpt>
      <trkpt lat="47.64441" lon="6.18298">
        <ele>229.3</ele>
        <time>2021-10-06T13:22:58Z</time>
      </trkpt>
      <trkpt lat="47.64433" lon="6.18298">
        <ele>228.1</ele>
        <time>2021-10-06T13:22:58Z</time>
      </trkpt>
      <trkpt lat="47.64428" lon="6.18292">
        <ele>226.6</ele>
        <time>2021-10-06T13:23:02Z</time>
      </trkpt>
      <trkpt lat="47.64423" lon="6.18282">
        <ele>225.2</ele>
        <time>2021-10-06T13:23:04Z</time>
      </trkpt>
      <trkpt lat="47.64423" lon="6.18273">
        <ele>224.5</ele>
        <time>2021-10-06T13:23:06Z</time>
      </trkpt>
      <trkpt lat="47.64419" lon="6.1827">
        <ele>223.7</ele>
        <time>2021-10-06T13:23:06Z</time>
      </trkpt>
      <trkpt lat="47.64417" lon="6.18277">
        <ele>224</ele>
        <time>2021-10-06T13:23:08Z</time>
      </trkpt>
      <trkpt lat="47.64417" lon="6.18284">
        <ele>224.6</ele>
        <time>2021-10-06T13:23:11Z</time>
      </trkpt>
      <trkpt lat="47.64418" lon="6.18277">
        <ele>224.1</ele>
        <time>2021-10-06T13:23:30Z</time>
      </trkpt>
      <trkpt lat="47.6442" lon="6.18284">
        <ele>224.9</ele>
        <time>2021-10-06T13:23:45Z</time>
      </trkpt>
      <trkpt lat="47.64423" lon="6.1829">
        <ele>225.8</ele>
        <time>2021-10-06T13:23:47Z</time>
      </trkpt>
      <trkpt lat="47.64426" lon="6.18295">
        <ele>226.7</ele>
        <time>2021-10-06T13:23:52Z</time>
      </trkpt>
      <trkpt lat="47.64432" lon="6.183">
        <ele>228</ele>
        <time>2021-10-06T13:23:52Z</time>
      </trkpt>
      <trkpt lat="47.64436" lon="6.18305">
        <ele>229.1</ele>
        <time>2021-10-06T13:23:54Z</time>
      </trkpt>
      <trkpt lat="47.64439" lon="6.18311">
        <ele>230.1</ele>
        <time>2021-10-06T13:23:58Z</time>
      </trkpt>
      <trkpt lat="47.64441" lon="6.18317">
        <ele>231.1</ele>
        <time>2021-10-06T13:24:00Z</time>
      </trkpt>
      <trkpt lat="47.64442" lon="6.18324">
        <ele>232</ele>
        <time>2021-10-06T13:24:00Z</time>
      </trkpt>
      <trkpt lat="47.64437" lon="6.18326">
        <ele>231.2</ele>
        <time>2021-10-06T13:24:04Z</time>
      </trkpt>
      <trkpt lat="47.64431" lon="6.18328">
        <ele>230.4</ele>
        <time>2021-10-06T13:24:08Z</time>
      </trkpt>
      <trkpt lat="47.64438" lon="6.18334">
        <ele>232.2</ele>
        <time>2021-10-06T13:24:38Z</time>
      </trkpt>
      <trkpt lat="47.64448" lon="6.18333">
        <ele>233.9</ele>
        <time>2021-10-06T13:24:41Z</time>
      </trkpt>
      <trkpt lat="47.6445" lon="6.18339">
        <ele>235</ele>
        <time>2021-10-06T13:26:48Z</time>
      </trkpt>
      <trkpt lat="47.64447" lon="6.18333">
        <ele>233.8</ele>
        <time>2021-10-06T13:27:16Z</time>
      </trkpt>
      <trkpt lat="47.64447" lon="6.18326">
        <ele>233.1</ele>
        <time>2021-10-06T13:27:53Z</time>
      </trkpt>
      <trkpt lat="47.64444" lon="6.1832">
        <ele>232</ele>
        <time>2021-10-06T13:27:57Z</time>
      </trkpt>
      <trkpt lat="47.64441" lon="6.18313">
        <ele>230.7</ele>
        <time>2021-10-06T13:28:00Z</time>
      </trkpt>
      <trkpt lat="47.64438" lon="6.18304">
        <ele>229.3</ele>
        <time>2021-10-06T13:28:04Z</time>
      </trkpt>
      <trkpt lat="47.64434" lon="6.18299">
        <ele>228.3</ele>
        <time>2021-10-06T13:28:07Z</time>
      </trkpt>
      <trkpt lat="47.6443" lon="6.18292">
        <ele>227</ele>
        <time>2021-10-06T13:28:09Z</time>
      </trkpt>
      <trkpt lat="47.64426" lon="6.18278">
        <ele>225.3</ele>
        <time>2021-10-06T13:28:12Z</time>
      </trkpt>
      <trkpt lat="47.64422" lon="6.18273">
        <ele>224.4</ele>
        <time>2021-10-06T13:28:14Z</time>
      </trkpt>
      <trkpt lat="47.64419" lon="6.18279">
        <ele>224.4</ele>
        <time>2021-10-06T13:28:17Z</time>
      </trkpt>
      <trkpt lat="47.64421" lon="6.18287">
        <ele>225.2</ele>
        <time>2021-10-06T13:28:20Z</time>
      </trkpt>
      <trkpt lat="47.64424" lon="6.18293">
        <ele>226.2</ele>
        <time>2021-10-06T13:28:22Z</time>
      </trkpt>
      <trkpt lat="47.64429" lon="6.183">
        <ele>227.5</ele>
        <time>2021-10-06T13:28:24Z</time>
      </trkpt>
      <trkpt lat="47.64435" lon="6.18302">
        <ele>228.6</ele>
        <time>2021-10-06T13:28:25Z</time>
      </trkpt>
      <trkpt lat="47.64439" lon="6.18299">
        <ele>229</ele>
        <time>2021-10-06T13:28:28Z</time>
      </trkpt>
      <trkpt lat="47.64444" lon="6.18294">
        <ele>229.3</ele>
        <time>2021-10-06T13:28:29Z</time>
      </trkpt>
      <trkpt lat="47.64449" lon="6.18288">
        <ele>229.5</ele>
        <time>2021-10-06T13:28:31Z</time>
      </trkpt>
      <trkpt lat="47.64453" lon="6.18283">
        <ele>229.5</ele>
        <time>2021-10-06T13:28:33Z</time>
      </trkpt>
      <trkpt lat="47.64458" lon="6.18277">
        <ele>229.5</ele>
        <time>2021-10-06T13:28:35Z</time>
      </trkpt>
      <trkpt lat="47.64462" lon="6.18272">
        <ele>229.5</ele>
        <time>2021-10-06T13:28:37Z</time>
      </trkpt>
      <trkpt lat="47.64466" lon="6.18267">
        <ele>229.4</ele>
        <time>2021-10-06T13:28:40Z</time>
      </trkpt>
      <trkpt lat="47.64471" lon="6.18261">
        <ele>229.2</ele>
        <time>2021-10-06T13:28:42Z</time>
      </trkpt>
      <trkpt lat="47.64474" lon="6.18255">
        <ele>228.8</ele>
        <time>2021-10-06T13:28:43Z</time>
      </trkpt>
      <trkpt lat="47.6448" lon="6.18242">
        <ele>228.4</ele>
        <time>2021-10-06T13:28:44Z</time>
      </trkpt>
      <trkpt lat="47.64485" lon="6.18232">
        <ele>228.4</ele>
        <time>2021-10-06T13:28:47Z</time>
      </trkpt>
      <trkpt lat="47.64492" lon="6.18216">
        <ele>227.9</ele>
        <time>2021-10-06T13:28:49Z</time>
      </trkpt>
      <trkpt lat="47.64495" lon="6.18208">
        <ele>227.6</ele>
        <time>2021-10-06T13:28:51Z</time>
      </trkpt>
      <trkpt lat="47.64497" lon="6.18201">
        <ele>227.3</ele>
        <time>2021-10-06T13:28:54Z</time>
      </trkpt>
      <trkpt lat="47.64499" lon="6.18194">
        <ele>226.9</ele>
        <time>2021-10-06T13:28:55Z</time>
      </trkpt>
      <trkpt lat="47.645" lon="6.18185">
        <ele>226.3</ele>
        <time>2021-10-06T13:28:57Z</time>
      </trkpt>
      <trkpt lat="47.64498" lon="6.18173">
        <ele>225.4</ele>
        <time>2021-10-06T13:28:59Z</time>
      </trkpt>
      <trkpt lat="47.64496" lon="6.18165">
        <ele>224.9</ele>
        <time>2021-10-06T13:29:00Z</time>
      </trkpt>
      <trkpt lat="47.64495" lon="6.18156">
        <ele>224.6</ele>
        <time>2021-10-06T13:29:02Z</time>
      </trkpt>
      <trkpt lat="47.64495" lon="6.18146">
        <ele>224.4</ele>
        <time>2021-10-06T13:29:03Z</time>
      </trkpt>
      <trkpt lat="47.64495" lon="6.18138">
        <ele>224.2</ele>
        <time>2021-10-06T13:29:05Z</time>
      </trkpt>
      <trkpt lat="47.64496" lon="6.18129">
        <ele>224.1</ele>
        <time>2021-10-06T13:29:06Z</time>
      </trkpt>
      <trkpt lat="47.64498" lon="6.18119">
        <ele>223.8</ele>
        <time>2021-10-06T13:29:08Z</time>
      </trkpt>
      <trkpt lat="47.645" lon="6.18112">
        <ele>223.7</ele>
        <time>2021-10-06T13:29:10Z</time>
      </trkpt>
      <trkpt lat="47.64502" lon="6.181">
        <ele>223.9</ele>
        <time>2021-10-06T13:29:12Z</time>
      </trkpt>
      <trkpt lat="47.64503" lon="6.18092">
        <ele>223.9</ele>
        <time>2021-10-06T13:29:14Z</time>
      </trkpt>
      <trkpt lat="47.64506" lon="6.18085">
        <ele>224.2</ele>
        <time>2021-10-06T13:29:16Z</time>
      </trkpt>
      <trkpt lat="47.64508" lon="6.18076">
        <ele>224.6</ele>
        <time>2021-10-06T13:29:17Z</time>
      </trkpt>
      <trkpt lat="47.6451" lon="6.18068">
        <ele>224.9</ele>
        <time>2021-10-06T13:29:19Z</time>
      </trkpt>
      <trkpt lat="47.64512" lon="6.18058">
        <ele>225.1</ele>
        <time>2021-10-06T13:29:23Z</time>
      </trkpt>
      <trkpt lat="47.64508" lon="6.18052">
        <ele>224.5</ele>
        <time>2021-10-06T13:29:25Z</time>
      </trkpt>
      <trkpt lat="47.64498" lon="6.18046">
        <ele>223</ele>
        <time>2021-10-06T13:29:28Z</time>
      </trkpt>
      <trkpt lat="47.64491" lon="6.18041">
        <ele>222.9</ele>
        <time>2021-10-06T13:29:30Z</time>
      </trkpt>
      <trkpt lat="47.64478" lon="6.18031">
        <ele>222.8</ele>
        <time>2021-10-06T13:29:32Z</time>
      </trkpt>
      <trkpt lat="47.64471" lon="6.18026">
        <ele>222.8</ele>
        <time>2021-10-06T13:29:35Z</time>
      </trkpt>
      <trkpt lat="47.64466" lon="6.18021">
        <ele>222.7</ele>
        <time>2021-10-06T13:29:36Z</time>
      </trkpt>
      <trkpt lat="47.6446" lon="6.18012">
        <ele>222.6</ele>
        <time>2021-10-06T13:29:38Z</time>
      </trkpt>
      <trkpt lat="47.64455" lon="6.18006">
        <ele>222.5</ele>
        <time>2021-10-06T13:29:39Z</time>
      </trkpt>
      <trkpt lat="47.64447" lon="6.17993">
        <ele>222.3</ele>
        <time>2021-10-06T13:29:41Z</time>
      </trkpt>
      <trkpt lat="47.64445" lon="6.17986">
        <ele>222.2</ele>
        <time>2021-10-06T13:29:44Z</time>
      </trkpt>
      <trkpt lat="47.64438" lon="6.17972">
        <ele>221.9</ele>
        <time>2021-10-06T13:29:46Z</time>
      </trkpt>
      <trkpt lat="47.64434" lon="6.17965">
        <ele>221.8</ele>
        <time>2021-10-06T13:29:48Z</time>
      </trkpt>
      <trkpt lat="47.64429" lon="6.17959">
        <ele>221.7</ele>
        <time>2021-10-06T13:29:51Z</time>
      </trkpt>
      <trkpt lat="47.64426" lon="6.17954">
        <ele>221.6</ele>
        <time>2021-10-06T13:29:53Z</time>
      </trkpt>
      <trkpt lat="47.64422" lon="6.17947">
        <ele>221.4</ele>
        <time>2021-10-06T13:29:55Z</time>
      </trkpt>
      <trkpt lat="47.6442" lon="6.17941">
        <ele>221.3</ele>
        <time>2021-10-06T13:29:57Z</time>
      </trkpt>
      <trkpt lat="47.64417" lon="6.17934">
        <ele>221.2</ele>
        <time>2021-10-06T13:29:58Z</time>
      </trkpt>
      <trkpt lat="47.64414" lon="6.17928">
        <ele>221.1</ele>
        <time>2021-10-06T13:30:01Z</time>
      </trkpt>
      <trkpt lat="47.6441" lon="6.17919">
        <ele>220.9</ele>
        <time>2021-10-06T13:30:04Z</time>
      </trkpt>
      <trkpt lat="47.64407" lon="6.17913">
        <ele>220.9</ele>
        <time>2021-10-06T13:30:06Z</time>
      </trkpt>
      <trkpt lat="47.64404" lon="6.17907">
        <ele>220.8</ele>
        <time>2021-10-06T13:30:08Z</time>
      </trkpt>
      <trkpt lat="47.64399" lon="6.17899">
        <ele>220.7</ele>
        <time>2021-10-06T13:30:09Z</time>
      </trkpt>
      <trkpt lat="47.64396" lon="6.17892">
        <ele>220.7</ele>
        <time>2021-10-06T13:30:11Z</time>
      </trkpt>
      <trkpt lat="47.64392" lon="6.17885">
        <ele>220.6</ele>
        <time>2021-10-06T13:30:14Z</time>
      </trkpt>
      <trkpt lat="47.64387" lon="6.17879">
        <ele>220.5</ele>
        <time>2021-10-06T13:30:16Z</time>
      </trkpt>
      <trkpt lat="47.64379" lon="6.17867">
        <ele>220.3</ele>
        <time>2021-10-06T13:30:19Z</time>
      </trkpt>
      <trkpt lat="47.64374" lon="6.1786">
        <ele>220.1</ele>
        <time>2021-10-06T13:30:20Z</time>
      </trkpt>
      <trkpt lat="47.6437" lon="6.17854">
        <ele>220</ele>
        <time>2021-10-06T13:30:23Z</time>
      </trkpt>
      <trkpt lat="47.64365" lon="6.17848">
        <ele>219.9</ele>
        <time>2021-10-06T13:30:25Z</time>
      </trkpt>
      <trkpt lat="47.6436" lon="6.17842">
        <ele>219.7</ele>
        <time>2021-10-06T13:30:27Z</time>
      </trkpt>
      <trkpt lat="47.64354" lon="6.17831">
        <ele>219.5</ele>
        <time>2021-10-06T13:30:30Z</time>
      </trkpt>
      <trkpt lat="47.6435" lon="6.17816">
        <ele>219.7</ele>
        <time>2021-10-06T13:30:33Z</time>
      </trkpt>
      <trkpt lat="47.64345" lon="6.1781">
        <ele>219.7</ele>
        <time>2021-10-06T13:30:35Z</time>
      </trkpt>
      <trkpt lat="47.64338" lon="6.17805">
        <ele>219.7</ele>
        <time>2021-10-06T13:30:37Z</time>
      </trkpt>
      <trkpt lat="47.64325" lon="6.17795">
        <ele>219.7</ele>
        <time>2021-10-06T13:30:39Z</time>
      </trkpt>
      <trkpt lat="47.64318" lon="6.1779">
        <ele>219.6</ele>
        <time>2021-10-06T13:30:42Z</time>
      </trkpt>
      <trkpt lat="47.64307" lon="6.17784">
        <ele>219.3</ele>
        <time>2021-10-06T13:30:44Z</time>
      </trkpt>
      <trkpt lat="47.643" lon="6.17781">
        <ele>219.1</ele>
        <time>2021-10-06T13:30:46Z</time>
      </trkpt>
      <trkpt lat="47.64294" lon="6.17777">
        <ele>218.9</ele>
        <time>2021-10-06T13:30:48Z</time>
      </trkpt>
      <trkpt lat="47.6429" lon="6.17775">
        <ele>218.8</ele>
        <time>2021-10-06T13:30:51Z</time>
      </trkpt>
      <trkpt lat="47.64285" lon="6.17772">
        <ele>218.6</ele>
        <time>2021-10-06T13:30:52Z</time>
      </trkpt>
      <trkpt lat="47.64279" lon="6.17769">
        <ele>218.4</ele>
        <time>2021-10-06T13:30:53Z</time>
      </trkpt>
      <trkpt lat="47.64273" lon="6.17766">
        <ele>218.1</ele>
        <time>2021-10-06T13:30:55Z</time>
      </trkpt>
      <trkpt lat="47.64266" lon="6.17764">
        <ele>217.9</ele>
        <time>2021-10-06T13:30:57Z</time>
      </trkpt>
      <trkpt lat="47.6426" lon="6.17759">
        <ele>217.6</ele>
        <time>2021-10-06T13:30:59Z</time>
      </trkpt>
      <trkpt lat="47.64254" lon="6.17756">
        <ele>217.2</ele>
        <time>2021-10-06T13:31:01Z</time>
      </trkpt>
      <trkpt lat="47.64247" lon="6.17751">
        <ele>217</ele>
        <time>2021-10-06T13:31:03Z</time>
      </trkpt>
      <trkpt lat="47.64241" lon="6.17748">
        <ele>216.9</ele>
        <time>2021-10-06T13:31:05Z</time>
      </trkpt>
      <trkpt lat="47.64235" lon="6.17743">
        <ele>216.9</ele>
        <time>2021-10-06T13:31:07Z</time>
      </trkpt>
      <trkpt lat="47.64229" lon="6.17737">
        <ele>217</ele>
        <time>2021-10-06T13:31:09Z</time>
      </trkpt>
      <trkpt lat="47.64223" lon="6.17731">
        <ele>217</ele>
        <time>2021-10-06T13:31:11Z</time>
      </trkpt>
      <trkpt lat="47.64217" lon="6.17725">
        <ele>217.1</ele>
        <time>2021-10-06T13:31:13Z</time>
      </trkpt>
      <trkpt lat="47.64212" lon="6.17719">
        <ele>217.2</ele>
        <time>2021-10-06T13:31:16Z</time>
      </trkpt>
      <trkpt lat="47.64206" lon="6.17711">
        <ele>217.3</ele>
        <time>2021-10-06T13:31:17Z</time>
      </trkpt>
      <trkpt lat="47.64201" lon="6.17704">
        <ele>217.5</ele>
        <time>2021-10-06T13:31:19Z</time>
      </trkpt>
      <trkpt lat="47.64197" lon="6.17698">
        <ele>217.6</ele>
        <time>2021-10-06T13:31:22Z</time>
      </trkpt>
      <trkpt lat="47.64187" lon="6.17686">
        <ele>217.8</ele>
        <time>2021-10-06T13:31:24Z</time>
      </trkpt>
      <trkpt lat="47.64182" lon="6.17679">
        <ele>217.9</ele>
        <time>2021-10-06T13:31:26Z</time>
      </trkpt>
      <trkpt lat="47.64177" lon="6.17675">
        <ele>218</ele>
        <time>2021-10-06T13:31:29Z</time>
      </trkpt>
      <trkpt lat="47.64169" lon="6.17663">
        <ele>218.1</ele>
        <time>2021-10-06T13:31:32Z</time>
      </trkpt>
      <trkpt lat="47.64161" lon="6.17652">
        <ele>218</ele>
        <time>2021-10-06T13:31:34Z</time>
      </trkpt>
      <trkpt lat="47.64156" lon="6.17645">
        <ele>218</ele>
        <time>2021-10-06T13:31:37Z</time>
      </trkpt>
      <trkpt lat="47.64148" lon="6.17635">
        <ele>217.9</ele>
        <time>2021-10-06T13:31:38Z</time>
      </trkpt>
      <trkpt lat="47.64144" lon="6.17629">
        <ele>217.8</ele>
        <time>2021-10-06T13:31:41Z</time>
      </trkpt>
      <trkpt lat="47.64131" lon="6.17616">
        <ele>217.5</ele>
        <time>2021-10-06T13:31:45Z</time>
      </trkpt>
      <trkpt lat="47.64127" lon="6.1761">
        <ele>217.4</ele>
        <time>2021-10-06T13:31:46Z</time>
      </trkpt>
      <trkpt lat="47.64124" lon="6.17603">
        <ele>217.3</ele>
        <time>2021-10-06T13:31:47Z</time>
      </trkpt>
      <trkpt lat="47.64121" lon="6.17598">
        <ele>217.3</ele>
        <time>2021-10-06T13:31:48Z</time>
      </trkpt>
      <trkpt lat="47.64117" lon="6.17592">
        <ele>217.2</ele>
        <time>2021-10-06T13:31:49Z</time>
      </trkpt>
      <trkpt lat="47.64113" lon="6.17586">
        <ele>217.1</ele>
        <time>2021-10-06T13:31:50Z</time>
      </trkpt>
      <trkpt lat="47.64105" lon="6.17572">
        <ele>216.8</ele>
        <time>2021-10-06T13:31:53Z</time>
      </trkpt>
      <trkpt lat="47.64098" lon="6.17561">
        <ele>216.7</ele>
        <time>2021-10-06T13:31:55Z</time>
      </trkpt>
      <trkpt lat="47.64088" lon="6.17547">
        <ele>216.5</ele>
        <time>2021-10-06T13:31:57Z</time>
      </trkpt>
      <trkpt lat="47.64083" lon="6.1754">
        <ele>216.5</ele>
        <time>2021-10-06T13:32:00Z</time>
      </trkpt>
      <trkpt lat="47.64074" lon="6.17528">
        <ele>216.9</ele>
        <time>2021-10-06T13:32:03Z</time>
      </trkpt>
      <trkpt lat="47.64064" lon="6.17515">
        <ele>217.3</ele>
        <time>2021-10-06T13:32:06Z</time>
      </trkpt>
      <trkpt lat="47.64058" lon="6.17507">
        <ele>217.5</ele>
        <time>2021-10-06T13:32:08Z</time>
      </trkpt>
      <trkpt lat="47.64052" lon="6.17498">
        <ele>217.8</ele>
        <time>2021-10-06T13:32:09Z</time>
      </trkpt>
      <trkpt lat="47.64047" lon="6.17492">
        <ele>217.9</ele>
        <time>2021-10-06T13:32:12Z</time>
      </trkpt>
      <trkpt lat="47.64039" lon="6.17481">
        <ele>218.1</ele>
        <time>2021-10-06T13:32:15Z</time>
      </trkpt>
      <trkpt lat="47.64032" lon="6.17472">
        <ele>218.2</ele>
        <time>2021-10-06T13:32:16Z</time>
      </trkpt>
      <trkpt lat="47.64028" lon="6.17465">
        <ele>218.3</ele>
        <time>2021-10-06T13:32:19Z</time>
      </trkpt>
      <trkpt lat="47.64023" lon="6.17457">
        <ele>218.4</ele>
        <time>2021-10-06T13:32:20Z</time>
      </trkpt>
      <trkpt lat="47.64018" lon="6.17449">
        <ele>218.6</ele>
        <time>2021-10-06T13:32:22Z</time>
      </trkpt>
      <trkpt lat="47.64014" lon="6.17443">
        <ele>218.7</ele>
        <time>2021-10-06T13:32:25Z</time>
      </trkpt>
      <trkpt lat="47.64007" lon="6.17434">
        <ele>218.8</ele>
        <time>2021-10-06T13:32:26Z</time>
      </trkpt>
      <trkpt lat="47.64002" lon="6.17431">
        <ele>219</ele>
        <time>2021-10-06T13:32:28Z</time>
      </trkpt>
      <trkpt lat="47.63996" lon="6.17431">
        <ele>218.9</ele>
        <time>2021-10-06T13:32:30Z</time>
      </trkpt>
      <trkpt lat="47.63993" lon="6.17423">
        <ele>218.8</ele>
        <time>2021-10-06T13:32:32Z</time>
      </trkpt>
      <trkpt lat="47.63995" lon="6.17413">
        <ele>219</ele>
        <time>2021-10-06T13:32:36Z</time>
      </trkpt>
      <trkpt lat="47.64003" lon="6.17406">
        <ele>219.3</ele>
        <time>2021-10-06T13:32:39Z</time>
      </trkpt>
      <trkpt lat="47.64008" lon="6.17403">
        <ele>219.3</ele>
        <time>2021-10-06T13:32:41Z</time>
      </trkpt>
      <trkpt lat="47.64015" lon="6.17397">
        <ele>219.3</ele>
        <time>2021-10-06T13:32:42Z</time>
      </trkpt>
      <trkpt lat="47.6402" lon="6.17394">
        <ele>219.3</ele>
        <time>2021-10-06T13:32:45Z</time>
      </trkpt>
      <trkpt lat="47.64028" lon="6.17389">
        <ele>219.3</ele>
        <time>2021-10-06T13:32:46Z</time>
      </trkpt>
      <trkpt lat="47.64034" lon="6.17385">
        <ele>219.3</ele>
        <time>2021-10-06T13:32:48Z</time>
      </trkpt>
      <trkpt lat="47.6404" lon="6.17381">
        <ele>219.3</ele>
        <time>2021-10-06T13:32:51Z</time>
      </trkpt>
      <trkpt lat="47.6405" lon="6.17373">
        <ele>219.4</ele>
        <time>2021-10-06T13:32:53Z</time>
      </trkpt>
      <trkpt lat="47.64056" lon="6.17368">
        <ele>219.4</ele>
        <time>2021-10-06T13:32:55Z</time>
      </trkpt>
      <trkpt lat="47.64061" lon="6.17364">
        <ele>219.4</ele>
        <time>2021-10-06T13:32:58Z</time>
      </trkpt>
      <trkpt lat="47.64066" lon="6.17358">
        <ele>219.5</ele>
        <time>2021-10-06T13:33:00Z</time>
      </trkpt>
      <trkpt lat="47.64071" lon="6.17353">
        <ele>219.6</ele>
        <time>2021-10-06T13:33:02Z</time>
      </trkpt>
      <trkpt lat="47.64075" lon="6.17348">
        <ele>219.7</ele>
        <time>2021-10-06T13:33:04Z</time>
      </trkpt>
      <trkpt lat="47.64081" lon="6.17341">
        <ele>219.8</ele>
        <time>2021-10-06T13:33:06Z</time>
      </trkpt>
      <trkpt lat="47.64085" lon="6.17336">
        <ele>219.9</ele>
        <time>2021-10-06T13:33:07Z</time>
      </trkpt>
      <trkpt lat="47.64089" lon="6.1733">
        <ele>220.1</ele>
        <time>2021-10-06T13:33:10Z</time>
      </trkpt>
      <trkpt lat="47.64094" lon="6.17323">
        <ele>220.3</ele>
        <time>2021-10-06T13:33:12Z</time>
      </trkpt>
      <trkpt lat="47.64098" lon="6.17317">
        <ele>220.6</ele>
        <time>2021-10-06T13:33:14Z</time>
      </trkpt>
      <trkpt lat="47.64101" lon="6.17312">
        <ele>220.8</ele>
        <time>2021-10-06T13:33:16Z</time>
      </trkpt>
      <trkpt lat="47.64104" lon="6.17306">
        <ele>221</ele>
        <time>2021-10-06T13:33:17Z</time>
      </trkpt>
      <trkpt lat="47.64106" lon="6.173">
        <ele>221.2</ele>
        <time>2021-10-06T13:33:18Z</time>
      </trkpt>
      <trkpt lat="47.64109" lon="6.17295">
        <ele>221.4</ele>
        <time>2021-10-06T13:33:21Z</time>
      </trkpt>
      <trkpt lat="47.64112" lon="6.17289">
        <ele>221.6</ele>
        <time>2021-10-06T13:33:23Z</time>
      </trkpt>
      <trkpt lat="47.64116" lon="6.17282">
        <ele>221.8</ele>
        <time>2021-10-06T13:33:25Z</time>
      </trkpt>
      <trkpt lat="47.6412" lon="6.17276">
        <ele>222</ele>
        <time>2021-10-06T13:33:26Z</time>
      </trkpt>
      <trkpt lat="47.64124" lon="6.17268">
        <ele>222.3</ele>
        <time>2021-10-06T13:33:30Z</time>
      </trkpt>
      <trkpt lat="47.64128" lon="6.17261">
        <ele>222.5</ele>
        <time>2021-10-06T13:33:31Z</time>
      </trkpt>
      <trkpt lat="47.64131" lon="6.17255">
        <ele>222.7</ele>
        <time>2021-10-06T13:33:33Z</time>
      </trkpt>
      <trkpt lat="47.64134" lon="6.17248">
        <ele>222.8</ele>
        <time>2021-10-06T13:33:35Z</time>
      </trkpt>
      <trkpt lat="47.64136" lon="6.17242">
        <ele>222.9</ele>
        <time>2021-10-06T13:33:37Z</time>
      </trkpt>
      <trkpt lat="47.64139" lon="6.17236">
        <ele>223</ele>
        <time>2021-10-06T13:33:39Z</time>
      </trkpt>
      <trkpt lat="47.64142" lon="6.17229">
        <ele>223</ele>
        <time>2021-10-06T13:33:41Z</time>
      </trkpt>
      <trkpt lat="47.64144" lon="6.17222">
        <ele>223.1</ele>
        <time>2021-10-06T13:33:43Z</time>
      </trkpt>
      <trkpt lat="47.64144" lon="6.17214">
        <ele>223.2</ele>
        <time>2021-10-06T13:33:46Z</time>
      </trkpt>
      <trkpt lat="47.64146" lon="6.17207">
        <ele>223.3</ele>
        <time>2021-10-06T13:33:48Z</time>
      </trkpt>
      <trkpt lat="47.64146" lon="6.172">
        <ele>223.4</ele>
        <time>2021-10-06T13:33:50Z</time>
      </trkpt>
      <trkpt lat="47.64147" lon="6.17189">
        <ele>223.5</ele>
        <time>2021-10-06T13:33:51Z</time>
      </trkpt>
      <trkpt lat="47.64149" lon="6.1718">
        <ele>223.6</ele>
        <time>2021-10-06T13:33:53Z</time>
      </trkpt>
      <trkpt lat="47.6415" lon="6.17173">
        <ele>223.7</ele>
        <time>2021-10-06T13:33:55Z</time>
      </trkpt>
      <trkpt lat="47.64151" lon="6.17165">
        <ele>223.9</ele>
        <time>2021-10-06T13:33:58Z</time>
      </trkpt>
      <trkpt lat="47.64153" lon="6.17158">
        <ele>224.3</ele>
        <time>2021-10-06T13:34:00Z</time>
      </trkpt>
      <trkpt lat="47.64155" lon="6.1715">
        <ele>224.9</ele>
        <time>2021-10-06T13:34:03Z</time>
      </trkpt>
      <trkpt lat="47.64157" lon="6.17143">
        <ele>225.4</ele>
        <time>2021-10-06T13:34:06Z</time>
      </trkpt>
      <trkpt lat="47.64158" lon="6.17135">
        <ele>226</ele>
        <time>2021-10-06T13:34:09Z</time>
      </trkpt>
      <trkpt lat="47.6416" lon="6.17128">
        <ele>226.5</ele>
        <time>2021-10-06T13:34:12Z</time>
      </trkpt>
      <trkpt lat="47.64161" lon="6.17119">
        <ele>227.1</ele>
        <time>2021-10-06T13:34:16Z</time>
      </trkpt>
      <trkpt lat="47.64163" lon="6.17113">
        <ele>227.6</ele>
        <time>2021-10-06T13:34:19Z</time>
      </trkpt>
      <trkpt lat="47.64164" lon="6.17106">
        <ele>228.2</ele>
        <time>2021-10-06T13:34:22Z</time>
      </trkpt>
      <trkpt lat="47.64166" lon="6.17098">
        <ele>228.8</ele>
        <time>2021-10-06T13:34:25Z</time>
      </trkpt>
      <trkpt lat="47.64169" lon="6.17092">
        <ele>229.2</ele>
        <time>2021-10-06T13:34:28Z</time>
      </trkpt>
      <trkpt lat="47.64174" lon="6.17087">
        <ele>229.4</ele>
        <time>2021-10-06T13:34:31Z</time>
      </trkpt>
      <trkpt lat="47.64178" lon="6.17085">
        <ele>229.5</ele>
        <time>2021-10-06T13:34:33Z</time>
      </trkpt>
      <trkpt lat="47.64182" lon="6.17081">
        <ele>229.6</ele>
        <time>2021-10-06T13:34:35Z</time>
      </trkpt>
      <trkpt lat="47.64186" lon="6.17078">
        <ele>229.7</ele>
        <time>2021-10-06T13:34:37Z</time>
      </trkpt>
      <trkpt lat="47.64192" lon="6.17072">
        <ele>229.8</ele>
        <time>2021-10-06T13:34:40Z</time>
      </trkpt>
      <trkpt lat="47.64198" lon="6.17068">
        <ele>229.9</ele>
        <time>2021-10-06T13:34:43Z</time>
      </trkpt>
      <trkpt lat="47.64202" lon="6.17064">
        <ele>230</ele>
        <time>2021-10-06T13:34:45Z</time>
      </trkpt>
      <trkpt lat="47.64206" lon="6.17061">
        <ele>230</ele>
        <time>2021-10-06T13:34:47Z</time>
      </trkpt>
      <trkpt lat="47.64212" lon="6.17057">
        <ele>230.1</ele>
        <time>2021-10-06T13:34:51Z</time>
      </trkpt>
      <trkpt lat="47.64216" lon="6.17053">
        <ele>230.2</ele>
        <time>2021-10-06T13:34:52Z</time>
      </trkpt>
      <trkpt lat="47.64222" lon="6.17048">
        <ele>230.3</ele>
        <time>2021-10-06T13:34:55Z</time>
      </trkpt>
      <trkpt lat="47.64226" lon="6.17045">
        <ele>230.3</ele>
        <time>2021-10-06T13:34:57Z</time>
      </trkpt>
      <trkpt lat="47.6423" lon="6.17041">
        <ele>230.3</ele>
        <time>2021-10-06T13:35:01Z</time>
      </trkpt>
      <trkpt lat="47.64236" lon="6.17036">
        <ele>230.4</ele>
        <time>2021-10-06T13:35:04Z</time>
      </trkpt>
      <trkpt lat="47.6424" lon="6.17032">
        <ele>230.5</ele>
        <time>2021-10-06T13:35:07Z</time>
      </trkpt>
      <trkpt lat="47.64244" lon="6.17028">
        <ele>230.6</ele>
        <time>2021-10-06T13:35:09Z</time>
      </trkpt>
      <trkpt lat="47.64249" lon="6.17024">
        <ele>230.6</ele>
        <time>2021-10-06T13:35:11Z</time>
      </trkpt>
      <trkpt lat="47.64253" lon="6.17019">
        <ele>230.6</ele>
        <time>2021-10-06T13:35:15Z</time>
      </trkpt>
      <trkpt lat="47.64257" lon="6.17016">
        <ele>230.6</ele>
        <time>2021-10-06T13:35:17Z</time>
      </trkpt>
      <trkpt lat="47.64262" lon="6.17012">
        <ele>230.5</ele>
        <time>2021-10-06T13:35:18Z</time>
      </trkpt>
      <trkpt lat="47.64267" lon="6.17007">
        <ele>230.4</ele>
        <time>2021-10-06T13:35:22Z</time>
      </trkpt>
      <trkpt lat="47.64272" lon="6.17003">
        <ele>230.3</ele>
        <time>2021-10-06T13:35:25Z</time>
      </trkpt>
      <trkpt lat="47.64276" lon="6.16999">
        <ele>230.2</ele>
        <time>2021-10-06T13:35:27Z</time>
      </trkpt>
      <trkpt lat="47.6428" lon="6.16995">
        <ele>230</ele>
        <time>2021-10-06T13:35:28Z</time>
      </trkpt>
      <trkpt lat="47.64286" lon="6.16989">
        <ele>230</ele>
        <time>2021-10-06T13:35:32Z</time>
      </trkpt>
      <trkpt lat="47.6429" lon="6.16985">
        <ele>229.9</ele>
        <time>2021-10-06T13:35:33Z</time>
      </trkpt>
      <trkpt lat="47.64295" lon="6.1698">
        <ele>229.9</ele>
        <time>2021-10-06T13:35:37Z</time>
      </trkpt>
      <trkpt lat="47.643" lon="6.16976">
        <ele>229.8</ele>
        <time>2021-10-06T13:35:39Z</time>
      </trkpt>
      <trkpt lat="47.64304" lon="6.1697">
        <ele>229.9</ele>
        <time>2021-10-06T13:35:42Z</time>
      </trkpt>
      <trkpt lat="47.64307" lon="6.16962">
        <ele>230.2</ele>
        <time>2021-10-06T13:35:44Z</time>
      </trkpt>
      <trkpt lat="47.64309" lon="6.16955">
        <ele>230.5</ele>
        <time>2021-10-06T13:35:47Z</time>
      </trkpt>
      <trkpt lat="47.6431" lon="6.16947">
        <ele>230.9</ele>
        <time>2021-10-06T13:35:48Z</time>
      </trkpt>
      <trkpt lat="47.64312" lon="6.16938">
        <ele>231.4</ele>
        <time>2021-10-06T13:35:51Z</time>
      </trkpt>
      <trkpt lat="47.64314" lon="6.16928">
        <ele>232</ele>
        <time>2021-10-06T13:35:54Z</time>
      </trkpt>
      <trkpt lat="47.64316" lon="6.16919">
        <ele>232.5</ele>
        <time>2021-10-06T13:35:58Z</time>
      </trkpt>
      <trkpt lat="47.64318" lon="6.16913">
        <ele>232.6</ele>
        <time>2021-10-06T13:36:00Z</time>
      </trkpt>
      <trkpt lat="47.6432" lon="6.16904">
        <ele>232.7</ele>
        <time>2021-10-06T13:36:03Z</time>
      </trkpt>
      <trkpt lat="47.64321" lon="6.16897">
        <ele>232.7</ele>
        <time>2021-10-06T13:36:05Z</time>
      </trkpt>
      <trkpt lat="47.64323" lon="6.16889">
        <ele>232.7</ele>
        <time>2021-10-06T13:36:07Z</time>
      </trkpt>
      <trkpt lat="47.64325" lon="6.16882">
        <ele>232.8</ele>
        <time>2021-10-06T13:36:09Z</time>
      </trkpt>
      <trkpt lat="47.64327" lon="6.16875">
        <ele>232.8</ele>
        <time>2021-10-06T13:36:11Z</time>
      </trkpt>
      <trkpt lat="47.64328" lon="6.16867">
        <ele>232.8</ele>
        <time>2021-10-06T13:36:13Z</time>
      </trkpt>
      <trkpt lat="47.6433" lon="6.1686">
        <ele>232.8</ele>
        <time>2021-10-06T13:36:15Z</time>
      </trkpt>
      <trkpt lat="47.64332" lon="6.16851">
        <ele>232.9</ele>
        <time>2021-10-06T13:36:17Z</time>
      </trkpt>
      <trkpt lat="47.64333" lon="6.16843">
        <ele>232.9</ele>
        <time>2021-10-06T13:36:19Z</time>
      </trkpt>
      <trkpt lat="47.64335" lon="6.16836">
        <ele>232.9</ele>
        <time>2021-10-06T13:36:21Z</time>
      </trkpt>
      <trkpt lat="47.64338" lon="6.16826">
        <ele>232.9</ele>
        <time>2021-10-06T13:36:23Z</time>
      </trkpt>
      <trkpt lat="47.64339" lon="6.16819">
        <ele>233</ele>
        <time>2021-10-06T13:36:24Z</time>
      </trkpt>
      <trkpt lat="47.64342" lon="6.1681">
        <ele>233.1</ele>
        <time>2021-10-06T13:36:25Z</time>
      </trkpt>
      <trkpt lat="47.64344" lon="6.16801">
        <ele>233.2</ele>
        <time>2021-10-06T13:36:27Z</time>
      </trkpt>
      <trkpt lat="47.64347" lon="6.16792">
        <ele>233.4</ele>
        <time>2021-10-06T13:36:29Z</time>
      </trkpt>
      <trkpt lat="47.6435" lon="6.16782">
        <ele>233.5</ele>
        <time>2021-10-06T13:36:31Z</time>
      </trkpt>
      <trkpt lat="47.64348" lon="6.16775">
        <ele>233.8</ele>
        <time>2021-10-06T13:36:58Z</time>
      </trkpt>
      <trkpt lat="47.64344" lon="6.16771">
        <ele>234.1</ele>
        <time>2021-10-06T13:37:00Z</time>
      </trkpt>
      <trkpt lat="47.64339" lon="6.16765">
        <ele>234.4</ele>
        <time>2021-10-06T13:37:04Z</time>
      </trkpt>
      <trkpt lat="47.64329" lon="6.16757">
        <ele>235</ele>
        <time>2021-10-06T13:37:05Z</time>
      </trkpt>
      <trkpt lat="47.64324" lon="6.16753">
        <ele>235.4</ele>
        <time>2021-10-06T13:37:07Z</time>
      </trkpt>
      <trkpt lat="47.6432" lon="6.16749">
        <ele>235.7</ele>
        <time>2021-10-06T13:37:11Z</time>
      </trkpt>
      <trkpt lat="47.64314" lon="6.16744">
        <ele>236</ele>
        <time>2021-10-06T13:37:11Z</time>
      </trkpt>
      <trkpt lat="47.6431" lon="6.16739">
        <ele>236.2</ele>
        <time>2021-10-06T13:37:13Z</time>
      </trkpt>
      <trkpt lat="47.64305" lon="6.16736">
        <ele>236.5</ele>
        <time>2021-10-06T13:37:15Z</time>
      </trkpt>
      <trkpt lat="47.643" lon="6.16733">
        <ele>236.7</ele>
        <time>2021-10-06T13:37:17Z</time>
      </trkpt>
      <trkpt lat="47.64296" lon="6.16728">
        <ele>236.9</ele>
        <time>2021-10-06T13:37:19Z</time>
      </trkpt>
      <trkpt lat="47.64291" lon="6.16723">
        <ele>237.2</ele>
        <time>2021-10-06T13:37:24Z</time>
      </trkpt>
      <trkpt lat="47.64286" lon="6.1672">
        <ele>237.4</ele>
        <time>2021-10-06T13:37:24Z</time>
      </trkpt>
      <trkpt lat="47.6428" lon="6.16716">
        <ele>237.7</ele>
        <time>2021-10-06T13:37:27Z</time>
      </trkpt>
      <trkpt lat="47.64275" lon="6.16711">
        <ele>237.9</ele>
        <time>2021-10-06T13:37:30Z</time>
      </trkpt>
      <trkpt lat="47.6427" lon="6.16708">
        <ele>238.2</ele>
        <time>2021-10-06T13:37:33Z</time>
      </trkpt>
      <trkpt lat="47.64266" lon="6.16704">
        <ele>238.4</ele>
        <time>2021-10-06T13:37:36Z</time>
      </trkpt>
      <trkpt lat="47.64266" lon="6.16696">
        <ele>238.4</ele>
        <time>2021-10-06T13:37:39Z</time>
      </trkpt>
      <trkpt lat="47.64269" lon="6.16689">
        <ele>238.3</ele>
        <time>2021-10-06T13:37:42Z</time>
      </trkpt>
      <trkpt lat="47.6427" lon="6.1668">
        <ele>238.2</ele>
        <time>2021-10-06T13:37:45Z</time>
      </trkpt>
      <trkpt lat="47.64272" lon="6.16671">
        <ele>238.2</ele>
        <time>2021-10-06T13:37:48Z</time>
      </trkpt>
      <trkpt lat="47.64275" lon="6.16662">
        <ele>238.1</ele>
        <time>2021-10-06T13:37:50Z</time>
      </trkpt>
      <trkpt lat="47.64277" lon="6.16656">
        <ele>237.9</ele>
        <time>2021-10-06T13:37:52Z</time>
      </trkpt>
      <trkpt lat="47.64279" lon="6.16651">
        <ele>237.8</ele>
        <time>2021-10-06T13:37:56Z</time>
      </trkpt>
      <trkpt lat="47.64283" lon="6.16642">
        <ele>237.5</ele>
        <time>2021-10-06T13:37:56Z</time>
      </trkpt>
      <trkpt lat="47.64286" lon="6.16632">
        <ele>237.3</ele>
        <time>2021-10-06T13:37:58Z</time>
      </trkpt>
      <trkpt lat="47.64288" lon="6.16622">
        <ele>237.1</ele>
        <time>2021-10-06T13:38:02Z</time>
      </trkpt>
      <trkpt lat="47.64292" lon="6.16607">
        <ele>236.8</ele>
        <time>2021-10-06T13:38:02Z</time>
      </trkpt>
      <trkpt lat="47.64296" lon="6.16594">
        <ele>236.5</ele>
        <time>2021-10-06T13:38:04Z</time>
      </trkpt>
      <trkpt lat="47.64297" lon="6.16587">
        <ele>236.3</ele>
        <time>2021-10-06T13:38:05Z</time>
      </trkpt>
      <trkpt lat="47.643" lon="6.1658">
        <ele>236.2</ele>
        <time>2021-10-06T13:38:06Z</time>
      </trkpt>
      <trkpt lat="47.64302" lon="6.16573">
        <ele>236.1</ele>
        <time>2021-10-06T13:38:07Z</time>
      </trkpt>
      <trkpt lat="47.64305" lon="6.1656">
        <ele>236</ele>
        <time>2021-10-06T13:38:09Z</time>
      </trkpt>
      <trkpt lat="47.64307" lon="6.16553">
        <ele>235.9</ele>
        <time>2021-10-06T13:38:10Z</time>
      </trkpt>
      <trkpt lat="47.64309" lon="6.16547">
        <ele>235.9</ele>
        <time>2021-10-06T13:38:11Z</time>
      </trkpt>
      <trkpt lat="47.6431" lon="6.1654">
        <ele>235.8</ele>
        <time>2021-10-06T13:38:12Z</time>
      </trkpt>
      <trkpt lat="47.64312" lon="6.16534">
        <ele>235.8</ele>
        <time>2021-10-06T13:38:13Z</time>
      </trkpt>
      <trkpt lat="47.64315" lon="6.16525">
        <ele>235.7</ele>
        <time>2021-10-06T13:38:17Z</time>
      </trkpt>
      <trkpt lat="47.64317" lon="6.16518">
        <ele>235.6</ele>
        <time>2021-10-06T13:38:18Z</time>
      </trkpt>
      <trkpt lat="47.64319" lon="6.16511">
        <ele>235.5</ele>
        <time>2021-10-06T13:38:19Z</time>
      </trkpt>
      <trkpt lat="47.64321" lon="6.165">
        <ele>235.4</ele>
        <time>2021-10-06T13:38:21Z</time>
      </trkpt>
      <trkpt lat="47.64324" lon="6.16488">
        <ele>235.4</ele>
        <time>2021-10-06T13:38:21Z</time>
      </trkpt>
      <trkpt lat="47.64326" lon="6.16478">
        <ele>235.3</ele>
        <time>2021-10-06T13:38:23Z</time>
      </trkpt>
      <trkpt lat="47.64329" lon="6.16467">
        <ele>235.2</ele>
        <time>2021-10-06T13:38:25Z</time>
      </trkpt>
      <trkpt lat="47.64331" lon="6.16459">
        <ele>235.1</ele>
        <time>2021-10-06T13:38:27Z</time>
      </trkpt>
      <trkpt lat="47.64333" lon="6.16449">
        <ele>235</ele>
        <time>2021-10-06T13:38:29Z</time>
      </trkpt>
      <trkpt lat="47.64335" lon="6.1644">
        <ele>235</ele>
        <time>2021-10-06T13:38:31Z</time>
      </trkpt>
      <trkpt lat="47.64338" lon="6.16432">
        <ele>234.9</ele>
        <time>2021-10-06T13:38:33Z</time>
      </trkpt>
      <trkpt lat="47.64341" lon="6.16424">
        <ele>234.9</ele>
        <time>2021-10-06T13:38:35Z</time>
      </trkpt>
      <trkpt lat="47.64342" lon="6.16417">
        <ele>234.9</ele>
        <time>2021-10-06T13:38:37Z</time>
      </trkpt>
      <trkpt lat="47.64344" lon="6.16409">
        <ele>235</ele>
        <time>2021-10-06T13:38:39Z</time>
      </trkpt>
      <trkpt lat="47.64342" lon="6.16417">
        <ele>234.9</ele>
        <time>2021-10-06T13:38:59Z</time>
      </trkpt>
      <trkpt lat="47.6434" lon="6.16423">
        <ele>234.9</ele>
        <time>2021-10-06T13:39:01Z</time>
      </trkpt>
      <trkpt lat="47.64337" lon="6.1643">
        <ele>234.9</ele>
        <time>2021-10-06T13:39:03Z</time>
      </trkpt>
      <trkpt lat="47.64334" lon="6.1644">
        <ele>235</ele>
        <time>2021-10-06T13:39:05Z</time>
      </trkpt>
      <trkpt lat="47.64331" lon="6.1645">
        <ele>235.1</ele>
        <time>2021-10-06T13:39:07Z</time>
      </trkpt>
      <trkpt lat="47.64329" lon="6.16461">
        <ele>235.2</ele>
        <time>2021-10-06T13:39:09Z</time>
      </trkpt>
      <trkpt lat="47.64326" lon="6.16471">
        <ele>235.3</ele>
        <time>2021-10-06T13:39:11Z</time>
      </trkpt>
      <trkpt lat="47.64324" lon="6.16481">
        <ele>235.4</ele>
        <time>2021-10-06T13:39:13Z</time>
      </trkpt>
      <trkpt lat="47.6432" lon="6.16493">
        <ele>235.5</ele>
        <time>2021-10-06T13:39:15Z</time>
      </trkpt>
      <trkpt lat="47.64318" lon="6.16502">
        <ele>235.6</ele>
        <time>2021-10-06T13:39:17Z</time>
      </trkpt>
      <trkpt lat="47.64315" lon="6.16513">
        <ele>235.7</ele>
        <time>2021-10-06T13:39:19Z</time>
      </trkpt>
      <trkpt lat="47.64312" lon="6.16523">
        <ele>235.8</ele>
        <time>2021-10-06T13:39:21Z</time>
      </trkpt>
      <trkpt lat="47.64309" lon="6.16532">
        <ele>235.9</ele>
        <time>2021-10-06T13:39:23Z</time>
      </trkpt>
      <trkpt lat="47.64306" lon="6.16541">
        <ele>236</ele>
        <time>2021-10-06T13:39:25Z</time>
      </trkpt>
      <trkpt lat="47.64304" lon="6.16549">
        <ele>236.1</ele>
        <time>2021-10-06T13:39:27Z</time>
      </trkpt>
      <trkpt lat="47.64301" lon="6.16558">
        <ele>236.2</ele>
        <time>2021-10-06T13:39:29Z</time>
      </trkpt>
      <trkpt lat="47.64298" lon="6.16567">
        <ele>236.3</ele>
        <time>2021-10-06T13:39:31Z</time>
      </trkpt>
      <trkpt lat="47.64297" lon="6.16575">
        <ele>236.3</ele>
        <time>2021-10-06T13:39:33Z</time>
      </trkpt>
      <trkpt lat="47.64301" lon="6.16574">
        <ele>236.2</ele>
        <time>2021-10-06T13:39:36Z</time>
      </trkpt>
      <trkpt lat="47.64304" lon="6.16565">
        <ele>236</ele>
        <time>2021-10-06T13:39:38Z</time>
      </trkpt>
      <trkpt lat="47.64308" lon="6.16554">
        <ele>235.9</ele>
        <time>2021-10-06T13:39:40Z</time>
      </trkpt>
      <trkpt lat="47.64312" lon="6.16545">
        <ele>235.8</ele>
        <time>2021-10-06T13:39:42Z</time>
      </trkpt>
      <trkpt lat="47.64316" lon="6.16535">
        <ele>235.6</ele>
        <time>2021-10-06T13:39:44Z</time>
      </trkpt>
      <trkpt lat="47.6432" lon="6.16525">
        <ele>235.5</ele>
        <time>2021-10-06T13:39:46Z</time>
      </trkpt>
      <trkpt lat="47.64322" lon="6.16515">
        <ele>235.4</ele>
        <time>2021-10-06T13:39:48Z</time>
      </trkpt>
      <trkpt lat="47.64325" lon="6.16505">
        <ele>235.3</ele>
        <time>2021-10-06T13:39:50Z</time>
      </trkpt>
      <trkpt lat="47.64328" lon="6.16495">
        <ele>235.2</ele>
        <time>2021-10-06T13:39:52Z</time>
      </trkpt>
      <trkpt lat="47.64331" lon="6.16485">
        <ele>235.1</ele>
        <time>2021-10-06T13:39:54Z</time>
      </trkpt>
      <trkpt lat="47.64333" lon="6.16474">
        <ele>235</ele>
        <time>2021-10-06T13:39:56Z</time>
      </trkpt>
      <trkpt lat="47.64336" lon="6.16465">
        <ele>234.9</ele>
        <time>2021-10-06T13:39:58Z</time>
      </trkpt>
      <trkpt lat="47.64338" lon="6.16455">
        <ele>234.9</ele>
        <time>2021-10-06T13:40:00Z</time>
      </trkpt>
      <trkpt lat="47.64341" lon="6.16445">
        <ele>234.8</ele>
        <time>2021-10-06T13:40:02Z</time>
      </trkpt>
      <trkpt lat="47.64343" lon="6.16437">
        <ele>234.8</ele>
        <time>2021-10-06T13:40:04Z</time>
      </trkpt>
      <trkpt lat="47.64345" lon="6.16428">
        <ele>234.8</ele>
        <time>2021-10-06T13:40:06Z</time>
      </trkpt>
      <trkpt lat="47.64347" lon="6.16419">
        <ele>234.8</ele>
        <time>2021-10-06T13:40:08Z</time>
      </trkpt>
      <trkpt lat="47.6435" lon="6.16409">
        <ele>234.9</ele>
        <time>2021-10-06T13:40:10Z</time>
      </trkpt>
      <trkpt lat="47.64352" lon="6.16401">
        <ele>234.9</ele>
        <time>2021-10-06T13:40:12Z</time>
      </trkpt>
      <trkpt lat="47.64356" lon="6.16394">
        <ele>234.9</ele>
        <time>2021-10-06T13:40:14Z</time>
      </trkpt>
      <trkpt lat="47.6436" lon="6.16391">
        <ele>234.9</ele>
        <time>2021-10-06T13:40:16Z</time>
      </trkpt>
      <trkpt lat="47.64365" lon="6.16384">
        <ele>234.9</ele>
        <time>2021-10-06T13:40:19Z</time>
      </trkpt>
      <trkpt lat="47.6437" lon="6.16379">
        <ele>234.8</ele>
        <time>2021-10-06T13:40:21Z</time>
      </trkpt>
      <trkpt lat="47.64375" lon="6.16374">
        <ele>234.8</ele>
        <time>2021-10-06T13:40:23Z</time>
      </trkpt>
      <trkpt lat="47.64379" lon="6.1637">
        <ele>234.7</ele>
        <time>2021-10-06T13:40:27Z</time>
      </trkpt>
      <trkpt lat="47.64384" lon="6.16368">
        <ele>234.6</ele>
        <time>2021-10-06T13:40:28Z</time>
      </trkpt>
      <trkpt lat="47.64389" lon="6.16368">
        <ele>234.5</ele>
        <time>2021-10-06T13:40:28Z</time>
      </trkpt>
      <trkpt lat="47.64395" lon="6.16369">
        <ele>234.4</ele>
        <time>2021-10-06T13:40:33Z</time>
      </trkpt>
      <trkpt lat="47.644" lon="6.16364">
        <ele>234.3</ele>
        <time>2021-10-06T13:40:36Z</time>
      </trkpt>
      <trkpt lat="47.64402" lon="6.16356">
        <ele>234.3</ele>
        <time>2021-10-06T13:40:36Z</time>
      </trkpt>
      <trkpt lat="47.64405" lon="6.16352">
        <ele>234.2</ele>
        <time>2021-10-06T13:40:38Z</time>
      </trkpt>
      <trkpt lat="47.6441" lon="6.16352">
        <ele>234.1</ele>
        <time>2021-10-06T13:40:43Z</time>
      </trkpt>
      <trkpt lat="47.64415" lon="6.1635">
        <ele>234</ele>
        <time>2021-10-06T13:40:45Z</time>
      </trkpt>
      <trkpt lat="47.64421" lon="6.16348">
        <ele>234</ele>
        <time>2021-10-06T13:40:48Z</time>
      </trkpt>
      <trkpt lat="47.64426" lon="6.16345">
        <ele>234.1</ele>
        <time>2021-10-06T13:40:50Z</time>
      </trkpt>
      <trkpt lat="47.64432" lon="6.16347">
        <ele>234.1</ele>
        <time>2021-10-06T13:40:50Z</time>
      </trkpt>
      <trkpt lat="47.64436" lon="6.1635">
        <ele>234.1</ele>
        <time>2021-10-06T13:40:54Z</time>
      </trkpt>
      <trkpt lat="47.64441" lon="6.16353">
        <ele>234.2</ele>
        <time>2021-10-06T13:40:56Z</time>
      </trkpt>
      <trkpt lat="47.64448" lon="6.16356">
        <ele>234.2</ele>
        <time>2021-10-06T13:40:56Z</time>
      </trkpt>
      <trkpt lat="47.64454" lon="6.16357">
        <ele>234.2</ele>
        <time>2021-10-06T13:41:00Z</time>
      </trkpt>
      <trkpt lat="47.64465" lon="6.1636">
        <ele>234.2</ele>
        <time>2021-10-06T13:41:03Z</time>
      </trkpt>
      <trkpt lat="47.64471" lon="6.16361">
        <ele>234.2</ele>
        <time>2021-10-06T13:41:04Z</time>
      </trkpt>
      <trkpt lat="47.64477" lon="6.16363">
        <ele>234.2</ele>
        <time>2021-10-06T13:41:06Z</time>
      </trkpt>
      <trkpt lat="47.64483" lon="6.16364">
        <ele>234.2</ele>
        <time>2021-10-06T13:41:08Z</time>
      </trkpt>
      <trkpt lat="47.64491" lon="6.16365">
        <ele>234.2</ele>
        <time>2021-10-06T13:41:08Z</time>
      </trkpt>
      <trkpt lat="47.64497" lon="6.16366">
        <ele>234.2</ele>
        <time>2021-10-06T13:41:10Z</time>
      </trkpt>
      <trkpt lat="47.64503" lon="6.16367">
        <ele>234.2</ele>
        <time>2021-10-06T13:41:12Z</time>
      </trkpt>
      <trkpt lat="47.6451" lon="6.16368">
        <ele>234.1</ele>
        <time>2021-10-06T13:41:14Z</time>
      </trkpt>
      <trkpt lat="47.64517" lon="6.1637">
        <ele>234.1</ele>
        <time>2021-10-06T13:41:16Z</time>
      </trkpt>
      <trkpt lat="47.64523" lon="6.16371">
        <ele>234.1</ele>
        <time>2021-10-06T13:41:20Z</time>
      </trkpt>
      <trkpt lat="47.64529" lon="6.16372">
        <ele>234</ele>
        <time>2021-10-06T13:41:22Z</time>
      </trkpt>
      <trkpt lat="47.64535" lon="6.16373">
        <ele>234</ele>
        <time>2021-10-06T13:41:24Z</time>
      </trkpt>
      <trkpt lat="47.6454" lon="6.16374">
        <ele>234</ele>
        <time>2021-10-06T13:41:25Z</time>
      </trkpt>
      <trkpt lat="47.64547" lon="6.16375">
        <ele>234</ele>
        <time>2021-10-06T13:41:25Z</time>
      </trkpt>
      <trkpt lat="47.64555" lon="6.16376">
        <ele>234</ele>
        <time>2021-10-06T13:41:27Z</time>
      </trkpt>
      <trkpt lat="47.64562" lon="6.16376">
        <ele>234</ele>
        <time>2021-10-06T13:41:29Z</time>
      </trkpt>
      <trkpt lat="47.64566" lon="6.16377">
        <ele>234</ele>
        <time>2021-10-06T13:41:33Z</time>
      </trkpt>
      <trkpt lat="47.64574" lon="6.1638">
        <ele>234</ele>
        <time>2021-10-06T13:41:35Z</time>
      </trkpt>
      <trkpt lat="47.64581" lon="6.16381">
        <ele>234</ele>
        <time>2021-10-06T13:41:37Z</time>
      </trkpt>
      <trkpt lat="47.6459" lon="6.16382">
        <ele>234.1</ele>
        <time>2021-10-06T13:41:40Z</time>
      </trkpt>
      <trkpt lat="47.64596" lon="6.16383">
        <ele>234.2</ele>
        <time>2021-10-06T13:41:41Z</time>
      </trkpt>
      <trkpt lat="47.64603" lon="6.16384">
        <ele>234.3</ele>
        <time>2021-10-06T13:41:43Z</time>
      </trkpt>
      <trkpt lat="47.64609" lon="6.16385">
        <ele>234.4</ele>
        <time>2021-10-06T13:41:43Z</time>
      </trkpt>
      <trkpt lat="47.64614" lon="6.16386">
        <ele>234.5</ele>
        <time>2021-10-06T13:41:47Z</time>
      </trkpt>
      <trkpt lat="47.64624" lon="6.16387">
        <ele>234.6</ele>
        <time>2021-10-06T13:41:50Z</time>
      </trkpt>
      <trkpt lat="47.64635" lon="6.16389">
        <ele>234.8</ele>
        <time>2021-10-06T13:41:51Z</time>
      </trkpt>
      <trkpt lat="47.64641" lon="6.16391">
        <ele>235</ele>
        <time>2021-10-06T13:41:53Z</time>
      </trkpt>
      <trkpt lat="47.64648" lon="6.16392">
        <ele>235.1</ele>
        <time>2021-10-06T13:41:55Z</time>
      </trkpt>
      <trkpt lat="47.64653" lon="6.16393">
        <ele>235.2</ele>
        <time>2021-10-06T13:41:59Z</time>
      </trkpt>
      <trkpt lat="47.64659" lon="6.16394">
        <ele>235.3</ele>
        <time>2021-10-06T13:41:59Z</time>
      </trkpt>
      <trkpt lat="47.64665" lon="6.16395">
        <ele>235.5</ele>
        <time>2021-10-06T13:42:01Z</time>
      </trkpt>
      <trkpt lat="47.6467" lon="6.16396">
        <ele>235.7</ele>
        <time>2021-10-06T13:42:03Z</time>
      </trkpt>
      <trkpt lat="47.64676" lon="6.16397">
        <ele>235.9</ele>
        <time>2021-10-06T13:42:05Z</time>
      </trkpt>
      <trkpt lat="47.64681" lon="6.16397">
        <ele>236.2</ele>
        <time>2021-10-06T13:42:07Z</time>
      </trkpt>
      <trkpt lat="47.64687" lon="6.16398">
        <ele>236.4</ele>
        <time>2021-10-06T13:42:09Z</time>
      </trkpt>
      <trkpt lat="47.64693" lon="6.164">
        <ele>236.6</ele>
        <time>2021-10-06T13:42:11Z</time>
      </trkpt>
      <trkpt lat="47.64698" lon="6.16401">
        <ele>236.9</ele>
        <time>2021-10-06T13:42:13Z</time>
      </trkpt>
      <trkpt lat="47.64704" lon="6.16402">
        <ele>237.1</ele>
        <time>2021-10-06T13:42:15Z</time>
      </trkpt>
      <trkpt lat="47.64709" lon="6.16404">
        <ele>237.4</ele>
        <time>2021-10-06T13:42:17Z</time>
      </trkpt>
      <trkpt lat="47.64715" lon="6.16405">
        <ele>237.6</ele>
        <time>2021-10-06T13:42:19Z</time>
      </trkpt>
      <trkpt lat="47.64722" lon="6.16406">
        <ele>237.9</ele>
        <time>2021-10-06T13:42:21Z</time>
      </trkpt>
      <trkpt lat="47.64728" lon="6.16407">
        <ele>238.2</ele>
        <time>2021-10-06T13:42:23Z</time>
      </trkpt>
      <trkpt lat="47.64735" lon="6.16409">
        <ele>238.4</ele>
        <time>2021-10-06T13:42:25Z</time>
      </trkpt>
      <trkpt lat="47.64741" lon="6.1641">
        <ele>238.7</ele>
        <time>2021-10-06T13:42:27Z</time>
      </trkpt>
      <trkpt lat="47.64747" lon="6.16411">
        <ele>238.9</ele>
        <time>2021-10-06T13:42:29Z</time>
      </trkpt>
      <trkpt lat="47.64753" lon="6.16412">
        <ele>239.1</ele>
        <time>2021-10-06T13:42:31Z</time>
      </trkpt>
      <trkpt lat="47.64758" lon="6.16413">
        <ele>239.2</ele>
        <time>2021-10-06T13:42:32Z</time>
      </trkpt>
      <trkpt lat="47.64764" lon="6.16415">
        <ele>239.3</ele>
        <time>2021-10-06T13:42:35Z</time>
      </trkpt>
      <trkpt lat="47.64769" lon="6.16416">
        <ele>239.5</ele>
        <time>2021-10-06T13:42:37Z</time>
      </trkpt>
      <trkpt lat="47.64775" lon="6.16417">
        <ele>239.6</ele>
        <time>2021-10-06T13:42:39Z</time>
      </trkpt>
      <trkpt lat="47.6478" lon="6.16418">
        <ele>239.7</ele>
        <time>2021-10-06T13:42:41Z</time>
      </trkpt>
      <trkpt lat="47.64786" lon="6.16419">
        <ele>239.8</ele>
        <time>2021-10-06T13:42:43Z</time>
      </trkpt>
      <trkpt lat="47.64792" lon="6.1642">
        <ele>239.9</ele>
        <time>2021-10-06T13:42:45Z</time>
      </trkpt>
      <trkpt lat="47.64798" lon="6.16422">
        <ele>239.9</ele>
        <time>2021-10-06T13:42:47Z</time>
      </trkpt>
      <trkpt lat="47.64803" lon="6.16422">
        <ele>240</ele>
        <time>2021-10-06T13:42:49Z</time>
      </trkpt>
      <trkpt lat="47.64809" lon="6.16423">
        <ele>240.1</ele>
        <time>2021-10-06T13:42:51Z</time>
      </trkpt>
      <trkpt lat="47.64815" lon="6.16424">
        <ele>240.2</ele>
        <time>2021-10-06T13:42:53Z</time>
      </trkpt>
      <trkpt lat="47.6482" lon="6.16426">
        <ele>240.3</ele>
        <time>2021-10-06T13:42:55Z</time>
      </trkpt>
      <trkpt lat="47.64826" lon="6.16427">
        <ele>240.4</ele>
        <time>2021-10-06T13:42:57Z</time>
      </trkpt>
      <trkpt lat="47.64831" lon="6.16427">
        <ele>240.4</ele>
        <time>2021-10-06T13:43:01Z</time>
      </trkpt>
      <trkpt lat="47.64838" lon="6.16428">
        <ele>240.3</ele>
        <time>2021-10-06T13:43:01Z</time>
      </trkpt>
      <trkpt lat="47.64844" lon="6.16429">
        <ele>240.1</ele>
        <time>2021-10-06T13:43:05Z</time>
      </trkpt>
      <trkpt lat="47.6485" lon="6.1643">
        <ele>239.9</ele>
        <time>2021-10-06T13:43:07Z</time>
      </trkpt>
      <trkpt lat="47.64858" lon="6.16431">
        <ele>239.7</ele>
        <time>2021-10-06T13:43:07Z</time>
      </trkpt>
      <trkpt lat="47.64865" lon="6.16432">
        <ele>239.4</ele>
        <time>2021-10-06T13:43:09Z</time>
      </trkpt>
      <trkpt lat="47.64873" lon="6.16434">
        <ele>239.1</ele>
        <time>2021-10-06T13:43:11Z</time>
      </trkpt>
      <trkpt lat="47.64881" lon="6.16435">
        <ele>238.9</ele>
        <time>2021-10-06T13:43:13Z</time>
      </trkpt>
      <trkpt lat="47.64889" lon="6.16436">
        <ele>238.6</ele>
        <time>2021-10-06T13:43:15Z</time>
      </trkpt>
      <trkpt lat="47.64899" lon="6.16438">
        <ele>238.2</ele>
        <time>2021-10-06T13:43:17Z</time>
      </trkpt>
      <trkpt lat="47.64903" lon="6.16439">
        <ele>238</ele>
        <time>2021-10-06T13:43:18Z</time>
      </trkpt>
      <trkpt lat="47.64908" lon="6.16439">
        <ele>237.9</ele>
        <time>2021-10-06T13:43:19Z</time>
      </trkpt>
      <trkpt lat="47.64913" lon="6.1644">
        <ele>237.7</ele>
        <time>2021-10-06T13:43:20Z</time>
      </trkpt>
      <trkpt lat="47.64923" lon="6.16442">
        <ele>237.4</ele>
        <time>2021-10-06T13:43:24Z</time>
      </trkpt>
      <trkpt lat="47.64933" lon="6.16444">
        <ele>237.2</ele>
        <time>2021-10-06T13:43:24Z</time>
      </trkpt>
      <trkpt lat="47.64946" lon="6.16447">
        <ele>236.9</ele>
        <time>2021-10-06T13:43:26Z</time>
      </trkpt>
      <trkpt lat="47.64951" lon="6.16447">
        <ele>236.8</ele>
        <time>2021-10-06T13:43:27Z</time>
      </trkpt>
      <trkpt lat="47.64956" lon="6.16448">
        <ele>236.7</ele>
        <time>2021-10-06T13:43:28Z</time>
      </trkpt>
      <trkpt lat="47.64961" lon="6.16449">
        <ele>236.6</ele>
        <time>2021-10-06T13:43:29Z</time>
      </trkpt>
      <trkpt lat="47.64966" lon="6.1645">
        <ele>236.5</ele>
        <time>2021-10-06T13:43:30Z</time>
      </trkpt>
      <trkpt lat="47.64971" lon="6.16451">
        <ele>236.5</ele>
        <time>2021-10-06T13:43:31Z</time>
      </trkpt>
      <trkpt lat="47.64975" lon="6.16452">
        <ele>236.4</ele>
        <time>2021-10-06T13:43:32Z</time>
      </trkpt>
      <trkpt lat="47.64984" lon="6.16453">
        <ele>236.3</ele>
        <time>2021-10-06T13:43:34Z</time>
      </trkpt>
      <trkpt lat="47.64993" lon="6.16454">
        <ele>236.2</ele>
        <time>2021-10-06T13:43:36Z</time>
      </trkpt>
      <trkpt lat="47.65001" lon="6.16455">
        <ele>236</ele>
        <time>2021-10-06T13:43:38Z</time>
      </trkpt>
      <trkpt lat="47.65009" lon="6.16457">
        <ele>235.8</ele>
        <time>2021-10-06T13:43:40Z</time>
      </trkpt>
      <trkpt lat="47.65017" lon="6.16458">
        <ele>235.5</ele>
        <time>2021-10-06T13:43:42Z</time>
      </trkpt>
      <trkpt lat="47.65025" lon="6.1646">
        <ele>235.3</ele>
        <time>2021-10-06T13:43:44Z</time>
      </trkpt>
      <trkpt lat="47.65029" lon="6.1646">
        <ele>235.1</ele>
        <time>2021-10-06T13:43:45Z</time>
      </trkpt>
      <trkpt lat="47.65037" lon="6.16464">
        <ele>234.9</ele>
        <time>2021-10-06T13:43:47Z</time>
      </trkpt>
      <trkpt lat="47.65045" lon="6.16464">
        <ele>234.7</ele>
        <time>2021-10-06T13:43:51Z</time>
      </trkpt>
      <trkpt lat="47.65049" lon="6.16464">
        <ele>234.6</ele>
        <time>2021-10-06T13:43:52Z</time>
      </trkpt>
      <trkpt lat="47.65064" lon="6.16466">
        <ele>234.3</ele>
        <time>2021-10-06T13:43:52Z</time>
      </trkpt>
      <trkpt lat="47.65069" lon="6.16467">
        <ele>234.2</ele>
        <time>2021-10-06T13:43:53Z</time>
      </trkpt>
      <trkpt lat="47.65075" lon="6.16468">
        <ele>234</ele>
        <time>2021-10-06T13:43:54Z</time>
      </trkpt>
      <trkpt lat="47.65081" lon="6.1647">
        <ele>233.9</ele>
        <time>2021-10-06T13:43:55Z</time>
      </trkpt>
      <trkpt lat="47.65088" lon="6.16471">
        <ele>233.8</ele>
        <time>2021-10-06T13:43:56Z</time>
      </trkpt>
      <trkpt lat="47.65094" lon="6.16472">
        <ele>233.8</ele>
        <time>2021-10-06T13:43:57Z</time>
      </trkpt>
      <trkpt lat="47.65101" lon="6.16473">
        <ele>233.7</ele>
        <time>2021-10-06T13:43:58Z</time>
      </trkpt>
      <trkpt lat="47.65109" lon="6.16474">
        <ele>233.6</ele>
        <time>2021-10-06T13:43:59Z</time>
      </trkpt>
      <trkpt lat="47.65117" lon="6.16476">
        <ele>233.5</ele>
        <time>2021-10-06T13:44:00Z</time>
      </trkpt>
      <trkpt lat="47.65124" lon="6.16477">
        <ele>233.4</ele>
        <time>2021-10-06T13:44:01Z</time>
      </trkpt>
      <trkpt lat="47.65132" lon="6.16479">
        <ele>233.3</ele>
        <time>2021-10-06T13:44:02Z</time>
      </trkpt>
      <trkpt lat="47.65139" lon="6.1648">
        <ele>233.3</ele>
        <time>2021-10-06T13:44:03Z</time>
      </trkpt>
      <trkpt lat="47.65147" lon="6.16481">
        <ele>233.2</ele>
        <time>2021-10-06T13:44:04Z</time>
      </trkpt>
      <trkpt lat="47.65155" lon="6.16483">
        <ele>233.2</ele>
        <time>2021-10-06T13:44:05Z</time>
      </trkpt>
      <trkpt lat="47.65162" lon="6.16484">
        <ele>233.1</ele>
        <time>2021-10-06T13:44:06Z</time>
      </trkpt>
      <trkpt lat="47.6517" lon="6.16485">
        <ele>233</ele>
        <time>2021-10-06T13:44:07Z</time>
      </trkpt>
      <trkpt lat="47.65178" lon="6.16486">
        <ele>232.8</ele>
        <time>2021-10-06T13:44:08Z</time>
      </trkpt>
      <trkpt lat="47.65186" lon="6.16488">
        <ele>232.6</ele>
        <time>2021-10-06T13:44:09Z</time>
      </trkpt>
      <trkpt lat="47.65194" lon="6.16489">
        <ele>232.4</ele>
        <time>2021-10-06T13:44:10Z</time>
      </trkpt>
      <trkpt lat="47.65203" lon="6.1649">
        <ele>232.2</ele>
        <time>2021-10-06T13:44:11Z</time>
      </trkpt>
      <trkpt lat="47.65211" lon="6.16492">
        <ele>232</ele>
        <time>2021-10-06T13:44:12Z</time>
      </trkpt>
      <trkpt lat="47.65219" lon="6.16494">
        <ele>231.8</ele>
        <time>2021-10-06T13:44:13Z</time>
      </trkpt>
      <trkpt lat="47.65228" lon="6.16495">
        <ele>231.6</ele>
        <time>2021-10-06T13:44:14Z</time>
      </trkpt>
      <trkpt lat="47.65236" lon="6.16496">
        <ele>231.4</ele>
        <time>2021-10-06T13:44:15Z</time>
      </trkpt>
      <trkpt lat="47.65244" lon="6.16498">
        <ele>231.1</ele>
        <time>2021-10-06T13:44:16Z</time>
      </trkpt>
      <trkpt lat="47.65252" lon="6.16499">
        <ele>230.9</ele>
        <time>2021-10-06T13:44:17Z</time>
      </trkpt>
      <trkpt lat="47.65259" lon="6.16501">
        <ele>230.8</ele>
        <time>2021-10-06T13:44:18Z</time>
      </trkpt>
      <trkpt lat="47.65266" lon="6.16502">
        <ele>230.7</ele>
        <time>2021-10-06T13:44:19Z</time>
      </trkpt>
      <trkpt lat="47.65273" lon="6.16503">
        <ele>230.6</ele>
        <time>2021-10-06T13:44:20Z</time>
      </trkpt>
      <trkpt lat="47.6528" lon="6.16506">
        <ele>230.6</ele>
        <time>2021-10-06T13:44:21Z</time>
      </trkpt>
      <trkpt lat="47.65287" lon="6.16508">
        <ele>230.5</ele>
        <time>2021-10-06T13:44:22Z</time>
      </trkpt>
      <trkpt lat="47.65293" lon="6.16509">
        <ele>230.5</ele>
        <time>2021-10-06T13:44:23Z</time>
      </trkpt>
      <trkpt lat="47.65299" lon="6.1651">
        <ele>230.3</ele>
        <time>2021-10-06T13:44:24Z</time>
      </trkpt>
      <trkpt lat="47.65305" lon="6.16511">
        <ele>230.2</ele>
        <time>2021-10-06T13:44:25Z</time>
      </trkpt>
      <trkpt lat="47.65311" lon="6.16512">
        <ele>230.1</ele>
        <time>2021-10-06T13:44:26Z</time>
      </trkpt>
      <trkpt lat="47.65316" lon="6.16513">
        <ele>230</ele>
        <time>2021-10-06T13:44:27Z</time>
      </trkpt>
      <trkpt lat="47.65321" lon="6.16513">
        <ele>230</ele>
        <time>2021-10-06T13:44:28Z</time>
      </trkpt>
      <trkpt lat="47.65326" lon="6.16514">
        <ele>229.9</ele>
        <time>2021-10-06T13:44:29Z</time>
      </trkpt>
      <trkpt lat="47.6533" lon="6.16515">
        <ele>229.8</ele>
        <time>2021-10-06T13:44:30Z</time>
      </trkpt>
      <trkpt lat="47.65335" lon="6.16516">
        <ele>229.8</ele>
        <time>2021-10-06T13:44:31Z</time>
      </trkpt>
      <trkpt lat="47.6534" lon="6.16517">
        <ele>229.8</ele>
        <time>2021-10-06T13:44:32Z</time>
      </trkpt>
      <trkpt lat="47.65344" lon="6.16518">
        <ele>229.8</ele>
        <time>2021-10-06T13:44:33Z</time>
      </trkpt>
      <trkpt lat="47.65349" lon="6.16519">
        <ele>229.8</ele>
        <time>2021-10-06T13:44:34Z</time>
      </trkpt>
      <trkpt lat="47.65354" lon="6.1652">
        <ele>229.9</ele>
        <time>2021-10-06T13:44:35Z</time>
      </trkpt>
      <trkpt lat="47.65359" lon="6.1652">
        <ele>229.9</ele>
        <time>2021-10-06T13:44:36Z</time>
      </trkpt>
      <trkpt lat="47.65363" lon="6.16521">
        <ele>229.9</ele>
        <time>2021-10-06T13:44:37Z</time>
      </trkpt>
      <trkpt lat="47.65368" lon="6.16522">
        <ele>230</ele>
        <time>2021-10-06T13:44:38Z</time>
      </trkpt>
      <trkpt lat="47.65373" lon="6.16523">
        <ele>230</ele>
        <time>2021-10-06T13:44:39Z</time>
      </trkpt>
      <trkpt lat="47.65378" lon="6.16524">
        <ele>230.1</ele>
        <time>2021-10-06T13:44:40Z</time>
      </trkpt>
      <trkpt lat="47.65383" lon="6.16525">
        <ele>230.1</ele>
        <time>2021-10-06T13:44:41Z</time>
      </trkpt>
      <trkpt lat="47.65387" lon="6.16526">
        <ele>230.2</ele>
        <time>2021-10-06T13:44:42Z</time>
      </trkpt>
      <trkpt lat="47.65392" lon="6.16527">
        <ele>230.3</ele>
        <time>2021-10-06T13:44:43Z</time>
      </trkpt>
      <trkpt lat="47.65397" lon="6.16528">
        <ele>230.3</ele>
        <time>2021-10-06T13:44:44Z</time>
      </trkpt>
      <trkpt lat="47.65402" lon="6.16529">
        <ele>230.4</ele>
        <time>2021-10-06T13:44:45Z</time>
      </trkpt>
      <trkpt lat="47.65407" lon="6.1653">
        <ele>230.5</ele>
        <time>2021-10-06T13:44:46Z</time>
      </trkpt>
      <trkpt lat="47.65412" lon="6.16531">
        <ele>230.6</ele>
        <time>2021-10-06T13:44:47Z</time>
      </trkpt>
      <trkpt lat="47.65417" lon="6.16532">
        <ele>230.7</ele>
        <time>2021-10-06T13:44:48Z</time>
      </trkpt>
      <trkpt lat="47.65422" lon="6.16533">
        <ele>230.9</ele>
        <time>2021-10-06T13:44:49Z</time>
      </trkpt>
      <trkpt lat="47.65426" lon="6.16534">
        <ele>231</ele>
        <time>2021-10-06T13:44:50Z</time>
      </trkpt>
      <trkpt lat="47.65431" lon="6.16534">
        <ele>231.2</ele>
        <time>2021-10-06T13:44:51Z</time>
      </trkpt>
      <trkpt lat="47.65436" lon="6.16535">
        <ele>231.4</ele>
        <time>2021-10-06T13:44:52Z</time>
      </trkpt>
      <trkpt lat="47.6544" lon="6.16536">
        <ele>231.5</ele>
        <time>2021-10-06T13:44:53Z</time>
      </trkpt>
      <trkpt lat="47.65445" lon="6.16537">
        <ele>231.7</ele>
        <time>2021-10-06T13:44:54Z</time>
      </trkpt>
      <trkpt lat="47.6545" lon="6.16538">
        <ele>231.8</ele>
        <time>2021-10-06T13:44:55Z</time>
      </trkpt>
      <trkpt lat="47.65455" lon="6.16538">
        <ele>232</ele>
        <time>2021-10-06T13:44:56Z</time>
      </trkpt>
      <trkpt lat="47.6546" lon="6.16538">
        <ele>232.1</ele>
        <time>2021-10-06T13:44:57Z</time>
      </trkpt>
      <trkpt lat="47.65465" lon="6.16538">
        <ele>232.2</ele>
        <time>2021-10-06T13:44:58Z</time>
      </trkpt>
      <trkpt lat="47.65469" lon="6.16538">
        <ele>232.3</ele>
        <time>2021-10-06T13:44:59Z</time>
      </trkpt>
      <trkpt lat="47.65474" lon="6.16539">
        <ele>232.3</ele>
        <time>2021-10-06T13:45:00Z</time>
      </trkpt>
      <trkpt lat="47.65479" lon="6.16539">
        <ele>232.5</ele>
        <time>2021-10-06T13:45:01Z</time>
      </trkpt>
      <trkpt lat="47.65484" lon="6.1654">
        <ele>232.6</ele>
        <time>2021-10-06T13:45:02Z</time>
      </trkpt>
      <trkpt lat="47.65488" lon="6.16541">
        <ele>232.8</ele>
        <time>2021-10-06T13:45:03Z</time>
      </trkpt>
      <trkpt lat="47.65493" lon="6.16542">
        <ele>232.9</ele>
        <time>2021-10-06T13:45:04Z</time>
      </trkpt>
      <trkpt lat="47.65498" lon="6.16543">
        <ele>233</ele>
        <time>2021-10-06T13:45:05Z</time>
      </trkpt>
      <trkpt lat="47.65502" lon="6.16544">
        <ele>233.2</ele>
        <time>2021-10-06T13:45:06Z</time>
      </trkpt>
      <trkpt lat="47.65507" lon="6.16545">
        <ele>233.5</ele>
        <time>2021-10-06T13:45:07Z</time>
      </trkpt>
      <trkpt lat="47.65511" lon="6.16546">
        <ele>233.7</ele>
        <time>2021-10-06T13:45:08Z</time>
      </trkpt>
      <trkpt lat="47.65516" lon="6.16547">
        <ele>233.9</ele>
        <time>2021-10-06T13:45:09Z</time>
      </trkpt>
      <trkpt lat="47.65521" lon="6.16547">
        <ele>234.2</ele>
        <time>2021-10-06T13:45:10Z</time>
      </trkpt>
      <trkpt lat="47.65526" lon="6.16548">
        <ele>234.4</ele>
        <time>2021-10-06T13:45:11Z</time>
      </trkpt>
      <trkpt lat="47.6553" lon="6.16548">
        <ele>234.6</ele>
        <time>2021-10-06T13:45:12Z</time>
      </trkpt>
      <trkpt lat="47.65535" lon="6.16546">
        <ele>234.8</ele>
        <time>2021-10-06T13:45:13Z</time>
      </trkpt>
      <trkpt lat="47.6554" lon="6.16542">
        <ele>234.9</ele>
        <time>2021-10-06T13:45:14Z</time>
      </trkpt>
      <trkpt lat="47.65544" lon="6.16537">
        <ele>235</ele>
        <time>2021-10-06T13:45:15Z</time>
      </trkpt>
      <trkpt lat="47.65548" lon="6.1653">
        <ele>235.2</ele>
        <time>2021-10-06T13:45:16Z</time>
      </trkpt>
      <trkpt lat="47.65551" lon="6.16522">
        <ele>235.4</ele>
        <time>2021-10-06T13:45:17Z</time>
      </trkpt>
      <trkpt lat="47.65554" lon="6.16514">
        <ele>235.6</ele>
        <time>2021-10-06T13:45:18Z</time>
      </trkpt>
      <trkpt lat="47.65558" lon="6.16506">
        <ele>235.8</ele>
        <time>2021-10-06T13:45:19Z</time>
      </trkpt>
      <trkpt lat="47.65562" lon="6.16498">
        <ele>236.1</ele>
        <time>2021-10-06T13:45:20Z</time>
      </trkpt>
      <trkpt lat="47.65566" lon="6.1649">
        <ele>236</ele>
        <time>2021-10-06T13:45:21Z</time>
      </trkpt>
      <trkpt lat="47.65571" lon="6.16483">
        <ele>235.9</ele>
        <time>2021-10-06T13:45:22Z</time>
      </trkpt>
      <trkpt lat="47.65575" lon="6.16476">
        <ele>235.7</ele>
        <time>2021-10-06T13:45:23Z</time>
      </trkpt>
      <trkpt lat="47.6558" lon="6.16469">
        <ele>235.6</ele>
        <time>2021-10-06T13:45:24Z</time>
      </trkpt>
      <trkpt lat="47.65585" lon="6.16463">
        <ele>235.4</ele>
        <time>2021-10-06T13:45:25Z</time>
      </trkpt>
      <trkpt lat="47.65589" lon="6.16457">
        <ele>235.2</ele>
        <time>2021-10-06T13:45:26Z</time>
      </trkpt>
      <trkpt lat="47.65594" lon="6.16451">
        <ele>235.1</ele>
        <time>2021-10-06T13:45:27Z</time>
      </trkpt>
      <trkpt lat="47.65599" lon="6.16446">
        <ele>234.9</ele>
        <time>2021-10-06T13:45:28Z</time>
      </trkpt>
      <trkpt lat="47.65603" lon="6.1644">
        <ele>234.8</ele>
        <time>2021-10-06T13:45:30Z</time>
      </trkpt>
      <trkpt lat="47.65608" lon="6.16434">
        <ele>234.7</ele>
        <time>2021-10-06T13:45:31Z</time>
      </trkpt>
      <trkpt lat="47.65612" lon="6.16428">
        <ele>234.7</ele>
        <time>2021-10-06T13:45:32Z</time>
      </trkpt>
      <trkpt lat="47.65617" lon="6.16422">
        <ele>234.7</ele>
        <time>2021-10-06T13:45:33Z</time>
      </trkpt>
      <trkpt lat="47.65622" lon="6.16415">
        <ele>234.7</ele>
        <time>2021-10-06T13:45:34Z</time>
      </trkpt>
      <trkpt lat="47.65626" lon="6.16409">
        <ele>234.6</ele>
        <time>2021-10-06T13:45:35Z</time>
      </trkpt>
      <trkpt lat="47.65631" lon="6.16403">
        <ele>234.6</ele>
        <time>2021-10-06T13:45:36Z</time>
      </trkpt>
      <trkpt lat="47.65636" lon="6.16397">
        <ele>234.6</ele>
        <time>2021-10-06T13:45:37Z</time>
      </trkpt>
      <trkpt lat="47.65641" lon="6.16391">
        <ele>234.4</ele>
        <time>2021-10-06T13:45:38Z</time>
      </trkpt>
      <trkpt lat="47.65645" lon="6.16384">
        <ele>234.3</ele>
        <time>2021-10-06T13:45:39Z</time>
      </trkpt>
      <trkpt lat="47.6565" lon="6.16378">
        <ele>234.2</ele>
        <time>2021-10-06T13:45:40Z</time>
      </trkpt>
      <trkpt lat="47.65654" lon="6.16372">
        <ele>234</ele>
        <time>2021-10-06T13:45:41Z</time>
      </trkpt>
      <trkpt lat="47.65658" lon="6.16365">
        <ele>233.8</ele>
        <time>2021-10-06T13:45:42Z</time>
      </trkpt>
      <trkpt lat="47.65661" lon="6.16359">
        <ele>233.6</ele>
        <time>2021-10-06T13:45:43Z</time>
      </trkpt>
      <trkpt lat="47.65665" lon="6.16353">
        <ele>233.3</ele>
        <time>2021-10-06T13:45:44Z</time>
      </trkpt>
      <trkpt lat="47.65669" lon="6.16347">
        <ele>233.2</ele>
        <time>2021-10-06T13:45:45Z</time>
      </trkpt>
      <trkpt lat="47.65673" lon="6.16341">
        <ele>233</ele>
        <time>2021-10-06T13:45:46Z</time>
      </trkpt>
      <trkpt lat="47.65677" lon="6.16335">
        <ele>233</ele>
        <time>2021-10-06T13:45:47Z</time>
      </trkpt>
      <trkpt lat="47.65681" lon="6.1633">
        <ele>232.9</ele>
        <time>2021-10-06T13:45:48Z</time>
      </trkpt>
      <trkpt lat="47.65684" lon="6.16324">
        <ele>232.8</ele>
        <time>2021-10-06T13:45:49Z</time>
      </trkpt>
      <trkpt lat="47.65688" lon="6.16319">
        <ele>232.7</ele>
        <time>2021-10-06T13:45:50Z</time>
      </trkpt>
      <trkpt lat="47.65691" lon="6.16313">
        <ele>232.6</ele>
        <time>2021-10-06T13:45:51Z</time>
      </trkpt>
      <trkpt lat="47.65695" lon="6.16307">
        <ele>232.6</ele>
        <time>2021-10-06T13:45:52Z</time>
      </trkpt>
      <trkpt lat="47.65698" lon="6.16302">
        <ele>232.5</ele>
        <time>2021-10-06T13:45:53Z</time>
      </trkpt>
      <trkpt lat="47.65701" lon="6.16297">
        <ele>232.6</ele>
        <time>2021-10-06T13:45:54Z</time>
      </trkpt>
      <trkpt lat="47.65705" lon="6.16292">
        <ele>232.6</ele>
        <time>2021-10-06T13:45:55Z</time>
      </trkpt>
      <trkpt lat="47.65708" lon="6.16288">
        <ele>232.7</ele>
        <time>2021-10-06T13:45:56Z</time>
      </trkpt>
      <trkpt lat="47.65711" lon="6.16283">
        <ele>232.8</ele>
        <time>2021-10-06T13:45:57Z</time>
      </trkpt>
      <trkpt lat="47.65715" lon="6.16278">
        <ele>232.9</ele>
        <time>2021-10-06T13:45:58Z</time>
      </trkpt>
      <trkpt lat="47.65718" lon="6.16273">
        <ele>233</ele>
        <time>2021-10-06T13:45:59Z</time>
      </trkpt>
      <trkpt lat="47.65722" lon="6.16268">
        <ele>233.2</ele>
        <time>2021-10-06T13:46:00Z</time>
      </trkpt>
      <trkpt lat="47.65725" lon="6.16263">
        <ele>233.3</ele>
        <time>2021-10-06T13:46:01Z</time>
      </trkpt>
      <trkpt lat="47.65729" lon="6.16257">
        <ele>233.5</ele>
        <time>2021-10-06T13:46:02Z</time>
      </trkpt>
      <trkpt lat="47.65732" lon="6.16252">
        <ele>233.7</ele>
        <time>2021-10-06T13:46:03Z</time>
      </trkpt>
      <trkpt lat="47.65736" lon="6.16246">
        <ele>234.1</ele>
        <time>2021-10-06T13:46:04Z</time>
      </trkpt>
      <trkpt lat="47.65739" lon="6.16241">
        <ele>234.6</ele>
        <time>2021-10-06T13:46:05Z</time>
      </trkpt>
      <trkpt lat="47.65742" lon="6.16236">
        <ele>235</ele>
        <time>2021-10-06T13:46:06Z</time>
      </trkpt>
      <trkpt lat="47.65746" lon="6.16231">
        <ele>235.5</ele>
        <time>2021-10-06T13:46:07Z</time>
      </trkpt>
      <trkpt lat="47.65749" lon="6.16226">
        <ele>235.9</ele>
        <time>2021-10-06T13:46:08Z</time>
      </trkpt>
      <trkpt lat="47.65752" lon="6.16221">
        <ele>236.2</ele>
        <time>2021-10-06T13:46:09Z</time>
      </trkpt>
      <trkpt lat="47.65758" lon="6.16213">
        <ele>236.6</ele>
        <time>2021-10-06T13:46:11Z</time>
      </trkpt>
      <trkpt lat="47.65763" lon="6.16206">
        <ele>237</ele>
        <time>2021-10-06T13:46:13Z</time>
      </trkpt>
      <trkpt lat="47.65769" lon="6.16198">
        <ele>237.5</ele>
        <time>2021-10-06T13:46:15Z</time>
      </trkpt>
      <trkpt lat="47.65774" lon="6.16191">
        <ele>237.9</ele>
        <time>2021-10-06T13:46:17Z</time>
      </trkpt>
      <trkpt lat="47.65779" lon="6.16184">
        <ele>238.4</ele>
        <time>2021-10-06T13:46:19Z</time>
      </trkpt>
      <trkpt lat="47.65783" lon="6.16179">
        <ele>238.7</ele>
        <time>2021-10-06T13:46:21Z</time>
      </trkpt>
      <trkpt lat="47.65786" lon="6.16173">
        <ele>239</ele>
        <time>2021-10-06T13:46:23Z</time>
      </trkpt>
      <trkpt lat="47.65791" lon="6.16168">
        <ele>239.4</ele>
        <time>2021-10-06T13:46:25Z</time>
      </trkpt>
      <trkpt lat="47.65795" lon="6.16164">
        <ele>239.8</ele>
        <time>2021-10-06T13:46:27Z</time>
      </trkpt>
      <trkpt lat="47.65799" lon="6.16157">
        <ele>240.3</ele>
        <time>2021-10-06T13:46:30Z</time>
      </trkpt>
      <trkpt lat="47.65803" lon="6.1615">
        <ele>240.7</ele>
        <time>2021-10-06T13:46:33Z</time>
      </trkpt>
      <trkpt lat="47.65806" lon="6.16145">
        <ele>241</ele>
        <time>2021-10-06T13:46:35Z</time>
      </trkpt>
      <trkpt lat="47.65811" lon="6.16138">
        <ele>241.4</ele>
        <time>2021-10-06T13:46:38Z</time>
      </trkpt>
      <trkpt lat="47.65815" lon="6.16132">
        <ele>241.8</ele>
        <time>2021-10-06T13:46:41Z</time>
      </trkpt>
      <trkpt lat="47.65819" lon="6.16126">
        <ele>242</ele>
        <time>2021-10-06T13:46:45Z</time>
      </trkpt>
      <trkpt lat="47.65823" lon="6.1612">
        <ele>242.3</ele>
        <time>2021-10-06T13:46:47Z</time>
      </trkpt>
      <trkpt lat="47.65828" lon="6.16117">
        <ele>242.7</ele>
        <time>2021-10-06T13:46:50Z</time>
      </trkpt>
      <trkpt lat="47.65834" lon="6.16112">
        <ele>243</ele>
        <time>2021-10-06T13:46:53Z</time>
      </trkpt>
      <trkpt lat="47.65838" lon="6.16108">
        <ele>242.9</ele>
        <time>2021-10-06T13:46:56Z</time>
      </trkpt>
      <trkpt lat="47.65843" lon="6.16102">
        <ele>242.9</ele>
        <time>2021-10-06T13:47:00Z</time>
      </trkpt>
      <trkpt lat="47.65847" lon="6.16097">
        <ele>242.8</ele>
        <time>2021-10-06T13:47:03Z</time>
      </trkpt>
      <trkpt lat="47.6585" lon="6.16092">
        <ele>242.7</ele>
        <time>2021-10-06T13:47:04Z</time>
      </trkpt>
      <trkpt lat="47.65854" lon="6.16087">
        <ele>242.5</ele>
        <time>2021-10-06T13:47:07Z</time>
      </trkpt>
      <trkpt lat="47.65859" lon="6.16082">
        <ele>242.4</ele>
        <time>2021-10-06T13:47:11Z</time>
      </trkpt>
      <trkpt lat="47.65862" lon="6.16076">
        <ele>242.3</ele>
        <time>2021-10-06T13:47:13Z</time>
      </trkpt>
      <trkpt lat="47.65867" lon="6.16069">
        <ele>242.2</ele>
        <time>2021-10-06T13:47:16Z</time>
      </trkpt>
      <trkpt lat="47.65872" lon="6.16062">
        <ele>242</ele>
        <time>2021-10-06T13:47:19Z</time>
      </trkpt>
      <trkpt lat="47.65878" lon="6.16054">
        <ele>241.7</ele>
        <time>2021-10-06T13:47:22Z</time>
      </trkpt>
      <trkpt lat="47.65881" lon="6.16049">
        <ele>241.6</ele>
        <time>2021-10-06T13:47:24Z</time>
      </trkpt>
      <trkpt lat="47.65884" lon="6.16043">
        <ele>241.4</ele>
        <time>2021-10-06T13:47:26Z</time>
      </trkpt>
      <trkpt lat="47.65887" lon="6.16038">
        <ele>241.2</ele>
        <time>2021-10-06T13:47:28Z</time>
      </trkpt>
      <trkpt lat="47.65891" lon="6.16033">
        <ele>241</ele>
        <time>2021-10-06T13:47:30Z</time>
      </trkpt>
      <trkpt lat="47.65897" lon="6.16025">
        <ele>240.6</ele>
        <time>2021-10-06T13:47:33Z</time>
      </trkpt>
      <trkpt lat="47.659" lon="6.1602">
        <ele>240.3</ele>
        <time>2021-10-06T13:47:36Z</time>
      </trkpt>
      <trkpt lat="47.65905" lon="6.16012">
        <ele>239.9</ele>
        <time>2021-10-06T13:47:38Z</time>
      </trkpt>
      <trkpt lat="47.65913" lon="6.15996">
        <ele>239.1</ele>
        <time>2021-10-06T13:47:41Z</time>
      </trkpt>
      <trkpt lat="47.65924" lon="6.15977">
        <ele>237.6</ele>
        <time>2021-10-06T13:47:42Z</time>
      </trkpt>
      <trkpt lat="47.65928" lon="6.1597">
        <ele>237</ele>
        <time>2021-10-06T13:47:43Z</time>
      </trkpt>
      <trkpt lat="47.65932" lon="6.15964">
        <ele>236.5</ele>
        <time>2021-10-06T13:47:44Z</time>
      </trkpt>
      <trkpt lat="47.65936" lon="6.15956">
        <ele>235.9</ele>
        <time>2021-10-06T13:47:45Z</time>
      </trkpt>
      <trkpt lat="47.6594" lon="6.1595">
        <ele>235.4</ele>
        <time>2021-10-06T13:47:46Z</time>
      </trkpt>
      <trkpt lat="47.65944" lon="6.15943">
        <ele>234.9</ele>
        <time>2021-10-06T13:47:47Z</time>
      </trkpt>
      <trkpt lat="47.65949" lon="6.15937">
        <ele>234.3</ele>
        <time>2021-10-06T13:47:48Z</time>
      </trkpt>
      <trkpt lat="47.65953" lon="6.15931">
        <ele>233.8</ele>
        <time>2021-10-06T13:47:49Z</time>
      </trkpt>
      <trkpt lat="47.65957" lon="6.15925">
        <ele>233.3</ele>
        <time>2021-10-06T13:47:50Z</time>
      </trkpt>
      <trkpt lat="47.65961" lon="6.15919">
        <ele>232.9</ele>
        <time>2021-10-06T13:47:51Z</time>
      </trkpt>
      <trkpt lat="47.65965" lon="6.15913">
        <ele>232.5</ele>
        <time>2021-10-06T13:47:52Z</time>
      </trkpt>
      <trkpt lat="47.65968" lon="6.15908">
        <ele>232.2</ele>
        <time>2021-10-06T13:47:53Z</time>
      </trkpt>
      <trkpt lat="47.65971" lon="6.15903">
        <ele>232</ele>
        <time>2021-10-06T13:47:54Z</time>
      </trkpt>
      <trkpt lat="47.65977" lon="6.15895">
        <ele>231.7</ele>
        <time>2021-10-06T13:47:56Z</time>
      </trkpt>
      <trkpt lat="47.65982" lon="6.15888">
        <ele>231.5</ele>
        <time>2021-10-06T13:47:58Z</time>
      </trkpt>
      <trkpt lat="47.65985" lon="6.15882">
        <ele>231.4</ele>
        <time>2021-10-06T13:48:00Z</time>
      </trkpt>
      <trkpt lat="47.6599" lon="6.15876">
        <ele>231.3</ele>
        <time>2021-10-06T13:48:02Z</time>
      </trkpt>
      <trkpt lat="47.65994" lon="6.1587">
        <ele>231.3</ele>
        <time>2021-10-06T13:48:04Z</time>
      </trkpt>
      <trkpt lat="47.65998" lon="6.15865">
        <ele>231.3</ele>
        <time>2021-10-06T13:48:06Z</time>
      </trkpt>
      <trkpt lat="47.66003" lon="6.15859">
        <ele>231.4</ele>
        <time>2021-10-06T13:48:08Z</time>
      </trkpt>
      <trkpt lat="47.66007" lon="6.15853">
        <ele>231.5</ele>
        <time>2021-10-06T13:48:10Z</time>
      </trkpt>
      <trkpt lat="47.6601" lon="6.15848">
        <ele>231.6</ele>
        <time>2021-10-06T13:48:13Z</time>
      </trkpt>
      <trkpt lat="47.66015" lon="6.15842">
        <ele>231.7</ele>
        <time>2021-10-06T13:48:14Z</time>
      </trkpt>
      <trkpt lat="47.66019" lon="6.15837">
        <ele>231.7</ele>
        <time>2021-10-06T13:48:16Z</time>
      </trkpt>
      <trkpt lat="47.66024" lon="6.15832">
        <ele>231.7</ele>
        <time>2021-10-06T13:48:19Z</time>
      </trkpt>
      <trkpt lat="47.66028" lon="6.15828">
        <ele>231.6</ele>
        <time>2021-10-06T13:48:21Z</time>
      </trkpt>
      <trkpt lat="47.66033" lon="6.15824">
        <ele>231.5</ele>
        <time>2021-10-06T13:48:23Z</time>
      </trkpt>
      <trkpt lat="47.66037" lon="6.1582">
        <ele>231.5</ele>
        <time>2021-10-06T13:48:25Z</time>
      </trkpt>
      <trkpt lat="47.66042" lon="6.15817">
        <ele>231.4</ele>
        <time>2021-10-06T13:48:27Z</time>
      </trkpt>
      <trkpt lat="47.66047" lon="6.15814">
        <ele>231.3</ele>
        <time>2021-10-06T13:48:29Z</time>
      </trkpt>
      <trkpt lat="47.66054" lon="6.15809">
        <ele>231.2</ele>
        <time>2021-10-06T13:48:33Z</time>
      </trkpt>
      <trkpt lat="47.66058" lon="6.15805">
        <ele>231.2</ele>
        <time>2021-10-06T13:48:35Z</time>
      </trkpt>
      <trkpt lat="47.66064" lon="6.15801">
        <ele>231.1</ele>
        <time>2021-10-06T13:48:36Z</time>
      </trkpt>
      <trkpt lat="47.66069" lon="6.15798">
        <ele>231.1</ele>
        <time>2021-10-06T13:48:39Z</time>
      </trkpt>
      <trkpt lat="47.66075" lon="6.15794">
        <ele>231.1</ele>
        <time>2021-10-06T13:48:41Z</time>
      </trkpt>
      <trkpt lat="47.66082" lon="6.15789">
        <ele>231</ele>
        <time>2021-10-06T13:48:42Z</time>
      </trkpt>
      <trkpt lat="47.66089" lon="6.15784">
        <ele>231</ele>
        <time>2021-10-06T13:48:44Z</time>
      </trkpt>
      <trkpt lat="47.66095" lon="6.1578">
        <ele>230.9</ele>
        <time>2021-10-06T13:48:47Z</time>
      </trkpt>
      <trkpt lat="47.66111" lon="6.1577">
        <ele>230.8</ele>
        <time>2021-10-06T13:48:50Z</time>
      </trkpt>
      <trkpt lat="47.66117" lon="6.15765">
        <ele>230.7</ele>
        <time>2021-10-06T13:48:51Z</time>
      </trkpt>
      <trkpt lat="47.66124" lon="6.1576">
        <ele>230.6</ele>
        <time>2021-10-06T13:48:53Z</time>
      </trkpt>
      <trkpt lat="47.66141" lon="6.15749">
        <ele>230.3</ele>
        <time>2021-10-06T13:48:54Z</time>
      </trkpt>
      <trkpt lat="47.66146" lon="6.15746">
        <ele>230.3</ele>
        <time>2021-10-06T13:48:55Z</time>
      </trkpt>
      <trkpt lat="47.66151" lon="6.15743">
        <ele>230.3</ele>
        <time>2021-10-06T13:48:56Z</time>
      </trkpt>
      <trkpt lat="47.66155" lon="6.1574">
        <ele>230.3</ele>
        <time>2021-10-06T13:48:57Z</time>
      </trkpt>
      <trkpt lat="47.6616" lon="6.15738">
        <ele>230.3</ele>
        <time>2021-10-06T13:48:58Z</time>
      </trkpt>
      <trkpt lat="47.66167" lon="6.15733">
        <ele>230.4</ele>
        <time>2021-10-06T13:49:00Z</time>
      </trkpt>
      <trkpt lat="47.66175" lon="6.15728">
        <ele>230.9</ele>
        <time>2021-10-06T13:49:02Z</time>
      </trkpt>
      <trkpt lat="47.66183" lon="6.15724">
        <ele>231.3</ele>
        <time>2021-10-06T13:49:06Z</time>
      </trkpt>
      <trkpt lat="47.66187" lon="6.15721">
        <ele>231.6</ele>
        <time>2021-10-06T13:49:07Z</time>
      </trkpt>
      <trkpt lat="47.66194" lon="6.15716">
        <ele>232</ele>
        <time>2021-10-06T13:49:09Z</time>
      </trkpt>
      <trkpt lat="47.66201" lon="6.15711">
        <ele>232.4</ele>
        <time>2021-10-06T13:49:10Z</time>
      </trkpt>
      <trkpt lat="47.66207" lon="6.15708">
        <ele>232.7</ele>
        <time>2021-10-06T13:49:13Z</time>
      </trkpt>
      <trkpt lat="47.66212" lon="6.15704">
        <ele>233</ele>
        <time>2021-10-06T13:49:15Z</time>
      </trkpt>
      <trkpt lat="47.66222" lon="6.15698">
        <ele>233.5</ele>
        <time>2021-10-06T13:49:17Z</time>
      </trkpt>
      <trkpt lat="47.66228" lon="6.15694">
        <ele>233.8</ele>
        <time>2021-10-06T13:49:19Z</time>
      </trkpt>
      <trkpt lat="47.66233" lon="6.15691">
        <ele>234</ele>
        <time>2021-10-06T13:49:22Z</time>
      </trkpt>
      <trkpt lat="47.66237" lon="6.15687">
        <ele>234.3</ele>
        <time>2021-10-06T13:49:24Z</time>
      </trkpt>
      <trkpt lat="47.66241" lon="6.15684">
        <ele>234.5</ele>
        <time>2021-10-06T13:49:27Z</time>
      </trkpt>
      <trkpt lat="47.66246" lon="6.15682">
        <ele>234.7</ele>
        <time>2021-10-06T13:49:30Z</time>
      </trkpt>
      <trkpt lat="47.66251" lon="6.15678">
        <ele>234.9</ele>
        <time>2021-10-06T13:49:33Z</time>
      </trkpt>
      <trkpt lat="47.66258" lon="6.15674">
        <ele>235.4</ele>
        <time>2021-10-06T13:49:36Z</time>
      </trkpt>
      <trkpt lat="47.66262" lon="6.15671">
        <ele>235.7</ele>
        <time>2021-10-06T13:49:38Z</time>
      </trkpt>
      <trkpt lat="47.66267" lon="6.15668">
        <ele>236</ele>
        <time>2021-10-06T13:49:40Z</time>
      </trkpt>
      <trkpt lat="47.66272" lon="6.15665">
        <ele>236.3</ele>
        <time>2021-10-06T13:49:42Z</time>
      </trkpt>
      <trkpt lat="47.66276" lon="6.15662">
        <ele>236.5</ele>
        <time>2021-10-06T13:49:44Z</time>
      </trkpt>
      <trkpt lat="47.66282" lon="6.15659">
        <ele>236.7</ele>
        <time>2021-10-06T13:49:46Z</time>
      </trkpt>
      <trkpt lat="47.66287" lon="6.15656">
        <ele>236.9</ele>
        <time>2021-10-06T13:49:48Z</time>
      </trkpt>
      <trkpt lat="47.66292" lon="6.15653">
        <ele>237.1</ele>
        <time>2021-10-06T13:49:50Z</time>
      </trkpt>
      <trkpt lat="47.66298" lon="6.1565">
        <ele>237.3</ele>
        <time>2021-10-06T13:49:52Z</time>
      </trkpt>
      <trkpt lat="47.66303" lon="6.15648">
        <ele>237.5</ele>
        <time>2021-10-06T13:49:54Z</time>
      </trkpt>
      <trkpt lat="47.66309" lon="6.15645">
        <ele>237.7</ele>
        <time>2021-10-06T13:49:56Z</time>
      </trkpt>
      <trkpt lat="47.66316" lon="6.15643">
        <ele>238</ele>
        <time>2021-10-06T13:49:58Z</time>
      </trkpt>
      <trkpt lat="47.66322" lon="6.1564">
        <ele>238.2</ele>
        <time>2021-10-06T13:50:00Z</time>
      </trkpt>
      <trkpt lat="47.66329" lon="6.15638">
        <ele>238.4</ele>
        <time>2021-10-06T13:50:02Z</time>
      </trkpt>
      <trkpt lat="47.66335" lon="6.15636">
        <ele>238.6</ele>
        <time>2021-10-06T13:50:04Z</time>
      </trkpt>
      <trkpt lat="47.66341" lon="6.15634">
        <ele>238.7</ele>
        <time>2021-10-06T13:50:06Z</time>
      </trkpt>
      <trkpt lat="47.66347" lon="6.15632">
        <ele>238.8</ele>
        <time>2021-10-06T13:50:08Z</time>
      </trkpt>
      <trkpt lat="47.66353" lon="6.15631">
        <ele>238.9</ele>
        <time>2021-10-06T13:50:10Z</time>
      </trkpt>
      <trkpt lat="47.66358" lon="6.1563">
        <ele>239.1</ele>
        <time>2021-10-06T13:50:12Z</time>
      </trkpt>
      <trkpt lat="47.66364" lon="6.15628">
        <ele>239.2</ele>
        <time>2021-10-06T13:50:14Z</time>
      </trkpt>
      <trkpt lat="47.6637" lon="6.15626">
        <ele>239.4</ele>
        <time>2021-10-06T13:50:16Z</time>
      </trkpt>
      <trkpt lat="47.66376" lon="6.15625">
        <ele>239.5</ele>
        <time>2021-10-06T13:50:18Z</time>
      </trkpt>
      <trkpt lat="47.6638" lon="6.15624">
        <ele>239.6</ele>
        <time>2021-10-06T13:50:20Z</time>
      </trkpt>
      <trkpt lat="47.66387" lon="6.15621">
        <ele>239.8</ele>
        <time>2021-10-06T13:50:22Z</time>
      </trkpt>
      <trkpt lat="47.66393" lon="6.1562">
        <ele>240</ele>
        <time>2021-10-06T13:50:24Z</time>
      </trkpt>
      <trkpt lat="47.66398" lon="6.15619">
        <ele>240.1</ele>
        <time>2021-10-06T13:50:26Z</time>
      </trkpt>
      <trkpt lat="47.66403" lon="6.15617">
        <ele>240.3</ele>
        <time>2021-10-06T13:50:28Z</time>
      </trkpt>
      <trkpt lat="47.66408" lon="6.15615">
        <ele>240.4</ele>
        <time>2021-10-06T13:50:30Z</time>
      </trkpt>
      <trkpt lat="47.66413" lon="6.15614">
        <ele>240.6</ele>
        <time>2021-10-06T13:50:32Z</time>
      </trkpt>
      <trkpt lat="47.66418" lon="6.15611">
        <ele>240.7</ele>
        <time>2021-10-06T13:50:34Z</time>
      </trkpt>
      <trkpt lat="47.66422" lon="6.15609">
        <ele>240.9</ele>
        <time>2021-10-06T13:50:36Z</time>
      </trkpt>
      <trkpt lat="47.66427" lon="6.15607">
        <ele>241.1</ele>
        <time>2021-10-06T13:50:38Z</time>
      </trkpt>
      <trkpt lat="47.66432" lon="6.15605">
        <ele>241.4</ele>
        <time>2021-10-06T13:50:40Z</time>
      </trkpt>
      <trkpt lat="47.66437" lon="6.15602">
        <ele>241.6</ele>
        <time>2021-10-06T13:50:42Z</time>
      </trkpt>
      <trkpt lat="47.66442" lon="6.15599">
        <ele>241.8</ele>
        <time>2021-10-06T13:50:44Z</time>
      </trkpt>
      <trkpt lat="47.66447" lon="6.15596">
        <ele>242.1</ele>
        <time>2021-10-06T13:50:46Z</time>
      </trkpt>
      <trkpt lat="47.66452" lon="6.15593">
        <ele>242.3</ele>
        <time>2021-10-06T13:50:48Z</time>
      </trkpt>
      <trkpt lat="47.66457" lon="6.15589">
        <ele>242.5</ele>
        <time>2021-10-06T13:50:50Z</time>
      </trkpt>
      <trkpt lat="47.66462" lon="6.15585">
        <ele>242.8</ele>
        <time>2021-10-06T13:50:52Z</time>
      </trkpt>
      <trkpt lat="47.66468" lon="6.15581">
        <ele>243</ele>
        <time>2021-10-06T13:50:54Z</time>
      </trkpt>
      <trkpt lat="47.66472" lon="6.15577">
        <ele>243.1</ele>
        <time>2021-10-06T13:50:56Z</time>
      </trkpt>
      <trkpt lat="47.66477" lon="6.15574">
        <ele>243.3</ele>
        <time>2021-10-06T13:50:58Z</time>
      </trkpt>
      <trkpt lat="47.66482" lon="6.1557">
        <ele>243.4</ele>
        <time>2021-10-06T13:51:00Z</time>
      </trkpt>
      <trkpt lat="47.66487" lon="6.15567">
        <ele>243.6</ele>
        <time>2021-10-06T13:51:02Z</time>
      </trkpt>
      <trkpt lat="47.66491" lon="6.15563">
        <ele>243.7</ele>
        <time>2021-10-06T13:51:04Z</time>
      </trkpt>
      <trkpt lat="47.66496" lon="6.15559">
        <ele>243.9</ele>
        <time>2021-10-06T13:51:06Z</time>
      </trkpt>
      <trkpt lat="47.66501" lon="6.15554">
        <ele>244</ele>
        <time>2021-10-06T13:51:08Z</time>
      </trkpt>
      <trkpt lat="47.66505" lon="6.15551">
        <ele>244</ele>
        <time>2021-10-06T13:51:10Z</time>
      </trkpt>
      <trkpt lat="47.66509" lon="6.15547">
        <ele>244.1</ele>
        <time>2021-10-06T13:51:12Z</time>
      </trkpt>
      <trkpt lat="47.66514" lon="6.15543">
        <ele>244.1</ele>
        <time>2021-10-06T13:51:14Z</time>
      </trkpt>
      <trkpt lat="47.66519" lon="6.15539">
        <ele>244.2</ele>
        <time>2021-10-06T13:51:16Z</time>
      </trkpt>
      <trkpt lat="47.66524" lon="6.15536">
        <ele>244.3</ele>
        <time>2021-10-06T13:51:18Z</time>
      </trkpt>
      <trkpt lat="47.66529" lon="6.15533">
        <ele>244.4</ele>
        <time>2021-10-06T13:51:20Z</time>
      </trkpt>
      <trkpt lat="47.66534" lon="6.1553">
        <ele>244.6</ele>
        <time>2021-10-06T13:51:22Z</time>
      </trkpt>
      <trkpt lat="47.66539" lon="6.15527">
        <ele>244.7</ele>
        <time>2021-10-06T13:51:24Z</time>
      </trkpt>
      <trkpt lat="47.66544" lon="6.15525">
        <ele>244.9</ele>
        <time>2021-10-06T13:51:26Z</time>
      </trkpt>
      <trkpt lat="47.66549" lon="6.15523">
        <ele>245</ele>
        <time>2021-10-06T13:51:28Z</time>
      </trkpt>
      <trkpt lat="47.66554" lon="6.1552">
        <ele>245.2</ele>
        <time>2021-10-06T13:51:30Z</time>
      </trkpt>
      <trkpt lat="47.66559" lon="6.15518">
        <ele>245.3</ele>
        <time>2021-10-06T13:51:32Z</time>
      </trkpt>
      <trkpt lat="47.66564" lon="6.15515">
        <ele>245.5</ele>
        <time>2021-10-06T13:51:34Z</time>
      </trkpt>
      <trkpt lat="47.6657" lon="6.15513">
        <ele>245.7</ele>
        <time>2021-10-06T13:51:36Z</time>
      </trkpt>
      <trkpt lat="47.66575" lon="6.1551">
        <ele>245.9</ele>
        <time>2021-10-06T13:51:38Z</time>
      </trkpt>
      <trkpt lat="47.6658" lon="6.15508">
        <ele>246.1</ele>
        <time>2021-10-06T13:51:40Z</time>
      </trkpt>
      <trkpt lat="47.66586" lon="6.15506">
        <ele>246.2</ele>
        <time>2021-10-06T13:51:42Z</time>
      </trkpt>
      <trkpt lat="47.66591" lon="6.15504">
        <ele>246.2</ele>
        <time>2021-10-06T13:51:44Z</time>
      </trkpt>
      <trkpt lat="47.66596" lon="6.15502">
        <ele>246.2</ele>
        <time>2021-10-06T13:51:46Z</time>
      </trkpt>
      <trkpt lat="47.66602" lon="6.15499">
        <ele>246.2</ele>
        <time>2021-10-06T13:51:48Z</time>
      </trkpt>
      <trkpt lat="47.66608" lon="6.15497">
        <ele>246.3</ele>
        <time>2021-10-06T13:51:50Z</time>
      </trkpt>
      <trkpt lat="47.66612" lon="6.15496">
        <ele>246.4</ele>
        <time>2021-10-06T13:51:52Z</time>
      </trkpt>
      <trkpt lat="47.66618" lon="6.15493">
        <ele>246.4</ele>
        <time>2021-10-06T13:51:54Z</time>
      </trkpt>
      <trkpt lat="47.66623" lon="6.15491">
        <ele>246.5</ele>
        <time>2021-10-06T13:51:56Z</time>
      </trkpt>
      <trkpt lat="47.66628" lon="6.15489">
        <ele>246.6</ele>
        <time>2021-10-06T13:51:58Z</time>
      </trkpt>
      <trkpt lat="47.66635" lon="6.15486">
        <ele>246.8</ele>
        <time>2021-10-06T13:52:01Z</time>
      </trkpt>
      <trkpt lat="47.66641" lon="6.15483">
        <ele>246.9</ele>
        <time>2021-10-06T13:52:03Z</time>
      </trkpt>
      <trkpt lat="47.66646" lon="6.15481">
        <ele>247</ele>
        <time>2021-10-06T13:52:05Z</time>
      </trkpt>
      <trkpt lat="47.66651" lon="6.15478">
        <ele>247.2</ele>
        <time>2021-10-06T13:52:07Z</time>
      </trkpt>
      <trkpt lat="47.66656" lon="6.15476">
        <ele>247.3</ele>
        <time>2021-10-06T13:52:09Z</time>
      </trkpt>
      <trkpt lat="47.66661" lon="6.15473">
        <ele>247.5</ele>
        <time>2021-10-06T13:52:11Z</time>
      </trkpt>
      <trkpt lat="47.66666" lon="6.15469">
        <ele>247.7</ele>
        <time>2021-10-06T13:52:13Z</time>
      </trkpt>
      <trkpt lat="47.66671" lon="6.15465">
        <ele>248</ele>
        <time>2021-10-06T13:52:15Z</time>
      </trkpt>
      <trkpt lat="47.66676" lon="6.15461">
        <ele>248.3</ele>
        <time>2021-10-06T13:52:17Z</time>
      </trkpt>
      <trkpt lat="47.6668" lon="6.15456">
        <ele>248.5</ele>
        <time>2021-10-06T13:52:19Z</time>
      </trkpt>
      <trkpt lat="47.66684" lon="6.15452">
        <ele>248.8</ele>
        <time>2021-10-06T13:52:21Z</time>
      </trkpt>
      <trkpt lat="47.66688" lon="6.15448">
        <ele>249</ele>
        <time>2021-10-06T13:52:23Z</time>
      </trkpt>
      <trkpt lat="47.66692" lon="6.15444">
        <ele>249.3</ele>
        <time>2021-10-06T13:52:25Z</time>
      </trkpt>
      <trkpt lat="47.66696" lon="6.1544">
        <ele>249.5</ele>
        <time>2021-10-06T13:52:27Z</time>
      </trkpt>
      <trkpt lat="47.66699" lon="6.15436">
        <ele>249.7</ele>
        <time>2021-10-06T13:52:29Z</time>
      </trkpt>
      <trkpt lat="47.66705" lon="6.1543">
        <ele>250.1</ele>
        <time>2021-10-06T13:52:32Z</time>
      </trkpt>
      <trkpt lat="47.66709" lon="6.15426">
        <ele>250.3</ele>
        <time>2021-10-06T13:52:34Z</time>
      </trkpt>
      <trkpt lat="47.66714" lon="6.15421">
        <ele>250.6</ele>
        <time>2021-10-06T13:52:37Z</time>
      </trkpt>
      <trkpt lat="47.66718" lon="6.15416">
        <ele>250.9</ele>
        <time>2021-10-06T13:52:40Z</time>
      </trkpt>
      <trkpt lat="47.66723" lon="6.15412">
        <ele>251.2</ele>
        <time>2021-10-06T13:52:43Z</time>
      </trkpt>
      <trkpt lat="47.66727" lon="6.15408">
        <ele>251.5</ele>
        <time>2021-10-06T13:52:46Z</time>
      </trkpt>
      <trkpt lat="47.66732" lon="6.15404">
        <ele>251.8</ele>
        <time>2021-10-06T13:52:49Z</time>
      </trkpt>
      <trkpt lat="47.66736" lon="6.15399">
        <ele>252.1</ele>
        <time>2021-10-06T13:52:53Z</time>
      </trkpt>
      <trkpt lat="47.66741" lon="6.15395">
        <ele>252.5</ele>
        <time>2021-10-06T13:52:57Z</time>
      </trkpt>
      <trkpt lat="47.66745" lon="6.15391">
        <ele>252.8</ele>
        <time>2021-10-06T13:53:00Z</time>
      </trkpt>
      <trkpt lat="47.6675" lon="6.15386">
        <ele>253.1</ele>
        <time>2021-10-06T13:53:03Z</time>
      </trkpt>
      <trkpt lat="47.66755" lon="6.15382">
        <ele>253.3</ele>
        <time>2021-10-06T13:53:06Z</time>
      </trkpt>
      <trkpt lat="47.66759" lon="6.15377">
        <ele>253.6</ele>
        <time>2021-10-06T13:53:09Z</time>
      </trkpt>
      <trkpt lat="47.66763" lon="6.15374">
        <ele>253.9</ele>
        <time>2021-10-06T13:53:12Z</time>
      </trkpt>
      <trkpt lat="47.66768" lon="6.15369">
        <ele>254.2</ele>
        <time>2021-10-06T13:53:16Z</time>
      </trkpt>
      <trkpt lat="47.66771" lon="6.15364">
        <ele>254.5</ele>
        <time>2021-10-06T13:53:20Z</time>
      </trkpt>
      <trkpt lat="47.66776" lon="6.1536">
        <ele>254.8</ele>
        <time>2021-10-06T13:53:25Z</time>
      </trkpt>
      <trkpt lat="47.6678" lon="6.15355">
        <ele>255.1</ele>
        <time>2021-10-06T13:53:29Z</time>
      </trkpt>
      <trkpt lat="47.66784" lon="6.15349">
        <ele>255.5</ele>
        <time>2021-10-06T13:53:33Z</time>
      </trkpt>
      <trkpt lat="47.66788" lon="6.15344">
        <ele>255.9</ele>
        <time>2021-10-06T13:53:37Z</time>
      </trkpt>
      <trkpt lat="47.66791" lon="6.15339">
        <ele>256.2</ele>
        <time>2021-10-06T13:53:41Z</time>
      </trkpt>
      <trkpt lat="47.66794" lon="6.15333">
        <ele>256.6</ele>
        <time>2021-10-06T13:53:45Z</time>
      </trkpt>
      <trkpt lat="47.66798" lon="6.15328">
        <ele>256.9</ele>
        <time>2021-10-06T13:53:49Z</time>
      </trkpt>
      <trkpt lat="47.66802" lon="6.15322">
        <ele>257.2</ele>
        <time>2021-10-06T13:53:53Z</time>
      </trkpt>
      <trkpt lat="47.66805" lon="6.15316">
        <ele>257.4</ele>
        <time>2021-10-06T13:53:57Z</time>
      </trkpt>
      <trkpt lat="47.66808" lon="6.15311">
        <ele>257.7</ele>
        <time>2021-10-06T13:54:01Z</time>
      </trkpt>
      <trkpt lat="47.66813" lon="6.15309">
        <ele>258</ele>
        <time>2021-10-06T13:54:05Z</time>
      </trkpt>
      <trkpt lat="47.66819" lon="6.15305">
        <ele>258.4</ele>
        <time>2021-10-06T13:54:09Z</time>
      </trkpt>
      <trkpt lat="47.66823" lon="6.15301">
        <ele>258.7</ele>
        <time>2021-10-06T13:54:12Z</time>
      </trkpt>
      <trkpt lat="47.66828" lon="6.15297">
        <ele>259</ele>
        <time>2021-10-06T13:54:16Z</time>
      </trkpt>
      <trkpt lat="47.66832" lon="6.15293">
        <ele>259.4</ele>
        <time>2021-10-06T13:54:19Z</time>
      </trkpt>
      <trkpt lat="47.66837" lon="6.15288">
        <ele>259.8</ele>
        <time>2021-10-06T13:54:24Z</time>
      </trkpt>
      <trkpt lat="47.66842" lon="6.15283">
        <ele>260.1</ele>
        <time>2021-10-06T13:54:28Z</time>
      </trkpt>
      <trkpt lat="47.66847" lon="6.15279">
        <ele>260.4</ele>
        <time>2021-10-06T13:54:31Z</time>
      </trkpt>
      <trkpt lat="47.66852" lon="6.15274">
        <ele>260.7</ele>
        <time>2021-10-06T13:54:35Z</time>
      </trkpt>
      <trkpt lat="47.66856" lon="6.15268">
        <ele>261.1</ele>
        <time>2021-10-06T13:54:39Z</time>
      </trkpt>
      <trkpt lat="47.66861" lon="6.15264">
        <ele>261.4</ele>
        <time>2021-10-06T13:54:43Z</time>
      </trkpt>
      <trkpt lat="47.66865" lon="6.1526">
        <ele>261.7</ele>
        <time>2021-10-06T13:54:47Z</time>
      </trkpt>
      <trkpt lat="47.6687" lon="6.15256">
        <ele>262.1</ele>
        <time>2021-10-06T13:54:51Z</time>
      </trkpt>
      <trkpt lat="47.66875" lon="6.15252">
        <ele>262.4</ele>
        <time>2021-10-06T13:54:55Z</time>
      </trkpt>
      <trkpt lat="47.6688" lon="6.15247">
        <ele>262.7</ele>
        <time>2021-10-06T13:54:59Z</time>
      </trkpt>
      <trkpt lat="47.66885" lon="6.15243">
        <ele>263</ele>
        <time>2021-10-06T13:55:03Z</time>
      </trkpt>
      <trkpt lat="47.66888" lon="6.15239">
        <ele>263.2</ele>
        <time>2021-10-06T13:55:06Z</time>
      </trkpt>
      <trkpt lat="47.66894" lon="6.15235">
        <ele>263.4</ele>
        <time>2021-10-06T13:55:10Z</time>
      </trkpt>
      <trkpt lat="47.66898" lon="6.15232">
        <ele>263.6</ele>
        <time>2021-10-06T13:55:13Z</time>
      </trkpt>
      <trkpt lat="47.66903" lon="6.15227">
        <ele>263.8</ele>
        <time>2021-10-06T13:55:16Z</time>
      </trkpt>
      <trkpt lat="47.66907" lon="6.15221">
        <ele>264.1</ele>
        <time>2021-10-06T13:55:19Z</time>
      </trkpt>
      <trkpt lat="47.66912" lon="6.15216">
        <ele>264.3</ele>
        <time>2021-10-06T13:55:22Z</time>
      </trkpt>
      <trkpt lat="47.66916" lon="6.15211">
        <ele>264.4</ele>
        <time>2021-10-06T13:55:27Z</time>
      </trkpt>
      <trkpt lat="47.6692" lon="6.15205">
        <ele>264.4</ele>
        <time>2021-10-06T13:55:28Z</time>
      </trkpt>
      <trkpt lat="47.66923" lon="6.15198">
        <ele>264.4</ele>
        <time>2021-10-06T13:55:31Z</time>
      </trkpt>
      <trkpt lat="47.66926" lon="6.15191">
        <ele>264.4</ele>
        <time>2021-10-06T13:55:36Z</time>
      </trkpt>
      <trkpt lat="47.66928" lon="6.15185">
        <ele>264.4</ele>
        <time>2021-10-06T13:55:36Z</time>
      </trkpt>
      <trkpt lat="47.6693" lon="6.15177">
        <ele>264.5</ele>
        <time>2021-10-06T13:55:39Z</time>
      </trkpt>
      <trkpt lat="47.66932" lon="6.15171">
        <ele>264.5</ele>
        <time>2021-10-06T13:55:41Z</time>
      </trkpt>
      <trkpt lat="47.66937" lon="6.15164">
        <ele>264.5</ele>
        <time>2021-10-06T13:55:44Z</time>
      </trkpt>
      <trkpt lat="47.66939" lon="6.15157">
        <ele>264.3</ele>
        <time>2021-10-06T13:55:49Z</time>
      </trkpt>
      <trkpt lat="47.66942" lon="6.15151">
        <ele>264.2</ele>
        <time>2021-10-06T13:55:51Z</time>
      </trkpt>
      <trkpt lat="47.66946" lon="6.15147">
        <ele>264.1</ele>
        <time>2021-10-06T13:55:51Z</time>
      </trkpt>
      <trkpt lat="47.66951" lon="6.15145">
        <ele>264</ele>
        <time>2021-10-06T13:55:53Z</time>
      </trkpt>
      <trkpt lat="47.66956" lon="6.15144">
        <ele>264</ele>
        <time>2021-10-06T13:55:55Z</time>
      </trkpt>
      <trkpt lat="47.66962" lon="6.15146">
        <ele>264</ele>
        <time>2021-10-06T13:56:00Z</time>
      </trkpt>
      <trkpt lat="47.66967" lon="6.15148">
        <ele>263.9</ele>
        <time>2021-10-06T13:56:00Z</time>
      </trkpt>
      <trkpt lat="47.66971" lon="6.15151">
        <ele>263.9</ele>
        <time>2021-10-06T13:56:05Z</time>
      </trkpt>
      <trkpt lat="47.66977" lon="6.15155">
        <ele>263.7</ele>
        <time>2021-10-06T13:56:07Z</time>
      </trkpt>
      <trkpt lat="47.66982" lon="6.15157">
        <ele>263.6</ele>
        <time>2021-10-06T13:56:07Z</time>
      </trkpt>
      <trkpt lat="47.66988" lon="6.1516">
        <ele>263.5</ele>
        <time>2021-10-06T13:56:09Z</time>
      </trkpt>
      <trkpt lat="47.66995" lon="6.15163">
        <ele>263.2</ele>
        <time>2021-10-06T13:56:13Z</time>
      </trkpt>
      <trkpt lat="47.67003" lon="6.15165">
        <ele>263</ele>
        <time>2021-10-06T13:56:15Z</time>
      </trkpt>
      <trkpt lat="47.67014" lon="6.15166">
        <ele>262.7</ele>
        <time>2021-10-06T13:56:15Z</time>
      </trkpt>
      <trkpt lat="47.6702" lon="6.15165">
        <ele>262.6</ele>
        <time>2021-10-06T13:56:18Z</time>
      </trkpt>
      <trkpt lat="47.67026" lon="6.15164">
        <ele>262.5</ele>
        <time>2021-10-06T13:56:19Z</time>
      </trkpt>
      <trkpt lat="47.67032" lon="6.15163">
        <ele>262.4</ele>
        <time>2021-10-06T13:56:21Z</time>
      </trkpt>
      <trkpt lat="47.67038" lon="6.15161">
        <ele>262.3</ele>
        <time>2021-10-06T13:56:22Z</time>
      </trkpt>
      <trkpt lat="47.67045" lon="6.1516">
        <ele>262.3</ele>
        <time>2021-10-06T13:56:23Z</time>
      </trkpt>
      <trkpt lat="47.67051" lon="6.15158">
        <ele>262.2</ele>
        <time>2021-10-06T13:56:24Z</time>
      </trkpt>
      <trkpt lat="47.67058" lon="6.15155">
        <ele>262.2</ele>
        <time>2021-10-06T13:56:26Z</time>
      </trkpt>
      <trkpt lat="47.67063" lon="6.15154">
        <ele>262.2</ele>
        <time>2021-10-06T13:56:27Z</time>
      </trkpt>
      <trkpt lat="47.67069" lon="6.15152">
        <ele>262.2</ele>
        <time>2021-10-06T13:56:28Z</time>
      </trkpt>
      <trkpt lat="47.67073" lon="6.1515">
        <ele>262.2</ele>
        <time>2021-10-06T13:56:29Z</time>
      </trkpt>
      <trkpt lat="47.6708" lon="6.15148">
        <ele>262.2</ele>
        <time>2021-10-06T13:56:29Z</time>
      </trkpt>
      <trkpt lat="47.67088" lon="6.15146">
        <ele>262.2</ele>
        <time>2021-10-06T13:56:31Z</time>
      </trkpt>
      <trkpt lat="47.67094" lon="6.15143">
        <ele>262.3</ele>
        <time>2021-10-06T13:56:33Z</time>
      </trkpt>
      <trkpt lat="47.671" lon="6.15141">
        <ele>262.3</ele>
        <time>2021-10-06T13:56:35Z</time>
      </trkpt>
      <trkpt lat="47.67106" lon="6.15139">
        <ele>262.4</ele>
        <time>2021-10-06T13:56:39Z</time>
      </trkpt>
      <trkpt lat="47.6711" lon="6.15138">
        <ele>262.4</ele>
        <time>2021-10-06T13:56:41Z</time>
      </trkpt>
      <trkpt lat="47.67116" lon="6.15136">
        <ele>262.5</ele>
        <time>2021-10-06T13:56:43Z</time>
      </trkpt>
      <trkpt lat="47.67123" lon="6.15133">
        <ele>262.5</ele>
        <time>2021-10-06T13:56:45Z</time>
      </trkpt>
      <trkpt lat="47.67134" lon="6.15129">
        <ele>262.7</ele>
        <time>2021-10-06T13:56:46Z</time>
      </trkpt>
      <trkpt lat="47.6714" lon="6.15126">
        <ele>262.7</ele>
        <time>2021-10-06T13:56:50Z</time>
      </trkpt>
      <trkpt lat="47.67145" lon="6.15124">
        <ele>262.8</ele>
        <time>2021-10-06T13:56:51Z</time>
      </trkpt>
      <trkpt lat="47.67152" lon="6.15121">
        <ele>262.9</ele>
        <time>2021-10-06T13:56:51Z</time>
      </trkpt>
      <trkpt lat="47.67157" lon="6.15119">
        <ele>263</ele>
        <time>2021-10-06T13:56:54Z</time>
      </trkpt>
      <trkpt lat="47.67163" lon="6.15115">
        <ele>263.1</ele>
        <time>2021-10-06T13:56:54Z</time>
      </trkpt>
      <trkpt lat="47.67169" lon="6.15111">
        <ele>263.2</ele>
        <time>2021-10-06T13:56:58Z</time>
      </trkpt>
      <trkpt lat="47.67179" lon="6.15104">
        <ele>263.2</ele>
        <time>2021-10-06T13:56:59Z</time>
      </trkpt>
      <trkpt lat="47.67185" lon="6.151">
        <ele>263.2</ele>
        <time>2021-10-06T13:57:01Z</time>
      </trkpt>
      <trkpt lat="47.67191" lon="6.15095">
        <ele>263.2</ele>
        <time>2021-10-06T13:57:05Z</time>
      </trkpt>
      <trkpt lat="47.67197" lon="6.15089">
        <ele>263.3</ele>
        <time>2021-10-06T13:57:07Z</time>
      </trkpt>
      <trkpt lat="47.67202" lon="6.15084">
        <ele>263.3</ele>
        <time>2021-10-06T13:57:09Z</time>
      </trkpt>
      <trkpt lat="47.67206" lon="6.1508">
        <ele>263.1</ele>
        <time>2021-10-06T13:57:10Z</time>
      </trkpt>
      <trkpt lat="47.67211" lon="6.15076">
        <ele>262.9</ele>
        <time>2021-10-06T13:57:11Z</time>
      </trkpt>
      <trkpt lat="47.67216" lon="6.15071">
        <ele>262.6</ele>
        <time>2021-10-06T13:57:13Z</time>
      </trkpt>
      <trkpt lat="47.6722" lon="6.15067">
        <ele>262.4</ele>
        <time>2021-10-06T13:57:14Z</time>
      </trkpt>
      <trkpt lat="47.67225" lon="6.15062">
        <ele>262.1</ele>
        <time>2021-10-06T13:57:15Z</time>
      </trkpt>
      <trkpt lat="47.67234" lon="6.15054">
        <ele>261.5</ele>
        <time>2021-10-06T13:57:15Z</time>
      </trkpt>
      <trkpt lat="47.6724" lon="6.15048">
        <ele>261.2</ele>
        <time>2021-10-06T13:57:18Z</time>
      </trkpt>
      <trkpt lat="47.67247" lon="6.15041">
        <ele>260.7</ele>
        <time>2021-10-06T13:57:20Z</time>
      </trkpt>
      <trkpt lat="47.67258" lon="6.15031">
        <ele>260.4</ele>
        <time>2021-10-06T13:57:20Z</time>
      </trkpt>
      <trkpt lat="47.67263" lon="6.15026">
        <ele>260.3</ele>
        <time>2021-10-06T13:57:21Z</time>
      </trkpt>
      <trkpt lat="47.67268" lon="6.15022">
        <ele>260.3</ele>
        <time>2021-10-06T13:57:22Z</time>
      </trkpt>
      <trkpt lat="47.67272" lon="6.15017">
        <ele>260.3</ele>
        <time>2021-10-06T13:57:23Z</time>
      </trkpt>
      <trkpt lat="47.67277" lon="6.15013">
        <ele>260.3</ele>
        <time>2021-10-06T13:57:24Z</time>
      </trkpt>
      <trkpt lat="47.67282" lon="6.15009">
        <ele>260.4</ele>
        <time>2021-10-06T13:57:25Z</time>
      </trkpt>
      <trkpt lat="47.67287" lon="6.15005">
        <ele>260.4</ele>
        <time>2021-10-06T13:57:26Z</time>
      </trkpt>
      <trkpt lat="47.67291" lon="6.15001">
        <ele>260.5</ele>
        <time>2021-10-06T13:57:27Z</time>
      </trkpt>
      <trkpt lat="47.67296" lon="6.14997">
        <ele>260.7</ele>
        <time>2021-10-06T13:57:28Z</time>
      </trkpt>
      <trkpt lat="47.673" lon="6.14993">
        <ele>260.9</ele>
        <time>2021-10-06T13:57:29Z</time>
      </trkpt>
      <trkpt lat="47.67304" lon="6.14989">
        <ele>261.2</ele>
        <time>2021-10-06T13:57:30Z</time>
      </trkpt>
      <trkpt lat="47.67308" lon="6.14985">
        <ele>261.4</ele>
        <time>2021-10-06T13:57:31Z</time>
      </trkpt>
      <trkpt lat="47.67312" lon="6.14982">
        <ele>261.7</ele>
        <time>2021-10-06T13:57:32Z</time>
      </trkpt>
      <trkpt lat="47.67319" lon="6.14975">
        <ele>262.3</ele>
        <time>2021-10-06T13:57:34Z</time>
      </trkpt>
      <trkpt lat="47.67326" lon="6.14969">
        <ele>262.9</ele>
        <time>2021-10-06T13:57:36Z</time>
      </trkpt>
      <trkpt lat="47.67332" lon="6.14964">
        <ele>263.6</ele>
        <time>2021-10-06T13:57:38Z</time>
      </trkpt>
      <trkpt lat="47.67337" lon="6.1496">
        <ele>263.8</ele>
        <time>2021-10-06T13:57:40Z</time>
      </trkpt>
      <trkpt lat="47.67343" lon="6.14955">
        <ele>263.8</ele>
        <time>2021-10-06T13:57:42Z</time>
      </trkpt>
      <trkpt lat="47.67348" lon="6.1495">
        <ele>263.9</ele>
        <time>2021-10-06T13:57:44Z</time>
      </trkpt>
      <trkpt lat="47.67355" lon="6.14949">
        <ele>263.7</ele>
        <time>2021-10-06T13:57:48Z</time>
      </trkpt>
      <trkpt lat="47.6736" lon="6.14943">
        <ele>263.8</ele>
        <time>2021-10-06T13:57:50Z</time>
      </trkpt>
      <trkpt lat="47.67368" lon="6.14934">
        <ele>264.1</ele>
        <time>2021-10-06T13:57:53Z</time>
      </trkpt>
      <trkpt lat="47.67372" lon="6.14929">
        <ele>264.2</ele>
        <time>2021-10-06T13:57:55Z</time>
      </trkpt>
      <trkpt lat="47.67378" lon="6.14923">
        <ele>264.4</ele>
        <time>2021-10-06T13:57:57Z</time>
      </trkpt>
      <trkpt lat="47.67382" lon="6.14918">
        <ele>264.5</ele>
        <time>2021-10-06T13:57:59Z</time>
      </trkpt>
      <trkpt lat="47.67387" lon="6.14914">
        <ele>264.8</ele>
        <time>2021-10-06T13:58:01Z</time>
      </trkpt>
      <trkpt lat="47.67392" lon="6.14909">
        <ele>265.3</ele>
        <time>2021-10-06T13:58:01Z</time>
      </trkpt>
      <trkpt lat="47.67398" lon="6.14904">
        <ele>265.8</ele>
        <time>2021-10-06T13:58:03Z</time>
      </trkpt>
      <trkpt lat="47.67402" lon="6.149">
        <ele>266.2</ele>
        <time>2021-10-06T13:58:07Z</time>
      </trkpt>
      <trkpt lat="47.67407" lon="6.14894">
        <ele>266.7</ele>
        <time>2021-10-06T13:58:07Z</time>
      </trkpt>
      <trkpt lat="47.67413" lon="6.14889">
        <ele>267.3</ele>
        <time>2021-10-06T13:58:12Z</time>
      </trkpt>
      <trkpt lat="47.67419" lon="6.14884">
        <ele>267.5</ele>
        <time>2021-10-06T13:58:14Z</time>
      </trkpt>
      <trkpt lat="47.67424" lon="6.1488">
        <ele>267.5</ele>
        <time>2021-10-06T13:58:16Z</time>
      </trkpt>
      <trkpt lat="47.6743" lon="6.14874">
        <ele>267.6</ele>
        <time>2021-10-06T13:58:16Z</time>
      </trkpt>
      <trkpt lat="47.67435" lon="6.1487">
        <ele>267.6</ele>
        <time>2021-10-06T13:58:20Z</time>
      </trkpt>
      <trkpt lat="47.67441" lon="6.14866">
        <ele>267.5</ele>
        <time>2021-10-06T13:58:22Z</time>
      </trkpt>
      <trkpt lat="47.67445" lon="6.14861">
        <ele>267.4</ele>
        <time>2021-10-06T13:58:22Z</time>
      </trkpt>
      <trkpt lat="47.67451" lon="6.14855">
        <ele>267.4</ele>
        <time>2021-10-06T13:58:27Z</time>
      </trkpt>
      <trkpt lat="47.67456" lon="6.1485">
        <ele>267.4</ele>
        <time>2021-10-06T13:58:29Z</time>
      </trkpt>
      <trkpt lat="47.67462" lon="6.14845">
        <ele>267.2</ele>
        <time>2021-10-06T13:58:31Z</time>
      </trkpt>
      <trkpt lat="47.67466" lon="6.14842">
        <ele>267</ele>
        <time>2021-10-06T13:58:33Z</time>
      </trkpt>
      <trkpt lat="47.67471" lon="6.14837">
        <ele>266.8</ele>
        <time>2021-10-06T13:58:35Z</time>
      </trkpt>
      <trkpt lat="47.67476" lon="6.14833">
        <ele>266.5</ele>
        <time>2021-10-06T13:58:37Z</time>
      </trkpt>
      <trkpt lat="47.67486" lon="6.14824">
        <ele>266.2</ele>
        <time>2021-10-06T13:58:38Z</time>
      </trkpt>
      <trkpt lat="47.67492" lon="6.14819">
        <ele>266.1</ele>
        <time>2021-10-06T13:58:40Z</time>
      </trkpt>
      <trkpt lat="47.67496" lon="6.14816">
        <ele>266</ele>
        <time>2021-10-06T13:58:44Z</time>
      </trkpt>
      <trkpt lat="47.675" lon="6.14812">
        <ele>266.1</ele>
        <time>2021-10-06T13:58:45Z</time>
      </trkpt>
      <trkpt lat="47.67511" lon="6.14802">
        <ele>266.5</ele>
        <time>2021-10-06T13:58:46Z</time>
      </trkpt>
      <trkpt lat="47.67517" lon="6.14797">
        <ele>266.8</ele>
        <time>2021-10-06T13:58:50Z</time>
      </trkpt>
      <trkpt lat="47.67521" lon="6.14793">
        <ele>267</ele>
        <time>2021-10-06T13:58:51Z</time>
      </trkpt>
      <trkpt lat="47.67527" lon="6.14786">
        <ele>267.3</ele>
        <time>2021-10-06T13:58:53Z</time>
      </trkpt>
      <trkpt lat="47.67531" lon="6.14782">
        <ele>267.4</ele>
        <time>2021-10-06T13:58:54Z</time>
      </trkpt>
      <trkpt lat="47.67538" lon="6.14775">
        <ele>267.6</ele>
        <time>2021-10-06T13:58:56Z</time>
      </trkpt>
      <trkpt lat="47.67545" lon="6.14767">
        <ele>267.7</ele>
        <time>2021-10-06T13:58:58Z</time>
      </trkpt>
      <trkpt lat="47.6755" lon="6.14763">
        <ele>267.7</ele>
        <time>2021-10-06T13:58:59Z</time>
      </trkpt>
      <trkpt lat="47.67554" lon="6.14758">
        <ele>267.6</ele>
        <time>2021-10-06T13:59:00Z</time>
      </trkpt>
      <trkpt lat="47.67563" lon="6.1475">
        <ele>267.4</ele>
        <time>2021-10-06T13:59:02Z</time>
      </trkpt>
      <trkpt lat="47.67574" lon="6.14742">
        <ele>266.9</ele>
        <time>2021-10-06T13:59:02Z</time>
      </trkpt>
      <trkpt lat="47.67581" lon="6.14737">
        <ele>266.6</ele>
        <time>2021-10-06T13:59:05Z</time>
      </trkpt>
      <trkpt lat="47.67587" lon="6.14732">
        <ele>266.5</ele>
        <time>2021-10-06T13:59:07Z</time>
      </trkpt>
      <trkpt lat="47.67594" lon="6.14726">
        <ele>266.3</ele>
        <time>2021-10-06T13:59:08Z</time>
      </trkpt>
      <trkpt lat="47.67602" lon="6.1472">
        <ele>265.7</ele>
        <time>2021-10-06T13:59:10Z</time>
      </trkpt>
      <trkpt lat="47.67614" lon="6.1471">
        <ele>264.9</ele>
        <time>2021-10-06T13:59:10Z</time>
      </trkpt>
      <trkpt lat="47.67619" lon="6.14707">
        <ele>264.5</ele>
        <time>2021-10-06T13:59:11Z</time>
      </trkpt>
      <trkpt lat="47.67624" lon="6.14703">
        <ele>264</ele>
        <time>2021-10-06T13:59:12Z</time>
      </trkpt>
      <trkpt lat="47.67628" lon="6.14699">
        <ele>263.5</ele>
        <time>2021-10-06T13:59:13Z</time>
      </trkpt>
      <trkpt lat="47.67633" lon="6.14696">
        <ele>263</ele>
        <time>2021-10-06T13:59:14Z</time>
      </trkpt>
      <trkpt lat="47.67637" lon="6.14693">
        <ele>262.5</ele>
        <time>2021-10-06T13:59:15Z</time>
      </trkpt>
      <trkpt lat="47.67642" lon="6.1469">
        <ele>261.9</ele>
        <time>2021-10-06T13:59:16Z</time>
      </trkpt>
      <trkpt lat="47.67646" lon="6.14687">
        <ele>261.3</ele>
        <time>2021-10-06T13:59:17Z</time>
      </trkpt>
      <trkpt lat="47.67654" lon="6.14682">
        <ele>260.1</ele>
        <time>2021-10-06T13:59:19Z</time>
      </trkpt>
      <trkpt lat="47.67661" lon="6.14677">
        <ele>258.8</ele>
        <time>2021-10-06T13:59:21Z</time>
      </trkpt>
      <trkpt lat="47.67669" lon="6.14673">
        <ele>257.9</ele>
        <time>2021-10-06T13:59:23Z</time>
      </trkpt>
      <trkpt lat="47.67675" lon="6.14669">
        <ele>258.1</ele>
        <time>2021-10-06T13:59:25Z</time>
      </trkpt>
      <trkpt lat="47.67682" lon="6.14665">
        <ele>258.2</ele>
        <time>2021-10-06T13:59:27Z</time>
      </trkpt>
      <trkpt lat="47.67686" lon="6.14658">
        <ele>258.4</ele>
        <time>2021-10-06T13:59:29Z</time>
      </trkpt>
      <trkpt lat="47.67695" lon="6.14654">
        <ele>258.6</ele>
        <time>2021-10-06T13:59:33Z</time>
      </trkpt>
      <trkpt lat="47.67699" lon="6.14652">
        <ele>258.7</ele>
        <time>2021-10-06T13:59:34Z</time>
      </trkpt>
      <trkpt lat="47.67704" lon="6.1465">
        <ele>258.8</ele>
        <time>2021-10-06T13:59:35Z</time>
      </trkpt>
      <trkpt lat="47.67708" lon="6.14648">
        <ele>258.8</ele>
        <time>2021-10-06T13:59:37Z</time>
      </trkpt>
      <trkpt lat="47.67713" lon="6.14644">
        <ele>258.9</ele>
        <time>2021-10-06T13:59:38Z</time>
      </trkpt>
      <trkpt lat="47.67719" lon="6.14641">
        <ele>259.1</ele>
        <time>2021-10-06T13:59:40Z</time>
      </trkpt>
      <trkpt lat="47.67726" lon="6.14637">
        <ele>259.2</ele>
        <time>2021-10-06T13:59:40Z</time>
      </trkpt>
      <trkpt lat="47.67731" lon="6.14633">
        <ele>259.3</ele>
        <time>2021-10-06T13:59:44Z</time>
      </trkpt>
      <trkpt lat="47.67736" lon="6.1463">
        <ele>259.4</ele>
        <time>2021-10-06T13:59:46Z</time>
      </trkpt>
      <trkpt lat="47.67741" lon="6.14627">
        <ele>259.4</ele>
        <time>2021-10-06T13:59:48Z</time>
      </trkpt>
      <trkpt lat="47.67746" lon="6.14624">
        <ele>259.5</ele>
        <time>2021-10-06T13:59:49Z</time>
      </trkpt>
      <trkpt lat="47.6775" lon="6.14621">
        <ele>259.5</ele>
        <time>2021-10-06T13:59:51Z</time>
      </trkpt>
      <trkpt lat="47.67757" lon="6.14617">
        <ele>259.6</ele>
        <time>2021-10-06T13:59:53Z</time>
      </trkpt>
      <trkpt lat="47.67761" lon="6.14614">
        <ele>259.7</ele>
        <time>2021-10-06T13:59:54Z</time>
      </trkpt>
      <trkpt lat="47.67765" lon="6.14611">
        <ele>259.8</ele>
        <time>2021-10-06T13:59:56Z</time>
      </trkpt>
      <trkpt lat="47.67773" lon="6.14607">
        <ele>259.9</ele>
        <time>2021-10-06T13:59:56Z</time>
      </trkpt>
      <trkpt lat="47.67778" lon="6.14604">
        <ele>260</ele>
        <time>2021-10-06T14:00:00Z</time>
      </trkpt>
      <trkpt lat="47.67787" lon="6.14597">
        <ele>260.2</ele>
        <time>2021-10-06T14:00:03Z</time>
      </trkpt>
      <trkpt lat="47.67792" lon="6.14594">
        <ele>260.3</ele>
        <time>2021-10-06T14:00:05Z</time>
      </trkpt>
      <trkpt lat="47.67798" lon="6.1459">
        <ele>260.5</ele>
        <time>2021-10-06T14:00:07Z</time>
      </trkpt>
      <trkpt lat="47.67802" lon="6.14587">
        <ele>260.6</ele>
        <time>2021-10-06T14:00:08Z</time>
      </trkpt>
      <trkpt lat="47.67808" lon="6.14583">
        <ele>260.7</ele>
        <time>2021-10-06T14:00:10Z</time>
      </trkpt>
      <trkpt lat="47.67814" lon="6.14579">
        <ele>260.8</ele>
        <time>2021-10-06T14:00:10Z</time>
      </trkpt>
      <trkpt lat="47.6782" lon="6.14576">
        <ele>260.9</ele>
        <time>2021-10-06T14:00:12Z</time>
      </trkpt>
      <trkpt lat="47.67825" lon="6.14573">
        <ele>261</ele>
        <time>2021-10-06T14:00:16Z</time>
      </trkpt>
      <trkpt lat="47.67832" lon="6.1457">
        <ele>261.1</ele>
        <time>2021-10-06T14:00:16Z</time>
      </trkpt>
      <trkpt lat="47.67838" lon="6.14566">
        <ele>261.2</ele>
        <time>2021-10-06T14:00:20Z</time>
      </trkpt>
      <trkpt lat="47.67844" lon="6.14562">
        <ele>261.3</ele>
        <time>2021-10-06T14:00:20Z</time>
      </trkpt>
      <trkpt lat="47.67849" lon="6.14559">
        <ele>261.4</ele>
        <time>2021-10-06T14:00:22Z</time>
      </trkpt>
      <trkpt lat="47.67854" lon="6.14555">
        <ele>261.5</ele>
        <time>2021-10-06T14:00:24Z</time>
      </trkpt>
      <trkpt lat="47.67858" lon="6.14552">
        <ele>261.6</ele>
        <time>2021-10-06T14:00:26Z</time>
      </trkpt>
      <trkpt lat="47.67863" lon="6.14549">
        <ele>261.7</ele>
        <time>2021-10-06T14:00:28Z</time>
      </trkpt>
      <trkpt lat="47.67868" lon="6.14545">
        <ele>261.9</ele>
        <time>2021-10-06T14:00:30Z</time>
      </trkpt>
      <trkpt lat="47.67873" lon="6.14541">
        <ele>262</ele>
        <time>2021-10-06T14:00:32Z</time>
      </trkpt>
      <trkpt lat="47.67877" lon="6.14538">
        <ele>262.1</ele>
        <time>2021-10-06T14:00:36Z</time>
      </trkpt>
      <trkpt lat="47.67882" lon="6.14533">
        <ele>262.3</ele>
        <time>2021-10-06T14:00:36Z</time>
      </trkpt>
      <trkpt lat="47.67887" lon="6.14528">
        <ele>262.5</ele>
        <time>2021-10-06T14:00:38Z</time>
      </trkpt>
      <trkpt lat="47.67892" lon="6.14524">
        <ele>262.7</ele>
        <time>2021-10-06T14:00:40Z</time>
      </trkpt>
      <trkpt lat="47.67895" lon="6.14519">
        <ele>262.9</ele>
        <time>2021-10-06T14:00:44Z</time>
      </trkpt>
      <trkpt lat="47.67902" lon="6.14512">
        <ele>263.2</ele>
        <time>2021-10-06T14:00:45Z</time>
      </trkpt>
      <trkpt lat="47.67906" lon="6.14509">
        <ele>263.5</ele>
        <time>2021-10-06T14:00:49Z</time>
      </trkpt>
      <trkpt lat="47.67911" lon="6.14504">
        <ele>263.7</ele>
        <time>2021-10-06T14:00:51Z</time>
      </trkpt>
      <trkpt lat="47.67915" lon="6.14499">
        <ele>264</ele>
        <time>2021-10-06T14:00:51Z</time>
      </trkpt>
      <trkpt lat="47.67918" lon="6.14495">
        <ele>264.1</ele>
        <time>2021-10-06T14:00:55Z</time>
      </trkpt>
      <trkpt lat="47.67923" lon="6.14488">
        <ele>264.2</ele>
        <time>2021-10-06T14:00:55Z</time>
      </trkpt>
      <trkpt lat="47.67927" lon="6.14483">
        <ele>264.3</ele>
        <time>2021-10-06T14:00:57Z</time>
      </trkpt>
      <trkpt lat="47.67932" lon="6.14478">
        <ele>264.4</ele>
        <time>2021-10-06T14:00:59Z</time>
      </trkpt>
      <trkpt lat="47.67935" lon="6.14474">
        <ele>264.5</ele>
        <time>2021-10-06T14:01:03Z</time>
      </trkpt>
      <trkpt lat="47.67939" lon="6.14468">
        <ele>264.6</ele>
        <time>2021-10-06T14:01:05Z</time>
      </trkpt>
      <trkpt lat="47.67944" lon="6.1446">
        <ele>264.6</ele>
        <time>2021-10-06T14:01:05Z</time>
      </trkpt>
      <trkpt lat="47.67948" lon="6.14455">
        <ele>264.7</ele>
        <time>2021-10-06T14:01:09Z</time>
      </trkpt>
      <trkpt lat="47.67952" lon="6.14449">
        <ele>264.8</ele>
        <time>2021-10-06T14:01:09Z</time>
      </trkpt>
      <trkpt lat="47.67956" lon="6.14444">
        <ele>264.8</ele>
        <time>2021-10-06T14:01:11Z</time>
      </trkpt>
      <trkpt lat="47.67959" lon="6.14439">
        <ele>264.9</ele>
        <time>2021-10-06T14:01:13Z</time>
      </trkpt>
      <trkpt lat="47.67963" lon="6.14434">
        <ele>264.9</ele>
        <time>2021-10-06T14:01:17Z</time>
      </trkpt>
      <trkpt lat="47.67967" lon="6.14428">
        <ele>264.9</ele>
        <time>2021-10-06T14:01:17Z</time>
      </trkpt>
      <trkpt lat="47.67971" lon="6.14423">
        <ele>265</ele>
        <time>2021-10-06T14:01:19Z</time>
      </trkpt>
      <trkpt lat="47.67975" lon="6.14417">
        <ele>265</ele>
        <time>2021-10-06T14:01:24Z</time>
      </trkpt>
      <trkpt lat="47.67979" lon="6.14411">
        <ele>265.1</ele>
        <time>2021-10-06T14:01:24Z</time>
      </trkpt>
      <trkpt lat="47.67983" lon="6.14407">
        <ele>265.2</ele>
        <time>2021-10-06T14:01:26Z</time>
      </trkpt>
      <trkpt lat="47.67986" lon="6.14402">
        <ele>265.3</ele>
        <time>2021-10-06T14:01:28Z</time>
      </trkpt>
      <trkpt lat="47.67989" lon="6.14397">
        <ele>265.4</ele>
        <time>2021-10-06T14:01:32Z</time>
      </trkpt>
      <trkpt lat="47.67992" lon="6.14392">
        <ele>265.5</ele>
        <time>2021-10-06T14:01:32Z</time>
      </trkpt>
      <trkpt lat="47.67998" lon="6.14384">
        <ele>265.8</ele>
        <time>2021-10-06T14:01:35Z</time>
      </trkpt>
      <trkpt lat="47.68002" lon="6.14379">
        <ele>265.9</ele>
        <time>2021-10-06T14:01:40Z</time>
      </trkpt>
      <trkpt lat="47.68006" lon="6.14373">
        <ele>266.2</ele>
        <time>2021-10-06T14:01:42Z</time>
      </trkpt>
      <trkpt lat="47.68011" lon="6.14366">
        <ele>266.4</ele>
        <time>2021-10-06T14:01:43Z</time>
      </trkpt>
      <trkpt lat="47.68016" lon="6.1436">
        <ele>266.6</ele>
        <time>2021-10-06T14:01:48Z</time>
      </trkpt>
      <trkpt lat="47.6802" lon="6.14354">
        <ele>266.8</ele>
        <time>2021-10-06T14:01:48Z</time>
      </trkpt>
      <trkpt lat="47.68025" lon="6.14348">
        <ele>267</ele>
        <time>2021-10-06T14:01:53Z</time>
      </trkpt>
      <trkpt lat="47.68029" lon="6.14343">
        <ele>267.2</ele>
        <time>2021-10-06T14:01:53Z</time>
      </trkpt>
      <trkpt lat="47.68034" lon="6.14338">
        <ele>267.3</ele>
        <time>2021-10-06T14:01:56Z</time>
      </trkpt>
      <trkpt lat="47.68038" lon="6.14332">
        <ele>267.5</ele>
        <time>2021-10-06T14:01:59Z</time>
      </trkpt>
      <trkpt lat="47.68043" lon="6.14326">
        <ele>267.6</ele>
        <time>2021-10-06T14:02:02Z</time>
      </trkpt>
      <trkpt lat="47.68048" lon="6.14321">
        <ele>267.8</ele>
        <time>2021-10-06T14:02:05Z</time>
      </trkpt>
      <trkpt lat="47.68053" lon="6.14316">
        <ele>267.9</ele>
        <time>2021-10-06T14:02:08Z</time>
      </trkpt>
      <trkpt lat="47.68056" lon="6.14311">
        <ele>268</ele>
        <time>2021-10-06T14:02:13Z</time>
      </trkpt>
      <trkpt lat="47.68061" lon="6.14306">
        <ele>268.2</ele>
        <time>2021-10-06T14:02:16Z</time>
      </trkpt>
      <trkpt lat="47.68066" lon="6.14301">
        <ele>268.4</ele>
        <time>2021-10-06T14:02:16Z</time>
      </trkpt>
      <trkpt lat="47.6807" lon="6.14296">
        <ele>268.6</ele>
        <time>2021-10-06T14:02:19Z</time>
      </trkpt>
      <trkpt lat="47.68075" lon="6.14291">
        <ele>268.8</ele>
        <time>2021-10-06T14:02:22Z</time>
      </trkpt>
      <trkpt lat="47.68079" lon="6.14285">
        <ele>269.1</ele>
        <time>2021-10-06T14:02:25Z</time>
      </trkpt>
      <trkpt lat="47.68083" lon="6.14279">
        <ele>269.3</ele>
        <time>2021-10-06T14:02:28Z</time>
      </trkpt>
      <trkpt lat="47.68088" lon="6.14274">
        <ele>269.6</ele>
        <time>2021-10-06T14:02:31Z</time>
      </trkpt>
      <trkpt lat="47.68093" lon="6.14269">
        <ele>269.9</ele>
        <time>2021-10-06T14:02:34Z</time>
      </trkpt>
      <trkpt lat="47.68097" lon="6.14263">
        <ele>270.2</ele>
        <time>2021-10-06T14:02:37Z</time>
      </trkpt>
      <trkpt lat="47.68102" lon="6.14257">
        <ele>270.5</ele>
        <time>2021-10-06T14:02:40Z</time>
      </trkpt>
      <trkpt lat="47.68106" lon="6.14251">
        <ele>270.8</ele>
        <time>2021-10-06T14:02:43Z</time>
      </trkpt>
      <trkpt lat="47.6811" lon="6.14246">
        <ele>271.1</ele>
        <time>2021-10-06T14:02:48Z</time>
      </trkpt>
      <trkpt lat="47.68114" lon="6.14242">
        <ele>271.3</ele>
        <time>2021-10-06T14:02:50Z</time>
      </trkpt>
      <trkpt lat="47.68118" lon="6.14235">
        <ele>271.6</ele>
        <time>2021-10-06T14:02:51Z</time>
      </trkpt>
      <trkpt lat="47.68123" lon="6.1423">
        <ele>271.9</ele>
        <time>2021-10-06T14:02:54Z</time>
      </trkpt>
      <trkpt lat="47.68127" lon="6.14225">
        <ele>272.2</ele>
        <time>2021-10-06T14:02:57Z</time>
      </trkpt>
      <trkpt lat="47.68132" lon="6.14228">
        <ele>272.3</ele>
        <time>2021-10-06T14:03:02Z</time>
      </trkpt>
      <trkpt lat="47.68135" lon="6.14233">
        <ele>272.3</ele>
        <time>2021-10-06T14:03:04Z</time>
      </trkpt>
      <trkpt lat="47.68138" lon="6.14239">
        <ele>272.2</ele>
        <time>2021-10-06T14:03:08Z</time>
      </trkpt>
      <trkpt lat="47.6814" lon="6.14246">
        <ele>272.1</ele>
        <time>2021-10-06T14:03:12Z</time>
      </trkpt>
      <trkpt lat="47.6814" lon="6.14253">
        <ele>272</ele>
        <time>2021-10-06T14:04:51Z</time>
      </trkpt>
      <trkpt lat="47.68141" lon="6.14246">
        <ele>272.2</ele>
        <time>2021-10-06T14:06:32Z</time>
      </trkpt>
      <trkpt lat="47.68139" lon="6.14237">
        <ele>272.3</ele>
        <time>2021-10-06T14:06:50Z</time>
      </trkpt>
      <trkpt lat="47.68137" lon="6.1423">
        <ele>272.4</ele>
        <time>2021-10-06T14:06:52Z</time>
      </trkpt>
      <trkpt lat="47.68135" lon="6.14222">
        <ele>272.5</ele>
        <time>2021-10-06T14:06:53Z</time>
      </trkpt>
      <trkpt lat="47.68138" lon="6.14215">
        <ele>272.8</ele>
        <time>2021-10-06T14:06:57Z</time>
      </trkpt>
      <trkpt lat="47.68141" lon="6.1421">
        <ele>273</ele>
        <time>2021-10-06T14:06:58Z</time>
      </trkpt>
      <trkpt lat="47.68145" lon="6.14203">
        <ele>273.4</ele>
        <time>2021-10-06T14:07:01Z</time>
      </trkpt>
      <trkpt lat="47.68149" lon="6.14197">
        <ele>273.7</ele>
        <time>2021-10-06T14:07:04Z</time>
      </trkpt>
      <trkpt lat="47.68154" lon="6.14191">
        <ele>273.9</ele>
        <time>2021-10-06T14:07:07Z</time>
      </trkpt>
      <trkpt lat="47.68158" lon="6.14186">
        <ele>274.2</ele>
        <time>2021-10-06T14:07:10Z</time>
      </trkpt>
      <trkpt lat="47.68162" lon="6.1418">
        <ele>274.5</ele>
        <time>2021-10-06T14:07:13Z</time>
      </trkpt>
      <trkpt lat="47.68167" lon="6.14175">
        <ele>274.8</ele>
        <time>2021-10-06T14:07:16Z</time>
      </trkpt>
      <trkpt lat="47.68172" lon="6.1417">
        <ele>275</ele>
        <time>2021-10-06T14:07:19Z</time>
      </trkpt>
      <trkpt lat="47.68177" lon="6.14164">
        <ele>275.3</ele>
        <time>2021-10-06T14:07:23Z</time>
      </trkpt>
      <trkpt lat="47.68181" lon="6.14158">
        <ele>275.5</ele>
        <time>2021-10-06T14:07:26Z</time>
      </trkpt>
      <trkpt lat="47.68185" lon="6.14152">
        <ele>275.7</ele>
        <time>2021-10-06T14:07:28Z</time>
      </trkpt>
      <trkpt lat="47.68188" lon="6.14147">
        <ele>275.8</ele>
        <time>2021-10-06T14:07:32Z</time>
      </trkpt>
      <trkpt lat="47.68192" lon="6.14142">
        <ele>276</ele>
        <time>2021-10-06T14:07:33Z</time>
      </trkpt>
      <trkpt lat="47.68196" lon="6.14136">
        <ele>276.2</ele>
        <time>2021-10-06T14:07:36Z</time>
      </trkpt>
      <trkpt lat="47.68201" lon="6.1413">
        <ele>276.4</ele>
        <time>2021-10-06T14:07:39Z</time>
      </trkpt>
      <trkpt lat="47.68205" lon="6.14123">
        <ele>276.7</ele>
        <time>2021-10-06T14:07:42Z</time>
      </trkpt>
      <trkpt lat="47.68209" lon="6.14118">
        <ele>276.9</ele>
        <time>2021-10-06T14:07:46Z</time>
      </trkpt>
      <trkpt lat="47.68213" lon="6.14111">
        <ele>277.2</ele>
        <time>2021-10-06T14:07:49Z</time>
      </trkpt>
      <trkpt lat="47.68217" lon="6.14105">
        <ele>277.4</ele>
        <time>2021-10-06T14:07:51Z</time>
      </trkpt>
      <trkpt lat="47.68222" lon="6.14098">
        <ele>277.7</ele>
        <time>2021-10-06T14:07:54Z</time>
      </trkpt>
      <trkpt lat="47.68226" lon="6.14091">
        <ele>278</ele>
        <time>2021-10-06T14:07:55Z</time>
      </trkpt>
      <trkpt lat="47.68229" lon="6.14086">
        <ele>278.2</ele>
        <time>2021-10-06T14:07:57Z</time>
      </trkpt>
      <trkpt lat="47.68233" lon="6.14079">
        <ele>278.4</ele>
        <time>2021-10-06T14:08:00Z</time>
      </trkpt>
      <trkpt lat="47.68236" lon="6.14073">
        <ele>278.5</ele>
        <time>2021-10-06T14:08:02Z</time>
      </trkpt>
      <trkpt lat="47.6824" lon="6.14065">
        <ele>278.6</ele>
        <time>2021-10-06T14:08:05Z</time>
      </trkpt>
      <trkpt lat="47.68244" lon="6.14056">
        <ele>278.8</ele>
        <time>2021-10-06T14:08:08Z</time>
      </trkpt>
      <trkpt lat="47.68247" lon="6.1405">
        <ele>278.9</ele>
        <time>2021-10-06T14:08:12Z</time>
      </trkpt>
      <trkpt lat="47.68251" lon="6.14043">
        <ele>279</ele>
        <time>2021-10-06T14:08:13Z</time>
      </trkpt>
      <trkpt lat="47.68254" lon="6.14037">
        <ele>279.2</ele>
        <time>2021-10-06T14:08:15Z</time>
      </trkpt>
      <trkpt lat="47.68256" lon="6.14031">
        <ele>279.3</ele>
        <time>2021-10-06T14:08:17Z</time>
      </trkpt>
      <trkpt lat="47.6826" lon="6.14024">
        <ele>279.5</ele>
        <time>2021-10-06T14:08:20Z</time>
      </trkpt>
      <trkpt lat="47.68263" lon="6.14018">
        <ele>279.6</ele>
        <time>2021-10-06T14:08:22Z</time>
      </trkpt>
      <trkpt lat="47.68267" lon="6.14013">
        <ele>279.8</ele>
        <time>2021-10-06T14:08:24Z</time>
      </trkpt>
      <trkpt lat="47.6827" lon="6.14007">
        <ele>279.9</ele>
        <time>2021-10-06T14:08:27Z</time>
      </trkpt>
      <trkpt lat="47.68273" lon="6.13998">
        <ele>280.1</ele>
        <time>2021-10-06T14:08:29Z</time>
      </trkpt>
      <trkpt lat="47.68277" lon="6.1399">
        <ele>280.3</ele>
        <time>2021-10-06T14:08:32Z</time>
      </trkpt>
      <trkpt lat="47.68281" lon="6.13983">
        <ele>280.4</ele>
        <time>2021-10-06T14:08:36Z</time>
      </trkpt>
      <trkpt lat="47.68284" lon="6.13978">
        <ele>280.5</ele>
        <time>2021-10-06T14:08:38Z</time>
      </trkpt>
      <trkpt lat="47.68287" lon="6.13972">
        <ele>280.6</ele>
        <time>2021-10-06T14:08:39Z</time>
      </trkpt>
      <trkpt lat="47.6829" lon="6.13967">
        <ele>280.7</ele>
        <time>2021-10-06T14:08:41Z</time>
      </trkpt>
      <trkpt lat="47.68295" lon="6.13959">
        <ele>280.9</ele>
        <time>2021-10-06T14:08:44Z</time>
      </trkpt>
      <trkpt lat="47.683" lon="6.13951">
        <ele>281.1</ele>
        <time>2021-10-06T14:08:48Z</time>
      </trkpt>
      <trkpt lat="47.68306" lon="6.13943">
        <ele>281.2</ele>
        <time>2021-10-06T14:08:50Z</time>
      </trkpt>
      <trkpt lat="47.68309" lon="6.13938">
        <ele>281.3</ele>
        <time>2021-10-06T14:08:53Z</time>
      </trkpt>
      <trkpt lat="47.68313" lon="6.13933">
        <ele>281.4</ele>
        <time>2021-10-06T14:08:54Z</time>
      </trkpt>
      <trkpt lat="47.68317" lon="6.13927">
        <ele>281.5</ele>
        <time>2021-10-06T14:08:58Z</time>
      </trkpt>
      <trkpt lat="47.68322" lon="6.13921">
        <ele>281.6</ele>
        <time>2021-10-06T14:08:59Z</time>
      </trkpt>
      <trkpt lat="47.68325" lon="6.13915">
        <ele>281.7</ele>
        <time>2021-10-06T14:09:01Z</time>
      </trkpt>
      <trkpt lat="47.6833" lon="6.13908">
        <ele>281.8</ele>
        <time>2021-10-06T14:09:05Z</time>
      </trkpt>
      <trkpt lat="47.68334" lon="6.13904">
        <ele>281.9</ele>
        <time>2021-10-06T14:09:07Z</time>
      </trkpt>
      <trkpt lat="47.68338" lon="6.13899">
        <ele>282</ele>
        <time>2021-10-06T14:09:09Z</time>
      </trkpt>
      <trkpt lat="47.68343" lon="6.13892">
        <ele>282.1</ele>
        <time>2021-10-06T14:09:10Z</time>
      </trkpt>
      <trkpt lat="47.68346" lon="6.13887">
        <ele>282.2</ele>
        <time>2021-10-06T14:09:13Z</time>
      </trkpt>
      <trkpt lat="47.6835" lon="6.13881">
        <ele>282.4</ele>
        <time>2021-10-06T14:09:15Z</time>
      </trkpt>
      <trkpt lat="47.68355" lon="6.13875">
        <ele>282.5</ele>
        <time>2021-10-06T14:09:16Z</time>
      </trkpt>
      <trkpt lat="47.68359" lon="6.13868">
        <ele>282.7</ele>
        <time>2021-10-06T14:09:20Z</time>
      </trkpt>
      <trkpt lat="47.68363" lon="6.13861">
        <ele>282.9</ele>
        <time>2021-10-06T14:09:22Z</time>
      </trkpt>
      <trkpt lat="47.68367" lon="6.13855">
        <ele>283.1</ele>
        <time>2021-10-06T14:09:23Z</time>
      </trkpt>
      <trkpt lat="47.6837" lon="6.13848">
        <ele>283.2</ele>
        <time>2021-10-06T14:09:26Z</time>
      </trkpt>
      <trkpt lat="47.68373" lon="6.13842">
        <ele>283.4</ele>
        <time>2021-10-06T14:09:28Z</time>
      </trkpt>
      <trkpt lat="47.68376" lon="6.13837">
        <ele>283.5</ele>
        <time>2021-10-06T14:09:30Z</time>
      </trkpt>
      <trkpt lat="47.68381" lon="6.13823">
        <ele>283.7</ele>
        <time>2021-10-06T14:09:32Z</time>
      </trkpt>
      <trkpt lat="47.68384" lon="6.13815">
        <ele>283.7</ele>
        <time>2021-10-06T14:09:35Z</time>
      </trkpt>
      <trkpt lat="47.68386" lon="6.13808">
        <ele>283.7</ele>
        <time>2021-10-06T14:09:37Z</time>
      </trkpt>
      <trkpt lat="47.6839" lon="6.13798">
        <ele>283.7</ele>
        <time>2021-10-06T14:09:38Z</time>
      </trkpt>
      <trkpt lat="47.68393" lon="6.1379">
        <ele>283.7</ele>
        <time>2021-10-06T14:09:41Z</time>
      </trkpt>
      <trkpt lat="47.68396" lon="6.13781">
        <ele>283.7</ele>
        <time>2021-10-06T14:09:43Z</time>
      </trkpt>
      <trkpt lat="47.684" lon="6.13773">
        <ele>283.7</ele>
        <time>2021-10-06T14:09:45Z</time>
      </trkpt>
      <trkpt lat="47.68403" lon="6.13766">
        <ele>283.7</ele>
        <time>2021-10-06T14:09:47Z</time>
      </trkpt>
      <trkpt lat="47.68411" lon="6.13752">
        <ele>283.8</ele>
        <time>2021-10-06T14:09:50Z</time>
      </trkpt>
      <trkpt lat="47.68414" lon="6.13746">
        <ele>283.7</ele>
        <time>2021-10-06T14:09:52Z</time>
      </trkpt>
      <trkpt lat="47.68419" lon="6.13737">
        <ele>283.6</ele>
        <time>2021-10-06T14:09:53Z</time>
      </trkpt>
      <trkpt lat="47.68422" lon="6.13731">
        <ele>283.5</ele>
        <time>2021-10-06T14:09:56Z</time>
      </trkpt>
      <trkpt lat="47.68426" lon="6.13724">
        <ele>283.4</ele>
        <time>2021-10-06T14:09:57Z</time>
      </trkpt>
      <trkpt lat="47.6843" lon="6.13717">
        <ele>283.3</ele>
        <time>2021-10-06T14:09:59Z</time>
      </trkpt>
      <trkpt lat="47.68434" lon="6.1371">
        <ele>283.3</ele>
        <time>2021-10-06T14:10:01Z</time>
      </trkpt>
      <trkpt lat="47.68439" lon="6.13699">
        <ele>283.1</ele>
        <time>2021-10-06T14:10:05Z</time>
      </trkpt>
      <trkpt lat="47.68442" lon="6.13693">
        <ele>283.1</ele>
        <time>2021-10-06T14:10:07Z</time>
      </trkpt>
      <trkpt lat="47.68445" lon="6.13688">
        <ele>283.1</ele>
        <time>2021-10-06T14:10:09Z</time>
      </trkpt>
      <trkpt lat="47.6845" lon="6.13679">
        <ele>283</ele>
        <time>2021-10-06T14:10:10Z</time>
      </trkpt>
      <trkpt lat="47.68453" lon="6.13672">
        <ele>282.9</ele>
        <time>2021-10-06T14:10:13Z</time>
      </trkpt>
      <trkpt lat="47.68458" lon="6.13665">
        <ele>283</ele>
        <time>2021-10-06T14:10:15Z</time>
      </trkpt>
      <trkpt lat="47.68461" lon="6.13659">
        <ele>283.1</ele>
        <time>2021-10-06T14:10:17Z</time>
      </trkpt>
      <trkpt lat="47.68464" lon="6.13652">
        <ele>283.2</ele>
        <time>2021-10-06T14:10:19Z</time>
      </trkpt>
      <trkpt lat="47.68469" lon="6.13644">
        <ele>283.4</ele>
        <time>2021-10-06T14:10:21Z</time>
      </trkpt>
      <trkpt lat="47.68472" lon="6.13638">
        <ele>283.5</ele>
        <time>2021-10-06T14:10:23Z</time>
      </trkpt>
      <trkpt lat="47.68476" lon="6.13631">
        <ele>283.7</ele>
        <time>2021-10-06T14:10:25Z</time>
      </trkpt>
      <trkpt lat="47.68479" lon="6.13625">
        <ele>283.9</ele>
        <time>2021-10-06T14:10:27Z</time>
      </trkpt>
      <trkpt lat="47.68484" lon="6.13616">
        <ele>284.1</ele>
        <time>2021-10-06T14:10:28Z</time>
      </trkpt>
      <trkpt lat="47.68488" lon="6.13608">
        <ele>284.3</ele>
        <time>2021-10-06T14:10:31Z</time>
      </trkpt>
      <trkpt lat="47.68492" lon="6.13602">
        <ele>284.5</ele>
        <time>2021-10-06T14:10:33Z</time>
      </trkpt>
      <trkpt lat="47.68495" lon="6.13596">
        <ele>284.7</ele>
        <time>2021-10-06T14:10:35Z</time>
      </trkpt>
      <trkpt lat="47.68499" lon="6.1359">
        <ele>284.9</ele>
        <time>2021-10-06T14:10:37Z</time>
      </trkpt>
      <trkpt lat="47.68505" lon="6.13578">
        <ele>285.2</ele>
        <time>2021-10-06T14:10:40Z</time>
      </trkpt>
      <trkpt lat="47.68508" lon="6.13572">
        <ele>285.3</ele>
        <time>2021-10-06T14:10:42Z</time>
      </trkpt>
      <trkpt lat="47.68511" lon="6.13566">
        <ele>285.4</ele>
        <time>2021-10-06T14:10:43Z</time>
      </trkpt>
      <trkpt lat="47.68515" lon="6.1356">
        <ele>285.5</ele>
        <time>2021-10-06T14:10:45Z</time>
      </trkpt>
      <trkpt lat="47.68518" lon="6.13553">
        <ele>285.6</ele>
        <time>2021-10-06T14:10:47Z</time>
      </trkpt>
      <trkpt lat="47.68522" lon="6.13546">
        <ele>285.7</ele>
        <time>2021-10-06T14:10:49Z</time>
      </trkpt>
      <trkpt lat="47.68526" lon="6.13539">
        <ele>285.8</ele>
        <time>2021-10-06T14:10:50Z</time>
      </trkpt>
      <trkpt lat="47.6853" lon="6.13533">
        <ele>285.9</ele>
        <time>2021-10-06T14:10:53Z</time>
      </trkpt>
      <trkpt lat="47.68534" lon="6.13526">
        <ele>285.9</ele>
        <time>2021-10-06T14:10:55Z</time>
      </trkpt>
      <trkpt lat="47.68538" lon="6.1352">
        <ele>286</ele>
        <time>2021-10-06T14:10:57Z</time>
      </trkpt>
      <trkpt lat="47.68542" lon="6.13513">
        <ele>286.1</ele>
        <time>2021-10-06T14:10:59Z</time>
      </trkpt>
      <trkpt lat="47.68546" lon="6.13507">
        <ele>286.2</ele>
        <time>2021-10-06T14:11:01Z</time>
      </trkpt>
      <trkpt lat="47.6855" lon="6.135">
        <ele>286.2</ele>
        <time>2021-10-06T14:11:03Z</time>
      </trkpt>
      <trkpt lat="47.68555" lon="6.13493">
        <ele>286.3</ele>
        <time>2021-10-06T14:11:04Z</time>
      </trkpt>
      <trkpt lat="47.68559" lon="6.13487">
        <ele>286.4</ele>
        <time>2021-10-06T14:11:07Z</time>
      </trkpt>
      <trkpt lat="47.68562" lon="6.13481">
        <ele>286.5</ele>
        <time>2021-10-06T14:11:08Z</time>
      </trkpt>
      <trkpt lat="47.68565" lon="6.13475">
        <ele>286.6</ele>
        <time>2021-10-06T14:11:11Z</time>
      </trkpt>
      <trkpt lat="47.68569" lon="6.13469">
        <ele>286.6</ele>
        <time>2021-10-06T14:11:14Z</time>
      </trkpt>
      <trkpt lat="47.68571" lon="6.13463">
        <ele>286.7</ele>
        <time>2021-10-06T14:11:16Z</time>
      </trkpt>
      <trkpt lat="47.68574" lon="6.13457">
        <ele>286.8</ele>
        <time>2021-10-06T14:11:18Z</time>
      </trkpt>
      <trkpt lat="47.68578" lon="6.13451">
        <ele>286.9</ele>
        <time>2021-10-06T14:11:20Z</time>
      </trkpt>
      <trkpt lat="47.68581" lon="6.13447">
        <ele>286.9</ele>
        <time>2021-10-06T14:11:22Z</time>
      </trkpt>
      <trkpt lat="47.68585" lon="6.1344">
        <ele>287</ele>
        <time>2021-10-06T14:11:25Z</time>
      </trkpt>
      <trkpt lat="47.68588" lon="6.13433">
        <ele>287.2</ele>
        <time>2021-10-06T14:11:27Z</time>
      </trkpt>
      <trkpt lat="47.68592" lon="6.13426">
        <ele>287.3</ele>
        <time>2021-10-06T14:11:28Z</time>
      </trkpt>
      <trkpt lat="47.68595" lon="6.13419">
        <ele>287.4</ele>
        <time>2021-10-06T14:11:31Z</time>
      </trkpt>
      <trkpt lat="47.68598" lon="6.13414">
        <ele>287.5</ele>
        <time>2021-10-06T14:11:33Z</time>
      </trkpt>
      <trkpt lat="47.68604" lon="6.13405">
        <ele>287.6</ele>
        <time>2021-10-06T14:11:36Z</time>
      </trkpt>
      <trkpt lat="47.68607" lon="6.134">
        <ele>287.7</ele>
        <time>2021-10-06T14:11:38Z</time>
      </trkpt>
      <trkpt lat="47.68611" lon="6.13393">
        <ele>287.8</ele>
        <time>2021-10-06T14:11:40Z</time>
      </trkpt>
      <trkpt lat="47.68614" lon="6.13387">
        <ele>287.9</ele>
        <time>2021-10-06T14:11:42Z</time>
      </trkpt>
      <trkpt lat="47.68618" lon="6.1338">
        <ele>288</ele>
        <time>2021-10-06T14:11:43Z</time>
      </trkpt>
      <trkpt lat="47.68622" lon="6.13376">
        <ele>288.1</ele>
        <time>2021-10-06T14:11:46Z</time>
      </trkpt>
      <trkpt lat="47.68626" lon="6.13369">
        <ele>288.3</ele>
        <time>2021-10-06T14:11:48Z</time>
      </trkpt>
      <trkpt lat="47.6863" lon="6.13362">
        <ele>288.4</ele>
        <time>2021-10-06T14:11:50Z</time>
      </trkpt>
      <trkpt lat="47.68638" lon="6.13351">
        <ele>288.7</ele>
        <time>2021-10-06T14:11:53Z</time>
      </trkpt>
      <trkpt lat="47.68643" lon="6.13342">
        <ele>288.9</ele>
        <time>2021-10-06T14:11:55Z</time>
      </trkpt>
      <trkpt lat="47.68647" lon="6.13336">
        <ele>289.1</ele>
        <time>2021-10-06T14:11:57Z</time>
      </trkpt>
      <trkpt lat="47.68652" lon="6.13329">
        <ele>289.1</ele>
        <time>2021-10-06T14:11:59Z</time>
      </trkpt>
      <trkpt lat="47.68657" lon="6.13321">
        <ele>289</ele>
        <time>2021-10-06T14:12:00Z</time>
      </trkpt>
      <trkpt lat="47.68661" lon="6.13315">
        <ele>288.9</ele>
        <time>2021-10-06T14:12:03Z</time>
      </trkpt>
      <trkpt lat="47.68665" lon="6.13309">
        <ele>288.8</ele>
        <time>2021-10-06T14:12:05Z</time>
      </trkpt>
      <trkpt lat="47.6867" lon="6.13301">
        <ele>288.6</ele>
        <time>2021-10-06T14:12:07Z</time>
      </trkpt>
      <trkpt lat="47.68674" lon="6.13294">
        <ele>288.4</ele>
        <time>2021-10-06T14:12:08Z</time>
      </trkpt>
      <trkpt lat="47.68677" lon="6.13289">
        <ele>288.3</ele>
        <time>2021-10-06T14:12:11Z</time>
      </trkpt>
      <trkpt lat="47.68681" lon="6.13283">
        <ele>288.1</ele>
        <time>2021-10-06T14:12:11Z</time>
      </trkpt>
      <trkpt lat="47.68684" lon="6.13277">
        <ele>288</ele>
        <time>2021-10-06T14:12:15Z</time>
      </trkpt>
      <trkpt lat="47.68687" lon="6.13272">
        <ele>287.9</ele>
        <time>2021-10-06T14:12:17Z</time>
      </trkpt>
      <trkpt lat="47.68691" lon="6.13265">
        <ele>287.8</ele>
        <time>2021-10-06T14:12:20Z</time>
      </trkpt>
      <trkpt lat="47.68695" lon="6.13259">
        <ele>287.7</ele>
        <time>2021-10-06T14:12:22Z</time>
      </trkpt>
      <trkpt lat="47.68699" lon="6.13252">
        <ele>287.6</ele>
        <time>2021-10-06T14:12:22Z</time>
      </trkpt>
      <trkpt lat="47.68702" lon="6.13247">
        <ele>287.7</ele>
        <time>2021-10-06T14:12:26Z</time>
      </trkpt>
      <trkpt lat="47.68706" lon="6.1324">
        <ele>287.9</ele>
        <time>2021-10-06T14:12:28Z</time>
      </trkpt>
      <trkpt lat="47.6871" lon="6.13233">
        <ele>288.1</ele>
        <time>2021-10-06T14:12:28Z</time>
      </trkpt>
      <trkpt lat="47.68714" lon="6.13228">
        <ele>288.2</ele>
        <time>2021-10-06T14:12:32Z</time>
      </trkpt>
      <trkpt lat="47.68717" lon="6.13222">
        <ele>288.4</ele>
        <time>2021-10-06T14:12:34Z</time>
      </trkpt>
      <trkpt lat="47.68721" lon="6.13215">
        <ele>288.6</ele>
        <time>2021-10-06T14:12:36Z</time>
      </trkpt>
      <trkpt lat="47.68726" lon="6.13208">
        <ele>288.8</ele>
        <time>2021-10-06T14:12:38Z</time>
      </trkpt>
      <trkpt lat="47.68729" lon="6.13203">
        <ele>289</ele>
        <time>2021-10-06T14:12:40Z</time>
      </trkpt>
      <trkpt lat="47.68734" lon="6.13196">
        <ele>289.2</ele>
        <time>2021-10-06T14:12:42Z</time>
      </trkpt>
      <trkpt lat="47.68737" lon="6.1319">
        <ele>289.4</ele>
        <time>2021-10-06T14:12:44Z</time>
      </trkpt>
      <trkpt lat="47.68745" lon="6.13178">
        <ele>289.7</ele>
        <time>2021-10-06T14:12:45Z</time>
      </trkpt>
      <trkpt lat="47.68748" lon="6.13173">
        <ele>289.9</ele>
        <time>2021-10-06T14:12:49Z</time>
      </trkpt>
      <trkpt lat="47.68752" lon="6.13166">
        <ele>290</ele>
        <time>2021-10-06T14:12:49Z</time>
      </trkpt>
      <trkpt lat="47.68756" lon="6.1316">
        <ele>289.9</ele>
        <time>2021-10-06T14:12:51Z</time>
      </trkpt>
      <trkpt lat="47.6876" lon="6.13153">
        <ele>289.8</ele>
        <time>2021-10-06T14:12:56Z</time>
      </trkpt>
      <trkpt lat="47.68764" lon="6.13148">
        <ele>289.8</ele>
        <time>2021-10-06T14:12:58Z</time>
      </trkpt>
      <trkpt lat="47.68768" lon="6.13142">
        <ele>289.7</ele>
        <time>2021-10-06T14:13:00Z</time>
      </trkpt>
      <trkpt lat="47.68771" lon="6.13137">
        <ele>289.6</ele>
        <time>2021-10-06T14:13:02Z</time>
      </trkpt>
      <trkpt lat="47.68776" lon="6.13131">
        <ele>289.6</ele>
        <time>2021-10-06T14:13:04Z</time>
      </trkpt>
      <trkpt lat="47.68781" lon="6.13125">
        <ele>289.5</ele>
        <time>2021-10-06T14:13:06Z</time>
      </trkpt>
      <trkpt lat="47.68785" lon="6.13117">
        <ele>289.5</ele>
        <time>2021-10-06T14:13:08Z</time>
      </trkpt>
      <trkpt lat="47.68789" lon="6.13111">
        <ele>289.5</ele>
        <time>2021-10-06T14:13:10Z</time>
      </trkpt>
      <trkpt lat="47.68793" lon="6.13106">
        <ele>289.4</ele>
        <time>2021-10-06T14:13:11Z</time>
      </trkpt>
      <trkpt lat="47.68796" lon="6.13101">
        <ele>289.4</ele>
        <time>2021-10-06T14:13:13Z</time>
      </trkpt>
      <trkpt lat="47.68799" lon="6.13095">
        <ele>289.4</ele>
        <time>2021-10-06T14:13:14Z</time>
      </trkpt>
      <trkpt lat="47.68802" lon="6.13089">
        <ele>289.3</ele>
        <time>2021-10-06T14:13:15Z</time>
      </trkpt>
      <trkpt lat="47.68805" lon="6.13084">
        <ele>289.3</ele>
        <time>2021-10-06T14:13:16Z</time>
      </trkpt>
      <trkpt lat="47.68809" lon="6.13077">
        <ele>289.3</ele>
        <time>2021-10-06T14:13:18Z</time>
      </trkpt>
      <trkpt lat="47.68813" lon="6.13068">
        <ele>289.2</ele>
        <time>2021-10-06T14:13:20Z</time>
      </trkpt>
      <trkpt lat="47.68816" lon="6.13062">
        <ele>289.1</ele>
        <time>2021-10-06T14:13:21Z</time>
      </trkpt>
      <trkpt lat="47.68819" lon="6.13057">
        <ele>289.1</ele>
        <time>2021-10-06T14:13:22Z</time>
      </trkpt>
      <trkpt lat="47.68826" lon="6.13043">
        <ele>288.9</ele>
        <time>2021-10-06T14:13:24Z</time>
      </trkpt>
      <trkpt lat="47.68829" lon="6.13036">
        <ele>288.8</ele>
        <time>2021-10-06T14:13:26Z</time>
      </trkpt>
      <trkpt lat="47.68837" lon="6.13022">
        <ele>288.6</ele>
        <time>2021-10-06T14:13:29Z</time>
      </trkpt>
      <trkpt lat="47.68845" lon="6.13006">
        <ele>288.3</ele>
        <time>2021-10-06T14:13:32Z</time>
      </trkpt>
      <trkpt lat="47.68849" lon="6.12999">
        <ele>288.2</ele>
        <time>2021-10-06T14:13:33Z</time>
      </trkpt>
      <trkpt lat="47.68852" lon="6.12994">
        <ele>288</ele>
        <time>2021-10-06T14:13:35Z</time>
      </trkpt>
      <trkpt lat="47.68856" lon="6.12986">
        <ele>287.8</ele>
        <time>2021-10-06T14:13:37Z</time>
      </trkpt>
      <trkpt lat="47.68861" lon="6.12976">
        <ele>287.5</ele>
        <time>2021-10-06T14:13:39Z</time>
      </trkpt>
      <trkpt lat="47.68864" lon="6.12969">
        <ele>287.3</ele>
        <time>2021-10-06T14:13:41Z</time>
      </trkpt>
      <trkpt lat="47.68869" lon="6.12961">
        <ele>287</ele>
        <time>2021-10-06T14:13:43Z</time>
      </trkpt>
      <trkpt lat="47.68874" lon="6.12944">
        <ele>286.5</ele>
        <time>2021-10-06T14:13:46Z</time>
      </trkpt>
      <trkpt lat="47.68878" lon="6.12934">
        <ele>286.2</ele>
        <time>2021-10-06T14:13:48Z</time>
      </trkpt>
      <trkpt lat="47.68881" lon="6.12926">
        <ele>285.9</ele>
        <time>2021-10-06T14:13:49Z</time>
      </trkpt>
      <trkpt lat="47.68883" lon="6.12918">
        <ele>285.6</ele>
        <time>2021-10-06T14:13:51Z</time>
      </trkpt>
      <trkpt lat="47.68885" lon="6.12912">
        <ele>285.5</ele>
        <time>2021-10-06T14:13:52Z</time>
      </trkpt>
      <trkpt lat="47.68888" lon="6.12904">
        <ele>285.5</ele>
        <time>2021-10-06T14:13:53Z</time>
      </trkpt>
      <trkpt lat="47.6889" lon="6.12897">
        <ele>285.4</ele>
        <time>2021-10-06T14:13:54Z</time>
      </trkpt>
      <trkpt lat="47.68897" lon="6.12877">
        <ele>285.2</ele>
        <time>2021-10-06T14:13:54Z</time>
      </trkpt>
      <trkpt lat="47.689" lon="6.12868">
        <ele>285.1</ele>
        <time>2021-10-06T14:13:55Z</time>
      </trkpt>
      <trkpt lat="47.68902" lon="6.1286">
        <ele>285</ele>
        <time>2021-10-06T14:13:56Z</time>
      </trkpt>
      <trkpt lat="47.68905" lon="6.12852">
        <ele>285</ele>
        <time>2021-10-06T14:13:57Z</time>
      </trkpt>
      <trkpt lat="47.68907" lon="6.12844">
        <ele>284.9</ele>
        <time>2021-10-06T14:13:58Z</time>
      </trkpt>
      <trkpt lat="47.6891" lon="6.12836">
        <ele>284.9</ele>
        <time>2021-10-06T14:13:59Z</time>
      </trkpt>
      <trkpt lat="47.68912" lon="6.12828">
        <ele>284.8</ele>
        <time>2021-10-06T14:14:00Z</time>
      </trkpt>
      <trkpt lat="47.68915" lon="6.1282">
        <ele>284.8</ele>
        <time>2021-10-06T14:14:01Z</time>
      </trkpt>
      <trkpt lat="47.68917" lon="6.12812">
        <ele>284.7</ele>
        <time>2021-10-06T14:14:02Z</time>
      </trkpt>
      <trkpt lat="47.6892" lon="6.12804">
        <ele>284.7</ele>
        <time>2021-10-06T14:14:03Z</time>
      </trkpt>
      <trkpt lat="47.68922" lon="6.12797">
        <ele>284.6</ele>
        <time>2021-10-06T14:14:04Z</time>
      </trkpt>
      <trkpt lat="47.68923" lon="6.1279">
        <ele>284.6</ele>
        <time>2021-10-06T14:14:05Z</time>
      </trkpt>
      <trkpt lat="47.68925" lon="6.12783">
        <ele>284.5</ele>
        <time>2021-10-06T14:14:06Z</time>
      </trkpt>
      <trkpt lat="47.68926" lon="6.12776">
        <ele>284.4</ele>
        <time>2021-10-06T14:14:07Z</time>
      </trkpt>
      <trkpt lat="47.68927" lon="6.12769">
        <ele>284.4</ele>
        <time>2021-10-06T14:14:08Z</time>
      </trkpt>
      <trkpt lat="47.68928" lon="6.12757">
        <ele>284.2</ele>
        <time>2021-10-06T14:14:10Z</time>
      </trkpt>
      <trkpt lat="47.68929" lon="6.12745">
        <ele>284.2</ele>
        <time>2021-10-06T14:14:12Z</time>
      </trkpt>
      <trkpt lat="47.6893" lon="6.12735">
        <ele>284.4</ele>
        <time>2021-10-06T14:14:14Z</time>
      </trkpt>
      <trkpt lat="47.6893" lon="6.12724">
        <ele>284.5</ele>
        <time>2021-10-06T14:14:16Z</time>
      </trkpt>
      <trkpt lat="47.6893" lon="6.12715">
        <ele>284.6</ele>
        <time>2021-10-06T14:14:18Z</time>
      </trkpt>
      <trkpt lat="47.68931" lon="6.12706">
        <ele>284.8</ele>
        <time>2021-10-06T14:14:20Z</time>
      </trkpt>
      <trkpt lat="47.68931" lon="6.12697">
        <ele>284.9</ele>
        <time>2021-10-06T14:14:22Z</time>
      </trkpt>
      <trkpt lat="47.68931" lon="6.12684">
        <ele>285.1</ele>
        <time>2021-10-06T14:14:26Z</time>
      </trkpt>
      <trkpt lat="47.68933" lon="6.12674">
        <ele>285.3</ele>
        <time>2021-10-06T14:14:29Z</time>
      </trkpt>
      <trkpt lat="47.68935" lon="6.12668">
        <ele>285.4</ele>
        <time>2021-10-06T14:14:30Z</time>
      </trkpt>
      <trkpt lat="47.68937" lon="6.12662">
        <ele>285.5</ele>
        <time>2021-10-06T14:14:31Z</time>
      </trkpt>
      <trkpt lat="47.68941" lon="6.12653">
        <ele>285.6</ele>
        <time>2021-10-06T14:14:33Z</time>
      </trkpt>
      <trkpt lat="47.68944" lon="6.12647">
        <ele>285.7</ele>
        <time>2021-10-06T14:14:35Z</time>
      </trkpt>
      <trkpt lat="47.68948" lon="6.12639">
        <ele>285.7</ele>
        <time>2021-10-06T14:14:37Z</time>
      </trkpt>
      <trkpt lat="47.68951" lon="6.12631">
        <ele>285.8</ele>
        <time>2021-10-06T14:14:39Z</time>
      </trkpt>
      <trkpt lat="47.68954" lon="6.12623">
        <ele>285.9</ele>
        <time>2021-10-06T14:14:41Z</time>
      </trkpt>
      <trkpt lat="47.68957" lon="6.12617">
        <ele>286</ele>
        <time>2021-10-06T14:14:43Z</time>
      </trkpt>
      <trkpt lat="47.6896" lon="6.1261">
        <ele>286</ele>
        <time>2021-10-06T14:14:45Z</time>
      </trkpt>
      <trkpt lat="47.68964" lon="6.12601">
        <ele>286.1</ele>
        <time>2021-10-06T14:14:47Z</time>
      </trkpt>
      <trkpt lat="47.68967" lon="6.12594">
        <ele>286.2</ele>
        <time>2021-10-06T14:14:49Z</time>
      </trkpt>
      <trkpt lat="47.68971" lon="6.12585">
        <ele>286.3</ele>
        <time>2021-10-06T14:14:49Z</time>
      </trkpt>
      <trkpt lat="47.68974" lon="6.12577">
        <ele>286.2</ele>
        <time>2021-10-06T14:14:51Z</time>
      </trkpt>
      <trkpt lat="47.68977" lon="6.1257">
        <ele>286.1</ele>
        <time>2021-10-06T14:14:55Z</time>
      </trkpt>
      <trkpt lat="47.68981" lon="6.12561">
        <ele>286</ele>
        <time>2021-10-06T14:14:57Z</time>
      </trkpt>
      <trkpt lat="47.68984" lon="6.12554">
        <ele>285.9</ele>
        <time>2021-10-06T14:14:58Z</time>
      </trkpt>
      <trkpt lat="47.68986" lon="6.12547">
        <ele>285.8</ele>
        <time>2021-10-06T14:15:00Z</time>
      </trkpt>
      <trkpt lat="47.68989" lon="6.1254">
        <ele>285.7</ele>
        <time>2021-10-06T14:15:01Z</time>
      </trkpt>
      <trkpt lat="47.68993" lon="6.12532">
        <ele>285.6</ele>
        <time>2021-10-06T14:15:03Z</time>
      </trkpt>
      <trkpt lat="47.68997" lon="6.12522">
        <ele>285.5</ele>
        <time>2021-10-06T14:15:05Z</time>
      </trkpt>
      <trkpt lat="47.69001" lon="6.12514">
        <ele>285.3</ele>
        <time>2021-10-06T14:15:07Z</time>
      </trkpt>
      <trkpt lat="47.69007" lon="6.125">
        <ele>284.9</ele>
        <time>2021-10-06T14:15:10Z</time>
      </trkpt>
      <trkpt lat="47.69011" lon="6.12491">
        <ele>284.6</ele>
        <time>2021-10-06T14:15:12Z</time>
      </trkpt>
      <trkpt lat="47.69018" lon="6.12474">
        <ele>284</ele>
        <time>2021-10-06T14:15:15Z</time>
      </trkpt>
      <trkpt lat="47.69024" lon="6.12459">
        <ele>283.5</ele>
        <time>2021-10-06T14:15:18Z</time>
      </trkpt>
      <trkpt lat="47.69031" lon="6.12445">
        <ele>283.1</ele>
        <time>2021-10-06T14:15:21Z</time>
      </trkpt>
      <trkpt lat="47.69037" lon="6.12429">
        <ele>282.8</ele>
        <time>2021-10-06T14:15:24Z</time>
      </trkpt>
      <trkpt lat="47.69043" lon="6.12413">
        <ele>282.4</ele>
        <time>2021-10-06T14:15:27Z</time>
      </trkpt>
      <trkpt lat="47.69046" lon="6.12405">
        <ele>282.3</ele>
        <time>2021-10-06T14:15:28Z</time>
      </trkpt>
      <trkpt lat="47.6905" lon="6.12392">
        <ele>282.2</ele>
        <time>2021-10-06T14:15:28Z</time>
      </trkpt>
      <trkpt lat="47.69053" lon="6.12382">
        <ele>282.1</ele>
        <time>2021-10-06T14:15:32Z</time>
      </trkpt>
      <trkpt lat="47.69056" lon="6.12375">
        <ele>282</ele>
        <time>2021-10-06T14:15:33Z</time>
      </trkpt>
      <trkpt lat="47.69059" lon="6.12367">
        <ele>282</ele>
        <time>2021-10-06T14:15:34Z</time>
      </trkpt>
      <trkpt lat="47.69063" lon="6.12358">
        <ele>281.9</ele>
        <time>2021-10-06T14:15:36Z</time>
      </trkpt>
      <trkpt lat="47.69065" lon="6.12335">
        <ele>281.6</ele>
        <time>2021-10-06T14:15:36Z</time>
      </trkpt>
      <trkpt lat="47.69065" lon="6.12327">
        <ele>281.5</ele>
        <time>2021-10-06T14:15:37Z</time>
      </trkpt>
      <trkpt lat="47.69066" lon="6.1232">
        <ele>281.4</ele>
        <time>2021-10-06T14:15:38Z</time>
      </trkpt>
      <trkpt lat="47.69067" lon="6.12312">
        <ele>281.3</ele>
        <time>2021-10-06T14:15:39Z</time>
      </trkpt>
      <trkpt lat="47.69068" lon="6.12305">
        <ele>281.1</ele>
        <time>2021-10-06T14:15:40Z</time>
      </trkpt>
      <trkpt lat="47.69069" lon="6.12298">
        <ele>281</ele>
        <time>2021-10-06T14:15:41Z</time>
      </trkpt>
      <trkpt lat="47.6907" lon="6.1229">
        <ele>280.9</ele>
        <time>2021-10-06T14:15:42Z</time>
      </trkpt>
      <trkpt lat="47.69072" lon="6.12282">
        <ele>280.8</ele>
        <time>2021-10-06T14:15:43Z</time>
      </trkpt>
      <trkpt lat="47.69073" lon="6.12275">
        <ele>280.6</ele>
        <time>2021-10-06T14:15:44Z</time>
      </trkpt>
      <trkpt lat="47.69074" lon="6.12267">
        <ele>280.5</ele>
        <time>2021-10-06T14:15:45Z</time>
      </trkpt>
      <trkpt lat="47.69076" lon="6.1226">
        <ele>280.3</ele>
        <time>2021-10-06T14:15:46Z</time>
      </trkpt>
      <trkpt lat="47.69077" lon="6.12252">
        <ele>280.1</ele>
        <time>2021-10-06T14:15:47Z</time>
      </trkpt>
      <trkpt lat="47.69078" lon="6.12245">
        <ele>280.2</ele>
        <time>2021-10-06T14:15:48Z</time>
      </trkpt>
      <trkpt lat="47.69079" lon="6.12238">
        <ele>280.3</ele>
        <time>2021-10-06T14:15:49Z</time>
      </trkpt>
      <trkpt lat="47.6908" lon="6.12231">
        <ele>280.5</ele>
        <time>2021-10-06T14:15:50Z</time>
      </trkpt>
      <trkpt lat="47.69081" lon="6.12224">
        <ele>280.6</ele>
        <time>2021-10-06T14:15:51Z</time>
      </trkpt>
      <trkpt lat="47.69082" lon="6.12217">
        <ele>280.8</ele>
        <time>2021-10-06T14:15:52Z</time>
      </trkpt>
      <trkpt lat="47.69083" lon="6.1221">
        <ele>281</ele>
        <time>2021-10-06T14:15:53Z</time>
      </trkpt>
      <trkpt lat="47.69083" lon="6.12203">
        <ele>281.1</ele>
        <time>2021-10-06T14:15:54Z</time>
      </trkpt>
      <trkpt lat="47.69084" lon="6.12196">
        <ele>281.3</ele>
        <time>2021-10-06T14:15:55Z</time>
      </trkpt>
      <trkpt lat="47.69085" lon="6.12183">
        <ele>281.6</ele>
        <time>2021-10-06T14:15:57Z</time>
      </trkpt>
      <trkpt lat="47.69085" lon="6.1217">
        <ele>281.9</ele>
        <time>2021-10-06T14:15:59Z</time>
      </trkpt>
      <trkpt lat="47.69085" lon="6.12158">
        <ele>282</ele>
        <time>2021-10-06T14:16:01Z</time>
      </trkpt>
      <trkpt lat="47.69084" lon="6.12145">
        <ele>282</ele>
        <time>2021-10-06T14:16:03Z</time>
      </trkpt>
      <trkpt lat="47.69084" lon="6.12133">
        <ele>282</ele>
        <time>2021-10-06T14:16:05Z</time>
      </trkpt>
      <trkpt lat="47.69082" lon="6.12123">
        <ele>282</ele>
        <time>2021-10-06T14:16:07Z</time>
      </trkpt>
      <trkpt lat="47.69081" lon="6.12111">
        <ele>281.9</ele>
        <time>2021-10-06T14:16:09Z</time>
      </trkpt>
      <trkpt lat="47.69079" lon="6.121">
        <ele>281.8</ele>
        <time>2021-10-06T14:16:11Z</time>
      </trkpt>
      <trkpt lat="47.69074" lon="6.12101">
        <ele>281.7</ele>
        <time>2021-10-06T14:16:13Z</time>
      </trkpt>
      <trkpt lat="47.69073" lon="6.12089">
        <ele>281.6</ele>
        <time>2021-10-06T14:16:17Z</time>
      </trkpt>
      <trkpt lat="47.69073" lon="6.12078">
        <ele>281.6</ele>
        <time>2021-10-06T14:16:18Z</time>
      </trkpt>
      <trkpt lat="47.69071" lon="6.12062">
        <ele>281.5</ele>
        <time>2021-10-06T14:16:18Z</time>
      </trkpt>
      <trkpt lat="47.6907" lon="6.12053">
        <ele>281.5</ele>
        <time>2021-10-06T14:16:22Z</time>
      </trkpt>
      <trkpt lat="47.69068" lon="6.12044">
        <ele>281.5</ele>
        <time>2021-10-06T14:16:23Z</time>
      </trkpt>
      <trkpt lat="47.69067" lon="6.12036">
        <ele>281.4</ele>
        <time>2021-10-06T14:16:24Z</time>
      </trkpt>
      <trkpt lat="47.69066" lon="6.12026">
        <ele>281.4</ele>
        <time>2021-10-06T14:16:26Z</time>
      </trkpt>
      <trkpt lat="47.69064" lon="6.12018">
        <ele>281.3</ele>
        <time>2021-10-06T14:16:27Z</time>
      </trkpt>
      <trkpt lat="47.69062" lon="6.12003">
        <ele>281.2</ele>
        <time>2021-10-06T14:16:27Z</time>
      </trkpt>
      <trkpt lat="47.6906" lon="6.11994">
        <ele>281.1</ele>
        <time>2021-10-06T14:16:31Z</time>
      </trkpt>
      <trkpt lat="47.69059" lon="6.11987">
        <ele>281</ele>
        <time>2021-10-06T14:16:32Z</time>
      </trkpt>
      <trkpt lat="47.69058" lon="6.1198">
        <ele>280.9</ele>
        <time>2021-10-06T14:16:33Z</time>
      </trkpt>
      <trkpt lat="47.69056" lon="6.1197">
        <ele>280.8</ele>
        <time>2021-10-06T14:16:35Z</time>
      </trkpt>
      <trkpt lat="47.69055" lon="6.11962">
        <ele>280.7</ele>
        <time>2021-10-06T14:16:36Z</time>
      </trkpt>
      <trkpt lat="47.69053" lon="6.11951">
        <ele>280.5</ele>
        <time>2021-10-06T14:16:36Z</time>
      </trkpt>
      <trkpt lat="47.69051" lon="6.11941">
        <ele>280.4</ele>
        <time>2021-10-06T14:16:38Z</time>
      </trkpt>
      <trkpt lat="47.6905" lon="6.1193">
        <ele>280.3</ele>
        <time>2021-10-06T14:16:40Z</time>
      </trkpt>
      <trkpt lat="47.69048" lon="6.11922">
        <ele>280.2</ele>
        <time>2021-10-06T14:16:44Z</time>
      </trkpt>
      <trkpt lat="47.69047" lon="6.11913">
        <ele>280.2</ele>
        <time>2021-10-06T14:16:46Z</time>
      </trkpt>
      <trkpt lat="47.69046" lon="6.11904">
        <ele>280.3</ele>
        <time>2021-10-06T14:16:48Z</time>
      </trkpt>
      <trkpt lat="47.69044" lon="6.11891">
        <ele>280.4</ele>
        <time>2021-10-06T14:16:48Z</time>
      </trkpt>
      <trkpt lat="47.69044" lon="6.11883">
        <ele>280.4</ele>
        <time>2021-10-06T14:16:52Z</time>
      </trkpt>
      <trkpt lat="47.69043" lon="6.11874">
        <ele>280.5</ele>
        <time>2021-10-06T14:16:52Z</time>
      </trkpt>
      <trkpt lat="47.69042" lon="6.11866">
        <ele>280.6</ele>
        <time>2021-10-06T14:16:54Z</time>
      </trkpt>
      <trkpt lat="47.69042" lon="6.11858">
        <ele>280.7</ele>
        <time>2021-10-06T14:16:58Z</time>
      </trkpt>
      <trkpt lat="47.69041" lon="6.1185">
        <ele>280.8</ele>
        <time>2021-10-06T14:17:00Z</time>
      </trkpt>
      <trkpt lat="47.69041" lon="6.11842">
        <ele>280.9</ele>
        <time>2021-10-06T14:17:00Z</time>
      </trkpt>
      <trkpt lat="47.69042" lon="6.11833">
        <ele>281</ele>
        <time>2021-10-06T14:17:02Z</time>
      </trkpt>
      <trkpt lat="47.69043" lon="6.11825">
        <ele>281</ele>
        <time>2021-10-06T14:17:04Z</time>
      </trkpt>
      <trkpt lat="47.69044" lon="6.11818">
        <ele>281</ele>
        <time>2021-10-06T14:17:08Z</time>
      </trkpt>
      <trkpt lat="47.69046" lon="6.11802">
        <ele>281.1</ele>
        <time>2021-10-06T14:17:09Z</time>
      </trkpt>
      <trkpt lat="47.69047" lon="6.11794">
        <ele>281.1</ele>
        <time>2021-10-06T14:17:13Z</time>
      </trkpt>
      <trkpt lat="47.6905" lon="6.11785">
        <ele>281.2</ele>
        <time>2021-10-06T14:17:15Z</time>
      </trkpt>
      <trkpt lat="47.69052" lon="6.11777">
        <ele>281.2</ele>
        <time>2021-10-06T14:17:17Z</time>
      </trkpt>
      <trkpt lat="47.69056" lon="6.11762">
        <ele>281.3</ele>
        <time>2021-10-06T14:17:18Z</time>
      </trkpt>
      <trkpt lat="47.69059" lon="6.11754">
        <ele>281.4</ele>
        <time>2021-10-06T14:17:20Z</time>
      </trkpt>
      <trkpt lat="47.69061" lon="6.11747">
        <ele>281.4</ele>
        <time>2021-10-06T14:17:24Z</time>
      </trkpt>
      <trkpt lat="47.69064" lon="6.1174">
        <ele>281.3</ele>
        <time>2021-10-06T14:17:26Z</time>
      </trkpt>
      <trkpt lat="47.69068" lon="6.11731">
        <ele>281.2</ele>
        <time>2021-10-06T14:17:28Z</time>
      </trkpt>
      <trkpt lat="47.69072" lon="6.11721">
        <ele>281</ele>
        <time>2021-10-06T14:17:28Z</time>
      </trkpt>
      <trkpt lat="47.69077" lon="6.11711">
        <ele>280.9</ele>
        <time>2021-10-06T14:17:33Z</time>
      </trkpt>
      <trkpt lat="47.69081" lon="6.11701">
        <ele>280.8</ele>
        <time>2021-10-06T14:17:35Z</time>
      </trkpt>
      <trkpt lat="47.69085" lon="6.11693">
        <ele>280.7</ele>
        <time>2021-10-06T14:17:37Z</time>
      </trkpt>
      <trkpt lat="47.69088" lon="6.11685">
        <ele>280.5</ele>
        <time>2021-10-06T14:17:37Z</time>
      </trkpt>
      <trkpt lat="47.69091" lon="6.11678">
        <ele>280.4</ele>
        <time>2021-10-06T14:17:41Z</time>
      </trkpt>
      <trkpt lat="47.69095" lon="6.11667">
        <ele>280.1</ele>
        <time>2021-10-06T14:17:43Z</time>
      </trkpt>
      <trkpt lat="47.69097" lon="6.11659">
        <ele>280</ele>
        <time>2021-10-06T14:17:44Z</time>
      </trkpt>
      <trkpt lat="47.691" lon="6.1165">
        <ele>279.8</ele>
        <time>2021-10-06T14:17:46Z</time>
      </trkpt>
      <trkpt lat="47.69101" lon="6.11642">
        <ele>279.7</ele>
        <time>2021-10-06T14:17:48Z</time>
      </trkpt>
      <trkpt lat="47.69102" lon="6.11635">
        <ele>279.6</ele>
        <time>2021-10-06T14:17:49Z</time>
      </trkpt>
      <trkpt lat="47.69103" lon="6.11629">
        <ele>279.4</ele>
        <time>2021-10-06T14:17:50Z</time>
      </trkpt>
      <trkpt lat="47.69104" lon="6.11616">
        <ele>279.2</ele>
        <time>2021-10-06T14:17:50Z</time>
      </trkpt>
      <trkpt lat="47.69104" lon="6.11605">
        <ele>279</ele>
        <time>2021-10-06T14:17:54Z</time>
      </trkpt>
      <trkpt lat="47.69104" lon="6.11598">
        <ele>278.8</ele>
        <time>2021-10-06T14:17:55Z</time>
      </trkpt>
      <trkpt lat="47.69104" lon="6.11589">
        <ele>278.6</ele>
        <time>2021-10-06T14:17:57Z</time>
      </trkpt>
      <trkpt lat="47.69104" lon="6.1158">
        <ele>278.6</ele>
        <time>2021-10-06T14:17:58Z</time>
      </trkpt>
      <trkpt lat="47.69104" lon="6.11567">
        <ele>278.8</ele>
        <time>2021-10-06T14:17:58Z</time>
      </trkpt>
      <trkpt lat="47.69103" lon="6.11557">
        <ele>279</ele>
        <time>2021-10-06T14:18:02Z</time>
      </trkpt>
      <trkpt lat="47.69103" lon="6.11551">
        <ele>279.2</ele>
        <time>2021-10-06T14:18:03Z</time>
      </trkpt>
      <trkpt lat="47.69103" lon="6.11532">
        <ele>279.6</ele>
        <time>2021-10-06T14:18:04Z</time>
      </trkpt>
      <trkpt lat="47.69103" lon="6.11523">
        <ele>279.7</ele>
        <time>2021-10-06T14:18:08Z</time>
      </trkpt>
      <trkpt lat="47.69103" lon="6.11506">
        <ele>280.1</ele>
        <time>2021-10-06T14:18:11Z</time>
      </trkpt>
      <trkpt lat="47.69103" lon="6.11497">
        <ele>280.3</ele>
        <time>2021-10-06T14:18:12Z</time>
      </trkpt>
      <trkpt lat="47.69103" lon="6.11485">
        <ele>280.3</ele>
        <time>2021-10-06T14:18:12Z</time>
      </trkpt>
      <trkpt lat="47.69103" lon="6.11474">
        <ele>280.4</ele>
        <time>2021-10-06T14:18:16Z</time>
      </trkpt>
      <trkpt lat="47.69104" lon="6.11464">
        <ele>280.5</ele>
        <time>2021-10-06T14:18:18Z</time>
      </trkpt>
      <trkpt lat="47.69105" lon="6.11447">
        <ele>280.6</ele>
        <time>2021-10-06T14:18:21Z</time>
      </trkpt>
      <trkpt lat="47.69106" lon="6.1143">
        <ele>280.7</ele>
        <time>2021-10-06T14:18:22Z</time>
      </trkpt>
      <trkpt lat="47.69107" lon="6.11422">
        <ele>280.7</ele>
        <time>2021-10-06T14:18:26Z</time>
      </trkpt>
      <trkpt lat="47.69108" lon="6.11414">
        <ele>280.7</ele>
        <time>2021-10-06T14:18:27Z</time>
      </trkpt>
      <trkpt lat="47.69108" lon="6.11403">
        <ele>280.8</ele>
        <time>2021-10-06T14:18:29Z</time>
      </trkpt>
      <trkpt lat="47.6911" lon="6.11392">
        <ele>280.9</ele>
        <time>2021-10-06T14:18:31Z</time>
      </trkpt>
      <trkpt lat="47.69111" lon="6.11386">
        <ele>280.9</ele>
        <time>2021-10-06T14:18:32Z</time>
      </trkpt>
      <trkpt lat="47.69114" lon="6.11376">
        <ele>280.9</ele>
        <time>2021-10-06T14:18:34Z</time>
      </trkpt>
      <trkpt lat="47.69117" lon="6.11366">
        <ele>281</ele>
        <time>2021-10-06T14:18:36Z</time>
      </trkpt>
      <trkpt lat="47.69118" lon="6.11359">
        <ele>281</ele>
        <time>2021-10-06T14:18:37Z</time>
      </trkpt>
      <trkpt lat="47.6912" lon="6.11352">
        <ele>281</ele>
        <time>2021-10-06T14:18:39Z</time>
      </trkpt>
      <trkpt lat="47.69122" lon="6.11343">
        <ele>281</ele>
        <time>2021-10-06T14:18:40Z</time>
      </trkpt>
      <trkpt lat="47.69124" lon="6.11336">
        <ele>281</ele>
        <time>2021-10-06T14:18:42Z</time>
      </trkpt>
      <trkpt lat="47.69127" lon="6.1132">
        <ele>280.9</ele>
        <time>2021-10-06T14:18:45Z</time>
      </trkpt>
      <trkpt lat="47.69129" lon="6.11314">
        <ele>280.8</ele>
        <time>2021-10-06T14:18:46Z</time>
      </trkpt>
      <trkpt lat="47.69131" lon="6.11301">
        <ele>280.6</ele>
        <time>2021-10-06T14:18:46Z</time>
      </trkpt>
      <trkpt lat="47.69134" lon="6.11291">
        <ele>280.5</ele>
        <time>2021-10-06T14:18:48Z</time>
      </trkpt>
      <trkpt lat="47.69137" lon="6.11282">
        <ele>280.3</ele>
        <time>2021-10-06T14:18:52Z</time>
      </trkpt>
      <trkpt lat="47.69139" lon="6.11275">
        <ele>280.2</ele>
        <time>2021-10-06T14:18:53Z</time>
      </trkpt>
      <trkpt lat="47.69142" lon="6.11265">
        <ele>280</ele>
        <time>2021-10-06T14:18:55Z</time>
      </trkpt>
      <trkpt lat="47.69144" lon="6.11256">
        <ele>279.9</ele>
        <time>2021-10-06T14:18:57Z</time>
      </trkpt>
      <trkpt lat="47.69146" lon="6.11249">
        <ele>279.7</ele>
        <time>2021-10-06T14:18:58Z</time>
      </trkpt>
      <trkpt lat="47.69149" lon="6.11239">
        <ele>279.6</ele>
        <time>2021-10-06T14:19:00Z</time>
      </trkpt>
      <trkpt lat="47.69153" lon="6.1122">
        <ele>279.5</ele>
        <time>2021-10-06T14:19:01Z</time>
      </trkpt>
      <trkpt lat="47.69156" lon="6.1121">
        <ele>279.4</ele>
        <time>2021-10-06T14:19:03Z</time>
      </trkpt>
      <trkpt lat="47.69159" lon="6.11198">
        <ele>279.3</ele>
        <time>2021-10-06T14:19:05Z</time>
      </trkpt>
      <trkpt lat="47.69162" lon="6.11188">
        <ele>279.2</ele>
        <time>2021-10-06T14:19:07Z</time>
      </trkpt>
      <trkpt lat="47.69164" lon="6.11178">
        <ele>279.1</ele>
        <time>2021-10-06T14:19:09Z</time>
      </trkpt>
      <trkpt lat="47.69167" lon="6.1117">
        <ele>279</ele>
        <time>2021-10-06T14:19:13Z</time>
      </trkpt>
      <trkpt lat="47.69169" lon="6.11162">
        <ele>279.1</ele>
        <time>2021-10-06T14:19:15Z</time>
      </trkpt>
      <trkpt lat="47.69173" lon="6.11146">
        <ele>279.4</ele>
        <time>2021-10-06T14:19:16Z</time>
      </trkpt>
      <trkpt lat="47.69176" lon="6.11138">
        <ele>279.5</ele>
        <time>2021-10-06T14:19:20Z</time>
      </trkpt>
      <trkpt lat="47.6918" lon="6.11119">
        <ele>279.8</ele>
        <time>2021-10-06T14:19:23Z</time>
      </trkpt>
      <trkpt lat="47.69182" lon="6.11113">
        <ele>279.9</ele>
        <time>2021-10-06T14:19:24Z</time>
      </trkpt>
      <trkpt lat="47.69184" lon="6.11103">
        <ele>280</ele>
        <time>2021-10-06T14:19:26Z</time>
      </trkpt>
      <trkpt lat="47.69186" lon="6.11096">
        <ele>280.1</ele>
        <time>2021-10-06T14:19:27Z</time>
      </trkpt>
      <trkpt lat="47.69188" lon="6.11089">
        <ele>280.2</ele>
        <time>2021-10-06T14:19:28Z</time>
      </trkpt>
      <trkpt lat="47.69193" lon="6.11071">
        <ele>280.1</ele>
        <time>2021-10-06T14:19:29Z</time>
      </trkpt>
      <trkpt lat="47.69195" lon="6.11061">
        <ele>280</ele>
        <time>2021-10-06T14:19:33Z</time>
      </trkpt>
      <trkpt lat="47.69197" lon="6.11054">
        <ele>279.9</ele>
        <time>2021-10-06T14:19:34Z</time>
      </trkpt>
      <trkpt lat="47.69201" lon="6.11045">
        <ele>279.8</ele>
        <time>2021-10-06T14:19:36Z</time>
      </trkpt>
      <trkpt lat="47.69204" lon="6.11039">
        <ele>279.7</ele>
        <time>2021-10-06T14:19:37Z</time>
      </trkpt>
      <trkpt lat="47.69208" lon="6.11033">
        <ele>279.6</ele>
        <time>2021-10-06T14:19:38Z</time>
      </trkpt>
      <trkpt lat="47.69213" lon="6.11029">
        <ele>279.5</ele>
        <time>2021-10-06T14:19:39Z</time>
      </trkpt>
      <trkpt lat="47.69227" lon="6.11016">
        <ele>279.3</ele>
        <time>2021-10-06T14:19:39Z</time>
      </trkpt>
      <trkpt lat="47.69232" lon="6.11012">
        <ele>279.3</ele>
        <time>2021-10-06T14:19:40Z</time>
      </trkpt>
      <trkpt lat="47.69237" lon="6.11008">
        <ele>279.2</ele>
        <time>2021-10-06T14:19:41Z</time>
      </trkpt>
      <trkpt lat="47.69242" lon="6.11002">
        <ele>279.1</ele>
        <time>2021-10-06T14:19:42Z</time>
      </trkpt>
      <trkpt lat="47.69245" lon="6.10996">
        <ele>278.9</ele>
        <time>2021-10-06T14:19:43Z</time>
      </trkpt>
      <trkpt lat="47.69247" lon="6.10988">
        <ele>278.9</ele>
        <time>2021-10-06T14:19:44Z</time>
      </trkpt>
      <trkpt lat="47.69248" lon="6.1098">
        <ele>278.8</ele>
        <time>2021-10-06T14:19:45Z</time>
      </trkpt>
      <trkpt lat="47.69248" lon="6.10972">
        <ele>278.7</ele>
        <time>2021-10-06T14:19:46Z</time>
      </trkpt>
      <trkpt lat="47.69247" lon="6.10964">
        <ele>278.6</ele>
        <time>2021-10-06T14:19:47Z</time>
      </trkpt>
      <trkpt lat="47.69245" lon="6.10957">
        <ele>278.5</ele>
        <time>2021-10-06T14:19:48Z</time>
      </trkpt>
      <trkpt lat="47.69244" lon="6.10949">
        <ele>278.3</ele>
        <time>2021-10-06T14:19:49Z</time>
      </trkpt>
      <trkpt lat="47.69242" lon="6.10942">
        <ele>278.2</ele>
        <time>2021-10-06T14:19:50Z</time>
      </trkpt>
      <trkpt lat="47.69241" lon="6.10935">
        <ele>278.1</ele>
        <time>2021-10-06T14:19:51Z</time>
      </trkpt>
      <trkpt lat="47.69239" lon="6.10929">
        <ele>278</ele>
        <time>2021-10-06T14:19:52Z</time>
      </trkpt>
      <trkpt lat="47.69238" lon="6.10922">
        <ele>277.9</ele>
        <time>2021-10-06T14:19:53Z</time>
      </trkpt>
      <trkpt lat="47.69237" lon="6.1091">
        <ele>277.7</ele>
        <time>2021-10-06T14:19:55Z</time>
      </trkpt>
      <trkpt lat="47.69237" lon="6.10898">
        <ele>277.4</ele>
        <time>2021-10-06T14:19:57Z</time>
      </trkpt>
      <trkpt lat="47.69236" lon="6.10889">
        <ele>277.1</ele>
        <time>2021-10-06T14:19:59Z</time>
      </trkpt>
      <trkpt lat="47.69236" lon="6.10879">
        <ele>276.9</ele>
        <time>2021-10-06T14:20:01Z</time>
      </trkpt>
      <trkpt lat="47.69236" lon="6.1087">
        <ele>276.6</ele>
        <time>2021-10-06T14:20:03Z</time>
      </trkpt>
      <trkpt lat="47.69235" lon="6.10861">
        <ele>276.4</ele>
        <time>2021-10-06T14:20:07Z</time>
      </trkpt>
      <trkpt lat="47.69235" lon="6.1085">
        <ele>276.1</ele>
        <time>2021-10-06T14:20:09Z</time>
      </trkpt>
      <trkpt lat="47.69235" lon="6.10843">
        <ele>275.9</ele>
        <time>2021-10-06T14:20:10Z</time>
      </trkpt>
      <trkpt lat="47.69236" lon="6.10832">
        <ele>275.6</ele>
        <time>2021-10-06T14:20:10Z</time>
      </trkpt>
      <trkpt lat="47.69236" lon="6.10822">
        <ele>275.3</ele>
        <time>2021-10-06T14:20:14Z</time>
      </trkpt>
      <trkpt lat="47.69237" lon="6.10814">
        <ele>275.1</ele>
        <time>2021-10-06T14:20:16Z</time>
      </trkpt>
      <trkpt lat="47.69242" lon="6.10808">
        <ele>274.9</ele>
        <time>2021-10-06T14:20:16Z</time>
      </trkpt>
      <trkpt lat="47.69249" lon="6.10804">
        <ele>274.9</ele>
        <time>2021-10-06T14:20:21Z</time>
      </trkpt>
      <trkpt lat="47.69255" lon="6.10797">
        <ele>274.9</ele>
        <time>2021-10-06T14:20:23Z</time>
      </trkpt>
      <trkpt lat="47.69258" lon="6.10789">
        <ele>274.7</ele>
        <time>2021-10-06T14:20:25Z</time>
      </trkpt>
      <trkpt lat="47.6926" lon="6.10778">
        <ele>274.4</ele>
        <time>2021-10-06T14:20:25Z</time>
      </trkpt>
      <trkpt lat="47.6926" lon="6.10768">
        <ele>274</ele>
        <time>2021-10-06T14:20:27Z</time>
      </trkpt>
      <trkpt lat="47.69262" lon="6.10758">
        <ele>273.7</ele>
        <time>2021-10-06T14:20:29Z</time>
      </trkpt>
      <trkpt lat="47.69264" lon="6.10747">
        <ele>273.3</ele>
        <time>2021-10-06T14:20:31Z</time>
      </trkpt>
      <trkpt lat="47.69266" lon="6.1074">
        <ele>272.9</ele>
        <time>2021-10-06T14:20:32Z</time>
      </trkpt>
      <trkpt lat="47.69268" lon="6.10732">
        <ele>272.5</ele>
        <time>2021-10-06T14:20:33Z</time>
      </trkpt>
      <trkpt lat="47.69271" lon="6.10725">
        <ele>272.1</ele>
        <time>2021-10-06T14:20:34Z</time>
      </trkpt>
      <trkpt lat="47.69273" lon="6.10718">
        <ele>271.8</ele>
        <time>2021-10-06T14:20:35Z</time>
      </trkpt>
      <trkpt lat="47.69276" lon="6.10712">
        <ele>271.4</ele>
        <time>2021-10-06T14:20:38Z</time>
      </trkpt>
      <trkpt lat="47.69279" lon="6.10704">
        <ele>271.1</ele>
        <time>2021-10-06T14:20:40Z</time>
      </trkpt>
      <trkpt lat="47.69281" lon="6.10696">
        <ele>270.7</ele>
        <time>2021-10-06T14:20:41Z</time>
      </trkpt>
      <trkpt lat="47.69289" lon="6.1067">
        <ele>269.6</ele>
        <time>2021-10-06T14:20:41Z</time>
      </trkpt>
      <trkpt lat="47.69292" lon="6.1066">
        <ele>269</ele>
        <time>2021-10-06T14:20:42Z</time>
      </trkpt>
      <trkpt lat="47.69295" lon="6.10647">
        <ele>268.3</ele>
        <time>2021-10-06T14:20:43Z</time>
      </trkpt>
      <trkpt lat="47.69299" lon="6.10634">
        <ele>267.5</ele>
        <time>2021-10-06T14:20:44Z</time>
      </trkpt>
      <trkpt lat="47.69303" lon="6.1062">
        <ele>266.7</ele>
        <time>2021-10-06T14:20:45Z</time>
      </trkpt>
      <trkpt lat="47.69307" lon="6.10607">
        <ele>265.8</ele>
        <time>2021-10-06T14:20:46Z</time>
      </trkpt>
      <trkpt lat="47.69311" lon="6.10593">
        <ele>264.9</ele>
        <time>2021-10-06T14:20:47Z</time>
      </trkpt>
      <trkpt lat="47.69315" lon="6.1058">
        <ele>264.1</ele>
        <time>2021-10-06T14:20:48Z</time>
      </trkpt>
      <trkpt lat="47.69319" lon="6.10569">
        <ele>263.5</ele>
        <time>2021-10-06T14:20:49Z</time>
      </trkpt>
      <trkpt lat="47.69322" lon="6.10561">
        <ele>263</ele>
        <time>2021-10-06T14:20:50Z</time>
      </trkpt>
      <trkpt lat="47.69325" lon="6.10556">
        <ele>262.6</ele>
        <time>2021-10-06T14:20:51Z</time>
      </trkpt>
      <trkpt lat="47.6933" lon="6.10551">
        <ele>262.3</ele>
        <time>2021-10-06T14:20:53Z</time>
      </trkpt>
      <trkpt lat="47.69334" lon="6.10544">
        <ele>261.7</ele>
        <time>2021-10-06T14:20:56Z</time>
      </trkpt>
      <trkpt lat="47.69338" lon="6.10538">
        <ele>261.2</ele>
        <time>2021-10-06T14:20:58Z</time>
      </trkpt>
      <trkpt lat="47.69342" lon="6.10535">
        <ele>260.8</ele>
        <time>2021-10-06T14:21:02Z</time>
      </trkpt>
      <trkpt lat="47.69345" lon="6.10528">
        <ele>260.2</ele>
        <time>2021-10-06T14:21:03Z</time>
      </trkpt>
      <trkpt lat="47.69348" lon="6.1052">
        <ele>259.5</ele>
        <time>2021-10-06T14:21:05Z</time>
      </trkpt>
      <trkpt lat="47.69351" lon="6.10514">
        <ele>259</ele>
        <time>2021-10-06T14:21:06Z</time>
      </trkpt>
      <trkpt lat="47.69354" lon="6.10509">
        <ele>258.5</ele>
        <time>2021-10-06T14:21:07Z</time>
      </trkpt>
      <trkpt lat="47.69357" lon="6.10503">
        <ele>258</ele>
        <time>2021-10-06T14:21:09Z</time>
      </trkpt>
      <trkpt lat="47.69361" lon="6.10498">
        <ele>257.5</ele>
        <time>2021-10-06T14:21:11Z</time>
      </trkpt>
      <trkpt lat="47.69362" lon="6.1049">
        <ele>256.9</ele>
        <time>2021-10-06T14:21:15Z</time>
      </trkpt>
      <trkpt lat="47.69357" lon="6.10492">
        <ele>257.1</ele>
        <time>2021-10-06T14:24:26Z</time>
      </trkpt>
      <trkpt lat="47.69353" lon="6.10496">
        <ele>257.5</ele>
        <time>2021-10-06T14:24:28Z</time>
      </trkpt>
      <trkpt lat="47.6935" lon="6.10503">
        <ele>258</ele>
        <time>2021-10-06T14:24:31Z</time>
      </trkpt>
      <trkpt lat="47.69347" lon="6.10509">
        <ele>258.6</ele>
        <time>2021-10-06T14:24:33Z</time>
      </trkpt>
      <trkpt lat="47.69346" lon="6.10516">
        <ele>259.2</ele>
        <time>2021-10-06T14:24:35Z</time>
      </trkpt>
      <trkpt lat="47.69343" lon="6.10523">
        <ele>259.8</ele>
        <time>2021-10-06T14:24:38Z</time>
      </trkpt>
      <trkpt lat="47.69339" lon="6.10528">
        <ele>260.3</ele>
        <time>2021-10-06T14:24:41Z</time>
      </trkpt>
      <trkpt lat="47.69335" lon="6.10535">
        <ele>260.9</ele>
        <time>2021-10-06T14:24:44Z</time>
      </trkpt>
      <trkpt lat="47.6933" lon="6.10539">
        <ele>261.3</ele>
        <time>2021-10-06T14:24:47Z</time>
      </trkpt>
      <trkpt lat="47.69325" lon="6.10539">
        <ele>261.3</ele>
        <time>2021-10-06T14:24:52Z</time>
      </trkpt>
      <trkpt lat="47.69319" lon="6.10537">
        <ele>261.1</ele>
        <time>2021-10-06T14:24:54Z</time>
      </trkpt>
      <trkpt lat="47.69317" lon="6.10529">
        <ele>260.6</ele>
        <time>2021-10-06T14:24:58Z</time>
      </trkpt>
      <trkpt lat="47.69313" lon="6.10511">
        <ele>259.5</ele>
        <time>2021-10-06T14:25:01Z</time>
      </trkpt>
      <trkpt lat="47.69309" lon="6.10486">
        <ele>258</ele>
        <time>2021-10-06T14:25:04Z</time>
      </trkpt>
      <trkpt lat="47.69303" lon="6.1045">
        <ele>255.9</ele>
        <time>2021-10-06T14:25:05Z</time>
      </trkpt>
      <trkpt lat="47.69301" lon="6.10439">
        <ele>255.3</ele>
        <time>2021-10-06T14:25:06Z</time>
      </trkpt>
      <trkpt lat="47.693" lon="6.10428">
        <ele>254.7</ele>
        <time>2021-10-06T14:25:07Z</time>
      </trkpt>
      <trkpt lat="47.69299" lon="6.10417">
        <ele>254.1</ele>
        <time>2021-10-06T14:25:08Z</time>
      </trkpt>
      <trkpt lat="47.693" lon="6.10406">
        <ele>253.7</ele>
        <time>2021-10-06T14:25:09Z</time>
      </trkpt>
      <trkpt lat="47.69301" lon="6.10396">
        <ele>253.3</ele>
        <time>2021-10-06T14:25:10Z</time>
      </trkpt>
      <trkpt lat="47.69304" lon="6.10385">
        <ele>252.9</ele>
        <time>2021-10-06T14:25:11Z</time>
      </trkpt>
      <trkpt lat="47.69307" lon="6.10375">
        <ele>252.4</ele>
        <time>2021-10-06T14:25:12Z</time>
      </trkpt>
      <trkpt lat="47.6931" lon="6.10364">
        <ele>252</ele>
        <time>2021-10-06T14:25:13Z</time>
      </trkpt>
      <trkpt lat="47.69314" lon="6.10354">
        <ele>251.5</ele>
        <time>2021-10-06T14:25:14Z</time>
      </trkpt>
      <trkpt lat="47.69318" lon="6.10344">
        <ele>251</ele>
        <time>2021-10-06T14:25:15Z</time>
      </trkpt>
      <trkpt lat="47.69324" lon="6.10333">
        <ele>250.5</ele>
        <time>2021-10-06T14:25:16Z</time>
      </trkpt>
      <trkpt lat="47.69329" lon="6.10323">
        <ele>249.6</ele>
        <time>2021-10-06T14:25:17Z</time>
      </trkpt>
      <trkpt lat="47.69333" lon="6.10313">
        <ele>248.8</ele>
        <time>2021-10-06T14:25:18Z</time>
      </trkpt>
      <trkpt lat="47.69335" lon="6.10301">
        <ele>247.9</ele>
        <time>2021-10-06T14:25:19Z</time>
      </trkpt>
      <trkpt lat="47.69336" lon="6.10288">
        <ele>247.2</ele>
        <time>2021-10-06T14:25:20Z</time>
      </trkpt>
      <trkpt lat="47.69335" lon="6.10276">
        <ele>246.5</ele>
        <time>2021-10-06T14:25:21Z</time>
      </trkpt>
      <trkpt lat="47.69333" lon="6.10264">
        <ele>245.9</ele>
        <time>2021-10-06T14:25:22Z</time>
      </trkpt>
      <trkpt lat="47.6933" lon="6.10253">
        <ele>245.4</ele>
        <time>2021-10-06T14:25:23Z</time>
      </trkpt>
      <trkpt lat="47.69326" lon="6.10242">
        <ele>245</ele>
        <time>2021-10-06T14:25:24Z</time>
      </trkpt>
      <trkpt lat="47.69323" lon="6.1023">
        <ele>244.7</ele>
        <time>2021-10-06T14:25:25Z</time>
      </trkpt>
      <trkpt lat="47.6932" lon="6.10219">
        <ele>244.4</ele>
        <time>2021-10-06T14:25:26Z</time>
      </trkpt>
      <trkpt lat="47.69317" lon="6.10208">
        <ele>244.1</ele>
        <time>2021-10-06T14:25:27Z</time>
      </trkpt>
      <trkpt lat="47.69314" lon="6.10196">
        <ele>243.7</ele>
        <time>2021-10-06T14:25:28Z</time>
      </trkpt>
      <trkpt lat="47.69311" lon="6.10185">
        <ele>243.4</ele>
        <time>2021-10-06T14:25:29Z</time>
      </trkpt>
      <trkpt lat="47.69309" lon="6.10173">
        <ele>243</ele>
        <time>2021-10-06T14:25:30Z</time>
      </trkpt>
      <trkpt lat="47.69307" lon="6.10162">
        <ele>242.8</ele>
        <time>2021-10-06T14:25:31Z</time>
      </trkpt>
      <trkpt lat="47.69306" lon="6.1015">
        <ele>242.7</ele>
        <time>2021-10-06T14:25:32Z</time>
      </trkpt>
      <trkpt lat="47.69304" lon="6.10139">
        <ele>242.6</ele>
        <time>2021-10-06T14:25:33Z</time>
      </trkpt>
      <trkpt lat="47.69303" lon="6.10128">
        <ele>242.4</ele>
        <time>2021-10-06T14:25:34Z</time>
      </trkpt>
      <trkpt lat="47.69302" lon="6.10117">
        <ele>242.3</ele>
        <time>2021-10-06T14:25:35Z</time>
      </trkpt>
      <trkpt lat="47.69302" lon="6.10106">
        <ele>242.1</ele>
        <time>2021-10-06T14:25:36Z</time>
      </trkpt>
      <trkpt lat="47.69301" lon="6.10095">
        <ele>241.9</ele>
        <time>2021-10-06T14:25:37Z</time>
      </trkpt>
      <trkpt lat="47.69301" lon="6.10085">
        <ele>241.7</ele>
        <time>2021-10-06T14:25:38Z</time>
      </trkpt>
      <trkpt lat="47.69301" lon="6.10074">
        <ele>241.3</ele>
        <time>2021-10-06T14:25:39Z</time>
      </trkpt>
      <trkpt lat="47.693" lon="6.10063">
        <ele>240.9</ele>
        <time>2021-10-06T14:25:40Z</time>
      </trkpt>
      <trkpt lat="47.69299" lon="6.10052">
        <ele>240.5</ele>
        <time>2021-10-06T14:25:41Z</time>
      </trkpt>
      <trkpt lat="47.69298" lon="6.10041">
        <ele>240.1</ele>
        <time>2021-10-06T14:25:42Z</time>
      </trkpt>
      <trkpt lat="47.69297" lon="6.1003">
        <ele>239.6</ele>
        <time>2021-10-06T14:25:43Z</time>
      </trkpt>
      <trkpt lat="47.69297" lon="6.10019">
        <ele>239.2</ele>
        <time>2021-10-06T14:25:44Z</time>
      </trkpt>
      <trkpt lat="47.69298" lon="6.10009">
        <ele>238.7</ele>
        <time>2021-10-06T14:25:45Z</time>
      </trkpt>
      <trkpt lat="47.69299" lon="6.1">
        <ele>238.2</ele>
        <time>2021-10-06T14:25:46Z</time>
      </trkpt>
      <trkpt lat="47.693" lon="6.09991">
        <ele>238.2</ele>
        <time>2021-10-06T14:25:47Z</time>
      </trkpt>
      <trkpt lat="47.69302" lon="6.09983">
        <ele>238.3</ele>
        <time>2021-10-06T14:25:48Z</time>
      </trkpt>
      <trkpt lat="47.69303" lon="6.09976">
        <ele>238.3</ele>
        <time>2021-10-06T14:25:49Z</time>
      </trkpt>
      <trkpt lat="47.69304" lon="6.09969">
        <ele>238.4</ele>
        <time>2021-10-06T14:25:50Z</time>
      </trkpt>
      <trkpt lat="47.69305" lon="6.09962">
        <ele>238.5</ele>
        <time>2021-10-06T14:25:51Z</time>
      </trkpt>
      <trkpt lat="47.69307" lon="6.0995">
        <ele>238.6</ele>
        <time>2021-10-06T14:25:53Z</time>
      </trkpt>
      <trkpt lat="47.69308" lon="6.09941">
        <ele>238.7</ele>
        <time>2021-10-06T14:25:55Z</time>
      </trkpt>
      <trkpt lat="47.69308" lon="6.09932">
        <ele>238.9</ele>
        <time>2021-10-06T14:25:57Z</time>
      </trkpt>
      <trkpt lat="47.69307" lon="6.09921">
        <ele>239</ele>
        <time>2021-10-06T14:25:59Z</time>
      </trkpt>
      <trkpt lat="47.69306" lon="6.09908">
        <ele>239.4</ele>
        <time>2021-10-06T14:26:01Z</time>
      </trkpt>
      <trkpt lat="47.69304" lon="6.09901">
        <ele>239.6</ele>
        <time>2021-10-06T14:26:03Z</time>
      </trkpt>
      <trkpt lat="47.69303" lon="6.09894">
        <ele>239.8</ele>
        <time>2021-10-06T14:26:05Z</time>
      </trkpt>
      <trkpt lat="47.69301" lon="6.09886">
        <ele>239.9</ele>
        <time>2021-10-06T14:26:07Z</time>
      </trkpt>
      <trkpt lat="47.69298" lon="6.09878">
        <ele>240.1</ele>
        <time>2021-10-06T14:26:09Z</time>
      </trkpt>
      <trkpt lat="47.69296" lon="6.0987">
        <ele>240.2</ele>
        <time>2021-10-06T14:26:11Z</time>
      </trkpt>
      <trkpt lat="47.69294" lon="6.09862">
        <ele>240.3</ele>
        <time>2021-10-06T14:26:13Z</time>
      </trkpt>
      <trkpt lat="47.69292" lon="6.09854">
        <ele>240.4</ele>
        <time>2021-10-06T14:26:16Z</time>
      </trkpt>
      <trkpt lat="47.6929" lon="6.09846">
        <ele>240.5</ele>
        <time>2021-10-06T14:26:19Z</time>
      </trkpt>
      <trkpt lat="47.69287" lon="6.09839">
        <ele>240.4</ele>
        <time>2021-10-06T14:26:22Z</time>
      </trkpt>
      <trkpt lat="47.69284" lon="6.09831">
        <ele>240.5</ele>
        <time>2021-10-06T14:26:25Z</time>
      </trkpt>
      <trkpt lat="47.69282" lon="6.09824">
        <ele>240.9</ele>
        <time>2021-10-06T14:26:28Z</time>
      </trkpt>
      <trkpt lat="47.69281" lon="6.09816">
        <ele>241.4</ele>
        <time>2021-10-06T14:26:31Z</time>
      </trkpt>
      <trkpt lat="47.69278" lon="6.0981">
        <ele>241.6</ele>
        <time>2021-10-06T14:26:34Z</time>
      </trkpt>
      <trkpt lat="47.69276" lon="6.09805">
        <ele>241.9</ele>
        <time>2021-10-06T14:26:37Z</time>
      </trkpt>
      <trkpt lat="47.69274" lon="6.09798">
        <ele>242.2</ele>
        <time>2021-10-06T14:26:40Z</time>
      </trkpt>
      <trkpt lat="47.69272" lon="6.09792">
        <ele>242.6</ele>
        <time>2021-10-06T14:26:44Z</time>
      </trkpt>
      <trkpt lat="47.6927" lon="6.09785">
        <ele>243</ele>
        <time>2021-10-06T14:26:46Z</time>
      </trkpt>
      <trkpt lat="47.69268" lon="6.09777">
        <ele>243.4</ele>
        <time>2021-10-06T14:26:49Z</time>
      </trkpt>
      <trkpt lat="47.69264" lon="6.09771">
        <ele>243.6</ele>
        <time>2021-10-06T14:26:52Z</time>
      </trkpt>
      <trkpt lat="47.69262" lon="6.09763">
        <ele>244</ele>
        <time>2021-10-06T14:26:55Z</time>
      </trkpt>
      <trkpt lat="47.6926" lon="6.09757">
        <ele>244.4</ele>
        <time>2021-10-06T14:26:59Z</time>
      </trkpt>
      <trkpt lat="47.69256" lon="6.09749">
        <ele>244.7</ele>
        <time>2021-10-06T14:27:01Z</time>
      </trkpt>
      <trkpt lat="47.69253" lon="6.09742">
        <ele>245.1</ele>
        <time>2021-10-06T14:27:04Z</time>
      </trkpt>
      <trkpt lat="47.6925" lon="6.09735">
        <ele>245.5</ele>
        <time>2021-10-06T14:27:07Z</time>
      </trkpt>
      <trkpt lat="47.69248" lon="6.09728">
        <ele>245.9</ele>
        <time>2021-10-06T14:27:10Z</time>
      </trkpt>
      <trkpt lat="47.69245" lon="6.09721">
        <ele>246.4</ele>
        <time>2021-10-06T14:27:14Z</time>
      </trkpt>
      <trkpt lat="47.69244" lon="6.09714">
        <ele>246.9</ele>
        <time>2021-10-06T14:27:17Z</time>
      </trkpt>
      <trkpt lat="47.69241" lon="6.09708">
        <ele>247.2</ele>
        <time>2021-10-06T14:27:20Z</time>
      </trkpt>
      <trkpt lat="47.69238" lon="6.09702">
        <ele>247.5</ele>
        <time>2021-10-06T14:27:23Z</time>
      </trkpt>
      <trkpt lat="47.69235" lon="6.09696">
        <ele>247.8</ele>
        <time>2021-10-06T14:27:26Z</time>
      </trkpt>
      <trkpt lat="47.69233" lon="6.0969">
        <ele>248.2</ele>
        <time>2021-10-06T14:27:29Z</time>
      </trkpt>
      <trkpt lat="47.6923" lon="6.09684">
        <ele>248.5</ele>
        <time>2021-10-06T14:27:32Z</time>
      </trkpt>
      <trkpt lat="47.69228" lon="6.09677">
        <ele>248.9</ele>
        <time>2021-10-06T14:27:35Z</time>
      </trkpt>
      <trkpt lat="47.69225" lon="6.09671">
        <ele>249.2</ele>
        <time>2021-10-06T14:27:38Z</time>
      </trkpt>
      <trkpt lat="47.69223" lon="6.09664">
        <ele>249.6</ele>
        <time>2021-10-06T14:27:41Z</time>
      </trkpt>
      <trkpt lat="47.6922" lon="6.09658">
        <ele>250</ele>
        <time>2021-10-06T14:27:44Z</time>
      </trkpt>
      <trkpt lat="47.69218" lon="6.09651">
        <ele>250.5</ele>
        <time>2021-10-06T14:27:47Z</time>
      </trkpt>
      <trkpt lat="47.69215" lon="6.09646">
        <ele>250.8</ele>
        <time>2021-10-06T14:27:50Z</time>
      </trkpt>
      <trkpt lat="47.69213" lon="6.0964">
        <ele>251.1</ele>
        <time>2021-10-06T14:27:53Z</time>
      </trkpt>
      <trkpt lat="47.69212" lon="6.09633">
        <ele>251.6</ele>
        <time>2021-10-06T14:27:56Z</time>
      </trkpt>
      <trkpt lat="47.6921" lon="6.09627">
        <ele>252</ele>
        <time>2021-10-06T14:27:59Z</time>
      </trkpt>
      <trkpt lat="47.69207" lon="6.0962">
        <ele>252.3</ele>
        <time>2021-10-06T14:28:03Z</time>
      </trkpt>
      <trkpt lat="47.69206" lon="6.09612">
        <ele>252.9</ele>
        <time>2021-10-06T14:28:08Z</time>
      </trkpt>
      <trkpt lat="47.69204" lon="6.09606">
        <ele>253.3</ele>
        <time>2021-10-06T14:28:09Z</time>
      </trkpt>
      <trkpt lat="47.69202" lon="6.09599">
        <ele>253.7</ele>
        <time>2021-10-06T14:28:13Z</time>
      </trkpt>
      <trkpt lat="47.69199" lon="6.09591">
        <ele>254</ele>
        <time>2021-10-06T14:28:15Z</time>
      </trkpt>
      <trkpt lat="47.69197" lon="6.09584">
        <ele>254.3</ele>
        <time>2021-10-06T14:28:19Z</time>
      </trkpt>
      <trkpt lat="47.69196" lon="6.09578">
        <ele>254.6</ele>
        <time>2021-10-06T14:28:20Z</time>
      </trkpt>
      <trkpt lat="47.69194" lon="6.09568">
        <ele>255.1</ele>
        <time>2021-10-06T14:28:24Z</time>
      </trkpt>
      <trkpt lat="47.69192" lon="6.09562">
        <ele>255.4</ele>
        <time>2021-10-06T14:28:28Z</time>
      </trkpt>
      <trkpt lat="47.69189" lon="6.09554">
        <ele>255.6</ele>
        <time>2021-10-06T14:28:31Z</time>
      </trkpt>
      <trkpt lat="47.69187" lon="6.09548">
        <ele>255.9</ele>
        <time>2021-10-06T14:28:35Z</time>
      </trkpt>
      <trkpt lat="47.69186" lon="6.09541">
        <ele>256.3</ele>
        <time>2021-10-06T14:28:37Z</time>
      </trkpt>
      <trkpt lat="47.69183" lon="6.09535">
        <ele>256.6</ele>
        <time>2021-10-06T14:28:40Z</time>
      </trkpt>
      <trkpt lat="47.69181" lon="6.09529">
        <ele>256.8</ele>
        <time>2021-10-06T14:28:43Z</time>
      </trkpt>
      <trkpt lat="47.69179" lon="6.09523">
        <ele>257.2</ele>
        <time>2021-10-06T14:28:46Z</time>
      </trkpt>
      <trkpt lat="47.69178" lon="6.09516">
        <ele>257.6</ele>
        <time>2021-10-06T14:28:49Z</time>
      </trkpt>
      <trkpt lat="47.69175" lon="6.09509">
        <ele>258</ele>
        <time>2021-10-06T14:28:52Z</time>
      </trkpt>
      <trkpt lat="47.69173" lon="6.09502">
        <ele>258.4</ele>
        <time>2021-10-06T14:28:55Z</time>
      </trkpt>
      <trkpt lat="47.6917" lon="6.09495">
        <ele>258.7</ele>
        <time>2021-10-06T14:28:58Z</time>
      </trkpt>
      <trkpt lat="47.69167" lon="6.09487">
        <ele>259</ele>
        <time>2021-10-06T14:29:01Z</time>
      </trkpt>
      <trkpt lat="47.69165" lon="6.09481">
        <ele>259.1</ele>
        <time>2021-10-06T14:29:03Z</time>
      </trkpt>
      <trkpt lat="47.69161" lon="6.09473">
        <ele>259.2</ele>
        <time>2021-10-06T14:29:06Z</time>
      </trkpt>
      <trkpt lat="47.69158" lon="6.09465">
        <ele>259.4</ele>
        <time>2021-10-06T14:29:09Z</time>
      </trkpt>
      <trkpt lat="47.69155" lon="6.09458">
        <ele>259.5</ele>
        <time>2021-10-06T14:29:12Z</time>
      </trkpt>
      <trkpt lat="47.69152" lon="6.0945">
        <ele>259.6</ele>
        <time>2021-10-06T14:29:15Z</time>
      </trkpt>
      <trkpt lat="47.6915" lon="6.09445">
        <ele>259.7</ele>
        <time>2021-10-06T14:29:19Z</time>
      </trkpt>
      <trkpt lat="47.69147" lon="6.09436">
        <ele>259.8</ele>
        <time>2021-10-06T14:29:21Z</time>
      </trkpt>
      <trkpt lat="47.69144" lon="6.09429">
        <ele>259.9</ele>
        <time>2021-10-06T14:29:24Z</time>
      </trkpt>
      <trkpt lat="47.69142" lon="6.09423">
        <ele>260</ele>
        <time>2021-10-06T14:29:28Z</time>
      </trkpt>
      <trkpt lat="47.69138" lon="6.09417">
        <ele>259.9</ele>
        <time>2021-10-06T14:29:30Z</time>
      </trkpt>
      <trkpt lat="47.69137" lon="6.0941">
        <ele>260.1</ele>
        <time>2021-10-06T14:29:34Z</time>
      </trkpt>
      <trkpt lat="47.69134" lon="6.09403">
        <ele>260.2</ele>
        <time>2021-10-06T14:29:37Z</time>
      </trkpt>
      <trkpt lat="47.69131" lon="6.09395">
        <ele>260.2</ele>
        <time>2021-10-06T14:29:39Z</time>
      </trkpt>
      <trkpt lat="47.69129" lon="6.09389">
        <ele>260.2</ele>
        <time>2021-10-06T14:29:43Z</time>
      </trkpt>
      <trkpt lat="47.69126" lon="6.09381">
        <ele>260.3</ele>
        <time>2021-10-06T14:29:46Z</time>
      </trkpt>
      <trkpt lat="47.69123" lon="6.09374">
        <ele>260.4</ele>
        <time>2021-10-06T14:29:51Z</time>
      </trkpt>
      <trkpt lat="47.69121" lon="6.09368">
        <ele>260.4</ele>
        <time>2021-10-06T14:29:54Z</time>
      </trkpt>
      <trkpt lat="47.69119" lon="6.09361">
        <ele>260.6</ele>
        <time>2021-10-06T14:29:56Z</time>
      </trkpt>
      <trkpt lat="47.69117" lon="6.09355">
        <ele>260.7</ele>
        <time>2021-10-06T14:29:59Z</time>
      </trkpt>
      <trkpt lat="47.69114" lon="6.09349">
        <ele>260.7</ele>
        <time>2021-10-06T14:30:01Z</time>
      </trkpt>
      <trkpt lat="47.69113" lon="6.09342">
        <ele>261.1</ele>
        <time>2021-10-06T14:30:04Z</time>
      </trkpt>
      <trkpt lat="47.69112" lon="6.09334">
        <ele>261.4</ele>
        <time>2021-10-06T14:30:10Z</time>
      </trkpt>
      <trkpt lat="47.69112" lon="6.09327">
        <ele>261.8</ele>
        <time>2021-10-06T14:30:11Z</time>
      </trkpt>
      <trkpt lat="47.69109" lon="6.0932">
        <ele>262</ele>
        <time>2021-10-06T14:30:14Z</time>
      </trkpt>
      <trkpt lat="47.69107" lon="6.09314">
        <ele>262.1</ele>
        <time>2021-10-06T14:30:17Z</time>
      </trkpt>
      <trkpt lat="47.69106" lon="6.09306">
        <ele>262.6</ele>
        <time>2021-10-06T14:30:21Z</time>
      </trkpt>
      <trkpt lat="47.69107" lon="6.09299">
        <ele>263.2</ele>
        <time>2021-10-06T14:30:27Z</time>
      </trkpt>
      <trkpt lat="47.69106" lon="6.0929">
        <ele>263.6</ele>
        <time>2021-10-06T14:30:29Z</time>
      </trkpt>
      <trkpt lat="47.69105" lon="6.09283">
        <ele>264.1</ele>
        <time>2021-10-06T14:30:35Z</time>
      </trkpt>
      <trkpt lat="47.69104" lon="6.09275">
        <ele>264.5</ele>
        <time>2021-10-06T14:30:36Z</time>
      </trkpt>
      <trkpt lat="47.69103" lon="6.09268">
        <ele>264.9</ele>
        <time>2021-10-06T14:30:39Z</time>
      </trkpt>
      <trkpt lat="47.69101" lon="6.09261">
        <ele>265.3</ele>
        <time>2021-10-06T14:30:42Z</time>
      </trkpt>
      <trkpt lat="47.691" lon="6.09255">
        <ele>265.7</ele>
        <time>2021-10-06T14:30:45Z</time>
      </trkpt>
      <trkpt lat="47.69098" lon="6.09248">
        <ele>265.9</ele>
        <time>2021-10-06T14:30:48Z</time>
      </trkpt>
      <trkpt lat="47.69097" lon="6.09241">
        <ele>265.8</ele>
        <time>2021-10-06T14:30:51Z</time>
      </trkpt>
      <trkpt lat="47.69095" lon="6.09235">
        <ele>265.7</ele>
        <time>2021-10-06T14:30:54Z</time>
      </trkpt>
      <trkpt lat="47.69093" lon="6.09228">
        <ele>265.6</ele>
        <time>2021-10-06T14:30:57Z</time>
      </trkpt>
      <trkpt lat="47.69091" lon="6.09222">
        <ele>265.5</ele>
        <time>2021-10-06T14:31:00Z</time>
      </trkpt>
      <trkpt lat="47.69089" lon="6.09215">
        <ele>265.3</ele>
        <time>2021-10-06T14:31:03Z</time>
      </trkpt>
      <trkpt lat="47.69087" lon="6.09207">
        <ele>265.2</ele>
        <time>2021-10-06T14:31:06Z</time>
      </trkpt>
      <trkpt lat="47.69085" lon="6.092">
        <ele>265.1</ele>
        <time>2021-10-06T14:31:11Z</time>
      </trkpt>
      <trkpt lat="47.69083" lon="6.09192">
        <ele>265</ele>
        <time>2021-10-06T14:31:13Z</time>
      </trkpt>
      <trkpt lat="47.6908" lon="6.09184">
        <ele>264.8</ele>
        <time>2021-10-06T14:31:16Z</time>
      </trkpt>
      <trkpt lat="47.69078" lon="6.09176">
        <ele>264.7</ele>
        <time>2021-10-06T14:31:18Z</time>
      </trkpt>
      <trkpt lat="47.69074" lon="6.09167">
        <ele>264.6</ele>
        <time>2021-10-06T14:31:18Z</time>
      </trkpt>
      <trkpt lat="47.69072" lon="6.0916">
        <ele>264.4</ele>
        <time>2021-10-06T14:31:22Z</time>
      </trkpt>
      <trkpt lat="47.6907" lon="6.09153">
        <ele>264.2</ele>
        <time>2021-10-06T14:31:24Z</time>
      </trkpt>
      <trkpt lat="47.69066" lon="6.09143">
        <ele>264</ele>
        <time>2021-10-06T14:31:26Z</time>
      </trkpt>
      <trkpt lat="47.69064" lon="6.09137">
        <ele>263.9</ele>
        <time>2021-10-06T14:31:28Z</time>
      </trkpt>
      <trkpt lat="47.69061" lon="6.09122">
        <ele>263.7</ele>
        <time>2021-10-06T14:31:31Z</time>
      </trkpt>
      <trkpt lat="47.69058" lon="6.09106">
        <ele>263.5</ele>
        <time>2021-10-06T14:31:34Z</time>
      </trkpt>
      <trkpt lat="47.69056" lon="6.09098">
        <ele>263.4</ele>
        <time>2021-10-06T14:31:36Z</time>
      </trkpt>
      <trkpt lat="47.69053" lon="6.09083">
        <ele>263.3</ele>
        <time>2021-10-06T14:31:39Z</time>
      </trkpt>
      <trkpt lat="47.69051" lon="6.09075">
        <ele>263.2</ele>
        <time>2021-10-06T14:31:40Z</time>
      </trkpt>
      <trkpt lat="47.69048" lon="6.09058">
        <ele>262.9</ele>
        <time>2021-10-06T14:31:43Z</time>
      </trkpt>
      <trkpt lat="47.69045" lon="6.09039">
        <ele>262.6</ele>
        <time>2021-10-06T14:31:46Z</time>
      </trkpt>
      <trkpt lat="47.69042" lon="6.09022">
        <ele>262.3</ele>
        <time>2021-10-06T14:31:48Z</time>
      </trkpt>
      <trkpt lat="47.6904" lon="6.09011">
        <ele>262.1</ele>
        <time>2021-10-06T14:31:50Z</time>
      </trkpt>
      <trkpt lat="47.69039" lon="6.09002">
        <ele>261.9</ele>
        <time>2021-10-06T14:31:51Z</time>
      </trkpt>
      <trkpt lat="47.69037" lon="6.08983">
        <ele>261.2</ele>
        <time>2021-10-06T14:31:54Z</time>
      </trkpt>
      <trkpt lat="47.69036" lon="6.08977">
        <ele>260.9</ele>
        <time>2021-10-06T14:31:55Z</time>
      </trkpt>
      <trkpt lat="47.69035" lon="6.08967">
        <ele>260.5</ele>
        <time>2021-10-06T14:31:56Z</time>
      </trkpt>
      <trkpt lat="47.69033" lon="6.08954">
        <ele>260.1</ele>
        <time>2021-10-06T14:31:58Z</time>
      </trkpt>
      <trkpt lat="47.69032" lon="6.08947">
        <ele>259.8</ele>
        <time>2021-10-06T14:31:59Z</time>
      </trkpt>
      <trkpt lat="47.69031" lon="6.0894">
        <ele>259.5</ele>
        <time>2021-10-06T14:32:00Z</time>
      </trkpt>
      <trkpt lat="47.6903" lon="6.08933">
        <ele>259.2</ele>
        <time>2021-10-06T14:32:01Z</time>
      </trkpt>
      <trkpt lat="47.69028" lon="6.08922">
        <ele>258.8</ele>
        <time>2021-10-06T14:32:03Z</time>
      </trkpt>
      <trkpt lat="47.69027" lon="6.08915">
        <ele>258.6</ele>
        <time>2021-10-06T14:32:04Z</time>
      </trkpt>
      <trkpt lat="47.69025" lon="6.08897">
        <ele>258.3</ele>
        <time>2021-10-06T14:32:07Z</time>
      </trkpt>
      <trkpt lat="47.69022" lon="6.08882">
        <ele>258</ele>
        <time>2021-10-06T14:32:08Z</time>
      </trkpt>
      <trkpt lat="47.69021" lon="6.08874">
        <ele>257.9</ele>
        <time>2021-10-06T14:32:10Z</time>
      </trkpt>
      <trkpt lat="47.6902" lon="6.08864">
        <ele>257.7</ele>
        <time>2021-10-06T14:32:12Z</time>
      </trkpt>
      <trkpt lat="47.69018" lon="6.08853">
        <ele>257.5</ele>
        <time>2021-10-06T14:32:14Z</time>
      </trkpt>
      <trkpt lat="47.69017" lon="6.08845">
        <ele>257.4</ele>
        <time>2021-10-06T14:32:16Z</time>
      </trkpt>
      <trkpt lat="47.69016" lon="6.08834">
        <ele>257.2</ele>
        <time>2021-10-06T14:32:18Z</time>
      </trkpt>
      <trkpt lat="47.69015" lon="6.08824">
        <ele>257.1</ele>
        <time>2021-10-06T14:32:20Z</time>
      </trkpt>
      <trkpt lat="47.69013" lon="6.08815">
        <ele>257.1</ele>
        <time>2021-10-06T14:32:22Z</time>
      </trkpt>
      <trkpt lat="47.69012" lon="6.08806">
        <ele>257</ele>
        <time>2021-10-06T14:32:24Z</time>
      </trkpt>
      <trkpt lat="47.6901" lon="6.08795">
        <ele>257</ele>
        <time>2021-10-06T14:32:26Z</time>
      </trkpt>
      <trkpt lat="47.69009" lon="6.08787">
        <ele>256.9</ele>
        <time>2021-10-06T14:32:28Z</time>
      </trkpt>
      <trkpt lat="47.69008" lon="6.08778">
        <ele>256.9</ele>
        <time>2021-10-06T14:32:30Z</time>
      </trkpt>
      <trkpt lat="47.69007" lon="6.08768">
        <ele>256.9</ele>
        <time>2021-10-06T14:32:32Z</time>
      </trkpt>
      <trkpt lat="47.69005" lon="6.08759">
        <ele>256.9</ele>
        <time>2021-10-06T14:32:34Z</time>
      </trkpt>
      <trkpt lat="47.69004" lon="6.08751">
        <ele>256.9</ele>
        <time>2021-10-06T14:32:38Z</time>
      </trkpt>
      <trkpt lat="47.69004" lon="6.08743">
        <ele>257.1</ele>
        <time>2021-10-06T14:32:40Z</time>
      </trkpt>
      <trkpt lat="47.69003" lon="6.08735">
        <ele>257.3</ele>
        <time>2021-10-06T14:32:42Z</time>
      </trkpt>
      <trkpt lat="47.69002" lon="6.08727">
        <ele>257.5</ele>
        <time>2021-10-06T14:32:42Z</time>
      </trkpt>
      <trkpt lat="47.69" lon="6.08716">
        <ele>257.8</ele>
        <time>2021-10-06T14:32:45Z</time>
      </trkpt>
      <trkpt lat="47.69" lon="6.08708">
        <ele>258</ele>
        <time>2021-10-06T14:32:47Z</time>
      </trkpt>
      <trkpt lat="47.68999" lon="6.08701">
        <ele>258.2</ele>
        <time>2021-10-06T14:32:49Z</time>
      </trkpt>
      <trkpt lat="47.68998" lon="6.0869">
        <ele>258.5</ele>
        <time>2021-10-06T14:32:52Z</time>
      </trkpt>
      <trkpt lat="47.68997" lon="6.08683">
        <ele>258.7</ele>
        <time>2021-10-06T14:32:56Z</time>
      </trkpt>
      <trkpt lat="47.68996" lon="6.08672">
        <ele>259</ele>
        <time>2021-10-06T14:32:59Z</time>
      </trkpt>
      <trkpt lat="47.68995" lon="6.08665">
        <ele>259.1</ele>
        <time>2021-10-06T14:33:01Z</time>
      </trkpt>
      <trkpt lat="47.68994" lon="6.08658">
        <ele>259</ele>
        <time>2021-10-06T14:33:01Z</time>
      </trkpt>
      <trkpt lat="47.68994" lon="6.08651">
        <ele>259</ele>
        <time>2021-10-06T14:33:05Z</time>
      </trkpt>
      <trkpt lat="47.68993" lon="6.08643">
        <ele>258.9</ele>
        <time>2021-10-06T14:33:05Z</time>
      </trkpt>
      <trkpt lat="47.68992" lon="6.08632">
        <ele>258.8</ele>
        <time>2021-10-06T14:33:08Z</time>
      </trkpt>
      <trkpt lat="47.68991" lon="6.08625">
        <ele>258.7</ele>
        <time>2021-10-06T14:33:12Z</time>
      </trkpt>
      <trkpt lat="47.6899" lon="6.08615">
        <ele>258.6</ele>
        <time>2021-10-06T14:33:15Z</time>
      </trkpt>
      <trkpt lat="47.68989" lon="6.08606">
        <ele>258.5</ele>
        <time>2021-10-06T14:33:15Z</time>
      </trkpt>
      <trkpt lat="47.68989" lon="6.08598">
        <ele>258.5</ele>
        <time>2021-10-06T14:33:17Z</time>
      </trkpt>
      <trkpt lat="47.68988" lon="6.08591">
        <ele>258.4</ele>
        <time>2021-10-06T14:33:21Z</time>
      </trkpt>
      <trkpt lat="47.68987" lon="6.08581">
        <ele>258.4</ele>
        <time>2021-10-06T14:33:21Z</time>
      </trkpt>
      <trkpt lat="47.68986" lon="6.08573">
        <ele>258.7</ele>
        <time>2021-10-06T14:33:23Z</time>
      </trkpt>
      <trkpt lat="47.68985" lon="6.08564">
        <ele>259</ele>
        <time>2021-10-06T14:33:27Z</time>
      </trkpt>
      <trkpt lat="47.68985" lon="6.08555">
        <ele>259.3</ele>
        <time>2021-10-06T14:33:29Z</time>
      </trkpt>
      <trkpt lat="47.68985" lon="6.08548">
        <ele>259.6</ele>
        <time>2021-10-06T14:33:31Z</time>
      </trkpt>
      <trkpt lat="47.68984" lon="6.08541">
        <ele>259.8</ele>
        <time>2021-10-06T14:33:32Z</time>
      </trkpt>
      <trkpt lat="47.68984" lon="6.08533">
        <ele>260.1</ele>
        <time>2021-10-06T14:33:34Z</time>
      </trkpt>
      <trkpt lat="47.68983" lon="6.08523">
        <ele>260.4</ele>
        <time>2021-10-06T14:33:34Z</time>
      </trkpt>
      <trkpt lat="47.68982" lon="6.08514">
        <ele>260.7</ele>
        <time>2021-10-06T14:33:36Z</time>
      </trkpt>
      <trkpt lat="47.68981" lon="6.08505">
        <ele>260.9</ele>
        <time>2021-10-06T14:33:38Z</time>
      </trkpt>
      <trkpt lat="47.68981" lon="6.08496">
        <ele>261.1</ele>
        <time>2021-10-06T14:33:40Z</time>
      </trkpt>
      <trkpt lat="47.68981" lon="6.08487">
        <ele>261.2</ele>
        <time>2021-10-06T14:33:42Z</time>
      </trkpt>
      <trkpt lat="47.68982" lon="6.08478">
        <ele>261.3</ele>
        <time>2021-10-06T14:33:44Z</time>
      </trkpt>
      <trkpt lat="47.68983" lon="6.08469">
        <ele>261.3</ele>
        <time>2021-10-06T14:33:46Z</time>
      </trkpt>
      <trkpt lat="47.68985" lon="6.0846">
        <ele>261.5</ele>
        <time>2021-10-06T14:33:48Z</time>
      </trkpt>
      <trkpt lat="47.68986" lon="6.08451">
        <ele>261.5</ele>
        <time>2021-10-06T14:33:50Z</time>
      </trkpt>
      <trkpt lat="47.68988" lon="6.08442">
        <ele>261.6</ele>
        <time>2021-10-06T14:33:52Z</time>
      </trkpt>
      <trkpt lat="47.6899" lon="6.08434">
        <ele>261.7</ele>
        <time>2021-10-06T14:33:54Z</time>
      </trkpt>
      <trkpt lat="47.68992" lon="6.08427">
        <ele>261.8</ele>
        <time>2021-10-06T14:33:56Z</time>
      </trkpt>
      <trkpt lat="47.68994" lon="6.08419">
        <ele>261.9</ele>
        <time>2021-10-06T14:33:58Z</time>
      </trkpt>
      <trkpt lat="47.68996" lon="6.08411">
        <ele>261.8</ele>
        <time>2021-10-06T14:34:00Z</time>
      </trkpt>
      <trkpt lat="47.68998" lon="6.08404">
        <ele>261.8</ele>
        <time>2021-10-06T14:34:02Z</time>
      </trkpt>
      <trkpt lat="47.69" lon="6.08398">
        <ele>261.8</ele>
        <time>2021-10-06T14:34:04Z</time>
      </trkpt>
      <trkpt lat="47.69002" lon="6.08391">
        <ele>261.8</ele>
        <time>2021-10-06T14:34:06Z</time>
      </trkpt>
      <trkpt lat="47.69004" lon="6.08385">
        <ele>261.9</ele>
        <time>2021-10-06T14:34:08Z</time>
      </trkpt>
      <trkpt lat="47.69005" lon="6.08378">
        <ele>262</ele>
        <time>2021-10-06T14:34:10Z</time>
      </trkpt>
      <trkpt lat="47.69007" lon="6.08372">
        <ele>262</ele>
        <time>2021-10-06T14:34:12Z</time>
      </trkpt>
      <trkpt lat="47.6901" lon="6.08364">
        <ele>262.2</ele>
        <time>2021-10-06T14:34:15Z</time>
      </trkpt>
      <trkpt lat="47.69012" lon="6.08356">
        <ele>262.3</ele>
        <time>2021-10-06T14:34:18Z</time>
      </trkpt>
      <trkpt lat="47.69014" lon="6.08349">
        <ele>262.4</ele>
        <time>2021-10-06T14:34:21Z</time>
      </trkpt>
      <trkpt lat="47.69016" lon="6.0834">
        <ele>262.6</ele>
        <time>2021-10-06T14:34:24Z</time>
      </trkpt>
      <trkpt lat="47.69018" lon="6.08334">
        <ele>262.8</ele>
        <time>2021-10-06T14:34:28Z</time>
      </trkpt>
      <trkpt lat="47.6902" lon="6.08327">
        <ele>263.1</ele>
        <time>2021-10-06T14:34:31Z</time>
      </trkpt>
      <trkpt lat="47.69022" lon="6.08318">
        <ele>263.7</ele>
        <time>2021-10-06T14:34:34Z</time>
      </trkpt>
      <trkpt lat="47.69023" lon="6.08311">
        <ele>264.1</ele>
        <time>2021-10-06T14:34:38Z</time>
      </trkpt>
      <trkpt lat="47.69025" lon="6.08304">
        <ele>264.6</ele>
        <time>2021-10-06T14:34:41Z</time>
      </trkpt>
      <trkpt lat="47.69026" lon="6.08295">
        <ele>265</ele>
        <time>2021-10-06T14:34:44Z</time>
      </trkpt>
      <trkpt lat="47.69027" lon="6.08287">
        <ele>265.5</ele>
        <time>2021-10-06T14:34:48Z</time>
      </trkpt>
      <trkpt lat="47.69028" lon="6.08279">
        <ele>265.9</ele>
        <time>2021-10-06T14:34:51Z</time>
      </trkpt>
      <trkpt lat="47.69029" lon="6.08271">
        <ele>266.3</ele>
        <time>2021-10-06T14:34:55Z</time>
      </trkpt>
      <trkpt lat="47.69029" lon="6.08263">
        <ele>266.6</ele>
        <time>2021-10-06T14:34:58Z</time>
      </trkpt>
      <trkpt lat="47.69029" lon="6.08255">
        <ele>266.9</ele>
        <time>2021-10-06T14:35:01Z</time>
      </trkpt>
      <trkpt lat="47.69029" lon="6.08248">
        <ele>267.3</ele>
        <time>2021-10-06T14:35:04Z</time>
      </trkpt>
      <trkpt lat="47.69028" lon="6.08238">
        <ele>268.2</ele>
        <time>2021-10-06T14:35:07Z</time>
      </trkpt>
      <trkpt lat="47.69026" lon="6.0823">
        <ele>268.9</ele>
        <time>2021-10-06T14:35:12Z</time>
      </trkpt>
      <trkpt lat="47.69024" lon="6.08223">
        <ele>269.4</ele>
        <time>2021-10-06T14:35:13Z</time>
      </trkpt>
      <trkpt lat="47.69021" lon="6.08215">
        <ele>270</ele>
        <time>2021-10-06T14:35:16Z</time>
      </trkpt>
      <trkpt lat="47.69019" lon="6.08209">
        <ele>270.6</ele>
        <time>2021-10-06T14:35:19Z</time>
      </trkpt>
      <trkpt lat="47.69016" lon="6.08204">
        <ele>270.9</ele>
        <time>2021-10-06T14:35:22Z</time>
      </trkpt>
      <trkpt lat="47.69013" lon="6.08196">
        <ele>271.5</ele>
        <time>2021-10-06T14:35:26Z</time>
      </trkpt>
      <trkpt lat="47.69011" lon="6.0819">
        <ele>272</ele>
        <time>2021-10-06T14:35:29Z</time>
      </trkpt>
      <trkpt lat="47.69008" lon="6.08183">
        <ele>272.6</ele>
        <time>2021-10-06T14:35:32Z</time>
      </trkpt>
      <trkpt lat="47.69006" lon="6.08176">
        <ele>273.3</ele>
        <time>2021-10-06T14:35:35Z</time>
      </trkpt>
      <trkpt lat="47.69004" lon="6.08169">
        <ele>273.9</ele>
        <time>2021-10-06T14:35:38Z</time>
      </trkpt>
      <trkpt lat="47.69" lon="6.08163">
        <ele>274.2</ele>
        <time>2021-10-06T14:35:41Z</time>
      </trkpt>
      <trkpt lat="47.68998" lon="6.08156">
        <ele>274.4</ele>
        <time>2021-10-06T14:35:44Z</time>
      </trkpt>
      <trkpt lat="47.68995" lon="6.08149">
        <ele>274.6</ele>
        <time>2021-10-06T14:35:47Z</time>
      </trkpt>
      <trkpt lat="47.68992" lon="6.08142">
        <ele>274.9</ele>
        <time>2021-10-06T14:35:50Z</time>
      </trkpt>
      <trkpt lat="47.68989" lon="6.08134">
        <ele>275.2</ele>
        <time>2021-10-06T14:35:53Z</time>
      </trkpt>
      <trkpt lat="47.68988" lon="6.08126">
        <ele>275.6</ele>
        <time>2021-10-06T14:35:56Z</time>
      </trkpt>
      <trkpt lat="47.68984" lon="6.08118">
        <ele>275.9</ele>
        <time>2021-10-06T14:35:59Z</time>
      </trkpt>
      <trkpt lat="47.68981" lon="6.08111">
        <ele>276.3</ele>
        <time>2021-10-06T14:36:02Z</time>
      </trkpt>
      <trkpt lat="47.68979" lon="6.08105">
        <ele>276.6</ele>
        <time>2021-10-06T14:36:04Z</time>
      </trkpt>
      <trkpt lat="47.68976" lon="6.08098">
        <ele>277</ele>
        <time>2021-10-06T14:36:06Z</time>
      </trkpt>
      <trkpt lat="47.68974" lon="6.08092">
        <ele>277.4</ele>
        <time>2021-10-06T14:36:08Z</time>
      </trkpt>
      <trkpt lat="47.6897" lon="6.08083">
        <ele>278</ele>
        <time>2021-10-06T14:36:11Z</time>
      </trkpt>
      <trkpt lat="47.68968" lon="6.08076">
        <ele>278</ele>
        <time>2021-10-06T14:36:13Z</time>
      </trkpt>
      <trkpt lat="47.68964" lon="6.08069">
        <ele>278</ele>
        <time>2021-10-06T14:36:15Z</time>
      </trkpt>
      <trkpt lat="47.68961" lon="6.08061">
        <ele>278</ele>
        <time>2021-10-06T14:36:17Z</time>
      </trkpt>
      <trkpt lat="47.68958" lon="6.08052">
        <ele>278</ele>
        <time>2021-10-06T14:36:19Z</time>
      </trkpt>
      <trkpt lat="47.68955" lon="6.08043">
        <ele>278</ele>
        <time>2021-10-06T14:36:21Z</time>
      </trkpt>
      <trkpt lat="47.68953" lon="6.08034">
        <ele>278</ele>
        <time>2021-10-06T14:36:23Z</time>
      </trkpt>
      <trkpt lat="47.68951" lon="6.08025">
        <ele>278</ele>
        <time>2021-10-06T14:36:25Z</time>
      </trkpt>
      <trkpt lat="47.6895" lon="6.08016">
        <ele>278</ele>
        <time>2021-10-06T14:36:27Z</time>
      </trkpt>
      <trkpt lat="47.68949" lon="6.08008">
        <ele>278</ele>
        <time>2021-10-06T14:36:31Z</time>
      </trkpt>
      <trkpt lat="47.68948" lon="6.07991">
        <ele>277.3</ele>
        <time>2021-10-06T14:36:32Z</time>
      </trkpt>
      <trkpt lat="47.68949" lon="6.07979">
        <ele>276.4</ele>
        <time>2021-10-06T14:36:34Z</time>
      </trkpt>
      <trkpt lat="47.68951" lon="6.07967">
        <ele>275.5</ele>
        <time>2021-10-06T14:36:36Z</time>
      </trkpt>
      <trkpt lat="47.68951" lon="6.07955">
        <ele>274.6</ele>
        <time>2021-10-06T14:36:38Z</time>
      </trkpt>
      <trkpt lat="47.6895" lon="6.07942">
        <ele>273.5</ele>
        <time>2021-10-06T14:36:42Z</time>
      </trkpt>
      <trkpt lat="47.68949" lon="6.07935">
        <ele>273</ele>
        <time>2021-10-06T14:36:43Z</time>
      </trkpt>
      <trkpt lat="47.68947" lon="6.07928">
        <ele>272.4</ele>
        <time>2021-10-06T14:36:44Z</time>
      </trkpt>
      <trkpt lat="47.6894" lon="6.07923">
        <ele>271.6</ele>
        <time>2021-10-06T14:36:44Z</time>
      </trkpt>
      <trkpt lat="47.68933" lon="6.07921">
        <ele>271.2</ele>
        <time>2021-10-06T14:36:48Z</time>
      </trkpt>
      <trkpt lat="47.68926" lon="6.07921">
        <ele>270.8</ele>
        <time>2021-10-06T14:36:49Z</time>
      </trkpt>
      <trkpt lat="47.6891" lon="6.07921">
        <ele>270.1</ele>
        <time>2021-10-06T14:36:49Z</time>
      </trkpt>
      <trkpt lat="47.68903" lon="6.07922">
        <ele>269.8</ele>
        <time>2021-10-06T14:36:50Z</time>
      </trkpt>
      <trkpt lat="47.68897" lon="6.07922">
        <ele>269.6</ele>
        <time>2021-10-06T14:36:51Z</time>
      </trkpt>
      <trkpt lat="47.68891" lon="6.07922">
        <ele>269.3</ele>
        <time>2021-10-06T14:36:52Z</time>
      </trkpt>
      <trkpt lat="47.68884" lon="6.07922">
        <ele>269</ele>
        <time>2021-10-06T14:36:53Z</time>
      </trkpt>
      <trkpt lat="47.68877" lon="6.07922">
        <ele>268.6</ele>
        <time>2021-10-06T14:36:54Z</time>
      </trkpt>
      <trkpt lat="47.6887" lon="6.07922">
        <ele>268.3</ele>
        <time>2021-10-06T14:36:55Z</time>
      </trkpt>
      <trkpt lat="47.68863" lon="6.07922">
        <ele>268</ele>
        <time>2021-10-06T14:36:56Z</time>
      </trkpt>
      <trkpt lat="47.68856" lon="6.07923">
        <ele>267.8</ele>
        <time>2021-10-06T14:36:57Z</time>
      </trkpt>
      <trkpt lat="47.6885" lon="6.07923">
        <ele>267.5</ele>
        <time>2021-10-06T14:36:58Z</time>
      </trkpt>
      <trkpt lat="47.68843" lon="6.07923">
        <ele>267.2</ele>
        <time>2021-10-06T14:36:59Z</time>
      </trkpt>
      <trkpt lat="47.68836" lon="6.07924">
        <ele>267</ele>
        <time>2021-10-06T14:37:00Z</time>
      </trkpt>
      <trkpt lat="47.68829" lon="6.07924">
        <ele>266.7</ele>
        <time>2021-10-06T14:37:01Z</time>
      </trkpt>
      <trkpt lat="47.68822" lon="6.07924">
        <ele>266.3</ele>
        <time>2021-10-06T14:37:02Z</time>
      </trkpt>
      <trkpt lat="47.68815" lon="6.07923">
        <ele>266</ele>
        <time>2021-10-06T14:37:03Z</time>
      </trkpt>
      <trkpt lat="47.68808" lon="6.07924">
        <ele>265.7</ele>
        <time>2021-10-06T14:37:04Z</time>
      </trkpt>
      <trkpt lat="47.688" lon="6.07924">
        <ele>265.4</ele>
        <time>2021-10-06T14:37:05Z</time>
      </trkpt>
      <trkpt lat="47.68793" lon="6.07924">
        <ele>265.1</ele>
        <time>2021-10-06T14:37:06Z</time>
      </trkpt>
      <trkpt lat="47.68786" lon="6.07925">
        <ele>264.8</ele>
        <time>2021-10-06T14:37:07Z</time>
      </trkpt>
      <trkpt lat="47.68779" lon="6.07925">
        <ele>264.6</ele>
        <time>2021-10-06T14:37:08Z</time>
      </trkpt>
      <trkpt lat="47.68771" lon="6.07925">
        <ele>264.3</ele>
        <time>2021-10-06T14:37:09Z</time>
      </trkpt>
      <trkpt lat="47.68764" lon="6.07925">
        <ele>264</ele>
        <time>2021-10-06T14:37:10Z</time>
      </trkpt>
      <trkpt lat="47.68757" lon="6.07926">
        <ele>263.7</ele>
        <time>2021-10-06T14:37:11Z</time>
      </trkpt>
      <trkpt lat="47.6875" lon="6.07926">
        <ele>263.4</ele>
        <time>2021-10-06T14:37:12Z</time>
      </trkpt>
      <trkpt lat="47.68743" lon="6.07926">
        <ele>263</ele>
        <time>2021-10-06T14:37:13Z</time>
      </trkpt>
      <trkpt lat="47.68735" lon="6.07927">
        <ele>262.6</ele>
        <time>2021-10-06T14:37:14Z</time>
      </trkpt>
      <trkpt lat="47.68728" lon="6.07927">
        <ele>262.2</ele>
        <time>2021-10-06T14:37:15Z</time>
      </trkpt>
      <trkpt lat="47.68721" lon="6.07926">
        <ele>261.7</ele>
        <time>2021-10-06T14:37:16Z</time>
      </trkpt>
      <trkpt lat="47.68713" lon="6.07926">
        <ele>261.2</ele>
        <time>2021-10-06T14:37:17Z</time>
      </trkpt>
      <trkpt lat="47.68706" lon="6.07926">
        <ele>260.8</ele>
        <time>2021-10-06T14:37:18Z</time>
      </trkpt>
      <trkpt lat="47.68698" lon="6.07926">
        <ele>260.3</ele>
        <time>2021-10-06T14:37:19Z</time>
      </trkpt>
      <trkpt lat="47.68691" lon="6.07926">
        <ele>259.8</ele>
        <time>2021-10-06T14:37:20Z</time>
      </trkpt>
      <trkpt lat="47.68683" lon="6.07926">
        <ele>259.3</ele>
        <time>2021-10-06T14:37:21Z</time>
      </trkpt>
      <trkpt lat="47.68675" lon="6.07925">
        <ele>258.8</ele>
        <time>2021-10-06T14:37:22Z</time>
      </trkpt>
      <trkpt lat="47.68667" lon="6.07926">
        <ele>258.4</ele>
        <time>2021-10-06T14:37:23Z</time>
      </trkpt>
      <trkpt lat="47.68659" lon="6.07928">
        <ele>257.9</ele>
        <time>2021-10-06T14:37:24Z</time>
      </trkpt>
      <trkpt lat="47.68652" lon="6.07931">
        <ele>257.6</ele>
        <time>2021-10-06T14:37:25Z</time>
      </trkpt>
      <trkpt lat="47.68644" lon="6.07935">
        <ele>257.4</ele>
        <time>2021-10-06T14:37:26Z</time>
      </trkpt>
      <trkpt lat="47.68637" lon="6.07941">
        <ele>257.3</ele>
        <time>2021-10-06T14:37:27Z</time>
      </trkpt>
      <trkpt lat="47.6863" lon="6.07947">
        <ele>257.3</ele>
        <time>2021-10-06T14:37:28Z</time>
      </trkpt>
      <trkpt lat="47.68623" lon="6.07954">
        <ele>257.3</ele>
        <time>2021-10-06T14:37:29Z</time>
      </trkpt>
      <trkpt lat="47.68618" lon="6.07963">
        <ele>257.6</ele>
        <time>2021-10-06T14:37:30Z</time>
      </trkpt>
      <trkpt lat="47.68613" lon="6.07972">
        <ele>257.9</ele>
        <time>2021-10-06T14:37:31Z</time>
      </trkpt>
      <trkpt lat="47.68609" lon="6.07982">
        <ele>258.3</ele>
        <time>2021-10-06T14:37:32Z</time>
      </trkpt>
      <trkpt lat="47.68605" lon="6.07992">
        <ele>258.7</ele>
        <time>2021-10-06T14:37:33Z</time>
      </trkpt>
      <trkpt lat="47.68603" lon="6.08002">
        <ele>259.1</ele>
        <time>2021-10-06T14:37:34Z</time>
      </trkpt>
      <trkpt lat="47.68601" lon="6.08012">
        <ele>259.4</ele>
        <time>2021-10-06T14:37:35Z</time>
      </trkpt>
      <trkpt lat="47.68599" lon="6.08022">
        <ele>259.8</ele>
        <time>2021-10-06T14:37:36Z</time>
      </trkpt>
      <trkpt lat="47.68598" lon="6.08031">
        <ele>260.1</ele>
        <time>2021-10-06T14:37:37Z</time>
      </trkpt>
      <trkpt lat="47.68597" lon="6.08039">
        <ele>260.5</ele>
        <time>2021-10-06T14:37:38Z</time>
      </trkpt>
      <trkpt lat="47.68596" lon="6.08046">
        <ele>260.7</ele>
        <time>2021-10-06T14:37:39Z</time>
      </trkpt>
      <trkpt lat="47.68594" lon="6.08058">
        <ele>261.2</ele>
        <time>2021-10-06T14:37:41Z</time>
      </trkpt>
      <trkpt lat="47.68593" lon="6.08068">
        <ele>261.6</ele>
        <time>2021-10-06T14:37:43Z</time>
      </trkpt>
      <trkpt lat="47.68592" lon="6.08077">
        <ele>261.9</ele>
        <time>2021-10-06T14:37:45Z</time>
      </trkpt>
      <trkpt lat="47.68591" lon="6.08085">
        <ele>262.3</ele>
        <time>2021-10-06T14:37:47Z</time>
      </trkpt>
      <trkpt lat="47.6859" lon="6.08095">
        <ele>262.5</ele>
        <time>2021-10-06T14:37:49Z</time>
      </trkpt>
      <trkpt lat="47.68589" lon="6.08102">
        <ele>262.8</ele>
        <time>2021-10-06T14:37:52Z</time>
      </trkpt>
      <trkpt lat="47.68588" lon="6.08111">
        <ele>263</ele>
        <time>2021-10-06T14:37:55Z</time>
      </trkpt>
      <trkpt lat="47.68588" lon="6.08118">
        <ele>263.3</ele>
        <time>2021-10-06T14:37:57Z</time>
      </trkpt>
      <trkpt lat="47.68587" lon="6.08125">
        <ele>263.5</ele>
        <time>2021-10-06T14:37:59Z</time>
      </trkpt>
      <trkpt lat="47.68586" lon="6.08133">
        <ele>263.7</ele>
        <time>2021-10-06T14:38:01Z</time>
      </trkpt>
      <trkpt lat="47.68585" lon="6.08141">
        <ele>264</ele>
        <time>2021-10-06T14:38:03Z</time>
      </trkpt>
      <trkpt lat="47.68585" lon="6.0815">
        <ele>264.4</ele>
        <time>2021-10-06T14:38:05Z</time>
      </trkpt>
      <trkpt lat="47.68584" lon="6.0816">
        <ele>264.7</ele>
        <time>2021-10-06T14:38:07Z</time>
      </trkpt>
      <trkpt lat="47.68583" lon="6.08169">
        <ele>265</ele>
        <time>2021-10-06T14:38:09Z</time>
      </trkpt>
      <trkpt lat="47.68582" lon="6.08176">
        <ele>265</ele>
        <time>2021-10-06T14:38:11Z</time>
      </trkpt>
      <trkpt lat="47.68581" lon="6.08184">
        <ele>265</ele>
        <time>2021-10-06T14:38:13Z</time>
      </trkpt>
      <trkpt lat="47.6858" lon="6.08191">
        <ele>265</ele>
        <time>2021-10-06T14:38:15Z</time>
      </trkpt>
      <trkpt lat="47.68579" lon="6.08198">
        <ele>264.9</ele>
        <time>2021-10-06T14:38:17Z</time>
      </trkpt>
      <trkpt lat="47.68578" lon="6.08205">
        <ele>264.9</ele>
        <time>2021-10-06T14:38:19Z</time>
      </trkpt>
      <trkpt lat="47.68576" lon="6.08212">
        <ele>264.9</ele>
        <time>2021-10-06T14:38:21Z</time>
      </trkpt>
      <trkpt lat="47.68576" lon="6.08219">
        <ele>264.9</ele>
        <time>2021-10-06T14:38:23Z</time>
      </trkpt>
      <trkpt lat="47.68575" lon="6.08226">
        <ele>264.9</ele>
        <time>2021-10-06T14:38:25Z</time>
      </trkpt>
      <trkpt lat="47.68574" lon="6.08232">
        <ele>264.9</ele>
        <time>2021-10-06T14:38:27Z</time>
      </trkpt>
      <trkpt lat="47.68574" lon="6.0824">
        <ele>264.9</ele>
        <time>2021-10-06T14:38:29Z</time>
      </trkpt>
      <trkpt lat="47.68573" lon="6.08246">
        <ele>264.9</ele>
        <time>2021-10-06T14:38:31Z</time>
      </trkpt>
      <trkpt lat="47.68572" lon="6.08254">
        <ele>264.8</ele>
        <time>2021-10-06T14:38:33Z</time>
      </trkpt>
      <trkpt lat="47.68571" lon="6.08261">
        <ele>264.4</ele>
        <time>2021-10-06T14:38:35Z</time>
      </trkpt>
      <trkpt lat="47.68569" lon="6.08274">
        <ele>263.8</ele>
        <time>2021-10-06T14:38:37Z</time>
      </trkpt>
      <trkpt lat="47.68567" lon="6.08283">
        <ele>263.3</ele>
        <time>2021-10-06T14:38:40Z</time>
      </trkpt>
      <trkpt lat="47.68565" lon="6.08292">
        <ele>262.9</ele>
        <time>2021-10-06T14:38:42Z</time>
      </trkpt>
      <trkpt lat="47.68564" lon="6.08301">
        <ele>262.6</ele>
        <time>2021-10-06T14:38:44Z</time>
      </trkpt>
      <trkpt lat="47.68562" lon="6.0831">
        <ele>262.2</ele>
        <time>2021-10-06T14:38:46Z</time>
      </trkpt>
      <trkpt lat="47.68558" lon="6.08314">
        <ele>261.9</ele>
        <time>2021-10-06T14:38:48Z</time>
      </trkpt>
      <trkpt lat="47.68551" lon="6.08317">
        <ele>261.6</ele>
        <time>2021-10-06T14:38:50Z</time>
      </trkpt>
      <trkpt lat="47.68544" lon="6.08319">
        <ele>261.3</ele>
        <time>2021-10-06T14:38:52Z</time>
      </trkpt>
      <trkpt lat="47.68535" lon="6.08321">
        <ele>260.9</ele>
        <time>2021-10-06T14:38:54Z</time>
      </trkpt>
      <trkpt lat="47.68531" lon="6.08322">
        <ele>260.8</ele>
        <time>2021-10-06T14:38:55Z</time>
      </trkpt>
      <trkpt lat="47.68525" lon="6.08324">
        <ele>260.6</ele>
        <time>2021-10-06T14:38:56Z</time>
      </trkpt>
      <trkpt lat="47.6852" lon="6.08326">
        <ele>260.4</ele>
        <time>2021-10-06T14:38:58Z</time>
      </trkpt>
      <trkpt lat="47.68514" lon="6.08329">
        <ele>260.3</ele>
        <time>2021-10-06T14:38:59Z</time>
      </trkpt>
      <trkpt lat="47.68508" lon="6.08333">
        <ele>260.2</ele>
        <time>2021-10-06T14:39:00Z</time>
      </trkpt>
      <trkpt lat="47.68501" lon="6.08336">
        <ele>259.9</ele>
        <time>2021-10-06T14:39:01Z</time>
      </trkpt>
      <trkpt lat="47.68494" lon="6.08341">
        <ele>259.1</ele>
        <time>2021-10-06T14:39:02Z</time>
      </trkpt>
      <trkpt lat="47.68487" lon="6.08346">
        <ele>258</ele>
        <time>2021-10-06T14:39:03Z</time>
      </trkpt>
      <trkpt lat="47.68479" lon="6.0835">
        <ele>257</ele>
        <time>2021-10-06T14:39:04Z</time>
      </trkpt>
      <trkpt lat="47.68471" lon="6.08355">
        <ele>255.8</ele>
        <time>2021-10-06T14:39:05Z</time>
      </trkpt>
      <trkpt lat="47.68462" lon="6.08358">
        <ele>254.6</ele>
        <time>2021-10-06T14:39:06Z</time>
      </trkpt>
      <trkpt lat="47.68452" lon="6.08362">
        <ele>253.5</ele>
        <time>2021-10-06T14:39:07Z</time>
      </trkpt>
      <trkpt lat="47.68443" lon="6.08365">
        <ele>252.3</ele>
        <time>2021-10-06T14:39:08Z</time>
      </trkpt>
      <trkpt lat="47.68434" lon="6.08367">
        <ele>251.2</ele>
        <time>2021-10-06T14:39:09Z</time>
      </trkpt>
      <trkpt lat="47.68424" lon="6.08369">
        <ele>250</ele>
        <time>2021-10-06T14:39:10Z</time>
      </trkpt>
      <trkpt lat="47.68415" lon="6.08371">
        <ele>249</ele>
        <time>2021-10-06T14:39:11Z</time>
      </trkpt>
      <trkpt lat="47.68406" lon="6.08372">
        <ele>248.3</ele>
        <time>2021-10-06T14:39:12Z</time>
      </trkpt>
      <trkpt lat="47.68396" lon="6.08375">
        <ele>247.5</ele>
        <time>2021-10-06T14:39:13Z</time>
      </trkpt>
      <trkpt lat="47.68388" lon="6.08378">
        <ele>246.9</ele>
        <time>2021-10-06T14:39:14Z</time>
      </trkpt>
      <trkpt lat="47.68379" lon="6.08383">
        <ele>246.2</ele>
        <time>2021-10-06T14:39:15Z</time>
      </trkpt>
      <trkpt lat="47.6837" lon="6.08387">
        <ele>245.5</ele>
        <time>2021-10-06T14:39:16Z</time>
      </trkpt>
      <trkpt lat="47.68361" lon="6.08392">
        <ele>244.9</ele>
        <time>2021-10-06T14:39:17Z</time>
      </trkpt>
      <trkpt lat="47.68352" lon="6.08395">
        <ele>244.3</ele>
        <time>2021-10-06T14:39:18Z</time>
      </trkpt>
      <trkpt lat="47.68344" lon="6.08397">
        <ele>243.7</ele>
        <time>2021-10-06T14:39:19Z</time>
      </trkpt>
      <trkpt lat="47.68335" lon="6.08397">
        <ele>243.1</ele>
        <time>2021-10-06T14:39:20Z</time>
      </trkpt>
      <trkpt lat="47.68327" lon="6.08396">
        <ele>242.3</ele>
        <time>2021-10-06T14:39:21Z</time>
      </trkpt>
      <trkpt lat="47.68319" lon="6.08393">
        <ele>241.5</ele>
        <time>2021-10-06T14:39:22Z</time>
      </trkpt>
      <trkpt lat="47.68312" lon="6.08388">
        <ele>240.7</ele>
        <time>2021-10-06T14:39:23Z</time>
      </trkpt>
      <trkpt lat="47.68305" lon="6.08382">
        <ele>240</ele>
        <time>2021-10-06T14:39:24Z</time>
      </trkpt>
      <trkpt lat="47.68298" lon="6.08375">
        <ele>239.2</ele>
        <time>2021-10-06T14:39:25Z</time>
      </trkpt>
      <trkpt lat="47.68291" lon="6.0837">
        <ele>238.4</ele>
        <time>2021-10-06T14:39:26Z</time>
      </trkpt>
      <trkpt lat="47.68284" lon="6.08364">
        <ele>237.6</ele>
        <time>2021-10-06T14:39:27Z</time>
      </trkpt>
      <trkpt lat="47.68276" lon="6.08359">
        <ele>236.8</ele>
        <time>2021-10-06T14:39:28Z</time>
      </trkpt>
      <trkpt lat="47.68267" lon="6.08355">
        <ele>235.8</ele>
        <time>2021-10-06T14:39:29Z</time>
      </trkpt>
      <trkpt lat="47.68258" lon="6.08353">
        <ele>234.9</ele>
        <time>2021-10-06T14:39:30Z</time>
      </trkpt>
      <trkpt lat="47.68249" lon="6.08352">
        <ele>233.9</ele>
        <time>2021-10-06T14:39:31Z</time>
      </trkpt>
      <trkpt lat="47.68239" lon="6.08351">
        <ele>233.3</ele>
        <time>2021-10-06T14:39:32Z</time>
      </trkpt>
      <trkpt lat="47.6823" lon="6.0835">
        <ele>232.8</ele>
        <time>2021-10-06T14:39:33Z</time>
      </trkpt>
      <trkpt lat="47.6822" lon="6.08348">
        <ele>232.2</ele>
        <time>2021-10-06T14:39:34Z</time>
      </trkpt>
      <trkpt lat="47.68211" lon="6.08346">
        <ele>231.6</ele>
        <time>2021-10-06T14:39:35Z</time>
      </trkpt>
      <trkpt lat="47.68201" lon="6.08345">
        <ele>231.1</ele>
        <time>2021-10-06T14:39:36Z</time>
      </trkpt>
      <trkpt lat="47.68192" lon="6.08343">
        <ele>230.5</ele>
        <time>2021-10-06T14:39:37Z</time>
      </trkpt>
      <trkpt lat="47.68183" lon="6.08341">
        <ele>230</ele>
        <time>2021-10-06T14:39:38Z</time>
      </trkpt>
      <trkpt lat="47.68176" lon="6.08339">
        <ele>229.6</ele>
        <time>2021-10-06T14:39:39Z</time>
      </trkpt>
      <trkpt lat="47.6817" lon="6.08336">
        <ele>229.2</ele>
        <time>2021-10-06T14:39:40Z</time>
      </trkpt>
      <trkpt lat="47.68165" lon="6.08334">
        <ele>229</ele>
        <time>2021-10-06T14:39:41Z</time>
      </trkpt>
      <trkpt lat="47.6816" lon="6.08332">
        <ele>229.1</ele>
        <time>2021-10-06T14:39:42Z</time>
      </trkpt>
      <trkpt lat="47.68155" lon="6.0833">
        <ele>229.3</ele>
        <time>2021-10-06T14:39:43Z</time>
      </trkpt>
      <trkpt lat="47.68149" lon="6.08328">
        <ele>229.4</ele>
        <time>2021-10-06T14:39:44Z</time>
      </trkpt>
      <trkpt lat="47.68145" lon="6.08326">
        <ele>229.5</ele>
        <time>2021-10-06T14:39:45Z</time>
      </trkpt>
      <trkpt lat="47.6814" lon="6.08323">
        <ele>229.6</ele>
        <time>2021-10-06T14:39:46Z</time>
      </trkpt>
      <trkpt lat="47.68136" lon="6.08319">
        <ele>229.7</ele>
        <time>2021-10-06T14:39:47Z</time>
      </trkpt>
      <trkpt lat="47.68132" lon="6.08316">
        <ele>229.9</ele>
        <time>2021-10-06T14:39:48Z</time>
      </trkpt>
      <trkpt lat="47.68126" lon="6.0831">
        <ele>230</ele>
        <time>2021-10-06T14:39:50Z</time>
      </trkpt>
      <trkpt lat="47.68122" lon="6.08305">
        <ele>230.2</ele>
        <time>2021-10-06T14:39:52Z</time>
      </trkpt>
      <trkpt lat="47.68119" lon="6.08296">
        <ele>230.4</ele>
        <time>2021-10-06T14:40:50Z</time>
      </trkpt>
      <trkpt lat="47.68116" lon="6.08289">
        <ele>230.6</ele>
        <time>2021-10-06T14:40:52Z</time>
      </trkpt>
      <trkpt lat="47.6811" lon="6.08282">
        <ele>230.7</ele>
        <time>2021-10-06T14:40:54Z</time>
      </trkpt>
      <trkpt lat="47.68103" lon="6.08275">
        <ele>230.8</ele>
        <time>2021-10-06T14:40:56Z</time>
      </trkpt>
      <trkpt lat="47.68096" lon="6.08272">
        <ele>230.8</ele>
        <time>2021-10-06T14:40:58Z</time>
      </trkpt>
      <trkpt lat="47.68092" lon="6.0827">
        <ele>230.8</ele>
        <time>2021-10-06T14:40:59Z</time>
      </trkpt>
      <trkpt lat="47.68083" lon="6.08268">
        <ele>230.8</ele>
        <time>2021-10-06T14:41:01Z</time>
      </trkpt>
      <trkpt lat="47.68076" lon="6.08265">
        <ele>230.8</ele>
        <time>2021-10-06T14:41:04Z</time>
      </trkpt>
      <trkpt lat="47.68064" lon="6.0826">
        <ele>230.7</ele>
        <time>2021-10-06T14:41:07Z</time>
      </trkpt>
      <trkpt lat="47.6806" lon="6.08258">
        <ele>230.7</ele>
        <time>2021-10-06T14:41:08Z</time>
      </trkpt>
      <trkpt lat="47.68055" lon="6.08256">
        <ele>230.6</ele>
        <time>2021-10-06T14:41:09Z</time>
      </trkpt>
      <trkpt lat="47.68048" lon="6.08253">
        <ele>230.6</ele>
        <time>2021-10-06T14:41:11Z</time>
      </trkpt>
      <trkpt lat="47.68044" lon="6.0825">
        <ele>230.6</ele>
        <time>2021-10-06T14:41:12Z</time>
      </trkpt>
      <trkpt lat="47.68034" lon="6.08243">
        <ele>231.1</ele>
        <time>2021-10-06T14:41:15Z</time>
      </trkpt>
      <trkpt lat="47.68023" lon="6.08234">
        <ele>231.8</ele>
        <time>2021-10-06T14:41:18Z</time>
      </trkpt>
      <trkpt lat="47.68014" lon="6.08225">
        <ele>232.4</ele>
        <time>2021-10-06T14:41:21Z</time>
      </trkpt>
      <trkpt lat="47.68011" lon="6.0822">
        <ele>232.8</ele>
        <time>2021-10-06T14:41:22Z</time>
      </trkpt>
      <trkpt lat="47.68006" lon="6.08214">
        <ele>233.2</ele>
        <time>2021-10-06T14:41:24Z</time>
      </trkpt>
      <trkpt lat="47.68" lon="6.08208">
        <ele>233.5</ele>
        <time>2021-10-06T14:41:26Z</time>
      </trkpt>
      <trkpt lat="47.67996" lon="6.08203">
        <ele>233.9</ele>
        <time>2021-10-06T14:41:27Z</time>
      </trkpt>
      <trkpt lat="47.67991" lon="6.08196">
        <ele>234.2</ele>
        <time>2021-10-06T14:41:29Z</time>
      </trkpt>
      <trkpt lat="47.67987" lon="6.08191">
        <ele>234.5</ele>
        <time>2021-10-06T14:41:30Z</time>
      </trkpt>
      <trkpt lat="47.67981" lon="6.08185">
        <ele>234.6</ele>
        <time>2021-10-06T14:41:31Z</time>
      </trkpt>
      <trkpt lat="47.67976" lon="6.08179">
        <ele>234.6</ele>
        <time>2021-10-06T14:41:33Z</time>
      </trkpt>
      <trkpt lat="47.6797" lon="6.08174">
        <ele>234.5</ele>
        <time>2021-10-06T14:41:35Z</time>
      </trkpt>
      <trkpt lat="47.67965" lon="6.08169">
        <ele>234.4</ele>
        <time>2021-10-06T14:41:38Z</time>
      </trkpt>
      <trkpt lat="47.67957" lon="6.08161">
        <ele>234.8</ele>
        <time>2021-10-06T14:41:40Z</time>
      </trkpt>
      <trkpt lat="47.67953" lon="6.08158">
        <ele>235.1</ele>
        <time>2021-10-06T14:41:42Z</time>
      </trkpt>
      <trkpt lat="47.67948" lon="6.08154">
        <ele>235.5</ele>
        <time>2021-10-06T14:41:43Z</time>
      </trkpt>
      <trkpt lat="47.67944" lon="6.0815">
        <ele>235.9</ele>
        <time>2021-10-06T14:41:44Z</time>
      </trkpt>
      <trkpt lat="47.67938" lon="6.08143">
        <ele>236.5</ele>
        <time>2021-10-06T14:41:46Z</time>
      </trkpt>
      <trkpt lat="47.67926" lon="6.08133">
        <ele>237.4</ele>
        <time>2021-10-06T14:41:48Z</time>
      </trkpt>
      <trkpt lat="47.67921" lon="6.08128">
        <ele>237.8</ele>
        <time>2021-10-06T14:41:51Z</time>
      </trkpt>
      <trkpt lat="47.67917" lon="6.08124">
        <ele>238.2</ele>
        <time>2021-10-06T14:41:52Z</time>
      </trkpt>
      <trkpt lat="47.67912" lon="6.08119">
        <ele>238.8</ele>
        <time>2021-10-06T14:41:53Z</time>
      </trkpt>
      <trkpt lat="47.67908" lon="6.08115">
        <ele>239.2</ele>
        <time>2021-10-06T14:41:54Z</time>
      </trkpt>
      <trkpt lat="47.67901" lon="6.08109">
        <ele>239.8</ele>
        <time>2021-10-06T14:41:56Z</time>
      </trkpt>
      <trkpt lat="47.67896" lon="6.08104">
        <ele>240.2</ele>
        <time>2021-10-06T14:41:58Z</time>
      </trkpt>
      <trkpt lat="47.67891" lon="6.08099">
        <ele>240.5</ele>
        <time>2021-10-06T14:41:59Z</time>
      </trkpt>
      <trkpt lat="47.67885" lon="6.08094">
        <ele>240.7</ele>
        <time>2021-10-06T14:42:01Z</time>
      </trkpt>
      <trkpt lat="47.6788" lon="6.08089">
        <ele>240.8</ele>
        <time>2021-10-06T14:42:03Z</time>
      </trkpt>
      <trkpt lat="47.67871" lon="6.08082">
        <ele>240.8</ele>
        <time>2021-10-06T14:42:06Z</time>
      </trkpt>
      <trkpt lat="47.67865" lon="6.08077">
        <ele>241.6</ele>
        <time>2021-10-06T14:42:08Z</time>
      </trkpt>
      <trkpt lat="47.6786" lon="6.08073">
        <ele>242</ele>
        <time>2021-10-06T14:42:10Z</time>
      </trkpt>
      <trkpt lat="47.67855" lon="6.08069">
        <ele>242.4</ele>
        <time>2021-10-06T14:42:11Z</time>
      </trkpt>
      <trkpt lat="47.67851" lon="6.08067">
        <ele>242.7</ele>
        <time>2021-10-06T14:42:13Z</time>
      </trkpt>
      <trkpt lat="47.67846" lon="6.08063">
        <ele>243.2</ele>
        <time>2021-10-06T14:42:17Z</time>
      </trkpt>
      <trkpt lat="47.6784" lon="6.08059">
        <ele>243.6</ele>
        <time>2021-10-06T14:42:20Z</time>
      </trkpt>
      <trkpt lat="47.67835" lon="6.08057">
        <ele>243.7</ele>
        <time>2021-10-06T14:42:23Z</time>
      </trkpt>
      <trkpt lat="47.6783" lon="6.08055">
        <ele>244</ele>
        <time>2021-10-06T14:42:25Z</time>
      </trkpt>
      <trkpt lat="47.6782" lon="6.08051">
        <ele>244.4</ele>
        <time>2021-10-06T14:42:28Z</time>
      </trkpt>
      <trkpt lat="47.67814" lon="6.08049">
        <ele>244.7</ele>
        <time>2021-10-06T14:42:30Z</time>
      </trkpt>
      <trkpt lat="47.67805" lon="6.08045">
        <ele>245.1</ele>
        <time>2021-10-06T14:42:33Z</time>
      </trkpt>
      <trkpt lat="47.67799" lon="6.08042">
        <ele>245.5</ele>
        <time>2021-10-06T14:42:35Z</time>
      </trkpt>
      <trkpt lat="47.67794" lon="6.0804">
        <ele>245.7</ele>
        <time>2021-10-06T14:42:37Z</time>
      </trkpt>
      <trkpt lat="47.67789" lon="6.08038">
        <ele>246</ele>
        <time>2021-10-06T14:42:39Z</time>
      </trkpt>
      <trkpt lat="47.67782" lon="6.08035">
        <ele>246.4</ele>
        <time>2021-10-06T14:42:41Z</time>
      </trkpt>
      <trkpt lat="47.67778" lon="6.08033">
        <ele>246.6</ele>
        <time>2021-10-06T14:42:43Z</time>
      </trkpt>
      <trkpt lat="47.67771" lon="6.0803">
        <ele>247</ele>
        <time>2021-10-06T14:42:45Z</time>
      </trkpt>
      <trkpt lat="47.67766" lon="6.08026">
        <ele>247.5</ele>
        <time>2021-10-06T14:42:47Z</time>
      </trkpt>
      <trkpt lat="47.67761" lon="6.08024">
        <ele>247.9</ele>
        <time>2021-10-06T14:42:49Z</time>
      </trkpt>
      <trkpt lat="47.67751" lon="6.08018">
        <ele>248.8</ele>
        <time>2021-10-06T14:42:52Z</time>
      </trkpt>
      <trkpt lat="47.67745" lon="6.08013">
        <ele>249.4</ele>
        <time>2021-10-06T14:42:54Z</time>
      </trkpt>
      <trkpt lat="47.67741" lon="6.08011">
        <ele>249.8</ele>
        <time>2021-10-06T14:42:55Z</time>
      </trkpt>
      <trkpt lat="47.67734" lon="6.08008">
        <ele>250</ele>
        <time>2021-10-06T14:42:57Z</time>
      </trkpt>
      <trkpt lat="47.67728" lon="6.08006">
        <ele>250</ele>
        <time>2021-10-06T14:42:58Z</time>
      </trkpt>
      <trkpt lat="47.67722" lon="6.08003">
        <ele>250</ele>
        <time>2021-10-06T14:43:00Z</time>
      </trkpt>
      <trkpt lat="47.67716" lon="6.08001">
        <ele>249.9</ele>
        <time>2021-10-06T14:43:01Z</time>
      </trkpt>
      <trkpt lat="47.67709" lon="6.07999">
        <ele>249.5</ele>
        <time>2021-10-06T14:43:02Z</time>
      </trkpt>
      <trkpt lat="47.67703" lon="6.07999">
        <ele>249.1</ele>
        <time>2021-10-06T14:43:05Z</time>
      </trkpt>
      <trkpt lat="47.67699" lon="6.07998">
        <ele>248.8</ele>
        <time>2021-10-06T14:43:06Z</time>
      </trkpt>
      <trkpt lat="47.67687" lon="6.08">
        <ele>247.7</ele>
        <time>2021-10-06T14:43:07Z</time>
      </trkpt>
      <trkpt lat="47.67683" lon="6.08002">
        <ele>246.9</ele>
        <time>2021-10-06T14:43:08Z</time>
      </trkpt>
      <trkpt lat="47.67679" lon="6.08005">
        <ele>246.1</ele>
        <time>2021-10-06T14:43:09Z</time>
      </trkpt>
      <trkpt lat="47.67674" lon="6.08008">
        <ele>245.2</ele>
        <time>2021-10-06T14:43:10Z</time>
      </trkpt>
      <trkpt lat="47.67669" lon="6.08012">
        <ele>244.3</ele>
        <time>2021-10-06T14:43:11Z</time>
      </trkpt>
      <trkpt lat="47.67664" lon="6.08017">
        <ele>243.2</ele>
        <time>2021-10-06T14:43:12Z</time>
      </trkpt>
      <trkpt lat="47.67658" lon="6.08022">
        <ele>242.2</ele>
        <time>2021-10-06T14:43:13Z</time>
      </trkpt>
      <trkpt lat="47.67653" lon="6.08026">
        <ele>241.5</ele>
        <time>2021-10-06T14:43:14Z</time>
      </trkpt>
      <trkpt lat="47.67645" lon="6.08033">
        <ele>240.4</ele>
        <time>2021-10-06T14:43:16Z</time>
      </trkpt>
      <trkpt lat="47.6764" lon="6.08036">
        <ele>239.8</ele>
        <time>2021-10-06T14:43:17Z</time>
      </trkpt>
      <trkpt lat="47.67637" lon="6.0804">
        <ele>239.4</ele>
        <time>2021-10-06T14:43:18Z</time>
      </trkpt>
      <trkpt lat="47.6763" lon="6.08045">
        <ele>238.7</ele>
        <time>2021-10-06T14:43:20Z</time>
      </trkpt>
      <trkpt lat="47.67625" lon="6.08049">
        <ele>238.3</ele>
        <time>2021-10-06T14:43:22Z</time>
      </trkpt>
      <trkpt lat="47.6762" lon="6.08051">
        <ele>238.1</ele>
        <time>2021-10-06T14:43:24Z</time>
      </trkpt>
      <trkpt lat="47.67615" lon="6.08053">
        <ele>237.9</ele>
        <time>2021-10-06T14:43:26Z</time>
      </trkpt>
      <trkpt lat="47.6761" lon="6.08056">
        <ele>237.8</ele>
        <time>2021-10-06T14:43:28Z</time>
      </trkpt>
      <trkpt lat="47.67604" lon="6.08057">
        <ele>237.7</ele>
        <time>2021-10-06T14:43:30Z</time>
      </trkpt>
      <trkpt lat="47.67597" lon="6.08058">
        <ele>237.8</ele>
        <time>2021-10-06T14:43:32Z</time>
      </trkpt>
      <trkpt lat="47.67588" lon="6.08058">
        <ele>237.9</ele>
        <time>2021-10-06T14:43:34Z</time>
      </trkpt>
      <trkpt lat="47.67583" lon="6.08056">
        <ele>238</ele>
        <time>2021-10-06T14:43:35Z</time>
      </trkpt>
      <trkpt lat="47.67577" lon="6.08054">
        <ele>237.9</ele>
        <time>2021-10-06T14:43:36Z</time>
      </trkpt>
      <trkpt lat="47.67572" lon="6.08051">
        <ele>237.8</ele>
        <time>2021-10-06T14:43:37Z</time>
      </trkpt>
      <trkpt lat="47.67566" lon="6.08047">
        <ele>237.7</ele>
        <time>2021-10-06T14:43:38Z</time>
      </trkpt>
      <trkpt lat="47.67562" lon="6.08043">
        <ele>237.6</ele>
        <time>2021-10-06T14:43:39Z</time>
      </trkpt>
      <trkpt lat="47.67559" lon="6.08037">
        <ele>237.6</ele>
        <time>2021-10-06T14:43:40Z</time>
      </trkpt>
      <trkpt lat="47.67555" lon="6.08029">
        <ele>237.5</ele>
        <time>2021-10-06T14:43:42Z</time>
      </trkpt>
      <trkpt lat="47.67554" lon="6.08022">
        <ele>237.6</ele>
        <time>2021-10-06T14:43:44Z</time>
      </trkpt>
      <trkpt lat="47.67553" lon="6.08014">
        <ele>237.6</ele>
        <time>2021-10-06T14:43:46Z</time>
      </trkpt>
      <trkpt lat="47.67552" lon="6.08006">
        <ele>237.6</ele>
        <time>2021-10-06T14:43:47Z</time>
      </trkpt>
      <trkpt lat="47.6755" lon="6.07998">
        <ele>237.8</ele>
        <time>2021-10-06T14:43:48Z</time>
      </trkpt>
      <trkpt lat="47.67547" lon="6.0799">
        <ele>238.7</ele>
        <time>2021-10-06T14:43:49Z</time>
      </trkpt>
      <trkpt lat="47.67542" lon="6.07981">
        <ele>239.7</ele>
        <time>2021-10-06T14:43:50Z</time>
      </trkpt>
      <trkpt lat="47.67535" lon="6.07973">
        <ele>240.4</ele>
        <time>2021-10-06T14:43:51Z</time>
      </trkpt>
      <trkpt lat="47.67526" lon="6.07966">
        <ele>241</ele>
        <time>2021-10-06T14:43:52Z</time>
      </trkpt>
      <trkpt lat="47.67517" lon="6.07961">
        <ele>241.3</ele>
        <time>2021-10-06T14:43:53Z</time>
      </trkpt>
      <trkpt lat="47.6751" lon="6.07958">
        <ele>241.4</ele>
        <time>2021-10-06T14:43:54Z</time>
      </trkpt>
      <trkpt lat="47.67502" lon="6.07956">
        <ele>241.4</ele>
        <time>2021-10-06T14:43:55Z</time>
      </trkpt>
      <trkpt lat="47.67494" lon="6.07957">
        <ele>240.6</ele>
        <time>2021-10-06T14:43:56Z</time>
      </trkpt>
      <trkpt lat="47.67487" lon="6.07957">
        <ele>239.8</ele>
        <time>2021-10-06T14:43:57Z</time>
      </trkpt>
      <trkpt lat="47.6748" lon="6.07957">
        <ele>239</ele>
        <time>2021-10-06T14:43:58Z</time>
      </trkpt>
      <trkpt lat="47.67474" lon="6.07957">
        <ele>238.3</ele>
        <time>2021-10-06T14:43:59Z</time>
      </trkpt>
      <trkpt lat="47.67467" lon="6.07958">
        <ele>237.6</ele>
        <time>2021-10-06T14:44:00Z</time>
      </trkpt>
      <trkpt lat="47.67461" lon="6.07958">
        <ele>236.9</ele>
        <time>2021-10-06T14:44:01Z</time>
      </trkpt>
      <trkpt lat="47.67456" lon="6.07959">
        <ele>236.1</ele>
        <time>2021-10-06T14:44:02Z</time>
      </trkpt>
      <trkpt lat="47.6745" lon="6.07961">
        <ele>235.4</ele>
        <time>2021-10-06T14:44:03Z</time>
      </trkpt>
      <trkpt lat="47.67445" lon="6.07962">
        <ele>234.8</ele>
        <time>2021-10-06T14:44:04Z</time>
      </trkpt>
      <trkpt lat="47.6744" lon="6.07962">
        <ele>234.2</ele>
        <time>2021-10-06T14:44:05Z</time>
      </trkpt>
      <trkpt lat="47.67435" lon="6.07963">
        <ele>233.7</ele>
        <time>2021-10-06T14:44:06Z</time>
      </trkpt>
      <trkpt lat="47.67426" lon="6.07963">
        <ele>232.7</ele>
        <time>2021-10-06T14:44:08Z</time>
      </trkpt>
      <trkpt lat="47.67417" lon="6.07963">
        <ele>231.9</ele>
        <time>2021-10-06T14:44:10Z</time>
      </trkpt>
      <trkpt lat="47.67408" lon="6.07963">
        <ele>231.3</ele>
        <time>2021-10-06T14:44:12Z</time>
      </trkpt>
      <trkpt lat="47.67399" lon="6.07962">
        <ele>230.8</ele>
        <time>2021-10-06T14:44:14Z</time>
      </trkpt>
      <trkpt lat="47.67392" lon="6.07959">
        <ele>230.4</ele>
        <time>2021-10-06T14:44:16Z</time>
      </trkpt>
      <trkpt lat="47.67382" lon="6.07958">
        <ele>229.9</ele>
        <time>2021-10-06T14:44:18Z</time>
      </trkpt>
      <trkpt lat="47.67377" lon="6.07958">
        <ele>229.6</ele>
        <time>2021-10-06T14:44:19Z</time>
      </trkpt>
      <trkpt lat="47.67372" lon="6.07958">
        <ele>229.4</ele>
        <time>2021-10-06T14:44:20Z</time>
      </trkpt>
      <trkpt lat="47.67368" lon="6.07957">
        <ele>229.1</ele>
        <time>2021-10-06T14:44:21Z</time>
      </trkpt>
      <trkpt lat="47.67363" lon="6.07957">
        <ele>228.8</ele>
        <time>2021-10-06T14:44:22Z</time>
      </trkpt>
      <trkpt lat="47.67358" lon="6.07956">
        <ele>228.6</ele>
        <time>2021-10-06T14:44:23Z</time>
      </trkpt>
      <trkpt lat="47.67353" lon="6.07956">
        <ele>228.3</ele>
        <time>2021-10-06T14:44:24Z</time>
      </trkpt>
      <trkpt lat="47.67348" lon="6.07956">
        <ele>228</ele>
        <time>2021-10-06T14:44:25Z</time>
      </trkpt>
      <trkpt lat="47.67344" lon="6.07956">
        <ele>227.7</ele>
        <time>2021-10-06T14:44:26Z</time>
      </trkpt>
      <trkpt lat="47.67339" lon="6.07956">
        <ele>227.4</ele>
        <time>2021-10-06T14:44:27Z</time>
      </trkpt>
      <trkpt lat="47.67334" lon="6.07956">
        <ele>227.1</ele>
        <time>2021-10-06T14:44:28Z</time>
      </trkpt>
      <trkpt lat="47.67329" lon="6.07956">
        <ele>227.1</ele>
        <time>2021-10-06T14:44:29Z</time>
      </trkpt>
      <trkpt lat="47.67324" lon="6.07957">
        <ele>227.1</ele>
        <time>2021-10-06T14:44:30Z</time>
      </trkpt>
      <trkpt lat="47.67319" lon="6.07956">
        <ele>227.2</ele>
        <time>2021-10-06T14:44:31Z</time>
      </trkpt>
      <trkpt lat="47.67314" lon="6.07955">
        <ele>227.2</ele>
        <time>2021-10-06T14:44:32Z</time>
      </trkpt>
      <trkpt lat="47.67309" lon="6.07954">
        <ele>227.3</ele>
        <time>2021-10-06T14:44:33Z</time>
      </trkpt>
      <trkpt lat="47.67304" lon="6.07953">
        <ele>227.4</ele>
        <time>2021-10-06T14:44:34Z</time>
      </trkpt>
      <trkpt lat="47.67299" lon="6.07952">
        <ele>227.4</ele>
        <time>2021-10-06T14:44:35Z</time>
      </trkpt>
      <trkpt lat="47.67294" lon="6.07952">
        <ele>227.5</ele>
        <time>2021-10-06T14:44:36Z</time>
      </trkpt>
      <trkpt lat="47.67289" lon="6.07952">
        <ele>227.5</ele>
        <time>2021-10-06T14:44:37Z</time>
      </trkpt>
      <trkpt lat="47.67284" lon="6.07953">
        <ele>227.6</ele>
        <time>2021-10-06T14:44:38Z</time>
      </trkpt>
      <trkpt lat="47.67279" lon="6.07953">
        <ele>227.6</ele>
        <time>2021-10-06T14:44:39Z</time>
      </trkpt>
      <trkpt lat="47.67274" lon="6.07952">
        <ele>227.7</ele>
        <time>2021-10-06T14:44:40Z</time>
      </trkpt>
      <trkpt lat="47.6727" lon="6.07951">
        <ele>227.8</ele>
        <time>2021-10-06T14:44:41Z</time>
      </trkpt>
      <trkpt lat="47.67265" lon="6.07951">
        <ele>227.8</ele>
        <time>2021-10-06T14:44:42Z</time>
      </trkpt>
      <trkpt lat="47.67258" lon="6.0795">
        <ele>227.9</ele>
        <time>2021-10-06T14:44:44Z</time>
      </trkpt>
      <trkpt lat="47.67253" lon="6.0795">
        <ele>228</ele>
        <time>2021-10-06T14:44:45Z</time>
      </trkpt>
      <trkpt lat="47.67245" lon="6.0795">
        <ele>228</ele>
        <time>2021-10-06T14:44:47Z</time>
      </trkpt>
      <trkpt lat="47.67236" lon="6.07951">
        <ele>228</ele>
        <time>2021-10-06T14:44:49Z</time>
      </trkpt>
      <trkpt lat="47.6723" lon="6.07956">
        <ele>227.6</ele>
        <time>2021-10-06T14:44:51Z</time>
      </trkpt>
      <trkpt lat="47.67222" lon="6.07955">
        <ele>227.7</ele>
        <time>2021-10-06T14:44:53Z</time>
      </trkpt>
      <trkpt lat="47.67216" lon="6.07952">
        <ele>228</ele>
        <time>2021-10-06T14:44:56Z</time>
      </trkpt>
      <trkpt lat="47.67211" lon="6.0795">
        <ele>228.1</ele>
        <time>2021-10-06T14:44:57Z</time>
      </trkpt>
      <trkpt lat="47.67201" lon="6.07946">
        <ele>228.4</ele>
        <time>2021-10-06T14:45:00Z</time>
      </trkpt>
      <trkpt lat="47.6719" lon="6.07943">
        <ele>228.7</ele>
        <time>2021-10-06T14:45:03Z</time>
      </trkpt>
      <trkpt lat="47.67183" lon="6.07941">
        <ele>228.9</ele>
        <time>2021-10-06T14:45:05Z</time>
      </trkpt>
      <trkpt lat="47.67178" lon="6.07937">
        <ele>229.2</ele>
        <time>2021-10-06T14:45:06Z</time>
      </trkpt>
      <trkpt lat="47.67173" lon="6.07936">
        <ele>229.3</ele>
        <time>2021-10-06T14:45:08Z</time>
      </trkpt>
      <trkpt lat="47.67168" lon="6.07935">
        <ele>229.5</ele>
        <time>2021-10-06T14:45:10Z</time>
      </trkpt>
      <trkpt lat="47.67163" lon="6.07934">
        <ele>229.5</ele>
        <time>2021-10-06T14:45:13Z</time>
      </trkpt>
      <trkpt lat="47.67156" lon="6.07932">
        <ele>229.6</ele>
        <time>2021-10-06T14:45:15Z</time>
      </trkpt>
      <trkpt lat="47.67152" lon="6.07931">
        <ele>229.7</ele>
        <time>2021-10-06T14:45:17Z</time>
      </trkpt>
      <trkpt lat="47.67146" lon="6.07929">
        <ele>229.8</ele>
        <time>2021-10-06T14:45:20Z</time>
      </trkpt>
      <trkpt lat="47.6714" lon="6.07929">
        <ele>229.8</ele>
        <time>2021-10-06T14:45:24Z</time>
      </trkpt>
      <trkpt lat="47.67135" lon="6.07928">
        <ele>229.8</ele>
        <time>2021-10-06T14:45:25Z</time>
      </trkpt>
      <trkpt lat="47.67129" lon="6.07929">
        <ele>229.6</ele>
        <time>2021-10-06T14:45:27Z</time>
      </trkpt>
      <trkpt lat="47.67123" lon="6.0793">
        <ele>229.5</ele>
        <time>2021-10-06T14:45:29Z</time>
      </trkpt>
      <trkpt lat="47.67118" lon="6.07932">
        <ele>229.4</ele>
        <time>2021-10-06T14:45:32Z</time>
      </trkpt>
      <trkpt lat="47.67112" lon="6.07933">
        <ele>229.2</ele>
        <time>2021-10-06T14:45:34Z</time>
      </trkpt>
      <trkpt lat="47.67107" lon="6.07934">
        <ele>229.1</ele>
        <time>2021-10-06T14:45:36Z</time>
      </trkpt>
      <trkpt lat="47.67102" lon="6.07934">
        <ele>229.1</ele>
        <time>2021-10-06T14:45:38Z</time>
      </trkpt>
      <trkpt lat="47.67096" lon="6.07933">
        <ele>229.1</ele>
        <time>2021-10-06T14:45:40Z</time>
      </trkpt>
      <trkpt lat="47.67092" lon="6.07933">
        <ele>229.1</ele>
        <time>2021-10-06T14:45:42Z</time>
      </trkpt>
      <trkpt lat="47.67086" lon="6.07931">
        <ele>229.2</ele>
        <time>2021-10-06T14:45:43Z</time>
      </trkpt>
      <trkpt lat="47.67081" lon="6.07929">
        <ele>229.2</ele>
        <time>2021-10-06T14:45:45Z</time>
      </trkpt>
      <trkpt lat="47.67076" lon="6.07928">
        <ele>229.2</ele>
        <time>2021-10-06T14:45:47Z</time>
      </trkpt>
      <trkpt lat="47.67071" lon="6.07927">
        <ele>229</ele>
        <time>2021-10-06T14:45:51Z</time>
      </trkpt>
      <trkpt lat="47.67065" lon="6.07925">
        <ele>228.9</ele>
        <time>2021-10-06T14:45:52Z</time>
      </trkpt>
      <trkpt lat="47.6706" lon="6.07921">
        <ele>229</ele>
        <time>2021-10-06T14:45:56Z</time>
      </trkpt>
      <trkpt lat="47.67055" lon="6.07917">
        <ele>229</ele>
        <time>2021-10-06T14:45:57Z</time>
      </trkpt>
      <trkpt lat="47.67051" lon="6.07914">
        <ele>228.9</ele>
        <time>2021-10-06T14:46:00Z</time>
      </trkpt>
      <trkpt lat="47.67044" lon="6.07915">
        <ele>228.7</ele>
        <time>2021-10-06T14:46:02Z</time>
      </trkpt>
      <trkpt lat="47.67037" lon="6.07918">
        <ele>228.3</ele>
        <time>2021-10-06T14:46:04Z</time>
      </trkpt>
      <trkpt lat="47.67033" lon="6.07918">
        <ele>228.1</ele>
        <time>2021-10-06T14:46:05Z</time>
      </trkpt>
      <trkpt lat="47.67025" lon="6.07918">
        <ele>227.9</ele>
        <time>2021-10-06T14:46:07Z</time>
      </trkpt>
      <trkpt lat="47.67019" lon="6.07916">
        <ele>227.7</ele>
        <time>2021-10-06T14:46:08Z</time>
      </trkpt>
      <trkpt lat="47.67002" lon="6.07912">
        <ele>227.3</ele>
        <time>2021-10-06T14:46:09Z</time>
      </trkpt>
      <trkpt lat="47.66996" lon="6.07909">
        <ele>227.3</ele>
        <time>2021-10-06T14:46:10Z</time>
      </trkpt>
      <trkpt lat="47.66991" lon="6.07907">
        <ele>227.4</ele>
        <time>2021-10-06T14:46:11Z</time>
      </trkpt>
      <trkpt lat="47.66985" lon="6.07907">
        <ele>227.5</ele>
        <time>2021-10-06T14:46:12Z</time>
      </trkpt>
      <trkpt lat="47.6698" lon="6.07911">
        <ele>227.4</ele>
        <time>2021-10-06T14:46:13Z</time>
      </trkpt>
      <trkpt lat="47.66976" lon="6.07916">
        <ele>227.3</ele>
        <time>2021-10-06T14:46:14Z</time>
      </trkpt>
      <trkpt lat="47.66972" lon="6.07923">
        <ele>227.3</ele>
        <time>2021-10-06T14:46:15Z</time>
      </trkpt>
      <trkpt lat="47.66968" lon="6.0793">
        <ele>227.3</ele>
        <time>2021-10-06T14:46:16Z</time>
      </trkpt>
      <trkpt lat="47.66965" lon="6.07938">
        <ele>227.3</ele>
        <time>2021-10-06T14:46:17Z</time>
      </trkpt>
      <trkpt lat="47.66961" lon="6.07946">
        <ele>227.3</ele>
        <time>2021-10-06T14:46:18Z</time>
      </trkpt>
      <trkpt lat="47.66957" lon="6.07953">
        <ele>227.3</ele>
        <time>2021-10-06T14:46:19Z</time>
      </trkpt>
      <trkpt lat="47.66953" lon="6.0796">
        <ele>227.3</ele>
        <time>2021-10-06T14:46:20Z</time>
      </trkpt>
      <trkpt lat="47.66949" lon="6.07966">
        <ele>227.2</ele>
        <time>2021-10-06T14:46:21Z</time>
      </trkpt>
      <trkpt lat="47.66945" lon="6.07973">
        <ele>227.2</ele>
        <time>2021-10-06T14:46:22Z</time>
      </trkpt>
      <trkpt lat="47.66941" lon="6.07979">
        <ele>227.2</ele>
        <time>2021-10-06T14:46:23Z</time>
      </trkpt>
      <trkpt lat="47.66938" lon="6.07984">
        <ele>227.1</ele>
        <time>2021-10-06T14:46:24Z</time>
      </trkpt>
      <trkpt lat="47.66934" lon="6.07989">
        <ele>227.1</ele>
        <time>2021-10-06T14:46:25Z</time>
      </trkpt>
      <trkpt lat="47.66929" lon="6.07996">
        <ele>227</ele>
        <time>2021-10-06T14:46:27Z</time>
      </trkpt>
      <trkpt lat="47.66925" lon="6.08004">
        <ele>227.1</ele>
        <time>2021-10-06T14:46:29Z</time>
      </trkpt>
      <trkpt lat="47.66922" lon="6.08013">
        <ele>227.3</ele>
        <time>2021-10-06T14:46:31Z</time>
      </trkpt>
      <trkpt lat="47.66924" lon="6.0802">
        <ele>227.4</ele>
        <time>2021-10-06T14:46:34Z</time>
      </trkpt>
      <trkpt lat="47.66928" lon="6.08024">
        <ele>227.5</ele>
        <time>2021-10-06T14:46:35Z</time>
      </trkpt>
      <trkpt lat="47.66929" lon="6.08034">
        <ele>227.7</ele>
        <time>2021-10-06T14:46:37Z</time>
      </trkpt>
      <trkpt lat="47.66929" lon="6.08042">
        <ele>227.9</ele>
        <time>2021-10-06T14:46:38Z</time>
      </trkpt>
      <trkpt lat="47.66927" lon="6.08051">
        <ele>228.1</ele>
        <time>2021-10-06T14:46:40Z</time>
      </trkpt>
      <trkpt lat="47.66923" lon="6.08058">
        <ele>228.3</ele>
        <time>2021-10-06T14:46:42Z</time>
      </trkpt>
      <trkpt lat="47.66919" lon="6.08063">
        <ele>228.5</ele>
        <time>2021-10-06T14:46:44Z</time>
      </trkpt>
      <trkpt lat="47.66915" lon="6.08069">
        <ele>228.7</ele>
        <time>2021-10-06T14:46:47Z</time>
      </trkpt>
      <trkpt lat="47.66911" lon="6.08075">
        <ele>229</ele>
        <time>2021-10-06T14:46:50Z</time>
      </trkpt>
      <trkpt lat="47.66908" lon="6.08081">
        <ele>229.2</ele>
        <time>2021-10-06T14:46:56Z</time>
      </trkpt>
      <trkpt lat="47.66904" lon="6.08086">
        <ele>229.6</ele>
        <time>2021-10-06T14:46:59Z</time>
      </trkpt>
      <trkpt lat="47.66901" lon="6.08091">
        <ele>229.9</ele>
        <time>2021-10-06T14:47:04Z</time>
      </trkpt>
      <trkpt lat="47.66898" lon="6.08097">
        <ele>230.2</ele>
        <time>2021-10-06T14:47:07Z</time>
      </trkpt>
      <trkpt lat="47.66895" lon="6.08103">
        <ele>230.6</ele>
        <time>2021-10-06T14:47:10Z</time>
      </trkpt>
      <trkpt lat="47.66892" lon="6.08109">
        <ele>231</ele>
        <time>2021-10-06T14:47:12Z</time>
      </trkpt>
      <trkpt lat="47.6689" lon="6.08116">
        <ele>231.4</ele>
        <time>2021-10-06T14:47:17Z</time>
      </trkpt>
      <trkpt lat="47.66888" lon="6.08123">
        <ele>231.8</ele>
        <time>2021-10-06T14:47:19Z</time>
      </trkpt>
      <trkpt lat="47.66887" lon="6.08131">
        <ele>232.2</ele>
        <time>2021-10-06T14:47:23Z</time>
      </trkpt>
      <trkpt lat="47.66887" lon="6.08138">
        <ele>232.5</ele>
        <time>2021-10-06T14:47:26Z</time>
      </trkpt>
      <trkpt lat="47.66886" lon="6.08146">
        <ele>232.9</ele>
        <time>2021-10-06T14:47:30Z</time>
      </trkpt>
      <trkpt lat="47.66889" lon="6.08153">
        <ele>233.1</ele>
        <time>2021-10-06T14:47:34Z</time>
      </trkpt>
      <trkpt lat="47.66892" lon="6.08161">
        <ele>233.3</ele>
        <time>2021-10-06T14:47:38Z</time>
      </trkpt>
      <trkpt lat="47.66895" lon="6.08168">
        <ele>233.3</ele>
        <time>2021-10-06T14:47:42Z</time>
      </trkpt>
      <trkpt lat="47.66897" lon="6.08174">
        <ele>233.5</ele>
        <time>2021-10-06T14:47:45Z</time>
      </trkpt>
      <trkpt lat="47.66899" lon="6.08183">
        <ele>233.7</ele>
        <time>2021-10-06T14:47:51Z</time>
      </trkpt>
      <trkpt lat="47.66901" lon="6.08189">
        <ele>233.8</ele>
        <time>2021-10-06T14:47:53Z</time>
      </trkpt>
      <trkpt lat="47.66904" lon="6.08195">
        <ele>233.7</ele>
        <time>2021-10-06T14:47:56Z</time>
      </trkpt>
      <trkpt lat="47.66907" lon="6.082">
        <ele>233.6</ele>
        <time>2021-10-06T14:47:59Z</time>
      </trkpt>
      <trkpt lat="47.6691" lon="6.08207">
        <ele>233.6</ele>
        <time>2021-10-06T14:48:03Z</time>
      </trkpt>
      <trkpt lat="47.66913" lon="6.08214">
        <ele>233.5</ele>
        <time>2021-10-06T14:48:06Z</time>
      </trkpt>
      <trkpt lat="47.66916" lon="6.0822">
        <ele>233.3</ele>
        <time>2021-10-06T14:48:09Z</time>
      </trkpt>
      <trkpt lat="47.66919" lon="6.08227">
        <ele>233.3</ele>
        <time>2021-10-06T14:48:11Z</time>
      </trkpt>
      <trkpt lat="47.66921" lon="6.08234">
        <ele>233.3</ele>
        <time>2021-10-06T14:48:12Z</time>
      </trkpt>
      <trkpt lat="47.66922" lon="6.08252">
        <ele>233.6</ele>
        <time>2021-10-06T14:48:15Z</time>
      </trkpt>
      <trkpt lat="47.6692" lon="6.08272">
        <ele>234.1</ele>
        <time>2021-10-06T14:48:15Z</time>
      </trkpt>
      <trkpt lat="47.66917" lon="6.0828">
        <ele>234.4</ele>
        <time>2021-10-06T14:48:16Z</time>
      </trkpt>
      <trkpt lat="47.66913" lon="6.08288">
        <ele>234.9</ele>
        <time>2021-10-06T14:48:17Z</time>
      </trkpt>
      <trkpt lat="47.66909" lon="6.08296">
        <ele>235.4</ele>
        <time>2021-10-06T14:48:18Z</time>
      </trkpt>
      <trkpt lat="47.66906" lon="6.08304">
        <ele>235.9</ele>
        <time>2021-10-06T14:48:19Z</time>
      </trkpt>
      <trkpt lat="47.66902" lon="6.08313">
        <ele>236.4</ele>
        <time>2021-10-06T14:48:20Z</time>
      </trkpt>
      <trkpt lat="47.66899" lon="6.08321">
        <ele>236.8</ele>
        <time>2021-10-06T14:48:21Z</time>
      </trkpt>
      <trkpt lat="47.66895" lon="6.08329">
        <ele>237.3</ele>
        <time>2021-10-06T14:48:22Z</time>
      </trkpt>
      <trkpt lat="47.66892" lon="6.08335">
        <ele>237.7</ele>
        <time>2021-10-06T14:48:23Z</time>
      </trkpt>
      <trkpt lat="47.66889" lon="6.08342">
        <ele>238.2</ele>
        <time>2021-10-06T14:48:24Z</time>
      </trkpt>
      <trkpt lat="47.66885" lon="6.0835">
        <ele>238.6</ele>
        <time>2021-10-06T14:48:25Z</time>
      </trkpt>
      <trkpt lat="47.66881" lon="6.08357">
        <ele>239</ele>
        <time>2021-10-06T14:48:26Z</time>
      </trkpt>
      <trkpt lat="47.66877" lon="6.08363">
        <ele>239.2</ele>
        <time>2021-10-06T14:48:27Z</time>
      </trkpt>
      <trkpt lat="47.66874" lon="6.08368">
        <ele>239.3</ele>
        <time>2021-10-06T14:48:28Z</time>
      </trkpt>
      <trkpt lat="47.6687" lon="6.08373">
        <ele>239.4</ele>
        <time>2021-10-06T14:48:29Z</time>
      </trkpt>
      <trkpt lat="47.66865" lon="6.08377">
        <ele>239.5</ele>
        <time>2021-10-06T14:48:30Z</time>
      </trkpt>
      <trkpt lat="47.6686" lon="6.08381">
        <ele>239.5</ele>
        <time>2021-10-06T14:48:31Z</time>
      </trkpt>
      <trkpt lat="47.66855" lon="6.08383">
        <ele>239.5</ele>
        <time>2021-10-06T14:48:32Z</time>
      </trkpt>
      <trkpt lat="47.66849" lon="6.08385">
        <ele>239.5</ele>
        <time>2021-10-06T14:48:33Z</time>
      </trkpt>
      <trkpt lat="47.66843" lon="6.08387">
        <ele>239.4</ele>
        <time>2021-10-06T14:48:34Z</time>
      </trkpt>
      <trkpt lat="47.66836" lon="6.08388">
        <ele>239.4</ele>
        <time>2021-10-06T14:48:35Z</time>
      </trkpt>
      <trkpt lat="47.66828" lon="6.08388">
        <ele>239.9</ele>
        <time>2021-10-06T14:48:36Z</time>
      </trkpt>
      <trkpt lat="47.66821" lon="6.08388">
        <ele>240.6</ele>
        <time>2021-10-06T14:48:37Z</time>
      </trkpt>
      <trkpt lat="47.66813" lon="6.08388">
        <ele>241.3</ele>
        <time>2021-10-06T14:48:38Z</time>
      </trkpt>
      <trkpt lat="47.66806" lon="6.08387">
        <ele>242</ele>
        <time>2021-10-06T14:48:39Z</time>
      </trkpt>
      <trkpt lat="47.66799" lon="6.08386">
        <ele>242.8</ele>
        <time>2021-10-06T14:48:40Z</time>
      </trkpt>
      <trkpt lat="47.66792" lon="6.08385">
        <ele>243.5</ele>
        <time>2021-10-06T14:48:41Z</time>
      </trkpt>
      <trkpt lat="47.66786" lon="6.08385">
        <ele>244.1</ele>
        <time>2021-10-06T14:48:42Z</time>
      </trkpt>
      <trkpt lat="47.6678" lon="6.08385">
        <ele>244.6</ele>
        <time>2021-10-06T14:48:43Z</time>
      </trkpt>
      <trkpt lat="47.66775" lon="6.08386">
        <ele>245</ele>
        <time>2021-10-06T14:48:44Z</time>
      </trkpt>
      <trkpt lat="47.6677" lon="6.08388">
        <ele>245.3</ele>
        <time>2021-10-06T14:48:45Z</time>
      </trkpt>
      <trkpt lat="47.66765" lon="6.0839">
        <ele>245.5</ele>
        <time>2021-10-06T14:48:46Z</time>
      </trkpt>
      <trkpt lat="47.66759" lon="6.08396">
        <ele>245.4</ele>
        <time>2021-10-06T14:48:48Z</time>
      </trkpt>
      <trkpt lat="47.66753" lon="6.08404">
        <ele>245.1</ele>
        <time>2021-10-06T14:48:50Z</time>
      </trkpt>
      <trkpt lat="47.66748" lon="6.0841">
        <ele>245</ele>
        <time>2021-10-06T14:48:52Z</time>
      </trkpt>
      <trkpt lat="47.66744" lon="6.08416">
        <ele>245</ele>
        <time>2021-10-06T14:48:54Z</time>
      </trkpt>
      <trkpt lat="47.66738" lon="6.08423">
        <ele>245.3</ele>
        <time>2021-10-06T14:48:58Z</time>
      </trkpt>
      <trkpt lat="47.66735" lon="6.08429">
        <ele>245.2</ele>
        <time>2021-10-06T14:49:02Z</time>
      </trkpt>
      <trkpt lat="47.66732" lon="6.08434">
        <ele>245.2</ele>
        <time>2021-10-06T14:49:03Z</time>
      </trkpt>
      <trkpt lat="47.66728" lon="6.08442">
        <ele>245</ele>
        <time>2021-10-06T14:49:05Z</time>
      </trkpt>
      <trkpt lat="47.6672" lon="6.08459">
        <ele>244.5</ele>
        <time>2021-10-06T14:49:08Z</time>
      </trkpt>
      <trkpt lat="47.66718" lon="6.08465">
        <ele>244.3</ele>
        <time>2021-10-06T14:49:09Z</time>
      </trkpt>
      <trkpt lat="47.66713" lon="6.08474">
        <ele>244</ele>
        <time>2021-10-06T14:49:11Z</time>
      </trkpt>
      <trkpt lat="47.6671" lon="6.08481">
        <ele>243.8</ele>
        <time>2021-10-06T14:49:13Z</time>
      </trkpt>
      <trkpt lat="47.66706" lon="6.08487">
        <ele>243.6</ele>
        <time>2021-10-06T14:49:13Z</time>
      </trkpt>
      <trkpt lat="47.66701" lon="6.08496">
        <ele>243.2</ele>
        <time>2021-10-06T14:49:18Z</time>
      </trkpt>
      <trkpt lat="47.66698" lon="6.08502">
        <ele>243.1</ele>
        <time>2021-10-06T14:49:20Z</time>
      </trkpt>
      <trkpt lat="47.66695" lon="6.08511">
        <ele>242.6</ele>
        <time>2021-10-06T14:49:22Z</time>
      </trkpt>
      <trkpt lat="47.66691" lon="6.08521">
        <ele>242.1</ele>
        <time>2021-10-06T14:49:24Z</time>
      </trkpt>
      <trkpt lat="47.66688" lon="6.0853">
        <ele>241.3</ele>
        <time>2021-10-06T14:49:26Z</time>
      </trkpt>
      <trkpt lat="47.66686" lon="6.08541">
        <ele>240.4</ele>
        <time>2021-10-06T14:49:28Z</time>
      </trkpt>
      <trkpt lat="47.66684" lon="6.08553">
        <ele>239.3</ele>
        <time>2021-10-06T14:49:30Z</time>
      </trkpt>
      <trkpt lat="47.66683" lon="6.08565">
        <ele>238</ele>
        <time>2021-10-06T14:49:32Z</time>
      </trkpt>
      <trkpt lat="47.66682" lon="6.08583">
        <ele>236</ele>
        <time>2021-10-06T14:49:35Z</time>
      </trkpt>
      <trkpt lat="47.66682" lon="6.0859">
        <ele>235.5</ele>
        <time>2021-10-06T14:49:36Z</time>
      </trkpt>
      <trkpt lat="47.66681" lon="6.08597">
        <ele>235</ele>
        <time>2021-10-06T14:49:37Z</time>
      </trkpt>
      <trkpt lat="47.66681" lon="6.08607">
        <ele>234.2</ele>
        <time>2021-10-06T14:49:39Z</time>
      </trkpt>
      <trkpt lat="47.66683" lon="6.08619">
        <ele>233.4</ele>
        <time>2021-10-06T14:49:41Z</time>
      </trkpt>
      <trkpt lat="47.66685" lon="6.08629">
        <ele>232.7</ele>
        <time>2021-10-06T14:49:43Z</time>
      </trkpt>
      <trkpt lat="47.66687" lon="6.08638">
        <ele>232.2</ele>
        <time>2021-10-06T14:49:44Z</time>
      </trkpt>
      <trkpt lat="47.66691" lon="6.08656">
        <ele>231.2</ele>
        <time>2021-10-06T14:49:47Z</time>
      </trkpt>
      <trkpt lat="47.66693" lon="6.08664">
        <ele>230.8</ele>
        <time>2021-10-06T14:49:48Z</time>
      </trkpt>
      <trkpt lat="47.66695" lon="6.08675">
        <ele>230.4</ele>
        <time>2021-10-06T14:49:50Z</time>
      </trkpt>
      <trkpt lat="47.66697" lon="6.08683">
        <ele>230.2</ele>
        <time>2021-10-06T14:49:51Z</time>
      </trkpt>
      <trkpt lat="47.66698" lon="6.08691">
        <ele>230</ele>
        <time>2021-10-06T14:49:52Z</time>
      </trkpt>
      <trkpt lat="47.66701" lon="6.08703">
        <ele>229.6</ele>
        <time>2021-10-06T14:49:54Z</time>
      </trkpt>
      <trkpt lat="47.66703" lon="6.08716">
        <ele>229.2</ele>
        <time>2021-10-06T14:49:56Z</time>
      </trkpt>
      <trkpt lat="47.66705" lon="6.08728">
        <ele>228.8</ele>
        <time>2021-10-06T14:49:58Z</time>
      </trkpt>
      <trkpt lat="47.66707" lon="6.08735">
        <ele>228.6</ele>
        <time>2021-10-06T14:49:59Z</time>
      </trkpt>
      <trkpt lat="47.66709" lon="6.08745">
        <ele>228.2</ele>
        <time>2021-10-06T14:50:01Z</time>
      </trkpt>
      <trkpt lat="47.66711" lon="6.08756">
        <ele>228.1</ele>
        <time>2021-10-06T14:50:03Z</time>
      </trkpt>
      <trkpt lat="47.66714" lon="6.08768">
        <ele>228.1</ele>
        <time>2021-10-06T14:50:05Z</time>
      </trkpt>
      <trkpt lat="47.66716" lon="6.08776">
        <ele>228.1</ele>
        <time>2021-10-06T14:50:07Z</time>
      </trkpt>
      <trkpt lat="47.66719" lon="6.08793">
        <ele>228.1</ele>
        <time>2021-10-06T14:50:10Z</time>
      </trkpt>
      <trkpt lat="47.66722" lon="6.08801">
        <ele>228.1</ele>
        <time>2021-10-06T14:50:12Z</time>
      </trkpt>
      <trkpt lat="47.66724" lon="6.08807">
        <ele>228.1</ele>
        <time>2021-10-06T14:50:13Z</time>
      </trkpt>
      <trkpt lat="47.66728" lon="6.08816">
        <ele>228.1</ele>
        <time>2021-10-06T14:50:15Z</time>
      </trkpt>
      <trkpt lat="47.66732" lon="6.08822">
        <ele>228.1</ele>
        <time>2021-10-06T14:50:16Z</time>
      </trkpt>
      <trkpt lat="47.66735" lon="6.0883">
        <ele>228</ele>
        <time>2021-10-06T14:50:18Z</time>
      </trkpt>
      <trkpt lat="47.66738" lon="6.08836">
        <ele>228</ele>
        <time>2021-10-06T14:50:19Z</time>
      </trkpt>
      <trkpt lat="47.66742" lon="6.08844">
        <ele>227.9</ele>
        <time>2021-10-06T14:50:21Z</time>
      </trkpt>
      <trkpt lat="47.66744" lon="6.08849">
        <ele>227.8</ele>
        <time>2021-10-06T14:50:22Z</time>
      </trkpt>
      <trkpt lat="47.66748" lon="6.08858">
        <ele>227.7</ele>
        <time>2021-10-06T14:50:24Z</time>
      </trkpt>
      <trkpt lat="47.66752" lon="6.08865">
        <ele>227.7</ele>
        <time>2021-10-06T14:50:26Z</time>
      </trkpt>
      <trkpt lat="47.66755" lon="6.08871">
        <ele>227.8</ele>
        <time>2021-10-06T14:50:27Z</time>
      </trkpt>
      <trkpt lat="47.66757" lon="6.08878">
        <ele>227.7</ele>
        <time>2021-10-06T14:50:29Z</time>
      </trkpt>
      <trkpt lat="47.66754" lon="6.08889">
        <ele>227.4</ele>
        <time>2021-10-06T14:50:29Z</time>
      </trkpt>
      <trkpt lat="47.66751" lon="6.08897">
        <ele>227.3</ele>
        <time>2021-10-06T14:50:33Z</time>
      </trkpt>
      <trkpt lat="47.66748" lon="6.08906">
        <ele>227.2</ele>
        <time>2021-10-06T14:50:35Z</time>
      </trkpt>
      <trkpt lat="47.66743" lon="6.08919">
        <ele>227.2</ele>
        <time>2021-10-06T14:50:38Z</time>
      </trkpt>
      <trkpt lat="47.66737" lon="6.08933">
        <ele>227.3</ele>
        <time>2021-10-06T14:50:41Z</time>
      </trkpt>
      <trkpt lat="47.66733" lon="6.08947">
        <ele>227.3</ele>
        <time>2021-10-06T14:50:44Z</time>
      </trkpt>
      <trkpt lat="47.6673" lon="6.08954">
        <ele>227.4</ele>
        <time>2021-10-06T14:50:45Z</time>
      </trkpt>
      <trkpt lat="47.66727" lon="6.08961">
        <ele>227.4</ele>
        <time>2021-10-06T14:50:47Z</time>
      </trkpt>
      <trkpt lat="47.66725" lon="6.08968">
        <ele>227.4</ele>
        <time>2021-10-06T14:50:48Z</time>
      </trkpt>
      <trkpt lat="47.66723" lon="6.08976">
        <ele>227.4</ele>
        <time>2021-10-06T14:50:49Z</time>
      </trkpt>
      <trkpt lat="47.6672" lon="6.08984">
        <ele>227.4</ele>
        <time>2021-10-06T14:50:51Z</time>
      </trkpt>
      <trkpt lat="47.66718" lon="6.08993">
        <ele>227.4</ele>
        <time>2021-10-06T14:50:53Z</time>
      </trkpt>
      <trkpt lat="47.66714" lon="6.09002">
        <ele>227.5</ele>
        <time>2021-10-06T14:50:55Z</time>
      </trkpt>
      <trkpt lat="47.6671" lon="6.09008">
        <ele>227.8</ele>
        <time>2021-10-06T14:50:57Z</time>
      </trkpt>
      <trkpt lat="47.66703" lon="6.09015">
        <ele>228.1</ele>
        <time>2021-10-06T14:50:59Z</time>
      </trkpt>
      <trkpt lat="47.66698" lon="6.09021">
        <ele>228.4</ele>
        <time>2021-10-06T14:51:01Z</time>
      </trkpt>
      <trkpt lat="47.66692" lon="6.09027">
        <ele>228.7</ele>
        <time>2021-10-06T14:51:03Z</time>
      </trkpt>
      <trkpt lat="47.66687" lon="6.09032">
        <ele>228.9</ele>
        <time>2021-10-06T14:51:05Z</time>
      </trkpt>
      <trkpt lat="47.66683" lon="6.09036">
        <ele>229.1</ele>
        <time>2021-10-06T14:51:06Z</time>
      </trkpt>
      <trkpt lat="47.66677" lon="6.09041">
        <ele>229.4</ele>
        <time>2021-10-06T14:51:08Z</time>
      </trkpt>
      <trkpt lat="47.66671" lon="6.09047">
        <ele>229.6</ele>
        <time>2021-10-06T14:51:10Z</time>
      </trkpt>
      <trkpt lat="47.66665" lon="6.09054">
        <ele>229.9</ele>
        <time>2021-10-06T14:51:12Z</time>
      </trkpt>
      <trkpt lat="47.6666" lon="6.09057">
        <ele>230</ele>
        <time>2021-10-06T14:51:14Z</time>
      </trkpt>
      <trkpt lat="47.66654" lon="6.0906">
        <ele>230</ele>
        <time>2021-10-06T14:51:15Z</time>
      </trkpt>
      <trkpt lat="47.66649" lon="6.09059">
        <ele>229.9</ele>
        <time>2021-10-06T14:51:17Z</time>
      </trkpt>
      <trkpt lat="47.66642" lon="6.09057">
        <ele>229.8</ele>
        <time>2021-10-06T14:51:19Z</time>
      </trkpt>
      <trkpt lat="47.66634" lon="6.09055">
        <ele>229.7</ele>
        <time>2021-10-06T14:51:21Z</time>
      </trkpt>
      <trkpt lat="47.66628" lon="6.09054">
        <ele>229.7</ele>
        <time>2021-10-06T14:51:23Z</time>
      </trkpt>
      <trkpt lat="47.66624" lon="6.09052">
        <ele>229.6</ele>
        <time>2021-10-06T14:51:24Z</time>
      </trkpt>
      <trkpt lat="47.66617" lon="6.0905">
        <ele>229.6</ele>
        <time>2021-10-06T14:51:26Z</time>
      </trkpt>
      <trkpt lat="47.66606" lon="6.09047">
        <ele>229.5</ele>
        <time>2021-10-06T14:51:29Z</time>
      </trkpt>
      <trkpt lat="47.66601" lon="6.09046">
        <ele>229.5</ele>
        <time>2021-10-06T14:51:30Z</time>
      </trkpt>
      <trkpt lat="47.66595" lon="6.09045">
        <ele>229.5</ele>
        <time>2021-10-06T14:51:32Z</time>
      </trkpt>
      <trkpt lat="47.66589" lon="6.09043">
        <ele>229.5</ele>
        <time>2021-10-06T14:51:34Z</time>
      </trkpt>
      <trkpt lat="47.66583" lon="6.09043">
        <ele>229.5</ele>
        <time>2021-10-06T14:51:35Z</time>
      </trkpt>
      <trkpt lat="47.66577" lon="6.09041">
        <ele>229.6</ele>
        <time>2021-10-06T14:51:37Z</time>
      </trkpt>
      <trkpt lat="47.66571" lon="6.0904">
        <ele>229.7</ele>
        <time>2021-10-06T14:51:39Z</time>
      </trkpt>
      <trkpt lat="47.66566" lon="6.09039">
        <ele>229.8</ele>
        <time>2021-10-06T14:51:40Z</time>
      </trkpt>
      <trkpt lat="47.66561" lon="6.09037">
        <ele>229.9</ele>
        <time>2021-10-06T14:51:40Z</time>
      </trkpt>
      <trkpt lat="47.66556" lon="6.09036">
        <ele>230</ele>
        <time>2021-10-06T14:51:44Z</time>
      </trkpt>
      <trkpt lat="47.66547" lon="6.09034">
        <ele>230.1</ele>
        <time>2021-10-06T14:51:44Z</time>
      </trkpt>
      <trkpt lat="47.66542" lon="6.09034">
        <ele>230.2</ele>
        <time>2021-10-06T14:51:48Z</time>
      </trkpt>
      <trkpt lat="47.66537" lon="6.09033">
        <ele>230.3</ele>
        <time>2021-10-06T14:51:49Z</time>
      </trkpt>
      <trkpt lat="47.6653" lon="6.09032">
        <ele>230.4</ele>
        <time>2021-10-06T14:51:51Z</time>
      </trkpt>
      <trkpt lat="47.66524" lon="6.09033">
        <ele>230.5</ele>
        <time>2021-10-06T14:51:53Z</time>
      </trkpt>
      <trkpt lat="47.66517" lon="6.09033">
        <ele>230.5</ele>
        <time>2021-10-06T14:51:55Z</time>
      </trkpt>
      <trkpt lat="47.66512" lon="6.09033">
        <ele>230.6</ele>
        <time>2021-10-06T14:51:57Z</time>
      </trkpt>
      <trkpt lat="47.66503" lon="6.09033">
        <ele>230.8</ele>
        <time>2021-10-06T14:51:57Z</time>
      </trkpt>
      <trkpt lat="47.66497" lon="6.09034">
        <ele>230.8</ele>
        <time>2021-10-06T14:52:01Z</time>
      </trkpt>
      <trkpt lat="47.66491" lon="6.09034">
        <ele>230.8</ele>
        <time>2021-10-06T14:52:03Z</time>
      </trkpt>
      <trkpt lat="47.6648" lon="6.09035">
        <ele>230.7</ele>
        <time>2021-10-06T14:52:06Z</time>
      </trkpt>
      <trkpt lat="47.66474" lon="6.09036">
        <ele>230.7</ele>
        <time>2021-10-06T14:52:08Z</time>
      </trkpt>
      <trkpt lat="47.66469" lon="6.09037">
        <ele>230.7</ele>
        <time>2021-10-06T14:52:09Z</time>
      </trkpt>
      <trkpt lat="47.66462" lon="6.09037">
        <ele>230.7</ele>
        <time>2021-10-06T14:52:09Z</time>
      </trkpt>
      <trkpt lat="47.66457" lon="6.09037">
        <ele>230.7</ele>
        <time>2021-10-06T14:52:13Z</time>
      </trkpt>
      <trkpt lat="47.66449" lon="6.09037">
        <ele>230.6</ele>
        <time>2021-10-06T14:52:13Z</time>
      </trkpt>
      <trkpt lat="47.66443" lon="6.09038">
        <ele>230.6</ele>
        <time>2021-10-06T14:52:17Z</time>
      </trkpt>
      <trkpt lat="47.66436" lon="6.09038">
        <ele>230.6</ele>
        <time>2021-10-06T14:52:19Z</time>
      </trkpt>
      <trkpt lat="47.6643" lon="6.09038">
        <ele>230.5</ele>
        <time>2021-10-06T14:52:21Z</time>
      </trkpt>
      <trkpt lat="47.66426" lon="6.09039">
        <ele>230.5</ele>
        <time>2021-10-06T14:52:22Z</time>
      </trkpt>
      <trkpt lat="47.66419" lon="6.0904">
        <ele>230.5</ele>
        <time>2021-10-06T14:52:22Z</time>
      </trkpt>
      <trkpt lat="47.66413" lon="6.09044">
        <ele>230.5</ele>
        <time>2021-10-06T14:52:26Z</time>
      </trkpt>
      <trkpt lat="47.66408" lon="6.09049">
        <ele>230.6</ele>
        <time>2021-10-06T14:52:28Z</time>
      </trkpt>
      <trkpt lat="47.66403" lon="6.09055">
        <ele>230.7</ele>
        <time>2021-10-06T14:52:30Z</time>
      </trkpt>
      <trkpt lat="47.66401" lon="6.09063">
        <ele>230.8</ele>
        <time>2021-10-06T14:52:32Z</time>
      </trkpt>
      <trkpt lat="47.664" lon="6.09071">
        <ele>230.9</ele>
        <time>2021-10-06T14:52:34Z</time>
      </trkpt>
      <trkpt lat="47.66399" lon="6.09082">
        <ele>231</ele>
        <time>2021-10-06T14:52:36Z</time>
      </trkpt>
      <trkpt lat="47.66398" lon="6.09092">
        <ele>231.1</ele>
        <time>2021-10-06T14:52:38Z</time>
      </trkpt>
      <trkpt lat="47.66398" lon="6.091">
        <ele>231.2</ele>
        <time>2021-10-06T14:52:40Z</time>
      </trkpt>
      <trkpt lat="47.66398" lon="6.0911">
        <ele>231.3</ele>
        <time>2021-10-06T14:52:40Z</time>
      </trkpt>
      <trkpt lat="47.66399" lon="6.09118">
        <ele>231.4</ele>
        <time>2021-10-06T14:52:42Z</time>
      </trkpt>
      <trkpt lat="47.664" lon="6.09124">
        <ele>231.5</ele>
        <time>2021-10-06T14:52:46Z</time>
      </trkpt>
      <trkpt lat="47.66401" lon="6.09134">
        <ele>231.6</ele>
        <time>2021-10-06T14:52:49Z</time>
      </trkpt>
      <trkpt lat="47.66402" lon="6.09141">
        <ele>231.7</ele>
        <time>2021-10-06T14:52:51Z</time>
      </trkpt>
      <trkpt lat="47.66402" lon="6.09149">
        <ele>231.8</ele>
        <time>2021-10-06T14:52:53Z</time>
      </trkpt>
      <trkpt lat="47.66402" lon="6.09158">
        <ele>231.9</ele>
        <time>2021-10-06T14:52:56Z</time>
      </trkpt>
      <trkpt lat="47.66402" lon="6.09165">
        <ele>232</ele>
        <time>2021-10-06T14:52:56Z</time>
      </trkpt>
      <trkpt lat="47.66403" lon="6.09171">
        <ele>232.2</ele>
        <time>2021-10-06T14:53:00Z</time>
      </trkpt>
      <trkpt lat="47.66404" lon="6.0918">
        <ele>232.6</ele>
        <time>2021-10-06T14:53:01Z</time>
      </trkpt>
      <trkpt lat="47.66405" lon="6.09187">
        <ele>232.9</ele>
        <time>2021-10-06T14:53:06Z</time>
      </trkpt>
      <trkpt lat="47.66405" lon="6.09194">
        <ele>233.2</ele>
        <time>2021-10-06T14:53:08Z</time>
      </trkpt>
      <trkpt lat="47.66405" lon="6.09202">
        <ele>233.5</ele>
        <time>2021-10-06T14:53:11Z</time>
      </trkpt>
      <trkpt lat="47.66406" lon="6.09209">
        <ele>233.8</ele>
        <time>2021-10-06T14:53:14Z</time>
      </trkpt>
      <trkpt lat="47.66406" lon="6.09218">
        <ele>234.2</ele>
        <time>2021-10-06T14:53:17Z</time>
      </trkpt>
      <trkpt lat="47.66406" lon="6.09225">
        <ele>234.5</ele>
        <time>2021-10-06T14:53:19Z</time>
      </trkpt>
      <trkpt lat="47.66406" lon="6.09233">
        <ele>234.9</ele>
        <time>2021-10-06T14:53:22Z</time>
      </trkpt>
      <trkpt lat="47.66407" lon="6.0924">
        <ele>235.2</ele>
        <time>2021-10-06T14:53:24Z</time>
      </trkpt>
      <trkpt lat="47.66408" lon="6.09249">
        <ele>235.6</ele>
        <time>2021-10-06T14:53:27Z</time>
      </trkpt>
      <trkpt lat="47.66409" lon="6.09257">
        <ele>235.9</ele>
        <time>2021-10-06T14:53:30Z</time>
      </trkpt>
      <trkpt lat="47.6641" lon="6.09264">
        <ele>236.1</ele>
        <time>2021-10-06T14:53:32Z</time>
      </trkpt>
      <trkpt lat="47.6641" lon="6.0927">
        <ele>236.3</ele>
        <time>2021-10-06T14:53:34Z</time>
      </trkpt>
      <trkpt lat="47.66411" lon="6.09278">
        <ele>236.5</ele>
        <time>2021-10-06T14:53:34Z</time>
      </trkpt>
      <trkpt lat="47.66413" lon="6.09286">
        <ele>236.7</ele>
        <time>2021-10-06T14:53:36Z</time>
      </trkpt>
      <trkpt lat="47.66414" lon="6.09293">
        <ele>237</ele>
        <time>2021-10-06T14:53:41Z</time>
      </trkpt>
      <trkpt lat="47.66416" lon="6.09301">
        <ele>237.2</ele>
        <time>2021-10-06T14:53:43Z</time>
      </trkpt>
      <trkpt lat="47.66418" lon="6.09309">
        <ele>237.4</ele>
        <time>2021-10-06T14:53:45Z</time>
      </trkpt>
      <trkpt lat="47.66419" lon="6.09316">
        <ele>237.7</ele>
        <time>2021-10-06T14:53:48Z</time>
      </trkpt>
      <trkpt lat="47.66421" lon="6.09323">
        <ele>237.9</ele>
        <time>2021-10-06T14:53:48Z</time>
      </trkpt>
      <trkpt lat="47.66422" lon="6.09331">
        <ele>238.1</ele>
        <time>2021-10-06T14:53:53Z</time>
      </trkpt>
      <trkpt lat="47.66424" lon="6.09337">
        <ele>238.4</ele>
        <time>2021-10-06T14:53:55Z</time>
      </trkpt>
      <trkpt lat="47.66426" lon="6.09345">
        <ele>238.7</ele>
        <time>2021-10-06T14:53:58Z</time>
      </trkpt>
      <trkpt lat="47.66428" lon="6.09351">
        <ele>239.1</ele>
        <time>2021-10-06T14:54:01Z</time>
      </trkpt>
      <trkpt lat="47.6643" lon="6.0936">
        <ele>239.5</ele>
        <time>2021-10-06T14:54:05Z</time>
      </trkpt>
      <trkpt lat="47.66432" lon="6.09368">
        <ele>239.9</ele>
        <time>2021-10-06T14:54:07Z</time>
      </trkpt>
      <trkpt lat="47.66433" lon="6.09375">
        <ele>240.2</ele>
        <time>2021-10-06T14:54:13Z</time>
      </trkpt>
      <trkpt lat="47.66436" lon="6.09383">
        <ele>240.6</ele>
        <time>2021-10-06T14:54:17Z</time>
      </trkpt>
      <trkpt lat="47.66439" lon="6.09391">
        <ele>240.9</ele>
        <time>2021-10-06T14:54:19Z</time>
      </trkpt>
      <trkpt lat="47.66442" lon="6.09398">
        <ele>241.2</ele>
        <time>2021-10-06T14:54:25Z</time>
      </trkpt>
      <trkpt lat="47.66444" lon="6.09405">
        <ele>241.5</ele>
        <time>2021-10-06T14:54:26Z</time>
      </trkpt>
      <trkpt lat="47.66446" lon="6.09411">
        <ele>241.8</ele>
        <time>2021-10-06T14:54:32Z</time>
      </trkpt>
      <trkpt lat="47.66447" lon="6.09419">
        <ele>242</ele>
        <time>2021-10-06T14:54:35Z</time>
      </trkpt>
      <trkpt lat="47.66448" lon="6.09425">
        <ele>242.1</ele>
        <time>2021-10-06T14:54:38Z</time>
      </trkpt>
      <trkpt lat="47.66448" lon="6.09433">
        <ele>242.2</ele>
        <time>2021-10-06T14:54:41Z</time>
      </trkpt>
      <trkpt lat="47.66449" lon="6.09442">
        <ele>242.3</ele>
        <time>2021-10-06T14:54:44Z</time>
      </trkpt>
      <trkpt lat="47.66449" lon="6.09449">
        <ele>242.3</ele>
        <time>2021-10-06T14:54:47Z</time>
      </trkpt>
      <trkpt lat="47.66449" lon="6.09457">
        <ele>242.4</ele>
        <time>2021-10-06T14:54:49Z</time>
      </trkpt>
      <trkpt lat="47.66448" lon="6.09465">
        <ele>242.5</ele>
        <time>2021-10-06T14:54:55Z</time>
      </trkpt>
      <trkpt lat="47.66448" lon="6.09472">
        <ele>242.6</ele>
        <time>2021-10-06T14:54:56Z</time>
      </trkpt>
      <trkpt lat="47.66447" lon="6.0948">
        <ele>242.7</ele>
        <time>2021-10-06T14:55:02Z</time>
      </trkpt>
      <trkpt lat="47.66447" lon="6.09487">
        <ele>242.8</ele>
        <time>2021-10-06T14:55:05Z</time>
      </trkpt>
      <trkpt lat="47.66446" lon="6.09495">
        <ele>242.9</ele>
        <time>2021-10-06T14:55:09Z</time>
      </trkpt>
      <trkpt lat="47.66446" lon="6.09503">
        <ele>242.9</ele>
        <time>2021-10-06T14:56:51Z</time>
      </trkpt>
      <trkpt lat="47.66446" lon="6.0951">
        <ele>242.8</ele>
        <time>2021-10-06T14:56:56Z</time>
      </trkpt>
      <trkpt lat="47.66445" lon="6.0952">
        <ele>242.7</ele>
        <time>2021-10-06T14:56:58Z</time>
      </trkpt>
      <trkpt lat="47.66444" lon="6.09527">
        <ele>242.7</ele>
        <time>2021-10-06T14:56:59Z</time>
      </trkpt>
      <trkpt lat="47.66444" lon="6.09537">
        <ele>242.6</ele>
        <time>2021-10-06T14:57:01Z</time>
      </trkpt>
      <trkpt lat="47.66443" lon="6.09547">
        <ele>242.5</ele>
        <time>2021-10-06T14:57:03Z</time>
      </trkpt>
      <trkpt lat="47.66443" lon="6.0956">
        <ele>242.3</ele>
        <time>2021-10-06T14:57:05Z</time>
      </trkpt>
      <trkpt lat="47.66441" lon="6.09582">
        <ele>242</ele>
        <time>2021-10-06T14:57:06Z</time>
      </trkpt>
      <trkpt lat="47.6644" lon="6.09591">
        <ele>241.7</ele>
        <time>2021-10-06T14:57:07Z</time>
      </trkpt>
      <trkpt lat="47.66438" lon="6.09599">
        <ele>241.4</ele>
        <time>2021-10-06T14:57:08Z</time>
      </trkpt>
      <trkpt lat="47.66436" lon="6.09608">
        <ele>241</ele>
        <time>2021-10-06T14:57:09Z</time>
      </trkpt>
      <trkpt lat="47.66435" lon="6.09616">
        <ele>240.7</ele>
        <time>2021-10-06T14:57:10Z</time>
      </trkpt>
      <trkpt lat="47.66433" lon="6.09624">
        <ele>240.3</ele>
        <time>2021-10-06T14:57:11Z</time>
      </trkpt>
      <trkpt lat="47.66431" lon="6.09632">
        <ele>240</ele>
        <time>2021-10-06T14:57:12Z</time>
      </trkpt>
      <trkpt lat="47.6643" lon="6.09641">
        <ele>239.6</ele>
        <time>2021-10-06T14:57:13Z</time>
      </trkpt>
      <trkpt lat="47.66428" lon="6.0965">
        <ele>239.2</ele>
        <time>2021-10-06T14:57:14Z</time>
      </trkpt>
      <trkpt lat="47.66427" lon="6.09659">
        <ele>238.7</ele>
        <time>2021-10-06T14:57:15Z</time>
      </trkpt>
      <trkpt lat="47.66425" lon="6.09668">
        <ele>238.2</ele>
        <time>2021-10-06T14:57:16Z</time>
      </trkpt>
      <trkpt lat="47.66423" lon="6.09677">
        <ele>237.6</ele>
        <time>2021-10-06T14:57:17Z</time>
      </trkpt>
      <trkpt lat="47.66421" lon="6.09685">
        <ele>237</ele>
        <time>2021-10-06T14:57:18Z</time>
      </trkpt>
      <trkpt lat="47.66419" lon="6.09694">
        <ele>236.4</ele>
        <time>2021-10-06T14:57:19Z</time>
      </trkpt>
      <trkpt lat="47.66417" lon="6.09703">
        <ele>235.8</ele>
        <time>2021-10-06T14:57:20Z</time>
      </trkpt>
      <trkpt lat="47.66415" lon="6.09712">
        <ele>235.3</ele>
        <time>2021-10-06T14:57:21Z</time>
      </trkpt>
      <trkpt lat="47.66413" lon="6.09722">
        <ele>234.8</ele>
        <time>2021-10-06T14:57:22Z</time>
      </trkpt>
      <trkpt lat="47.66411" lon="6.09731">
        <ele>234.3</ele>
        <time>2021-10-06T14:57:23Z</time>
      </trkpt>
      <trkpt lat="47.66411" lon="6.09741">
        <ele>233.7</ele>
        <time>2021-10-06T14:57:24Z</time>
      </trkpt>
      <trkpt lat="47.66411" lon="6.0975">
        <ele>233.2</ele>
        <time>2021-10-06T14:57:25Z</time>
      </trkpt>
      <trkpt lat="47.66411" lon="6.09759">
        <ele>233.4</ele>
        <time>2021-10-06T14:57:26Z</time>
      </trkpt>
      <trkpt lat="47.66412" lon="6.09768">
        <ele>233.6</ele>
        <time>2021-10-06T14:57:27Z</time>
      </trkpt>
      <trkpt lat="47.66412" lon="6.09777">
        <ele>233.8</ele>
        <time>2021-10-06T14:57:28Z</time>
      </trkpt>
      <trkpt lat="47.66412" lon="6.09785">
        <ele>234</ele>
        <time>2021-10-06T14:57:29Z</time>
      </trkpt>
      <trkpt lat="47.66413" lon="6.09793">
        <ele>234.1</ele>
        <time>2021-10-06T14:57:30Z</time>
      </trkpt>
      <trkpt lat="47.66413" lon="6.098">
        <ele>234.3</ele>
        <time>2021-10-06T14:57:31Z</time>
      </trkpt>
      <trkpt lat="47.66415" lon="6.09807">
        <ele>234.4</ele>
        <time>2021-10-06T14:57:32Z</time>
      </trkpt>
      <trkpt lat="47.66416" lon="6.09814">
        <ele>234.5</ele>
        <time>2021-10-06T14:57:33Z</time>
      </trkpt>
      <trkpt lat="47.6642" lon="6.09824">
        <ele>234.8</ele>
        <time>2021-10-06T14:57:35Z</time>
      </trkpt>
      <trkpt lat="47.66423" lon="6.09833">
        <ele>235.1</ele>
        <time>2021-10-06T14:57:37Z</time>
      </trkpt>
      <trkpt lat="47.66427" lon="6.09841">
        <ele>235.4</ele>
        <time>2021-10-06T14:57:39Z</time>
      </trkpt>
      <trkpt lat="47.6643" lon="6.0985">
        <ele>235.8</ele>
        <time>2021-10-06T14:57:41Z</time>
      </trkpt>
      <trkpt lat="47.66427" lon="6.0986">
        <ele>236.1</ele>
        <time>2021-10-06T14:57:42Z</time>
      </trkpt>
      <trkpt lat="47.66431" lon="6.09868">
        <ele>236.4</ele>
        <time>2021-10-06T14:57:46Z</time>
      </trkpt>
      <trkpt lat="47.66435" lon="6.09877">
        <ele>236.8</ele>
        <time>2021-10-06T14:57:48Z</time>
      </trkpt>
      <trkpt lat="47.66437" lon="6.09886">
        <ele>237.1</ele>
        <time>2021-10-06T14:57:50Z</time>
      </trkpt>
      <trkpt lat="47.66439" lon="6.09893">
        <ele>237.4</ele>
        <time>2021-10-06T14:57:52Z</time>
      </trkpt>
      <trkpt lat="47.6644" lon="6.099">
        <ele>237.7</ele>
        <time>2021-10-06T14:57:54Z</time>
      </trkpt>
      <trkpt lat="47.66441" lon="6.09909">
        <ele>238</ele>
        <time>2021-10-06T14:57:57Z</time>
      </trkpt>
      <trkpt lat="47.66442" lon="6.09916">
        <ele>238.3</ele>
        <time>2021-10-06T14:58:00Z</time>
      </trkpt>
      <trkpt lat="47.66441" lon="6.09923">
        <ele>238.6</ele>
        <time>2021-10-06T14:58:02Z</time>
      </trkpt>
      <trkpt lat="47.66441" lon="6.09931">
        <ele>238.9</ele>
        <time>2021-10-06T14:58:05Z</time>
      </trkpt>
      <trkpt lat="47.66442" lon="6.0994">
        <ele>239.3</ele>
        <time>2021-10-06T14:58:08Z</time>
      </trkpt>
      <trkpt lat="47.66442" lon="6.09948">
        <ele>239.6</ele>
        <time>2021-10-06T14:58:11Z</time>
      </trkpt>
      <trkpt lat="47.66442" lon="6.09955">
        <ele>239.9</ele>
        <time>2021-10-06T14:58:13Z</time>
      </trkpt>
      <trkpt lat="47.66442" lon="6.09963">
        <ele>240.2</ele>
        <time>2021-10-06T14:58:15Z</time>
      </trkpt>
      <trkpt lat="47.66442" lon="6.09969">
        <ele>240.4</ele>
        <time>2021-10-06T14:58:17Z</time>
      </trkpt>
      <trkpt lat="47.66443" lon="6.09977">
        <ele>240.8</ele>
        <time>2021-10-06T14:58:20Z</time>
      </trkpt>
      <trkpt lat="47.66443" lon="6.09984">
        <ele>241</ele>
        <time>2021-10-06T14:58:22Z</time>
      </trkpt>
      <trkpt lat="47.66443" lon="6.09992">
        <ele>241.4</ele>
        <time>2021-10-06T14:58:25Z</time>
      </trkpt>
      <trkpt lat="47.66443" lon="6.1">
        <ele>241.7</ele>
        <time>2021-10-06T14:58:28Z</time>
      </trkpt>
      <trkpt lat="47.66443" lon="6.10009">
        <ele>241.7</ele>
        <time>2021-10-06T14:58:31Z</time>
      </trkpt>
      <trkpt lat="47.66444" lon="6.10017">
        <ele>241.7</ele>
        <time>2021-10-06T14:58:34Z</time>
      </trkpt>
      <trkpt lat="47.66444" lon="6.10025">
        <ele>241.7</ele>
        <time>2021-10-06T14:58:36Z</time>
      </trkpt>
      <trkpt lat="47.66443" lon="6.10034">
        <ele>241.7</ele>
        <time>2021-10-06T14:58:39Z</time>
      </trkpt>
      <trkpt lat="47.66442" lon="6.10043">
        <ele>241.7</ele>
        <time>2021-10-06T14:58:42Z</time>
      </trkpt>
      <trkpt lat="47.66441" lon="6.1005">
        <ele>241.7</ele>
        <time>2021-10-06T14:58:44Z</time>
      </trkpt>
      <trkpt lat="47.66439" lon="6.10057">
        <ele>241.7</ele>
        <time>2021-10-06T14:58:46Z</time>
      </trkpt>
      <trkpt lat="47.66438" lon="6.10064">
        <ele>241.7</ele>
        <time>2021-10-06T14:58:47Z</time>
      </trkpt>
      <trkpt lat="47.66436" lon="6.10074">
        <ele>241.8</ele>
        <time>2021-10-06T14:58:50Z</time>
      </trkpt>
      <trkpt lat="47.66436" lon="6.10083">
        <ele>241.8</ele>
        <time>2021-10-06T14:58:54Z</time>
      </trkpt>
      <trkpt lat="47.66435" lon="6.1009">
        <ele>241.9</ele>
        <time>2021-10-06T14:58:55Z</time>
      </trkpt>
      <trkpt lat="47.66433" lon="6.10097">
        <ele>242.1</ele>
        <time>2021-10-06T14:58:58Z</time>
      </trkpt>
      <trkpt lat="47.66432" lon="6.10105">
        <ele>242.2</ele>
        <time>2021-10-06T14:58:59Z</time>
      </trkpt>
      <trkpt lat="47.6643" lon="6.10114">
        <ele>242.4</ele>
        <time>2021-10-06T14:59:03Z</time>
      </trkpt>
      <trkpt lat="47.66429" lon="6.10122">
        <ele>242.5</ele>
        <time>2021-10-06T14:59:05Z</time>
      </trkpt>
      <trkpt lat="47.66427" lon="6.10129">
        <ele>242.6</ele>
        <time>2021-10-06T14:59:07Z</time>
      </trkpt>
      <trkpt lat="47.66424" lon="6.10139">
        <ele>242.8</ele>
        <time>2021-10-06T14:59:09Z</time>
      </trkpt>
      <trkpt lat="47.66421" lon="6.10147">
        <ele>242.8</ele>
        <time>2021-10-06T14:59:12Z</time>
      </trkpt>
      <trkpt lat="47.66419" lon="6.10154">
        <ele>242.9</ele>
        <time>2021-10-06T14:59:16Z</time>
      </trkpt>
      <trkpt lat="47.66415" lon="6.10162">
        <ele>242.9</ele>
        <time>2021-10-06T14:59:18Z</time>
      </trkpt>
      <trkpt lat="47.66412" lon="6.1017">
        <ele>243.2</ele>
        <time>2021-10-06T14:59:21Z</time>
      </trkpt>
      <trkpt lat="47.6641" lon="6.10177">
        <ele>243.6</ele>
        <time>2021-10-06T14:59:23Z</time>
      </trkpt>
      <trkpt lat="47.66407" lon="6.10186">
        <ele>244.1</ele>
        <time>2021-10-06T14:59:26Z</time>
      </trkpt>
      <trkpt lat="47.66406" lon="6.10193">
        <ele>244.5</ele>
        <time>2021-10-06T14:59:28Z</time>
      </trkpt>
      <trkpt lat="47.66405" lon="6.102">
        <ele>244.9</ele>
        <time>2021-10-06T14:59:31Z</time>
      </trkpt>
      <trkpt lat="47.66405" lon="6.10208">
        <ele>245.4</ele>
        <time>2021-10-06T14:59:33Z</time>
      </trkpt>
      <trkpt lat="47.66404" lon="6.10217">
        <ele>245.8</ele>
        <time>2021-10-06T14:59:36Z</time>
      </trkpt>
      <trkpt lat="47.66403" lon="6.10224">
        <ele>246.2</ele>
        <time>2021-10-06T14:59:38Z</time>
      </trkpt>
      <trkpt lat="47.66401" lon="6.10232">
        <ele>246.6</ele>
        <time>2021-10-06T14:59:41Z</time>
      </trkpt>
      <trkpt lat="47.66399" lon="6.10238">
        <ele>246.9</ele>
        <time>2021-10-06T14:59:44Z</time>
      </trkpt>
      <trkpt lat="47.66395" lon="6.10243">
        <ele>247.1</ele>
        <time>2021-10-06T14:59:48Z</time>
      </trkpt>
      <trkpt lat="47.66391" lon="6.10247">
        <ele>247.2</ele>
        <time>2021-10-06T14:59:49Z</time>
      </trkpt>
      <trkpt lat="47.66387" lon="6.1025">
        <ele>247.3</ele>
        <time>2021-10-06T14:59:51Z</time>
      </trkpt>
      <trkpt lat="47.66381" lon="6.10252">
        <ele>247.2</ele>
        <time>2021-10-06T14:59:55Z</time>
      </trkpt>
      <trkpt lat="47.66376" lon="6.10254">
        <ele>247.3</ele>
        <time>2021-10-06T14:59:56Z</time>
      </trkpt>
      <trkpt lat="47.6637" lon="6.10258">
        <ele>247.3</ele>
        <time>2021-10-06T15:00:00Z</time>
      </trkpt>
      <trkpt lat="47.66366" lon="6.1026">
        <ele>247.4</ele>
        <time>2021-10-06T15:00:02Z</time>
      </trkpt>
      <trkpt lat="47.6636" lon="6.10263">
        <ele>247.4</ele>
        <time>2021-10-06T15:00:04Z</time>
      </trkpt>
      <trkpt lat="47.66355" lon="6.10265">
        <ele>247.4</ele>
        <time>2021-10-06T15:00:07Z</time>
      </trkpt>
      <trkpt lat="47.66349" lon="6.10267">
        <ele>247.4</ele>
        <time>2021-10-06T15:00:10Z</time>
      </trkpt>
      <trkpt lat="47.66343" lon="6.10271">
        <ele>247.5</ele>
        <time>2021-10-06T15:00:13Z</time>
      </trkpt>
      <trkpt lat="47.66338" lon="6.10275">
        <ele>247.6</ele>
        <time>2021-10-06T15:00:16Z</time>
      </trkpt>
      <trkpt lat="47.66333" lon="6.10279">
        <ele>247.7</ele>
        <time>2021-10-06T15:00:18Z</time>
      </trkpt>
      <trkpt lat="47.66328" lon="6.10282">
        <ele>247.8</ele>
        <time>2021-10-06T15:00:20Z</time>
      </trkpt>
      <trkpt lat="47.66323" lon="6.10287">
        <ele>247.9</ele>
        <time>2021-10-06T15:00:23Z</time>
      </trkpt>
      <trkpt lat="47.66318" lon="6.1029">
        <ele>248</ele>
        <time>2021-10-06T15:00:25Z</time>
      </trkpt>
      <trkpt lat="47.66313" lon="6.10293">
        <ele>248</ele>
        <time>2021-10-06T15:00:26Z</time>
      </trkpt>
      <trkpt lat="47.66308" lon="6.10298">
        <ele>248.1</ele>
        <time>2021-10-06T15:00:29Z</time>
      </trkpt>
      <trkpt lat="47.66301" lon="6.10302">
        <ele>248.1</ele>
        <time>2021-10-06T15:00:33Z</time>
      </trkpt>
      <trkpt lat="47.66295" lon="6.10307">
        <ele>248.2</ele>
        <time>2021-10-06T15:00:36Z</time>
      </trkpt>
      <trkpt lat="47.6629" lon="6.10311">
        <ele>248.2</ele>
        <time>2021-10-06T15:00:37Z</time>
      </trkpt>
      <trkpt lat="47.66285" lon="6.10314">
        <ele>248.2</ele>
        <time>2021-10-06T15:00:39Z</time>
      </trkpt>
      <trkpt lat="47.6628" lon="6.10318">
        <ele>248.3</ele>
        <time>2021-10-06T15:00:41Z</time>
      </trkpt>
      <trkpt lat="47.66276" lon="6.10321">
        <ele>248.3</ele>
        <time>2021-10-06T15:00:44Z</time>
      </trkpt>
      <trkpt lat="47.66272" lon="6.10327">
        <ele>248.5</ele>
        <time>2021-10-06T15:00:46Z</time>
      </trkpt>
      <trkpt lat="47.66267" lon="6.10331">
        <ele>248.5</ele>
        <time>2021-10-06T15:00:48Z</time>
      </trkpt>
      <trkpt lat="47.66261" lon="6.10335">
        <ele>248.5</ele>
        <time>2021-10-06T15:00:50Z</time>
      </trkpt>
      <trkpt lat="47.66256" lon="6.10338">
        <ele>248.5</ele>
        <time>2021-10-06T15:00:51Z</time>
      </trkpt>
      <trkpt lat="47.66251" lon="6.10342">
        <ele>248.5</ele>
        <time>2021-10-06T15:00:54Z</time>
      </trkpt>
      <trkpt lat="47.66245" lon="6.10347">
        <ele>249</ele>
        <time>2021-10-06T15:00:57Z</time>
      </trkpt>
      <trkpt lat="47.6624" lon="6.10351">
        <ele>249.4</ele>
        <time>2021-10-06T15:00:58Z</time>
      </trkpt>
      <trkpt lat="47.66234" lon="6.10356">
        <ele>249.9</ele>
        <time>2021-10-06T15:01:02Z</time>
      </trkpt>
      <trkpt lat="47.66229" lon="6.10361">
        <ele>250.2</ele>
        <time>2021-10-06T15:01:05Z</time>
      </trkpt>
      <trkpt lat="47.66225" lon="6.10368">
        <ele>250.6</ele>
        <time>2021-10-06T15:01:06Z</time>
      </trkpt>
      <trkpt lat="47.6622" lon="6.10371">
        <ele>250.9</ele>
        <time>2021-10-06T15:01:09Z</time>
      </trkpt>
      <trkpt lat="47.66215" lon="6.10374">
        <ele>251.1</ele>
        <time>2021-10-06T15:01:11Z</time>
      </trkpt>
      <trkpt lat="47.66209" lon="6.10378">
        <ele>251.3</ele>
        <time>2021-10-06T15:01:14Z</time>
      </trkpt>
      <trkpt lat="47.66204" lon="6.1038">
        <ele>251.5</ele>
        <time>2021-10-06T15:01:16Z</time>
      </trkpt>
      <trkpt lat="47.66199" lon="6.10381">
        <ele>251.6</ele>
        <time>2021-10-06T15:01:18Z</time>
      </trkpt>
      <trkpt lat="47.66193" lon="6.10382">
        <ele>251.7</ele>
        <time>2021-10-06T15:01:20Z</time>
      </trkpt>
      <trkpt lat="47.66187" lon="6.10382">
        <ele>251.7</ele>
        <time>2021-10-06T15:01:22Z</time>
      </trkpt>
      <trkpt lat="47.66182" lon="6.10383">
        <ele>251.8</ele>
        <time>2021-10-06T15:01:25Z</time>
      </trkpt>
      <trkpt lat="47.66176" lon="6.10383">
        <ele>251.9</ele>
        <time>2021-10-06T15:01:28Z</time>
      </trkpt>
      <trkpt lat="47.66171" lon="6.10386">
        <ele>252</ele>
        <time>2021-10-06T15:01:32Z</time>
      </trkpt>
      <trkpt lat="47.66166" lon="6.10386">
        <ele>252</ele>
        <time>2021-10-06T15:01:36Z</time>
      </trkpt>
      <trkpt lat="47.66161" lon="6.10388">
        <ele>252.1</ele>
        <time>2021-10-06T15:01:41Z</time>
      </trkpt>
      <trkpt lat="47.66157" lon="6.10391">
        <ele>252.2</ele>
        <time>2021-10-06T15:01:44Z</time>
      </trkpt>
      <trkpt lat="47.66153" lon="6.10395">
        <ele>252.4</ele>
        <time>2021-10-06T15:01:49Z</time>
      </trkpt>
      <trkpt lat="47.66148" lon="6.10397">
        <ele>252.5</ele>
        <time>2021-10-06T15:01:52Z</time>
      </trkpt>
      <trkpt lat="47.66145" lon="6.10401">
        <ele>252.6</ele>
        <time>2021-10-06T15:01:54Z</time>
      </trkpt>
      <trkpt lat="47.6614" lon="6.10405">
        <ele>252.8</ele>
        <time>2021-10-06T15:01:58Z</time>
      </trkpt>
      <trkpt lat="47.66134" lon="6.1041">
        <ele>253.1</ele>
        <time>2021-10-06T15:02:02Z</time>
      </trkpt>
      <trkpt lat="47.66131" lon="6.10413">
        <ele>253.3</ele>
        <time>2021-10-06T15:02:06Z</time>
      </trkpt>
      <trkpt lat="47.66126" lon="6.10415">
        <ele>253.4</ele>
        <time>2021-10-06T15:02:08Z</time>
      </trkpt>
      <trkpt lat="47.66121" lon="6.10415">
        <ele>253.6</ele>
        <time>2021-10-06T15:02:11Z</time>
      </trkpt>
      <trkpt lat="47.66114" lon="6.10411">
        <ele>253.7</ele>
        <time>2021-10-06T15:02:14Z</time>
      </trkpt>
      <trkpt lat="47.66109" lon="6.10403">
        <ele>253.7</ele>
        <time>2021-10-06T15:02:17Z</time>
      </trkpt>
      <trkpt lat="47.66106" lon="6.10398">
        <ele>253.7</ele>
        <time>2021-10-06T15:02:19Z</time>
      </trkpt>
      <trkpt lat="47.66103" lon="6.10393">
        <ele>253.6</ele>
        <time>2021-10-06T15:02:21Z</time>
      </trkpt>
      <trkpt lat="47.66098" lon="6.10387">
        <ele>253.6</ele>
        <time>2021-10-06T15:02:23Z</time>
      </trkpt>
      <trkpt lat="47.66094" lon="6.10381">
        <ele>253.5</ele>
        <time>2021-10-06T15:02:24Z</time>
      </trkpt>
      <trkpt lat="47.6609" lon="6.10375">
        <ele>253.4</ele>
        <time>2021-10-06T15:02:26Z</time>
      </trkpt>
      <trkpt lat="47.66085" lon="6.10372">
        <ele>253.4</ele>
        <time>2021-10-06T15:02:30Z</time>
      </trkpt>
      <trkpt lat="47.66079" lon="6.10374">
        <ele>253.4</ele>
        <time>2021-10-06T15:02:32Z</time>
      </trkpt>
      <trkpt lat="47.66078" lon="6.10384">
        <ele>253.7</ele>
        <time>2021-10-06T15:02:34Z</time>
      </trkpt>
      <trkpt lat="47.66082" lon="6.10391">
        <ele>254</ele>
        <time>2021-10-06T15:02:38Z</time>
      </trkpt>
      <trkpt lat="47.66085" lon="6.10396">
        <ele>254.2</ele>
        <time>2021-10-06T15:02:39Z</time>
      </trkpt>
      <trkpt lat="47.66089" lon="6.10401">
        <ele>254.3</ele>
        <time>2021-10-06T15:02:43Z</time>
      </trkpt>
      <trkpt lat="47.66092" lon="6.10408">
        <ele>254.4</ele>
        <time>2021-10-06T15:02:45Z</time>
      </trkpt>
      <trkpt lat="47.66096" lon="6.10413">
        <ele>254.4</ele>
        <time>2021-10-06T15:02:48Z</time>
      </trkpt>
      <trkpt lat="47.661" lon="6.10419">
        <ele>254.4</ele>
        <time>2021-10-06T15:02:50Z</time>
      </trkpt>
      <trkpt lat="47.66104" lon="6.10425">
        <ele>254.3</ele>
        <time>2021-10-06T15:02:51Z</time>
      </trkpt>
      <trkpt lat="47.66109" lon="6.10433">
        <ele>254.1</ele>
        <time>2021-10-06T15:02:54Z</time>
      </trkpt>
      <trkpt lat="47.66112" lon="6.10438">
        <ele>254.1</ele>
        <time>2021-10-06T15:02:57Z</time>
      </trkpt>
      <trkpt lat="47.66116" lon="6.10444">
        <ele>254</ele>
        <time>2021-10-06T15:02:59Z</time>
      </trkpt>
      <trkpt lat="47.66119" lon="6.10451">
        <ele>253.9</ele>
        <time>2021-10-06T15:03:01Z</time>
      </trkpt>
      <trkpt lat="47.66122" lon="6.10457">
        <ele>253.8</ele>
        <time>2021-10-06T15:03:03Z</time>
      </trkpt>
      <trkpt lat="47.66126" lon="6.10462">
        <ele>253.8</ele>
        <time>2021-10-06T15:03:05Z</time>
      </trkpt>
      <trkpt lat="47.6613" lon="6.10469">
        <ele>253.7</ele>
        <time>2021-10-06T15:03:06Z</time>
      </trkpt>
      <trkpt lat="47.66133" lon="6.10475">
        <ele>253.6</ele>
        <time>2021-10-06T15:03:09Z</time>
      </trkpt>
      <trkpt lat="47.66136" lon="6.1048">
        <ele>253.6</ele>
        <time>2021-10-06T15:03:10Z</time>
      </trkpt>
      <trkpt lat="47.6614" lon="6.10486">
        <ele>253.5</ele>
        <time>2021-10-06T15:03:12Z</time>
      </trkpt>
      <trkpt lat="47.66143" lon="6.10492">
        <ele>253.5</ele>
        <time>2021-10-06T15:03:15Z</time>
      </trkpt>
      <trkpt lat="47.66147" lon="6.10498">
        <ele>253.5</ele>
        <time>2021-10-06T15:03:17Z</time>
      </trkpt>
      <trkpt lat="47.66152" lon="6.10506">
        <ele>253.3</ele>
        <time>2021-10-06T15:03:18Z</time>
      </trkpt>
      <trkpt lat="47.66157" lon="6.10514">
        <ele>253.1</ele>
        <time>2021-10-06T15:03:21Z</time>
      </trkpt>
      <trkpt lat="47.6616" lon="6.1052">
        <ele>253.1</ele>
        <time>2021-10-06T15:03:22Z</time>
      </trkpt>
      <trkpt lat="47.66164" lon="6.10526">
        <ele>253</ele>
        <time>2021-10-06T15:03:24Z</time>
      </trkpt>
      <trkpt lat="47.66167" lon="6.10532">
        <ele>253</ele>
        <time>2021-10-06T15:03:25Z</time>
      </trkpt>
      <trkpt lat="47.66176" lon="6.10547">
        <ele>253.2</ele>
        <time>2021-10-06T15:03:27Z</time>
      </trkpt>
      <trkpt lat="47.6618" lon="6.10554">
        <ele>253.3</ele>
        <time>2021-10-06T15:03:29Z</time>
      </trkpt>
      <trkpt lat="47.66185" lon="6.10561">
        <ele>253.4</ele>
        <time>2021-10-06T15:03:30Z</time>
      </trkpt>
      <trkpt lat="47.66189" lon="6.10568">
        <ele>253.5</ele>
        <time>2021-10-06T15:03:31Z</time>
      </trkpt>
      <trkpt lat="47.66196" lon="6.10581">
        <ele>253.7</ele>
        <time>2021-10-06T15:03:33Z</time>
      </trkpt>
      <trkpt lat="47.66198" lon="6.10587">
        <ele>253.9</ele>
        <time>2021-10-06T15:03:34Z</time>
      </trkpt>
      <trkpt lat="47.66202" lon="6.10593">
        <ele>254.2</ele>
        <time>2021-10-06T15:03:36Z</time>
      </trkpt>
      <trkpt lat="47.66209" lon="6.10605">
        <ele>254.9</ele>
        <time>2021-10-06T15:03:39Z</time>
      </trkpt>
      <trkpt lat="47.66213" lon="6.10611">
        <ele>255.3</ele>
        <time>2021-10-06T15:03:41Z</time>
      </trkpt>
      <trkpt lat="47.66215" lon="6.10619">
        <ele>255.7</ele>
        <time>2021-10-06T15:03:43Z</time>
      </trkpt>
      <trkpt lat="47.66219" lon="6.10628">
        <ele>256.2</ele>
        <time>2021-10-06T15:03:46Z</time>
      </trkpt>
      <trkpt lat="47.66223" lon="6.10632">
        <ele>256.5</ele>
        <time>2021-10-06T15:03:51Z</time>
      </trkpt>
      <trkpt lat="47.66225" lon="6.10639">
        <ele>256.9</ele>
        <time>2021-10-06T15:03:56Z</time>
      </trkpt>
      <trkpt lat="47.66224" lon="6.10647">
        <ele>257.2</ele>
        <time>2021-10-06T15:03:58Z</time>
      </trkpt>
      <trkpt lat="47.66226" lon="6.10655">
        <ele>257.6</ele>
        <time>2021-10-06T15:04:03Z</time>
      </trkpt>
      <trkpt lat="47.66229" lon="6.10661">
        <ele>258</ele>
        <time>2021-10-06T15:04:06Z</time>
      </trkpt>
      <trkpt lat="47.66233" lon="6.10668">
        <ele>258.4</ele>
        <time>2021-10-06T15:04:10Z</time>
      </trkpt>
      <trkpt lat="47.66234" lon="6.10675">
        <ele>258.7</ele>
        <time>2021-10-06T15:04:13Z</time>
      </trkpt>
      <trkpt lat="47.66237" lon="6.10683">
        <ele>259.2</ele>
        <time>2021-10-06T15:04:16Z</time>
      </trkpt>
      <trkpt lat="47.66239" lon="6.10689">
        <ele>259.5</ele>
        <time>2021-10-06T15:04:19Z</time>
      </trkpt>
      <trkpt lat="47.6624" lon="6.10697">
        <ele>259.8</ele>
        <time>2021-10-06T15:04:22Z</time>
      </trkpt>
      <trkpt lat="47.66241" lon="6.10705">
        <ele>260.1</ele>
        <time>2021-10-06T15:04:25Z</time>
      </trkpt>
      <trkpt lat="47.66242" lon="6.10713">
        <ele>260.4</ele>
        <time>2021-10-06T15:04:29Z</time>
      </trkpt>
      <trkpt lat="47.6624" lon="6.10721">
        <ele>260.7</ele>
        <time>2021-10-06T15:04:31Z</time>
      </trkpt>
      <trkpt lat="47.66238" lon="6.10727">
        <ele>260.8</ele>
        <time>2021-10-06T15:04:36Z</time>
      </trkpt>
      <trkpt lat="47.66236" lon="6.10733">
        <ele>261</ele>
        <time>2021-10-06T15:04:39Z</time>
      </trkpt>
      <trkpt lat="47.66233" lon="6.1074">
        <ele>261.2</ele>
        <time>2021-10-06T15:04:41Z</time>
      </trkpt>
      <trkpt lat="47.6623" lon="6.10746">
        <ele>261.4</ele>
        <time>2021-10-06T15:04:44Z</time>
      </trkpt>
      <trkpt lat="47.66227" lon="6.10752">
        <ele>261.5</ele>
        <time>2021-10-06T15:04:47Z</time>
      </trkpt>
      <trkpt lat="47.66224" lon="6.10758">
        <ele>261.5</ele>
        <time>2021-10-06T15:04:51Z</time>
      </trkpt>
      <trkpt lat="47.6622" lon="6.10764">
        <ele>261.5</ele>
        <time>2021-10-06T15:04:55Z</time>
      </trkpt>
      <trkpt lat="47.66218" lon="6.1077">
        <ele>261.6</ele>
        <time>2021-10-06T15:04:58Z</time>
      </trkpt>
      <trkpt lat="47.66218" lon="6.10778">
        <ele>261.7</ele>
        <time>2021-10-06T15:05:02Z</time>
      </trkpt>
      <trkpt lat="47.66219" lon="6.10785">
        <ele>261.9</ele>
        <time>2021-10-06T15:05:33Z</time>
      </trkpt>
      <trkpt lat="47.66225" lon="6.10781">
        <ele>261.9</ele>
        <time>2021-10-06T15:05:35Z</time>
      </trkpt>
      <trkpt lat="47.6623" lon="6.10778">
        <ele>261.8</ele>
        <time>2021-10-06T15:05:37Z</time>
      </trkpt>
      <trkpt lat="47.66236" lon="6.10774">
        <ele>261.9</ele>
        <time>2021-10-06T15:05:39Z</time>
      </trkpt>
      <trkpt lat="47.66243" lon="6.10771">
        <ele>261.9</ele>
        <time>2021-10-06T15:05:41Z</time>
      </trkpt>
      <trkpt lat="47.6625" lon="6.10768">
        <ele>262</ele>
        <time>2021-10-06T15:05:43Z</time>
      </trkpt>
      <trkpt lat="47.66257" lon="6.10767">
        <ele>261.9</ele>
        <time>2021-10-06T15:05:45Z</time>
      </trkpt>
      <trkpt lat="47.66263" lon="6.10767">
        <ele>261.8</ele>
        <time>2021-10-06T15:05:48Z</time>
      </trkpt>
      <trkpt lat="47.66276" lon="6.10768">
        <ele>261.7</ele>
        <time>2021-10-06T15:05:51Z</time>
      </trkpt>
      <trkpt lat="47.66284" lon="6.10768">
        <ele>261.6</ele>
        <time>2021-10-06T15:05:52Z</time>
      </trkpt>
      <trkpt lat="47.66292" lon="6.10766">
        <ele>261.5</ele>
        <time>2021-10-06T15:05:55Z</time>
      </trkpt>
      <trkpt lat="47.66296" lon="6.10765">
        <ele>261.4</ele>
        <time>2021-10-06T15:05:56Z</time>
      </trkpt>
      <trkpt lat="47.66301" lon="6.10767">
        <ele>261.4</ele>
        <time>2021-10-06T15:05:57Z</time>
      </trkpt>
      <trkpt lat="47.66308" lon="6.10772">
        <ele>261.3</ele>
        <time>2021-10-06T15:05:59Z</time>
      </trkpt>
      <trkpt lat="47.66317" lon="6.10785">
        <ele>261.2</ele>
        <time>2021-10-06T15:05:59Z</time>
      </trkpt>
      <trkpt lat="47.6632" lon="6.10791">
        <ele>261.2</ele>
        <time>2021-10-06T15:06:00Z</time>
      </trkpt>
      <trkpt lat="47.66323" lon="6.10796">
        <ele>261.1</ele>
        <time>2021-10-06T15:06:01Z</time>
      </trkpt>
      <trkpt lat="47.66326" lon="6.10802">
        <ele>261.1</ele>
        <time>2021-10-06T15:06:02Z</time>
      </trkpt>
      <trkpt lat="47.66329" lon="6.10807">
        <ele>261</ele>
        <time>2021-10-06T15:06:03Z</time>
      </trkpt>
      <trkpt lat="47.66333" lon="6.10812">
        <ele>261</ele>
        <time>2021-10-06T15:06:04Z</time>
      </trkpt>
      <trkpt lat="47.66336" lon="6.10817">
        <ele>261</ele>
        <time>2021-10-06T15:06:05Z</time>
      </trkpt>
      <trkpt lat="47.6634" lon="6.10823">
        <ele>261</ele>
        <time>2021-10-06T15:06:06Z</time>
      </trkpt>
      <trkpt lat="47.66344" lon="6.10829">
        <ele>261</ele>
        <time>2021-10-06T15:06:07Z</time>
      </trkpt>
      <trkpt lat="47.66348" lon="6.10835">
        <ele>261</ele>
        <time>2021-10-06T15:06:08Z</time>
      </trkpt>
      <trkpt lat="47.66352" lon="6.10841">
        <ele>260.9</ele>
        <time>2021-10-06T15:06:09Z</time>
      </trkpt>
      <trkpt lat="47.66356" lon="6.10846">
        <ele>260.9</ele>
        <time>2021-10-06T15:06:10Z</time>
      </trkpt>
      <trkpt lat="47.6636" lon="6.10852">
        <ele>260.8</ele>
        <time>2021-10-06T15:06:11Z</time>
      </trkpt>
      <trkpt lat="47.66363" lon="6.10858">
        <ele>260.8</ele>
        <time>2021-10-06T15:06:12Z</time>
      </trkpt>
      <trkpt lat="47.66366" lon="6.10864">
        <ele>260.8</ele>
        <time>2021-10-06T15:06:13Z</time>
      </trkpt>
      <trkpt lat="47.66369" lon="6.1087">
        <ele>260.7</ele>
        <time>2021-10-06T15:06:14Z</time>
      </trkpt>
      <trkpt lat="47.66372" lon="6.10875">
        <ele>260.7</ele>
        <time>2021-10-06T15:06:15Z</time>
      </trkpt>
      <trkpt lat="47.66375" lon="6.10881">
        <ele>260.7</ele>
        <time>2021-10-06T15:06:16Z</time>
      </trkpt>
      <trkpt lat="47.66378" lon="6.10887">
        <ele>260.7</ele>
        <time>2021-10-06T15:06:17Z</time>
      </trkpt>
      <trkpt lat="47.66381" lon="6.10893">
        <ele>260.7</ele>
        <time>2021-10-06T15:06:18Z</time>
      </trkpt>
      <trkpt lat="47.66384" lon="6.10898">
        <ele>260.7</ele>
        <time>2021-10-06T15:06:19Z</time>
      </trkpt>
      <trkpt lat="47.66388" lon="6.10904">
        <ele>260.7</ele>
        <time>2021-10-06T15:06:20Z</time>
      </trkpt>
      <trkpt lat="47.66391" lon="6.10909">
        <ele>260.7</ele>
        <time>2021-10-06T15:06:21Z</time>
      </trkpt>
      <trkpt lat="47.66394" lon="6.10914">
        <ele>260.7</ele>
        <time>2021-10-06T15:06:22Z</time>
      </trkpt>
      <trkpt lat="47.66398" lon="6.10926">
        <ele>260.5</ele>
        <time>2021-10-06T15:06:24Z</time>
      </trkpt>
      <trkpt lat="47.664" lon="6.10932">
        <ele>260.4</ele>
        <time>2021-10-06T15:06:25Z</time>
      </trkpt>
      <trkpt lat="47.66402" lon="6.10939">
        <ele>260.3</ele>
        <time>2021-10-06T15:06:26Z</time>
      </trkpt>
      <trkpt lat="47.66405" lon="6.10945">
        <ele>260.1</ele>
        <time>2021-10-06T15:06:27Z</time>
      </trkpt>
      <trkpt lat="47.66407" lon="6.10952">
        <ele>260</ele>
        <time>2021-10-06T15:06:28Z</time>
      </trkpt>
      <trkpt lat="47.6641" lon="6.10959">
        <ele>259.9</ele>
        <time>2021-10-06T15:06:29Z</time>
      </trkpt>
      <trkpt lat="47.66412" lon="6.10966">
        <ele>259.7</ele>
        <time>2021-10-06T15:06:30Z</time>
      </trkpt>
      <trkpt lat="47.66414" lon="6.10973">
        <ele>259.6</ele>
        <time>2021-10-06T15:06:31Z</time>
      </trkpt>
      <trkpt lat="47.66417" lon="6.10979">
        <ele>259.5</ele>
        <time>2021-10-06T15:06:32Z</time>
      </trkpt>
      <trkpt lat="47.6642" lon="6.10985">
        <ele>259.4</ele>
        <time>2021-10-06T15:06:33Z</time>
      </trkpt>
      <trkpt lat="47.66423" lon="6.10991">
        <ele>259.4</ele>
        <time>2021-10-06T15:06:34Z</time>
      </trkpt>
      <trkpt lat="47.66426" lon="6.10996">
        <ele>259.3</ele>
        <time>2021-10-06T15:06:35Z</time>
      </trkpt>
      <trkpt lat="47.66429" lon="6.11001">
        <ele>259.2</ele>
        <time>2021-10-06T15:06:36Z</time>
      </trkpt>
      <trkpt lat="47.66434" lon="6.11011">
        <ele>259.1</ele>
        <time>2021-10-06T15:06:38Z</time>
      </trkpt>
      <trkpt lat="47.6644" lon="6.1102">
        <ele>258.9</ele>
        <time>2021-10-06T15:06:40Z</time>
      </trkpt>
      <trkpt lat="47.66445" lon="6.11028">
        <ele>258.8</ele>
        <time>2021-10-06T15:06:42Z</time>
      </trkpt>
      <trkpt lat="47.66448" lon="6.11034">
        <ele>258.7</ele>
        <time>2021-10-06T15:06:43Z</time>
      </trkpt>
      <trkpt lat="47.66454" lon="6.11037">
        <ele>258.7</ele>
        <time>2021-10-06T15:06:45Z</time>
      </trkpt>
      <trkpt lat="47.66456" lon="6.11045">
        <ele>258.6</ele>
        <time>2021-10-06T15:06:49Z</time>
      </trkpt>
      <trkpt lat="47.66459" lon="6.11053">
        <ele>258.5</ele>
        <time>2021-10-06T15:06:50Z</time>
      </trkpt>
      <trkpt lat="47.66462" lon="6.11061">
        <ele>258.3</ele>
        <time>2021-10-06T15:06:51Z</time>
      </trkpt>
      <trkpt lat="47.66465" lon="6.11068">
        <ele>258.2</ele>
        <time>2021-10-06T15:06:52Z</time>
      </trkpt>
      <trkpt lat="47.66468" lon="6.11075">
        <ele>258.1</ele>
        <time>2021-10-06T15:06:54Z</time>
      </trkpt>
      <trkpt lat="47.6647" lon="6.11082">
        <ele>258</ele>
        <time>2021-10-06T15:06:55Z</time>
      </trkpt>
      <trkpt lat="47.66473" lon="6.11088">
        <ele>257.9</ele>
        <time>2021-10-06T15:06:56Z</time>
      </trkpt>
      <trkpt lat="47.66479" lon="6.11103">
        <ele>257.8</ele>
        <time>2021-10-06T15:06:59Z</time>
      </trkpt>
      <trkpt lat="47.66483" lon="6.11112">
        <ele>257.8</ele>
        <time>2021-10-06T15:07:01Z</time>
      </trkpt>
      <trkpt lat="47.66486" lon="6.1112">
        <ele>257.8</ele>
        <time>2021-10-06T15:07:03Z</time>
      </trkpt>
      <trkpt lat="47.6649" lon="6.11129">
        <ele>257.9</ele>
        <time>2021-10-06T15:07:03Z</time>
      </trkpt>
      <trkpt lat="47.66493" lon="6.11137">
        <ele>257.9</ele>
        <time>2021-10-06T15:07:07Z</time>
      </trkpt>
      <trkpt lat="47.66496" lon="6.11144">
        <ele>258</ele>
        <time>2021-10-06T15:07:09Z</time>
      </trkpt>
      <trkpt lat="47.66498" lon="6.11149">
        <ele>258.1</ele>
        <time>2021-10-06T15:07:10Z</time>
      </trkpt>
      <trkpt lat="47.66503" lon="6.11158">
        <ele>258.2</ele>
        <time>2021-10-06T15:07:12Z</time>
      </trkpt>
      <trkpt lat="47.66506" lon="6.11166">
        <ele>258.3</ele>
        <time>2021-10-06T15:07:14Z</time>
      </trkpt>
      <trkpt lat="47.6651" lon="6.11174">
        <ele>258.4</ele>
        <time>2021-10-06T15:07:16Z</time>
      </trkpt>
      <trkpt lat="47.66514" lon="6.11183">
        <ele>258.5</ele>
        <time>2021-10-06T15:07:18Z</time>
      </trkpt>
      <trkpt lat="47.66517" lon="6.11191">
        <ele>258.7</ele>
        <time>2021-10-06T15:07:18Z</time>
      </trkpt>
      <trkpt lat="47.66521" lon="6.112">
        <ele>258.8</ele>
        <time>2021-10-06T15:07:20Z</time>
      </trkpt>
      <trkpt lat="47.66524" lon="6.11207">
        <ele>258.9</ele>
        <time>2021-10-06T15:07:22Z</time>
      </trkpt>
      <trkpt lat="47.66527" lon="6.11215">
        <ele>259.1</ele>
        <time>2021-10-06T15:07:24Z</time>
      </trkpt>
      <trkpt lat="47.6653" lon="6.11221">
        <ele>259.2</ele>
        <time>2021-10-06T15:07:26Z</time>
      </trkpt>
      <trkpt lat="47.66531" lon="6.1123">
        <ele>259.3</ele>
        <time>2021-10-06T15:07:31Z</time>
      </trkpt>
      <trkpt lat="47.66532" lon="6.11238">
        <ele>259.3</ele>
        <time>2021-10-06T15:07:33Z</time>
      </trkpt>
      <trkpt lat="47.66532" lon="6.11247">
        <ele>259.3</ele>
        <time>2021-10-06T15:07:36Z</time>
      </trkpt>
      <trkpt lat="47.66535" lon="6.11241">
        <ele>259.6</ele>
        <time>2021-10-06T15:08:29Z</time>
      </trkpt>
      <trkpt lat="47.66536" lon="6.11233">
        <ele>259.6</ele>
        <time>2021-10-06T15:08:34Z</time>
      </trkpt>
      <trkpt lat="47.66535" lon="6.11225">
        <ele>259.6</ele>
        <time>2021-10-06T15:08:34Z</time>
      </trkpt>
      <trkpt lat="47.66533" lon="6.11217">
        <ele>259.5</ele>
        <time>2021-10-06T15:08:38Z</time>
      </trkpt>
      <trkpt lat="47.66531" lon="6.1121">
        <ele>259.4</ele>
        <time>2021-10-06T15:08:39Z</time>
      </trkpt>
      <trkpt lat="47.66525" lon="6.11194">
        <ele>259.1</ele>
        <time>2021-10-06T15:08:42Z</time>
      </trkpt>
      <trkpt lat="47.66519" lon="6.11179">
        <ele>258.9</ele>
        <time>2021-10-06T15:08:45Z</time>
      </trkpt>
      <trkpt lat="47.66516" lon="6.11172">
        <ele>258.7</ele>
        <time>2021-10-06T15:08:46Z</time>
      </trkpt>
      <trkpt lat="47.66508" lon="6.11154">
        <ele>258.5</ele>
        <time>2021-10-06T15:08:49Z</time>
      </trkpt>
      <trkpt lat="47.66505" lon="6.11145">
        <ele>258.5</ele>
        <time>2021-10-06T15:08:51Z</time>
      </trkpt>
      <trkpt lat="47.66502" lon="6.11136">
        <ele>258.5</ele>
        <time>2021-10-06T15:08:53Z</time>
      </trkpt>
      <trkpt lat="47.66498" lon="6.11128">
        <ele>258.4</ele>
        <time>2021-10-06T15:08:55Z</time>
      </trkpt>
      <trkpt lat="47.66494" lon="6.11116">
        <ele>258.3</ele>
        <time>2021-10-06T15:08:57Z</time>
      </trkpt>
      <trkpt lat="47.6649" lon="6.11106">
        <ele>258.3</ele>
        <time>2021-10-06T15:08:57Z</time>
      </trkpt>
      <trkpt lat="47.66487" lon="6.11098">
        <ele>258.3</ele>
        <time>2021-10-06T15:09:01Z</time>
      </trkpt>
      <trkpt lat="47.66481" lon="6.11083">
        <ele>258.3</ele>
        <time>2021-10-06T15:09:04Z</time>
      </trkpt>
      <trkpt lat="47.66479" lon="6.11077">
        <ele>258.4</ele>
        <time>2021-10-06T15:09:06Z</time>
      </trkpt>
      <trkpt lat="47.66475" lon="6.11065">
        <ele>258.6</ele>
        <time>2021-10-06T15:09:06Z</time>
      </trkpt>
      <trkpt lat="47.66471" lon="6.11057">
        <ele>258.7</ele>
        <time>2021-10-06T15:09:08Z</time>
      </trkpt>
      <trkpt lat="47.66468" lon="6.11049">
        <ele>258.8</ele>
        <time>2021-10-06T15:09:10Z</time>
      </trkpt>
      <trkpt lat="47.66465" lon="6.1104">
        <ele>259</ele>
        <time>2021-10-06T15:09:12Z</time>
      </trkpt>
      <trkpt lat="47.66461" lon="6.11033">
        <ele>259.1</ele>
        <time>2021-10-06T15:09:14Z</time>
      </trkpt>
      <trkpt lat="47.66457" lon="6.11026">
        <ele>259.2</ele>
        <time>2021-10-06T15:09:18Z</time>
      </trkpt>
      <trkpt lat="47.66453" lon="6.11018">
        <ele>259.3</ele>
        <time>2021-10-06T15:09:18Z</time>
      </trkpt>
      <trkpt lat="47.6645" lon="6.11013">
        <ele>259.4</ele>
        <time>2021-10-06T15:09:22Z</time>
      </trkpt>
      <trkpt lat="47.66446" lon="6.11006">
        <ele>259.5</ele>
        <time>2021-10-06T15:09:24Z</time>
      </trkpt>
      <trkpt lat="47.66443" lon="6.10999">
        <ele>259.7</ele>
        <time>2021-10-06T15:09:26Z</time>
      </trkpt>
      <trkpt lat="47.66437" lon="6.10983">
        <ele>259.9</ele>
        <time>2021-10-06T15:09:29Z</time>
      </trkpt>
      <trkpt lat="47.66434" lon="6.10973">
        <ele>260</ele>
        <time>2021-10-06T15:09:29Z</time>
      </trkpt>
      <trkpt lat="47.66432" lon="6.10966">
        <ele>260.2</ele>
        <time>2021-10-06T15:09:33Z</time>
      </trkpt>
      <trkpt lat="47.6643" lon="6.10958">
        <ele>260.3</ele>
        <time>2021-10-06T15:09:35Z</time>
      </trkpt>
      <trkpt lat="47.66428" lon="6.1095">
        <ele>260.5</ele>
        <time>2021-10-06T15:09:35Z</time>
      </trkpt>
      <trkpt lat="47.66427" lon="6.10942">
        <ele>260.6</ele>
        <time>2021-10-06T15:09:37Z</time>
      </trkpt>
      <trkpt lat="47.66425" lon="6.10933">
        <ele>260.8</ele>
        <time>2021-10-06T15:09:40Z</time>
      </trkpt>
      <trkpt lat="47.66424" lon="6.10926">
        <ele>260.9</ele>
        <time>2021-10-06T15:09:44Z</time>
      </trkpt>
      <trkpt lat="47.66422" lon="6.10919">
        <ele>261.1</ele>
        <time>2021-10-06T15:09:44Z</time>
      </trkpt>
      <trkpt lat="47.66419" lon="6.10913">
        <ele>261.1</ele>
        <time>2021-10-06T15:09:48Z</time>
      </trkpt>
      <trkpt lat="47.66417" lon="6.10907">
        <ele>261</ele>
        <time>2021-10-06T15:09:50Z</time>
      </trkpt>
      <trkpt lat="47.66414" lon="6.109">
        <ele>261</ele>
        <time>2021-10-06T15:09:50Z</time>
      </trkpt>
      <trkpt lat="47.6641" lon="6.1089">
        <ele>260.9</ele>
        <time>2021-10-06T15:09:55Z</time>
      </trkpt>
      <trkpt lat="47.66406" lon="6.1088">
        <ele>260.9</ele>
        <time>2021-10-06T15:09:56Z</time>
      </trkpt>
      <trkpt lat="47.66404" lon="6.10875">
        <ele>260.9</ele>
        <time>2021-10-06T15:09:58Z</time>
      </trkpt>
      <trkpt lat="47.66401" lon="6.10869">
        <ele>260.9</ele>
        <time>2021-10-06T15:10:00Z</time>
      </trkpt>
      <trkpt lat="47.66397" lon="6.10861">
        <ele>260.9</ele>
        <time>2021-10-06T15:10:05Z</time>
      </trkpt>
      <trkpt lat="47.66394" lon="6.10855">
        <ele>260.9</ele>
        <time>2021-10-06T15:10:05Z</time>
      </trkpt>
      <trkpt lat="47.66391" lon="6.10848">
        <ele>260.9</ele>
        <time>2021-10-06T15:10:10Z</time>
      </trkpt>
      <trkpt lat="47.66387" lon="6.10841">
        <ele>261</ele>
        <time>2021-10-06T15:10:10Z</time>
      </trkpt>
      <trkpt lat="47.66383" lon="6.10834">
        <ele>261</ele>
        <time>2021-10-06T15:10:13Z</time>
      </trkpt>
      <trkpt lat="47.66377" lon="6.10829">
        <ele>261</ele>
        <time>2021-10-06T15:10:16Z</time>
      </trkpt>
      <trkpt lat="47.6637" lon="6.10825">
        <ele>261</ele>
        <time>2021-10-06T15:10:21Z</time>
      </trkpt>
      <trkpt lat="47.66366" lon="6.10822">
        <ele>261</ele>
        <time>2021-10-06T15:10:23Z</time>
      </trkpt>
      <trkpt lat="47.66363" lon="6.10815">
        <ele>261</ele>
        <time>2021-10-06T15:10:23Z</time>
      </trkpt>
      <trkpt lat="47.66358" lon="6.10808">
        <ele>261</ele>
        <time>2021-10-06T15:10:26Z</time>
      </trkpt>
      <trkpt lat="47.66354" lon="6.10802">
        <ele>261</ele>
        <time>2021-10-06T15:10:31Z</time>
      </trkpt>
      <trkpt lat="47.66351" lon="6.10796">
        <ele>261</ele>
        <time>2021-10-06T15:10:33Z</time>
      </trkpt>
      <trkpt lat="47.66348" lon="6.10789">
        <ele>261</ele>
        <time>2021-10-06T15:10:33Z</time>
      </trkpt>
      <trkpt lat="47.66344" lon="6.10783">
        <ele>261</ele>
        <time>2021-10-06T15:10:38Z</time>
      </trkpt>
      <trkpt lat="47.66341" lon="6.10777">
        <ele>261</ele>
        <time>2021-10-06T15:10:40Z</time>
      </trkpt>
      <trkpt lat="47.66338" lon="6.1077">
        <ele>261</ele>
        <time>2021-10-06T15:10:40Z</time>
      </trkpt>
      <trkpt lat="47.66335" lon="6.10762">
        <ele>261</ele>
        <time>2021-10-06T15:10:43Z</time>
      </trkpt>
      <trkpt lat="47.66333" lon="6.10755">
        <ele>261</ele>
        <time>2021-10-06T15:10:46Z</time>
      </trkpt>
      <trkpt lat="47.66331" lon="6.10749">
        <ele>261</ele>
        <time>2021-10-06T15:10:50Z</time>
      </trkpt>
      <trkpt lat="47.66331" lon="6.10756">
        <ele>261</ele>
        <time>2021-10-06T15:10:55Z</time>
      </trkpt>
      <trkpt lat="47.66325" lon="6.10753">
        <ele>261.1</ele>
        <time>2021-10-06T15:11:04Z</time>
      </trkpt>
      <trkpt lat="47.66319" lon="6.10751">
        <ele>261.2</ele>
        <time>2021-10-06T15:11:06Z</time>
      </trkpt>
      <trkpt lat="47.66312" lon="6.10752">
        <ele>261.3</ele>
        <time>2021-10-06T15:11:08Z</time>
      </trkpt>
      <trkpt lat="47.66306" lon="6.10753">
        <ele>261.3</ele>
        <time>2021-10-06T15:11:10Z</time>
      </trkpt>
      <trkpt lat="47.66299" lon="6.10755">
        <ele>261.4</ele>
        <time>2021-10-06T15:11:12Z</time>
      </trkpt>
      <trkpt lat="47.66292" lon="6.10755">
        <ele>261.5</ele>
        <time>2021-10-06T15:11:14Z</time>
      </trkpt>
      <trkpt lat="47.66286" lon="6.10755">
        <ele>261.6</ele>
        <time>2021-10-06T15:11:18Z</time>
      </trkpt>
      <trkpt lat="47.6628" lon="6.10756">
        <ele>261.6</ele>
        <time>2021-10-06T15:11:20Z</time>
      </trkpt>
      <trkpt lat="47.66275" lon="6.10757">
        <ele>261.7</ele>
        <time>2021-10-06T15:11:22Z</time>
      </trkpt>
      <trkpt lat="47.6627" lon="6.10758">
        <ele>261.8</ele>
        <time>2021-10-06T15:11:24Z</time>
      </trkpt>
      <trkpt lat="47.66264" lon="6.1076">
        <ele>261.8</ele>
        <time>2021-10-06T15:11:26Z</time>
      </trkpt>
      <trkpt lat="47.66258" lon="6.10763">
        <ele>261.9</ele>
        <time>2021-10-06T15:11:26Z</time>
      </trkpt>
      <trkpt lat="47.66254" lon="6.10765">
        <ele>262</ele>
        <time>2021-10-06T15:11:28Z</time>
      </trkpt>
      <trkpt lat="47.66249" lon="6.10768">
        <ele>262</ele>
        <time>2021-10-06T15:11:30Z</time>
      </trkpt>
      <trkpt lat="47.66243" lon="6.10772">
        <ele>261.9</ele>
        <time>2021-10-06T15:11:33Z</time>
      </trkpt>
      <trkpt lat="47.66238" lon="6.10774">
        <ele>261.9</ele>
        <time>2021-10-06T15:11:35Z</time>
      </trkpt>
      <trkpt lat="47.66234" lon="6.10776">
        <ele>261.9</ele>
        <time>2021-10-06T15:11:37Z</time>
      </trkpt>
      <trkpt lat="47.66227" lon="6.10779">
        <ele>261.8</ele>
        <time>2021-10-06T15:11:40Z</time>
      </trkpt>
      <trkpt lat="47.66222" lon="6.10783">
        <ele>261.9</ele>
        <time>2021-10-06T15:11:45Z</time>
      </trkpt>
      <trkpt lat="47.66217" lon="6.10787">
        <ele>261.9</ele>
        <time>2021-10-06T15:11:45Z</time>
      </trkpt>
      <trkpt lat="47.66213" lon="6.1079">
        <ele>262</ele>
        <time>2021-10-06T15:11:47Z</time>
      </trkpt>
      <trkpt lat="47.6621" lon="6.10794">
        <ele>262.1</ele>
        <time>2021-10-06T15:11:49Z</time>
      </trkpt>
      <trkpt lat="47.66204" lon="6.108">
        <ele>262.2</ele>
        <time>2021-10-06T15:11:52Z</time>
      </trkpt>
      <trkpt lat="47.66199" lon="6.10807">
        <ele>262.4</ele>
        <time>2021-10-06T15:11:55Z</time>
      </trkpt>
      <trkpt lat="47.66195" lon="6.10812">
        <ele>262.6</ele>
        <time>2021-10-06T15:11:57Z</time>
      </trkpt>
      <trkpt lat="47.66192" lon="6.10817">
        <ele>262.8</ele>
        <time>2021-10-06T15:11:59Z</time>
      </trkpt>
      <trkpt lat="47.66188" lon="6.10822">
        <ele>263.1</ele>
        <time>2021-10-06T15:12:01Z</time>
      </trkpt>
      <trkpt lat="47.66184" lon="6.10827">
        <ele>263.4</ele>
        <time>2021-10-06T15:12:03Z</time>
      </trkpt>
      <trkpt lat="47.6618" lon="6.10833">
        <ele>263.6</ele>
        <time>2021-10-06T15:12:05Z</time>
      </trkpt>
      <trkpt lat="47.66176" lon="6.10838">
        <ele>263.7</ele>
        <time>2021-10-06T15:12:07Z</time>
      </trkpt>
      <trkpt lat="47.66172" lon="6.10842">
        <ele>263.7</ele>
        <time>2021-10-06T15:12:09Z</time>
      </trkpt>
      <trkpt lat="47.66168" lon="6.10847">
        <ele>263.6</ele>
        <time>2021-10-06T15:12:11Z</time>
      </trkpt>
      <trkpt lat="47.66164" lon="6.10851">
        <ele>263.5</ele>
        <time>2021-10-06T15:12:13Z</time>
      </trkpt>
      <trkpt lat="47.66161" lon="6.10856">
        <ele>263.3</ele>
        <time>2021-10-06T15:12:15Z</time>
      </trkpt>
      <trkpt lat="47.66155" lon="6.10862">
        <ele>263.1</ele>
        <time>2021-10-06T15:12:18Z</time>
      </trkpt>
      <trkpt lat="47.66152" lon="6.10868">
        <ele>262.9</ele>
        <time>2021-10-06T15:12:20Z</time>
      </trkpt>
      <trkpt lat="47.66148" lon="6.10872">
        <ele>262.7</ele>
        <time>2021-10-06T15:12:24Z</time>
      </trkpt>
      <trkpt lat="47.66143" lon="6.10877">
        <ele>262.5</ele>
        <time>2021-10-06T15:12:24Z</time>
      </trkpt>
      <trkpt lat="47.66138" lon="6.10882">
        <ele>262.3</ele>
        <time>2021-10-06T15:12:28Z</time>
      </trkpt>
      <trkpt lat="47.66128" lon="6.10893">
        <ele>262</ele>
        <time>2021-10-06T15:12:31Z</time>
      </trkpt>
      <trkpt lat="47.66121" lon="6.10902">
        <ele>261.7</ele>
        <time>2021-10-06T15:12:33Z</time>
      </trkpt>
      <trkpt lat="47.66117" lon="6.10907">
        <ele>261.6</ele>
        <time>2021-10-06T15:12:34Z</time>
      </trkpt>
      <trkpt lat="47.66109" lon="6.10917">
        <ele>261.3</ele>
        <time>2021-10-06T15:12:36Z</time>
      </trkpt>
      <trkpt lat="47.66105" lon="6.10922">
        <ele>261.2</ele>
        <time>2021-10-06T15:12:37Z</time>
      </trkpt>
      <trkpt lat="47.66088" lon="6.10944">
        <ele>260.7</ele>
        <time>2021-10-06T15:12:37Z</time>
      </trkpt>
      <trkpt lat="47.66082" lon="6.10951">
        <ele>260.5</ele>
        <time>2021-10-06T15:12:38Z</time>
      </trkpt>
      <trkpt lat="47.66077" lon="6.10958">
        <ele>260</ele>
        <time>2021-10-06T15:12:39Z</time>
      </trkpt>
      <trkpt lat="47.66072" lon="6.10965">
        <ele>259.6</ele>
        <time>2021-10-06T15:12:40Z</time>
      </trkpt>
      <trkpt lat="47.66067" lon="6.10972">
        <ele>259.3</ele>
        <time>2021-10-06T15:12:41Z</time>
      </trkpt>
      <trkpt lat="47.66063" lon="6.10978">
        <ele>259</ele>
        <time>2021-10-06T15:12:42Z</time>
      </trkpt>
      <trkpt lat="47.66059" lon="6.10985">
        <ele>258.8</ele>
        <time>2021-10-06T15:12:43Z</time>
      </trkpt>
      <trkpt lat="47.66055" lon="6.10992">
        <ele>258.6</ele>
        <time>2021-10-06T15:12:44Z</time>
      </trkpt>
      <trkpt lat="47.66051" lon="6.10997">
        <ele>258.4</ele>
        <time>2021-10-06T15:12:45Z</time>
      </trkpt>
      <trkpt lat="47.66047" lon="6.11003">
        <ele>258.2</ele>
        <time>2021-10-06T15:12:46Z</time>
      </trkpt>
      <trkpt lat="47.66042" lon="6.11008">
        <ele>258.1</ele>
        <time>2021-10-06T15:12:47Z</time>
      </trkpt>
      <trkpt lat="47.66038" lon="6.11014">
        <ele>257.9</ele>
        <time>2021-10-06T15:12:48Z</time>
      </trkpt>
      <trkpt lat="47.66034" lon="6.11019">
        <ele>257.8</ele>
        <time>2021-10-06T15:12:49Z</time>
      </trkpt>
      <trkpt lat="47.6603" lon="6.11023">
        <ele>257.7</ele>
        <time>2021-10-06T15:12:50Z</time>
      </trkpt>
      <trkpt lat="47.66026" lon="6.11028">
        <ele>257.6</ele>
        <time>2021-10-06T15:12:51Z</time>
      </trkpt>
      <trkpt lat="47.66023" lon="6.11032">
        <ele>257.5</ele>
        <time>2021-10-06T15:12:52Z</time>
      </trkpt>
      <trkpt lat="47.66019" lon="6.11037">
        <ele>257.5</ele>
        <time>2021-10-06T15:12:53Z</time>
      </trkpt>
      <trkpt lat="47.66016" lon="6.11041">
        <ele>257.5</ele>
        <time>2021-10-06T15:12:54Z</time>
      </trkpt>
      <trkpt lat="47.66012" lon="6.11046">
        <ele>257.4</ele>
        <time>2021-10-06T15:12:55Z</time>
      </trkpt>
      <trkpt lat="47.66008" lon="6.1105">
        <ele>257.4</ele>
        <time>2021-10-06T15:12:56Z</time>
      </trkpt>
      <trkpt lat="47.66005" lon="6.11055">
        <ele>257.4</ele>
        <time>2021-10-06T15:12:57Z</time>
      </trkpt>
      <trkpt lat="47.66001" lon="6.1106">
        <ele>257.5</ele>
        <time>2021-10-06T15:12:58Z</time>
      </trkpt>
      <trkpt lat="47.65998" lon="6.11065">
        <ele>257.4</ele>
        <time>2021-10-06T15:12:59Z</time>
      </trkpt>
      <trkpt lat="47.65994" lon="6.1107">
        <ele>257.2</ele>
        <time>2021-10-06T15:13:00Z</time>
      </trkpt>
      <trkpt lat="47.6599" lon="6.11075">
        <ele>257</ele>
        <time>2021-10-06T15:13:01Z</time>
      </trkpt>
      <trkpt lat="47.65986" lon="6.11081">
        <ele>256.7</ele>
        <time>2021-10-06T15:13:02Z</time>
      </trkpt>
      <trkpt lat="47.65981" lon="6.11087">
        <ele>256.4</ele>
        <time>2021-10-06T15:13:03Z</time>
      </trkpt>
      <trkpt lat="47.65977" lon="6.11094">
        <ele>255.9</ele>
        <time>2021-10-06T15:13:04Z</time>
      </trkpt>
      <trkpt lat="47.65972" lon="6.11101">
        <ele>255.5</ele>
        <time>2021-10-06T15:13:05Z</time>
      </trkpt>
      <trkpt lat="47.65967" lon="6.11108">
        <ele>255</ele>
        <time>2021-10-06T15:13:06Z</time>
      </trkpt>
      <trkpt lat="47.65961" lon="6.11116">
        <ele>254.5</ele>
        <time>2021-10-06T15:13:07Z</time>
      </trkpt>
      <trkpt lat="47.65956" lon="6.11124">
        <ele>254.1</ele>
        <time>2021-10-06T15:13:08Z</time>
      </trkpt>
      <trkpt lat="47.6595" lon="6.11132">
        <ele>253.5</ele>
        <time>2021-10-06T15:13:09Z</time>
      </trkpt>
      <trkpt lat="47.65944" lon="6.11142">
        <ele>253.1</ele>
        <time>2021-10-06T15:13:10Z</time>
      </trkpt>
      <trkpt lat="47.65938" lon="6.11152">
        <ele>252.6</ele>
        <time>2021-10-06T15:13:11Z</time>
      </trkpt>
      <trkpt lat="47.65932" lon="6.11162">
        <ele>252.1</ele>
        <time>2021-10-06T15:13:12Z</time>
      </trkpt>
      <trkpt lat="47.65925" lon="6.11171">
        <ele>251.6</ele>
        <time>2021-10-06T15:13:13Z</time>
      </trkpt>
      <trkpt lat="47.65919" lon="6.11181">
        <ele>251</ele>
        <time>2021-10-06T15:13:14Z</time>
      </trkpt>
      <trkpt lat="47.65912" lon="6.11191">
        <ele>250.5</ele>
        <time>2021-10-06T15:13:15Z</time>
      </trkpt>
      <trkpt lat="47.65906" lon="6.112">
        <ele>250</ele>
        <time>2021-10-06T15:13:16Z</time>
      </trkpt>
      <trkpt lat="47.65899" lon="6.11209">
        <ele>249.6</ele>
        <time>2021-10-06T15:13:17Z</time>
      </trkpt>
      <trkpt lat="47.65893" lon="6.11219">
        <ele>249.3</ele>
        <time>2021-10-06T15:13:18Z</time>
      </trkpt>
      <trkpt lat="47.65887" lon="6.11228">
        <ele>249</ele>
        <time>2021-10-06T15:13:19Z</time>
      </trkpt>
      <trkpt lat="47.6588" lon="6.11237">
        <ele>248.7</ele>
        <time>2021-10-06T15:13:20Z</time>
      </trkpt>
      <trkpt lat="47.65874" lon="6.11246">
        <ele>248.5</ele>
        <time>2021-10-06T15:13:21Z</time>
      </trkpt>
      <trkpt lat="47.65868" lon="6.11254">
        <ele>248.2</ele>
        <time>2021-10-06T15:13:22Z</time>
      </trkpt>
      <trkpt lat="47.65862" lon="6.11263">
        <ele>247.8</ele>
        <time>2021-10-06T15:13:23Z</time>
      </trkpt>
      <trkpt lat="47.65856" lon="6.11271">
        <ele>247.5</ele>
        <time>2021-10-06T15:13:24Z</time>
      </trkpt>
      <trkpt lat="47.6585" lon="6.11279">
        <ele>247.2</ele>
        <time>2021-10-06T15:13:25Z</time>
      </trkpt>
      <trkpt lat="47.65845" lon="6.11287">
        <ele>246.9</ele>
        <time>2021-10-06T15:13:26Z</time>
      </trkpt>
      <trkpt lat="47.6584" lon="6.11295">
        <ele>246.6</ele>
        <time>2021-10-06T15:13:27Z</time>
      </trkpt>
      <trkpt lat="47.65834" lon="6.11302">
        <ele>246.4</ele>
        <time>2021-10-06T15:13:28Z</time>
      </trkpt>
      <trkpt lat="47.65829" lon="6.11309">
        <ele>246.2</ele>
        <time>2021-10-06T15:13:29Z</time>
      </trkpt>
      <trkpt lat="47.65824" lon="6.11316">
        <ele>246.1</ele>
        <time>2021-10-06T15:13:30Z</time>
      </trkpt>
      <trkpt lat="47.65819" lon="6.11323">
        <ele>245.9</ele>
        <time>2021-10-06T15:13:31Z</time>
      </trkpt>
      <trkpt lat="47.65815" lon="6.1133">
        <ele>245.8</ele>
        <time>2021-10-06T15:13:32Z</time>
      </trkpt>
      <trkpt lat="47.6581" lon="6.11337">
        <ele>245.8</ele>
        <time>2021-10-06T15:13:33Z</time>
      </trkpt>
      <trkpt lat="47.65806" lon="6.11343">
        <ele>245.9</ele>
        <time>2021-10-06T15:13:34Z</time>
      </trkpt>
      <trkpt lat="47.65801" lon="6.1135">
        <ele>245.9</ele>
        <time>2021-10-06T15:13:35Z</time>
      </trkpt>
      <trkpt lat="47.65797" lon="6.11356">
        <ele>246</ele>
        <time>2021-10-06T15:13:36Z</time>
      </trkpt>
      <trkpt lat="47.65793" lon="6.11363">
        <ele>246.1</ele>
        <time>2021-10-06T15:13:37Z</time>
      </trkpt>
      <trkpt lat="47.65789" lon="6.11369">
        <ele>246.1</ele>
        <time>2021-10-06T15:13:38Z</time>
      </trkpt>
      <trkpt lat="47.65785" lon="6.11376">
        <ele>246.1</ele>
        <time>2021-10-06T15:13:39Z</time>
      </trkpt>
      <trkpt lat="47.65781" lon="6.11382">
        <ele>246.2</ele>
        <time>2021-10-06T15:13:40Z</time>
      </trkpt>
      <trkpt lat="47.65778" lon="6.11389">
        <ele>246.2</ele>
        <time>2021-10-06T15:13:41Z</time>
      </trkpt>
      <trkpt lat="47.65774" lon="6.11395">
        <ele>246.2</ele>
        <time>2021-10-06T15:13:42Z</time>
      </trkpt>
      <trkpt lat="47.65771" lon="6.11401">
        <ele>246.3</ele>
        <time>2021-10-06T15:13:43Z</time>
      </trkpt>
      <trkpt lat="47.65767" lon="6.11407">
        <ele>246.3</ele>
        <time>2021-10-06T15:13:44Z</time>
      </trkpt>
      <trkpt lat="47.65764" lon="6.11412">
        <ele>246.3</ele>
        <time>2021-10-06T15:13:45Z</time>
      </trkpt>
      <trkpt lat="47.6576" lon="6.11418">
        <ele>246.2</ele>
        <time>2021-10-06T15:13:46Z</time>
      </trkpt>
      <trkpt lat="47.65757" lon="6.11423">
        <ele>246</ele>
        <time>2021-10-06T15:13:47Z</time>
      </trkpt>
      <trkpt lat="47.65754" lon="6.11429">
        <ele>245.8</ele>
        <time>2021-10-06T15:13:48Z</time>
      </trkpt>
      <trkpt lat="47.6575" lon="6.11435">
        <ele>245.6</ele>
        <time>2021-10-06T15:13:49Z</time>
      </trkpt>
      <trkpt lat="47.65746" lon="6.11441">
        <ele>245.4</ele>
        <time>2021-10-06T15:13:50Z</time>
      </trkpt>
      <trkpt lat="47.65743" lon="6.11447">
        <ele>245.2</ele>
        <time>2021-10-06T15:13:51Z</time>
      </trkpt>
      <trkpt lat="47.65739" lon="6.11453">
        <ele>245</ele>
        <time>2021-10-06T15:13:52Z</time>
      </trkpt>
      <trkpt lat="47.65735" lon="6.11459">
        <ele>244.9</ele>
        <time>2021-10-06T15:13:53Z</time>
      </trkpt>
      <trkpt lat="47.65731" lon="6.11465">
        <ele>244.7</ele>
        <time>2021-10-06T15:13:54Z</time>
      </trkpt>
      <trkpt lat="47.65727" lon="6.11471">
        <ele>244.6</ele>
        <time>2021-10-06T15:13:55Z</time>
      </trkpt>
      <trkpt lat="47.65723" lon="6.11476">
        <ele>244.5</ele>
        <time>2021-10-06T15:13:56Z</time>
      </trkpt>
      <trkpt lat="47.65719" lon="6.11482">
        <ele>244.3</ele>
        <time>2021-10-06T15:13:57Z</time>
      </trkpt>
      <trkpt lat="47.65715" lon="6.11489">
        <ele>244.2</ele>
        <time>2021-10-06T15:13:58Z</time>
      </trkpt>
      <trkpt lat="47.65711" lon="6.11495">
        <ele>244.1</ele>
        <time>2021-10-06T15:13:59Z</time>
      </trkpt>
      <trkpt lat="47.65707" lon="6.11501">
        <ele>244</ele>
        <time>2021-10-06T15:14:00Z</time>
      </trkpt>
      <trkpt lat="47.65703" lon="6.11507">
        <ele>243.9</ele>
        <time>2021-10-06T15:14:01Z</time>
      </trkpt>
      <trkpt lat="47.65698" lon="6.11513">
        <ele>243.8</ele>
        <time>2021-10-06T15:14:02Z</time>
      </trkpt>
      <trkpt lat="47.65694" lon="6.11519">
        <ele>243.7</ele>
        <time>2021-10-06T15:14:03Z</time>
      </trkpt>
      <trkpt lat="47.6569" lon="6.11526">
        <ele>243.6</ele>
        <time>2021-10-06T15:14:04Z</time>
      </trkpt>
      <trkpt lat="47.65685" lon="6.11532">
        <ele>243.4</ele>
        <time>2021-10-06T15:14:05Z</time>
      </trkpt>
      <trkpt lat="47.65681" lon="6.11538">
        <ele>243.2</ele>
        <time>2021-10-06T15:14:06Z</time>
      </trkpt>
      <trkpt lat="47.65677" lon="6.11545">
        <ele>243.1</ele>
        <time>2021-10-06T15:14:07Z</time>
      </trkpt>
      <trkpt lat="47.65672" lon="6.11551">
        <ele>242.9</ele>
        <time>2021-10-06T15:14:08Z</time>
      </trkpt>
      <trkpt lat="47.65668" lon="6.11558">
        <ele>242.6</ele>
        <time>2021-10-06T15:14:09Z</time>
      </trkpt>
      <trkpt lat="47.65664" lon="6.11564">
        <ele>242.4</ele>
        <time>2021-10-06T15:14:10Z</time>
      </trkpt>
      <trkpt lat="47.6566" lon="6.1157">
        <ele>242.2</ele>
        <time>2021-10-06T15:14:11Z</time>
      </trkpt>
      <trkpt lat="47.65656" lon="6.11575">
        <ele>242</ele>
        <time>2021-10-06T15:14:12Z</time>
      </trkpt>
      <trkpt lat="47.65652" lon="6.11581">
        <ele>241.9</ele>
        <time>2021-10-06T15:14:13Z</time>
      </trkpt>
      <trkpt lat="47.65648" lon="6.11586">
        <ele>241.7</ele>
        <time>2021-10-06T15:14:14Z</time>
      </trkpt>
      <trkpt lat="47.65644" lon="6.11592">
        <ele>241.6</ele>
        <time>2021-10-06T15:14:15Z</time>
      </trkpt>
      <trkpt lat="47.65641" lon="6.11598">
        <ele>241.5</ele>
        <time>2021-10-06T15:14:16Z</time>
      </trkpt>
      <trkpt lat="47.65637" lon="6.11603">
        <ele>241.4</ele>
        <time>2021-10-06T15:14:17Z</time>
      </trkpt>
      <trkpt lat="47.65633" lon="6.11609">
        <ele>241.3</ele>
        <time>2021-10-06T15:14:18Z</time>
      </trkpt>
      <trkpt lat="47.6563" lon="6.11615">
        <ele>241.2</ele>
        <time>2021-10-06T15:14:19Z</time>
      </trkpt>
      <trkpt lat="47.65626" lon="6.11621">
        <ele>241.1</ele>
        <time>2021-10-06T15:14:20Z</time>
      </trkpt>
      <trkpt lat="47.65623" lon="6.11626">
        <ele>241</ele>
        <time>2021-10-06T15:14:21Z</time>
      </trkpt>
      <trkpt lat="47.65619" lon="6.11632">
        <ele>240.9</ele>
        <time>2021-10-06T15:14:22Z</time>
      </trkpt>
      <trkpt lat="47.65616" lon="6.11638">
        <ele>240.7</ele>
        <time>2021-10-06T15:14:23Z</time>
      </trkpt>
      <trkpt lat="47.65613" lon="6.11643">
        <ele>240.6</ele>
        <time>2021-10-06T15:14:24Z</time>
      </trkpt>
      <trkpt lat="47.6561" lon="6.11649">
        <ele>240.5</ele>
        <time>2021-10-06T15:14:25Z</time>
      </trkpt>
      <trkpt lat="47.65606" lon="6.11655">
        <ele>240.4</ele>
        <time>2021-10-06T15:14:26Z</time>
      </trkpt>
      <trkpt lat="47.65603" lon="6.1166">
        <ele>240.3</ele>
        <time>2021-10-06T15:14:27Z</time>
      </trkpt>
      <trkpt lat="47.656" lon="6.11666">
        <ele>240.2</ele>
        <time>2021-10-06T15:14:28Z</time>
      </trkpt>
      <trkpt lat="47.65598" lon="6.11672">
        <ele>240.2</ele>
        <time>2021-10-06T15:14:29Z</time>
      </trkpt>
      <trkpt lat="47.65595" lon="6.11677">
        <ele>240.1</ele>
        <time>2021-10-06T15:14:30Z</time>
      </trkpt>
      <trkpt lat="47.6559" lon="6.11688">
        <ele>240.1</ele>
        <time>2021-10-06T15:14:32Z</time>
      </trkpt>
      <trkpt lat="47.65585" lon="6.11697">
        <ele>240</ele>
        <time>2021-10-06T15:14:34Z</time>
      </trkpt>
      <trkpt lat="47.65581" lon="6.11707">
        <ele>239.9</ele>
        <time>2021-10-06T15:14:36Z</time>
      </trkpt>
      <trkpt lat="47.65576" lon="6.11718">
        <ele>239.8</ele>
        <time>2021-10-06T15:14:38Z</time>
      </trkpt>
      <trkpt lat="47.65572" lon="6.11727">
        <ele>239.6</ele>
        <time>2021-10-06T15:14:40Z</time>
      </trkpt>
      <trkpt lat="47.65569" lon="6.11742">
        <ele>239.5</ele>
        <time>2021-10-06T15:14:41Z</time>
      </trkpt>
      <trkpt lat="47.65564" lon="6.11748">
        <ele>239.3</ele>
        <time>2021-10-06T15:14:45Z</time>
      </trkpt>
      <trkpt lat="47.65558" lon="6.11755">
        <ele>239.2</ele>
        <time>2021-10-06T15:14:45Z</time>
      </trkpt>
      <trkpt lat="47.65555" lon="6.11761">
        <ele>239.1</ele>
        <time>2021-10-06T15:14:46Z</time>
      </trkpt>
      <trkpt lat="47.65552" lon="6.11766">
        <ele>239.1</ele>
        <time>2021-10-06T15:14:47Z</time>
      </trkpt>
      <trkpt lat="47.65549" lon="6.11772">
        <ele>239</ele>
        <time>2021-10-06T15:14:48Z</time>
      </trkpt>
      <trkpt lat="47.65546" lon="6.11778">
        <ele>239</ele>
        <time>2021-10-06T15:14:49Z</time>
      </trkpt>
      <trkpt lat="47.65543" lon="6.11784">
        <ele>239</ele>
        <time>2021-10-06T15:14:50Z</time>
      </trkpt>
      <trkpt lat="47.6554" lon="6.1179">
        <ele>238.9</ele>
        <time>2021-10-06T15:14:51Z</time>
      </trkpt>
      <trkpt lat="47.65537" lon="6.11795">
        <ele>238.9</ele>
        <time>2021-10-06T15:14:52Z</time>
      </trkpt>
      <trkpt lat="47.65534" lon="6.11801">
        <ele>238.8</ele>
        <time>2021-10-06T15:14:53Z</time>
      </trkpt>
      <trkpt lat="47.65531" lon="6.11807">
        <ele>238.8</ele>
        <time>2021-10-06T15:14:54Z</time>
      </trkpt>
      <trkpt lat="47.65528" lon="6.11813">
        <ele>238.8</ele>
        <time>2021-10-06T15:14:55Z</time>
      </trkpt>
      <trkpt lat="47.65525" lon="6.11819">
        <ele>238.7</ele>
        <time>2021-10-06T15:14:56Z</time>
      </trkpt>
      <trkpt lat="47.65522" lon="6.11825">
        <ele>238.7</ele>
        <time>2021-10-06T15:14:58Z</time>
      </trkpt>
      <trkpt lat="47.65519" lon="6.1183">
        <ele>238.6</ele>
        <time>2021-10-06T15:14:59Z</time>
      </trkpt>
      <trkpt lat="47.65516" lon="6.11836">
        <ele>238.5</ele>
        <time>2021-10-06T15:15:00Z</time>
      </trkpt>
      <trkpt lat="47.65513" lon="6.11843">
        <ele>238.4</ele>
        <time>2021-10-06T15:15:01Z</time>
      </trkpt>
      <trkpt lat="47.65509" lon="6.11849">
        <ele>238.3</ele>
        <time>2021-10-06T15:15:02Z</time>
      </trkpt>
      <trkpt lat="47.65506" lon="6.11855">
        <ele>238.2</ele>
        <time>2021-10-06T15:15:03Z</time>
      </trkpt>
      <trkpt lat="47.65502" lon="6.11862">
        <ele>238.1</ele>
        <time>2021-10-06T15:15:04Z</time>
      </trkpt>
      <trkpt lat="47.65499" lon="6.11869">
        <ele>237.9</ele>
        <time>2021-10-06T15:15:05Z</time>
      </trkpt>
      <trkpt lat="47.65495" lon="6.11876">
        <ele>237.7</ele>
        <time>2021-10-06T15:15:06Z</time>
      </trkpt>
      <trkpt lat="47.65491" lon="6.11884">
        <ele>237.5</ele>
        <time>2021-10-06T15:15:07Z</time>
      </trkpt>
      <trkpt lat="47.65487" lon="6.11892">
        <ele>237.3</ele>
        <time>2021-10-06T15:15:08Z</time>
      </trkpt>
      <trkpt lat="47.65483" lon="6.11899">
        <ele>237.1</ele>
        <time>2021-10-06T15:15:09Z</time>
      </trkpt>
      <trkpt lat="47.65479" lon="6.11908">
        <ele>236.9</ele>
        <time>2021-10-06T15:15:10Z</time>
      </trkpt>
      <trkpt lat="47.65474" lon="6.11916">
        <ele>236.8</ele>
        <time>2021-10-06T15:15:11Z</time>
      </trkpt>
      <trkpt lat="47.6547" lon="6.11924">
        <ele>236.5</ele>
        <time>2021-10-06T15:15:12Z</time>
      </trkpt>
      <trkpt lat="47.65465" lon="6.11932">
        <ele>236.1</ele>
        <time>2021-10-06T15:15:13Z</time>
      </trkpt>
      <trkpt lat="47.6546" lon="6.11941">
        <ele>235.8</ele>
        <time>2021-10-06T15:15:14Z</time>
      </trkpt>
      <trkpt lat="47.65455" lon="6.1195">
        <ele>235.4</ele>
        <time>2021-10-06T15:15:15Z</time>
      </trkpt>
      <trkpt lat="47.6545" lon="6.11959">
        <ele>235.1</ele>
        <time>2021-10-06T15:15:16Z</time>
      </trkpt>
      <trkpt lat="47.65445" lon="6.11967">
        <ele>234.8</ele>
        <time>2021-10-06T15:15:17Z</time>
      </trkpt>
      <trkpt lat="47.6544" lon="6.11976">
        <ele>234.4</ele>
        <time>2021-10-06T15:15:18Z</time>
      </trkpt>
      <trkpt lat="47.65435" lon="6.11984">
        <ele>234.1</ele>
        <time>2021-10-06T15:15:19Z</time>
      </trkpt>
      <trkpt lat="47.6543" lon="6.11993">
        <ele>233.7</ele>
        <time>2021-10-06T15:15:20Z</time>
      </trkpt>
      <trkpt lat="47.65425" lon="6.12002">
        <ele>233.4</ele>
        <time>2021-10-06T15:15:21Z</time>
      </trkpt>
      <trkpt lat="47.65419" lon="6.1201">
        <ele>233</ele>
        <time>2021-10-06T15:15:22Z</time>
      </trkpt>
      <trkpt lat="47.65414" lon="6.12019">
        <ele>232.7</ele>
        <time>2021-10-06T15:15:23Z</time>
      </trkpt>
      <trkpt lat="47.65409" lon="6.12028">
        <ele>232.4</ele>
        <time>2021-10-06T15:15:24Z</time>
      </trkpt>
      <trkpt lat="47.65403" lon="6.12036">
        <ele>232.1</ele>
        <time>2021-10-06T15:15:25Z</time>
      </trkpt>
      <trkpt lat="47.65397" lon="6.12045">
        <ele>231.7</ele>
        <time>2021-10-06T15:15:26Z</time>
      </trkpt>
      <trkpt lat="47.65391" lon="6.12054">
        <ele>231.4</ele>
        <time>2021-10-06T15:15:27Z</time>
      </trkpt>
      <trkpt lat="47.65386" lon="6.12063">
        <ele>230.9</ele>
        <time>2021-10-06T15:15:28Z</time>
      </trkpt>
      <trkpt lat="47.65379" lon="6.12071">
        <ele>230.5</ele>
        <time>2021-10-06T15:15:29Z</time>
      </trkpt>
      <trkpt lat="47.65373" lon="6.1208">
        <ele>230</ele>
        <time>2021-10-06T15:15:30Z</time>
      </trkpt>
      <trkpt lat="47.65368" lon="6.12088">
        <ele>229.6</ele>
        <time>2021-10-06T15:15:31Z</time>
      </trkpt>
      <trkpt lat="47.65363" lon="6.12096">
        <ele>229.3</ele>
        <time>2021-10-06T15:15:32Z</time>
      </trkpt>
      <trkpt lat="47.65358" lon="6.12102">
        <ele>229.1</ele>
        <time>2021-10-06T15:15:33Z</time>
      </trkpt>
      <trkpt lat="47.65355" lon="6.12107">
        <ele>228.9</ele>
        <time>2021-10-06T15:15:34Z</time>
      </trkpt>
      <trkpt lat="47.65351" lon="6.12111">
        <ele>228.7</ele>
        <time>2021-10-06T15:15:35Z</time>
      </trkpt>
      <trkpt lat="47.65343" lon="6.12116">
        <ele>228.4</ele>
        <time>2021-10-06T15:15:37Z</time>
      </trkpt>
      <trkpt lat="47.65336" lon="6.12124">
        <ele>228.1</ele>
        <time>2021-10-06T15:15:39Z</time>
      </trkpt>
      <trkpt lat="47.65332" lon="6.12129">
        <ele>228</ele>
        <time>2021-10-06T15:15:40Z</time>
      </trkpt>
      <trkpt lat="47.65329" lon="6.12134">
        <ele>227.9</ele>
        <time>2021-10-06T15:15:41Z</time>
      </trkpt>
      <trkpt lat="47.65326" lon="6.1214">
        <ele>227.9</ele>
        <time>2021-10-06T15:15:42Z</time>
      </trkpt>
      <trkpt lat="47.65323" lon="6.12146">
        <ele>227.8</ele>
        <time>2021-10-06T15:15:43Z</time>
      </trkpt>
      <trkpt lat="47.6532" lon="6.12152">
        <ele>227.7</ele>
        <time>2021-10-06T15:15:44Z</time>
      </trkpt>
      <trkpt lat="47.65317" lon="6.12159">
        <ele>227.6</ele>
        <time>2021-10-06T15:15:45Z</time>
      </trkpt>
      <trkpt lat="47.65315" lon="6.12166">
        <ele>227.6</ele>
        <time>2021-10-06T15:15:46Z</time>
      </trkpt>
      <trkpt lat="47.65313" lon="6.12174">
        <ele>227.5</ele>
        <time>2021-10-06T15:15:47Z</time>
      </trkpt>
      <trkpt lat="47.65312" lon="6.12182">
        <ele>227.5</ele>
        <time>2021-10-06T15:15:48Z</time>
      </trkpt>
      <trkpt lat="47.65311" lon="6.12191">
        <ele>227.5</ele>
        <time>2021-10-06T15:15:49Z</time>
      </trkpt>
      <trkpt lat="47.65309" lon="6.122">
        <ele>227.4</ele>
        <time>2021-10-06T15:15:50Z</time>
      </trkpt>
      <trkpt lat="47.65308" lon="6.12209">
        <ele>227.4</ele>
        <time>2021-10-06T15:15:51Z</time>
      </trkpt>
      <trkpt lat="47.65307" lon="6.12218">
        <ele>227.4</ele>
        <time>2021-10-06T15:15:52Z</time>
      </trkpt>
      <trkpt lat="47.65305" lon="6.12228">
        <ele>227.3</ele>
        <time>2021-10-06T15:15:53Z</time>
      </trkpt>
      <trkpt lat="47.65304" lon="6.12237">
        <ele>227.3</ele>
        <time>2021-10-06T15:15:54Z</time>
      </trkpt>
      <trkpt lat="47.65303" lon="6.12246">
        <ele>227.3</ele>
        <time>2021-10-06T15:15:55Z</time>
      </trkpt>
      <trkpt lat="47.65302" lon="6.12256">
        <ele>227.1</ele>
        <time>2021-10-06T15:15:56Z</time>
      </trkpt>
      <trkpt lat="47.653" lon="6.12265">
        <ele>226.8</ele>
        <time>2021-10-06T15:15:57Z</time>
      </trkpt>
      <trkpt lat="47.65299" lon="6.12274">
        <ele>226.6</ele>
        <time>2021-10-06T15:15:58Z</time>
      </trkpt>
      <trkpt lat="47.65299" lon="6.12283">
        <ele>226.3</ele>
        <time>2021-10-06T15:15:59Z</time>
      </trkpt>
      <trkpt lat="47.65298" lon="6.12293">
        <ele>226.1</ele>
        <time>2021-10-06T15:16:00Z</time>
      </trkpt>
      <trkpt lat="47.65298" lon="6.12303">
        <ele>225.8</ele>
        <time>2021-10-06T15:16:01Z</time>
      </trkpt>
      <trkpt lat="47.65297" lon="6.12313">
        <ele>225.5</ele>
        <time>2021-10-06T15:16:02Z</time>
      </trkpt>
      <trkpt lat="47.65297" lon="6.12323">
        <ele>225.3</ele>
        <time>2021-10-06T15:16:03Z</time>
      </trkpt>
      <trkpt lat="47.65296" lon="6.12333">
        <ele>225</ele>
        <time>2021-10-06T15:16:04Z</time>
      </trkpt>
      <trkpt lat="47.65295" lon="6.12343">
        <ele>224.7</ele>
        <time>2021-10-06T15:16:05Z</time>
      </trkpt>
      <trkpt lat="47.65294" lon="6.12351">
        <ele>224.5</ele>
        <time>2021-10-06T15:16:06Z</time>
      </trkpt>
      <trkpt lat="47.65293" lon="6.12361">
        <ele>224.2</ele>
        <time>2021-10-06T15:16:07Z</time>
      </trkpt>
      <trkpt lat="47.65293" lon="6.12369">
        <ele>223.9</ele>
        <time>2021-10-06T15:16:08Z</time>
      </trkpt>
      <trkpt lat="47.65294" lon="6.12377">
        <ele>223.7</ele>
        <time>2021-10-06T15:16:09Z</time>
      </trkpt>
      <trkpt lat="47.65294" lon="6.12386">
        <ele>223.5</ele>
        <time>2021-10-06T15:16:10Z</time>
      </trkpt>
      <trkpt lat="47.65295" lon="6.12394">
        <ele>223.2</ele>
        <time>2021-10-06T15:16:11Z</time>
      </trkpt>
      <trkpt lat="47.65296" lon="6.12403">
        <ele>223</ele>
        <time>2021-10-06T15:16:12Z</time>
      </trkpt>
      <trkpt lat="47.65298" lon="6.12411">
        <ele>222.7</ele>
        <time>2021-10-06T15:16:13Z</time>
      </trkpt>
      <trkpt lat="47.65299" lon="6.1242">
        <ele>222.5</ele>
        <time>2021-10-06T15:16:14Z</time>
      </trkpt>
      <trkpt lat="47.65301" lon="6.12429">
        <ele>222.3</ele>
        <time>2021-10-06T15:16:15Z</time>
      </trkpt>
      <trkpt lat="47.65302" lon="6.12437">
        <ele>222.1</ele>
        <time>2021-10-06T15:16:16Z</time>
      </trkpt>
      <trkpt lat="47.65304" lon="6.12445">
        <ele>222</ele>
        <time>2021-10-06T15:16:17Z</time>
      </trkpt>
      <trkpt lat="47.65304" lon="6.12455">
        <ele>221.7</ele>
        <time>2021-10-06T15:16:19Z</time>
      </trkpt>
      <trkpt lat="47.65305" lon="6.12462">
        <ele>221.6</ele>
        <time>2021-10-06T15:16:21Z</time>
      </trkpt>
      <trkpt lat="47.65311" lon="6.12463">
        <ele>221.6</ele>
        <time>2021-10-06T15:16:24Z</time>
      </trkpt>
      <trkpt lat="47.65318" lon="6.12462">
        <ele>221.7</ele>
        <time>2021-10-06T15:16:26Z</time>
      </trkpt>
      <trkpt lat="47.65324" lon="6.12466">
        <ele>221.7</ele>
        <time>2021-10-06T15:16:29Z</time>
      </trkpt>
      <trkpt lat="47.65331" lon="6.12472">
        <ele>221.6</ele>
        <time>2021-10-06T15:16:30Z</time>
      </trkpt>
      <trkpt lat="47.65337" lon="6.12476">
        <ele>221.7</ele>
        <time>2021-10-06T15:16:32Z</time>
      </trkpt>
      <trkpt lat="47.65343" lon="6.12481">
        <ele>221.7</ele>
        <time>2021-10-06T15:16:34Z</time>
      </trkpt>
      <trkpt lat="47.65349" lon="6.12484">
        <ele>221.8</ele>
        <time>2021-10-06T15:16:37Z</time>
      </trkpt>
      <trkpt lat="47.65356" lon="6.12488">
        <ele>222</ele>
        <time>2021-10-06T15:16:38Z</time>
      </trkpt>
      <trkpt lat="47.65362" lon="6.12492">
        <ele>222.1</ele>
        <time>2021-10-06T15:16:41Z</time>
      </trkpt>
      <trkpt lat="47.65367" lon="6.12496">
        <ele>222.2</ele>
        <time>2021-10-06T15:16:43Z</time>
      </trkpt>
      <trkpt lat="47.65377" lon="6.12504">
        <ele>222.7</ele>
        <time>2021-10-06T15:16:45Z</time>
      </trkpt>
      <trkpt lat="47.65382" lon="6.12509">
        <ele>223</ele>
        <time>2021-10-06T15:16:47Z</time>
      </trkpt>
      <trkpt lat="47.65387" lon="6.12514">
        <ele>223.3</ele>
        <time>2021-10-06T15:16:49Z</time>
      </trkpt>
      <trkpt lat="47.65392" lon="6.12519">
        <ele>223.6</ele>
        <time>2021-10-06T15:16:51Z</time>
      </trkpt>
      <trkpt lat="47.65397" lon="6.12522">
        <ele>223.8</ele>
        <time>2021-10-06T15:16:53Z</time>
      </trkpt>
      <trkpt lat="47.65402" lon="6.12525">
        <ele>224.1</ele>
        <time>2021-10-06T15:16:55Z</time>
      </trkpt>
      <trkpt lat="47.65408" lon="6.12527">
        <ele>224.3</ele>
        <time>2021-10-06T15:16:58Z</time>
      </trkpt>
      <trkpt lat="47.65412" lon="6.12531">
        <ele>224.6</ele>
        <time>2021-10-06T15:17:01Z</time>
      </trkpt>
      <trkpt lat="47.65417" lon="6.12533">
        <ele>224.8</ele>
        <time>2021-10-06T15:17:04Z</time>
      </trkpt>
      <trkpt lat="47.65423" lon="6.12535">
        <ele>224.9</ele>
        <time>2021-10-06T15:17:07Z</time>
      </trkpt>
      <trkpt lat="47.65428" lon="6.12535">
        <ele>225</ele>
        <time>2021-10-06T15:17:10Z</time>
      </trkpt>
      <trkpt lat="47.65434" lon="6.12535">
        <ele>225.2</ele>
        <time>2021-10-06T15:17:13Z</time>
      </trkpt>
      <trkpt lat="47.6544" lon="6.12536">
        <ele>225.3</ele>
        <time>2021-10-06T15:17:16Z</time>
      </trkpt>
      <trkpt lat="47.65445" lon="6.12538">
        <ele>225.4</ele>
        <time>2021-10-06T15:17:19Z</time>
      </trkpt>
      <trkpt lat="47.6545" lon="6.1254">
        <ele>225.6</ele>
        <time>2021-10-06T15:17:22Z</time>
      </trkpt>
      <trkpt lat="47.65455" lon="6.12543">
        <ele>225.7</ele>
        <time>2021-10-06T15:17:25Z</time>
      </trkpt>
      <trkpt lat="47.65461" lon="6.12545">
        <ele>225.9</ele>
        <time>2021-10-06T15:17:28Z</time>
      </trkpt>
      <trkpt lat="47.65466" lon="6.12548">
        <ele>226</ele>
        <time>2021-10-06T15:17:31Z</time>
      </trkpt>
      <trkpt lat="47.6547" lon="6.12553">
        <ele>226.1</ele>
        <time>2021-10-06T15:17:34Z</time>
      </trkpt>
      <trkpt lat="47.65475" lon="6.12559">
        <ele>226.3</ele>
        <time>2021-10-06T15:17:37Z</time>
      </trkpt>
      <trkpt lat="47.65478" lon="6.12565">
        <ele>226.5</ele>
        <time>2021-10-06T15:17:39Z</time>
      </trkpt>
      <trkpt lat="47.65481" lon="6.1257">
        <ele>226.6</ele>
        <time>2021-10-06T15:17:41Z</time>
      </trkpt>
      <trkpt lat="47.65484" lon="6.12576">
        <ele>226.7</ele>
        <time>2021-10-06T15:17:43Z</time>
      </trkpt>
      <trkpt lat="47.65487" lon="6.12581">
        <ele>226.8</ele>
        <time>2021-10-06T15:17:45Z</time>
      </trkpt>
      <trkpt lat="47.6549" lon="6.12586">
        <ele>226.9</ele>
        <time>2021-10-06T15:17:47Z</time>
      </trkpt>
      <trkpt lat="47.65493" lon="6.12592">
        <ele>226.9</ele>
        <time>2021-10-06T15:17:49Z</time>
      </trkpt>
      <trkpt lat="47.65497" lon="6.12599">
        <ele>227</ele>
        <time>2021-10-06T15:17:52Z</time>
      </trkpt>
      <trkpt lat="47.65501" lon="6.12605">
        <ele>227</ele>
        <time>2021-10-06T15:17:55Z</time>
      </trkpt>
      <trkpt lat="47.65505" lon="6.12612">
        <ele>226.9</ele>
        <time>2021-10-06T15:17:58Z</time>
      </trkpt>
      <trkpt lat="47.6551" lon="6.12619">
        <ele>226.9</ele>
        <time>2021-10-06T15:18:01Z</time>
      </trkpt>
      <trkpt lat="47.65513" lon="6.12625">
        <ele>226.9</ele>
        <time>2021-10-06T15:18:03Z</time>
      </trkpt>
      <trkpt lat="47.65517" lon="6.12632">
        <ele>227</ele>
        <time>2021-10-06T15:18:06Z</time>
      </trkpt>
      <trkpt lat="47.65521" lon="6.1264">
        <ele>227</ele>
        <time>2021-10-06T15:18:09Z</time>
      </trkpt>
      <trkpt lat="47.65524" lon="6.12647">
        <ele>227.1</ele>
        <time>2021-10-06T15:18:12Z</time>
      </trkpt>
      <trkpt lat="47.65529" lon="6.12653">
        <ele>227.2</ele>
        <time>2021-10-06T15:18:15Z</time>
      </trkpt>
      <trkpt lat="47.65532" lon="6.12661">
        <ele>227.3</ele>
        <time>2021-10-06T15:18:18Z</time>
      </trkpt>
      <trkpt lat="47.65537" lon="6.12667">
        <ele>227.4</ele>
        <time>2021-10-06T15:18:21Z</time>
      </trkpt>
      <trkpt lat="47.65541" lon="6.12675">
        <ele>227.5</ele>
        <time>2021-10-06T15:18:24Z</time>
      </trkpt>
      <trkpt lat="47.65544" lon="6.1268">
        <ele>227.5</ele>
        <time>2021-10-06T15:18:26Z</time>
      </trkpt>
      <trkpt lat="47.65548" lon="6.12686">
        <ele>227.6</ele>
        <time>2021-10-06T15:18:28Z</time>
      </trkpt>
      <trkpt lat="47.6555" lon="6.12692">
        <ele>227.7</ele>
        <time>2021-10-06T15:18:30Z</time>
      </trkpt>
      <trkpt lat="47.65553" lon="6.12698">
        <ele>227.7</ele>
        <time>2021-10-06T15:18:32Z</time>
      </trkpt>
      <trkpt lat="47.65556" lon="6.12704">
        <ele>227.8</ele>
        <time>2021-10-06T15:18:34Z</time>
      </trkpt>
      <trkpt lat="47.65558" lon="6.1271">
        <ele>227.9</ele>
        <time>2021-10-06T15:18:36Z</time>
      </trkpt>
      <trkpt lat="47.65561" lon="6.12717">
        <ele>228</ele>
        <time>2021-10-06T15:18:38Z</time>
      </trkpt>
      <trkpt lat="47.65565" lon="6.12723">
        <ele>228.2</ele>
        <time>2021-10-06T15:18:40Z</time>
      </trkpt>
      <trkpt lat="47.65568" lon="6.1273">
        <ele>228.3</ele>
        <time>2021-10-06T15:18:42Z</time>
      </trkpt>
      <trkpt lat="47.65572" lon="6.12736">
        <ele>228.5</ele>
        <time>2021-10-06T15:18:44Z</time>
      </trkpt>
      <trkpt lat="47.65576" lon="6.12742">
        <ele>228.7</ele>
        <time>2021-10-06T15:18:46Z</time>
      </trkpt>
      <trkpt lat="47.6558" lon="6.12749">
        <ele>228.9</ele>
        <time>2021-10-06T15:18:48Z</time>
      </trkpt>
      <trkpt lat="47.65584" lon="6.12755">
        <ele>229</ele>
        <time>2021-10-06T15:18:50Z</time>
      </trkpt>
      <trkpt lat="47.65588" lon="6.12761">
        <ele>229.2</ele>
        <time>2021-10-06T15:18:52Z</time>
      </trkpt>
      <trkpt lat="47.65591" lon="6.12766">
        <ele>229.3</ele>
        <time>2021-10-06T15:18:54Z</time>
      </trkpt>
      <trkpt lat="47.65594" lon="6.12771">
        <ele>229.4</ele>
        <time>2021-10-06T15:18:56Z</time>
      </trkpt>
      <trkpt lat="47.65597" lon="6.12777">
        <ele>229.5</ele>
        <time>2021-10-06T15:18:58Z</time>
      </trkpt>
      <trkpt lat="47.65601" lon="6.12784">
        <ele>229.6</ele>
        <time>2021-10-06T15:19:01Z</time>
      </trkpt>
      <trkpt lat="47.65603" lon="6.12794">
        <ele>229.7</ele>
        <time>2021-10-06T15:19:04Z</time>
      </trkpt>
      <trkpt lat="47.65604" lon="6.12801">
        <ele>229.7</ele>
        <time>2021-10-06T15:19:06Z</time>
      </trkpt>
      <trkpt lat="47.65606" lon="6.12807">
        <ele>229.8</ele>
        <time>2021-10-06T15:19:08Z</time>
      </trkpt>
      <trkpt lat="47.6561" lon="6.12813">
        <ele>230</ele>
        <time>2021-10-06T15:19:10Z</time>
      </trkpt>
      <trkpt lat="47.65614" lon="6.12818">
        <ele>230.1</ele>
        <time>2021-10-06T15:19:12Z</time>
      </trkpt>
      <trkpt lat="47.65618" lon="6.12824">
        <ele>230.3</ele>
        <time>2021-10-06T15:19:14Z</time>
      </trkpt>
      <trkpt lat="47.65622" lon="6.12832">
        <ele>230.4</ele>
        <time>2021-10-06T15:19:16Z</time>
      </trkpt>
      <trkpt lat="47.65625" lon="6.12839">
        <ele>230.6</ele>
        <time>2021-10-06T15:19:18Z</time>
      </trkpt>
      <trkpt lat="47.65628" lon="6.12846">
        <ele>230.8</ele>
        <time>2021-10-06T15:19:20Z</time>
      </trkpt>
      <trkpt lat="47.65632" lon="6.12853">
        <ele>231.1</ele>
        <time>2021-10-06T15:19:22Z</time>
      </trkpt>
      <trkpt lat="47.65635" lon="6.12861">
        <ele>231.3</ele>
        <time>2021-10-06T15:19:24Z</time>
      </trkpt>
      <trkpt lat="47.65637" lon="6.12868">
        <ele>231.5</ele>
        <time>2021-10-06T15:19:26Z</time>
      </trkpt>
      <trkpt lat="47.6564" lon="6.12875">
        <ele>231.7</ele>
        <time>2021-10-06T15:19:28Z</time>
      </trkpt>
      <trkpt lat="47.65643" lon="6.12881">
        <ele>231.9</ele>
        <time>2021-10-06T15:19:30Z</time>
      </trkpt>
      <trkpt lat="47.65645" lon="6.12888">
        <ele>232.1</ele>
        <time>2021-10-06T15:19:32Z</time>
      </trkpt>
      <trkpt lat="47.65648" lon="6.12894">
        <ele>232.2</ele>
        <time>2021-10-06T15:19:34Z</time>
      </trkpt>
      <trkpt lat="47.65651" lon="6.129">
        <ele>232.4</ele>
        <time>2021-10-06T15:19:36Z</time>
      </trkpt>
      <trkpt lat="47.65653" lon="6.12907">
        <ele>232.5</ele>
        <time>2021-10-06T15:19:38Z</time>
      </trkpt>
      <trkpt lat="47.65656" lon="6.12914">
        <ele>232.7</ele>
        <time>2021-10-06T15:19:40Z</time>
      </trkpt>
      <trkpt lat="47.65658" lon="6.12921">
        <ele>232.8</ele>
        <time>2021-10-06T15:19:42Z</time>
      </trkpt>
      <trkpt lat="47.6566" lon="6.12928">
        <ele>232.7</ele>
        <time>2021-10-06T15:19:44Z</time>
      </trkpt>
      <trkpt lat="47.65663" lon="6.12934">
        <ele>232.7</ele>
        <time>2021-10-06T15:19:46Z</time>
      </trkpt>
      <trkpt lat="47.65665" lon="6.12941">
        <ele>232.7</ele>
        <time>2021-10-06T15:19:48Z</time>
      </trkpt>
      <trkpt lat="47.65668" lon="6.12948">
        <ele>232.7</ele>
        <time>2021-10-06T15:19:50Z</time>
      </trkpt>
      <trkpt lat="47.6567" lon="6.12954">
        <ele>232.7</ele>
        <time>2021-10-06T15:19:52Z</time>
      </trkpt>
      <trkpt lat="47.65673" lon="6.1296">
        <ele>232.7</ele>
        <time>2021-10-06T15:19:54Z</time>
      </trkpt>
      <trkpt lat="47.65675" lon="6.12967">
        <ele>232.7</ele>
        <time>2021-10-06T15:19:56Z</time>
      </trkpt>
      <trkpt lat="47.65677" lon="6.12974">
        <ele>232.7</ele>
        <time>2021-10-06T15:19:58Z</time>
      </trkpt>
      <trkpt lat="47.65679" lon="6.12981">
        <ele>232.7</ele>
        <time>2021-10-06T15:20:00Z</time>
      </trkpt>
      <trkpt lat="47.65682" lon="6.12988">
        <ele>232.7</ele>
        <time>2021-10-06T15:20:02Z</time>
      </trkpt>
      <trkpt lat="47.65684" lon="6.12995">
        <ele>232.7</ele>
        <time>2021-10-06T15:20:04Z</time>
      </trkpt>
      <trkpt lat="47.65686" lon="6.13002">
        <ele>232.7</ele>
        <time>2021-10-06T15:20:06Z</time>
      </trkpt>
      <trkpt lat="47.65688" lon="6.13009">
        <ele>233</ele>
        <time>2021-10-06T15:20:08Z</time>
      </trkpt>
      <trkpt lat="47.6569" lon="6.13016">
        <ele>233.2</ele>
        <time>2021-10-06T15:20:10Z</time>
      </trkpt>
      <trkpt lat="47.65691" lon="6.13023">
        <ele>233.4</ele>
        <time>2021-10-06T15:20:12Z</time>
      </trkpt>
      <trkpt lat="47.65693" lon="6.13029">
        <ele>233.7</ele>
        <time>2021-10-06T15:20:14Z</time>
      </trkpt>
      <trkpt lat="47.65695" lon="6.13035">
        <ele>233.9</ele>
        <time>2021-10-06T15:20:16Z</time>
      </trkpt>
      <trkpt lat="47.65697" lon="6.13044">
        <ele>234.2</ele>
        <time>2021-10-06T15:20:19Z</time>
      </trkpt>
      <trkpt lat="47.65699" lon="6.13052">
        <ele>234.4</ele>
        <time>2021-10-06T15:20:22Z</time>
      </trkpt>
      <trkpt lat="47.65701" lon="6.13059">
        <ele>234.6</ele>
        <time>2021-10-06T15:20:25Z</time>
      </trkpt>
      <trkpt lat="47.65703" lon="6.13068">
        <ele>234.9</ele>
        <time>2021-10-06T15:20:28Z</time>
      </trkpt>
      <trkpt lat="47.65705" lon="6.13077">
        <ele>235.2</ele>
        <time>2021-10-06T15:20:31Z</time>
      </trkpt>
      <trkpt lat="47.65707" lon="6.13083">
        <ele>235.4</ele>
        <time>2021-10-06T15:20:33Z</time>
      </trkpt>
      <trkpt lat="47.65709" lon="6.13089">
        <ele>235.6</ele>
        <time>2021-10-06T15:20:35Z</time>
      </trkpt>
      <trkpt lat="47.65711" lon="6.13098">
        <ele>235.8</ele>
        <time>2021-10-06T15:20:38Z</time>
      </trkpt>
      <trkpt lat="47.65714" lon="6.13106">
        <ele>235.9</ele>
        <time>2021-10-06T15:20:41Z</time>
      </trkpt>
      <trkpt lat="47.65716" lon="6.13114">
        <ele>236.1</ele>
        <time>2021-10-06T15:20:44Z</time>
      </trkpt>
      <trkpt lat="47.6572" lon="6.13121">
        <ele>236.2</ele>
        <time>2021-10-06T15:20:47Z</time>
      </trkpt>
      <trkpt lat="47.65723" lon="6.13129">
        <ele>236.4</ele>
        <time>2021-10-06T15:20:50Z</time>
      </trkpt>
      <trkpt lat="47.65727" lon="6.13137">
        <ele>236.5</ele>
        <time>2021-10-06T15:20:53Z</time>
      </trkpt>
      <trkpt lat="47.6573" lon="6.13142">
        <ele>236.6</ele>
        <time>2021-10-06T15:20:55Z</time>
      </trkpt>
      <trkpt lat="47.65733" lon="6.13148">
        <ele>236.7</ele>
        <time>2021-10-06T15:20:57Z</time>
      </trkpt>
      <trkpt lat="47.65736" lon="6.13156">
        <ele>236.8</ele>
        <time>2021-10-06T15:21:00Z</time>
      </trkpt>
      <trkpt lat="47.65739" lon="6.13165">
        <ele>236.9</ele>
        <time>2021-10-06T15:21:03Z</time>
      </trkpt>
      <trkpt lat="47.65742" lon="6.13172">
        <ele>236.8</ele>
        <time>2021-10-06T15:21:06Z</time>
      </trkpt>
      <trkpt lat="47.65746" lon="6.13179">
        <ele>236.8</ele>
        <time>2021-10-06T15:21:09Z</time>
      </trkpt>
      <trkpt lat="47.65749" lon="6.13187">
        <ele>236.8</ele>
        <time>2021-10-06T15:21:12Z</time>
      </trkpt>
      <trkpt lat="47.65753" lon="6.13194">
        <ele>236.7</ele>
        <time>2021-10-06T15:21:15Z</time>
      </trkpt>
      <trkpt lat="47.65756" lon="6.13202">
        <ele>236.7</ele>
        <time>2021-10-06T15:21:18Z</time>
      </trkpt>
      <trkpt lat="47.6576" lon="6.13209">
        <ele>236.7</ele>
        <time>2021-10-06T15:21:21Z</time>
      </trkpt>
      <trkpt lat="47.65764" lon="6.13217">
        <ele>236.7</ele>
        <time>2021-10-06T15:21:25Z</time>
      </trkpt>
      <trkpt lat="47.65767" lon="6.13223">
        <ele>236.7</ele>
        <time>2021-10-06T15:22:20Z</time>
      </trkpt>
      <trkpt lat="47.65771" lon="6.1323">
        <ele>236.6</ele>
        <time>2021-10-06T15:22:22Z</time>
      </trkpt>
      <trkpt lat="47.65775" lon="6.13238">
        <ele>236.5</ele>
        <time>2021-10-06T15:22:25Z</time>
      </trkpt>
      <trkpt lat="47.65782" lon="6.13246">
        <ele>236.5</ele>
        <time>2021-10-06T15:22:26Z</time>
      </trkpt>
      <trkpt lat="47.6579" lon="6.13261">
        <ele>235.9</ele>
        <time>2021-10-06T15:22:28Z</time>
      </trkpt>
      <trkpt lat="47.65793" lon="6.13267">
        <ele>235.7</ele>
        <time>2021-10-06T15:22:29Z</time>
      </trkpt>
      <trkpt lat="47.65797" lon="6.13273">
        <ele>235.5</ele>
        <time>2021-10-06T15:22:30Z</time>
      </trkpt>
      <trkpt lat="47.65801" lon="6.13279">
        <ele>235.2</ele>
        <time>2021-10-06T15:22:31Z</time>
      </trkpt>
      <trkpt lat="47.65806" lon="6.13285">
        <ele>235</ele>
        <time>2021-10-06T15:22:32Z</time>
      </trkpt>
      <trkpt lat="47.6581" lon="6.13291">
        <ele>234.8</ele>
        <time>2021-10-06T15:22:33Z</time>
      </trkpt>
      <trkpt lat="47.65815" lon="6.13297">
        <ele>234.5</ele>
        <time>2021-10-06T15:22:34Z</time>
      </trkpt>
      <trkpt lat="47.6582" lon="6.13304">
        <ele>234.3</ele>
        <time>2021-10-06T15:22:35Z</time>
      </trkpt>
      <trkpt lat="47.65825" lon="6.1331">
        <ele>234</ele>
        <time>2021-10-06T15:22:36Z</time>
      </trkpt>
      <trkpt lat="47.65831" lon="6.13317">
        <ele>233.8</ele>
        <time>2021-10-06T15:22:37Z</time>
      </trkpt>
      <trkpt lat="47.65838" lon="6.13323">
        <ele>233.3</ele>
        <time>2021-10-06T15:22:38Z</time>
      </trkpt>
      <trkpt lat="47.65845" lon="6.13329">
        <ele>232.8</ele>
        <time>2021-10-06T15:22:39Z</time>
      </trkpt>
      <trkpt lat="47.65852" lon="6.13334">
        <ele>232.2</ele>
        <time>2021-10-06T15:22:40Z</time>
      </trkpt>
      <trkpt lat="47.6586" lon="6.1334">
        <ele>231.6</ele>
        <time>2021-10-06T15:22:41Z</time>
      </trkpt>
      <trkpt lat="47.65868" lon="6.13345">
        <ele>231</ele>
        <time>2021-10-06T15:22:42Z</time>
      </trkpt>
      <trkpt lat="47.65875" lon="6.1335">
        <ele>230.5</ele>
        <time>2021-10-06T15:22:43Z</time>
      </trkpt>
      <trkpt lat="47.65883" lon="6.13356">
        <ele>229.9</ele>
        <time>2021-10-06T15:22:44Z</time>
      </trkpt>
      <trkpt lat="47.65891" lon="6.13362">
        <ele>229.3</ele>
        <time>2021-10-06T15:22:45Z</time>
      </trkpt>
      <trkpt lat="47.65899" lon="6.13368">
        <ele>228.8</ele>
        <time>2021-10-06T15:22:46Z</time>
      </trkpt>
      <trkpt lat="47.65907" lon="6.13375">
        <ele>228.2</ele>
        <time>2021-10-06T15:22:47Z</time>
      </trkpt>
      <trkpt lat="47.65915" lon="6.13381">
        <ele>227.7</ele>
        <time>2021-10-06T15:22:48Z</time>
      </trkpt>
      <trkpt lat="47.65923" lon="6.13388">
        <ele>227.3</ele>
        <time>2021-10-06T15:22:49Z</time>
      </trkpt>
      <trkpt lat="47.65931" lon="6.13394">
        <ele>226.7</ele>
        <time>2021-10-06T15:22:50Z</time>
      </trkpt>
      <trkpt lat="47.65939" lon="6.13401">
        <ele>226.2</ele>
        <time>2021-10-06T15:22:51Z</time>
      </trkpt>
      <trkpt lat="47.65947" lon="6.13408">
        <ele>225.7</ele>
        <time>2021-10-06T15:22:52Z</time>
      </trkpt>
      <trkpt lat="47.65954" lon="6.13416">
        <ele>225.1</ele>
        <time>2021-10-06T15:22:53Z</time>
      </trkpt>
      <trkpt lat="47.65961" lon="6.13426">
        <ele>224.8</ele>
        <time>2021-10-06T15:22:54Z</time>
      </trkpt>
      <trkpt lat="47.65967" lon="6.13437">
        <ele>224.6</ele>
        <time>2021-10-06T15:22:55Z</time>
      </trkpt>
      <trkpt lat="47.6597" lon="6.13449">
        <ele>224.4</ele>
        <time>2021-10-06T15:22:56Z</time>
      </trkpt>
      <trkpt lat="47.65973" lon="6.13462">
        <ele>224.3</ele>
        <time>2021-10-06T15:22:57Z</time>
      </trkpt>
      <trkpt lat="47.65974" lon="6.13475">
        <ele>224.2</ele>
        <time>2021-10-06T15:22:58Z</time>
      </trkpt>
      <trkpt lat="47.65976" lon="6.13488">
        <ele>224.1</ele>
        <time>2021-10-06T15:22:59Z</time>
      </trkpt>
      <trkpt lat="47.65978" lon="6.13501">
        <ele>224</ele>
        <time>2021-10-06T15:23:00Z</time>
      </trkpt>
      <trkpt lat="47.6598" lon="6.13514">
        <ele>224</ele>
        <time>2021-10-06T15:23:01Z</time>
      </trkpt>
      <trkpt lat="47.65984" lon="6.13526">
        <ele>223.9</ele>
        <time>2021-10-06T15:23:02Z</time>
      </trkpt>
      <trkpt lat="47.65989" lon="6.13537">
        <ele>223.9</ele>
        <time>2021-10-06T15:23:03Z</time>
      </trkpt>
      <trkpt lat="47.65995" lon="6.13546">
        <ele>224</ele>
        <time>2021-10-06T15:23:04Z</time>
      </trkpt>
      <trkpt lat="47.66002" lon="6.13554">
        <ele>223.9</ele>
        <time>2021-10-06T15:23:05Z</time>
      </trkpt>
      <trkpt lat="47.6601" lon="6.13561">
        <ele>223.7</ele>
        <time>2021-10-06T15:23:06Z</time>
      </trkpt>
      <trkpt lat="47.66017" lon="6.13568">
        <ele>223.6</ele>
        <time>2021-10-06T15:23:07Z</time>
      </trkpt>
      <trkpt lat="47.66024" lon="6.13576">
        <ele>223.4</ele>
        <time>2021-10-06T15:23:08Z</time>
      </trkpt>
      <trkpt lat="47.66032" lon="6.13582">
        <ele>223.2</ele>
        <time>2021-10-06T15:23:09Z</time>
      </trkpt>
      <trkpt lat="47.66039" lon="6.13589">
        <ele>223.1</ele>
        <time>2021-10-06T15:23:10Z</time>
      </trkpt>
      <trkpt lat="47.66046" lon="6.13595">
        <ele>222.9</ele>
        <time>2021-10-06T15:23:11Z</time>
      </trkpt>
      <trkpt lat="47.66053" lon="6.13602">
        <ele>222.7</ele>
        <time>2021-10-06T15:23:12Z</time>
      </trkpt>
      <trkpt lat="47.66059" lon="6.13608">
        <ele>222.6</ele>
        <time>2021-10-06T15:23:13Z</time>
      </trkpt>
      <trkpt lat="47.66066" lon="6.13614">
        <ele>222.4</ele>
        <time>2021-10-06T15:23:14Z</time>
      </trkpt>
      <trkpt lat="47.66072" lon="6.1362">
        <ele>222.3</ele>
        <time>2021-10-06T15:23:15Z</time>
      </trkpt>
      <trkpt lat="47.66078" lon="6.13626">
        <ele>222.1</ele>
        <time>2021-10-06T15:23:16Z</time>
      </trkpt>
      <trkpt lat="47.66083" lon="6.13632">
        <ele>222</ele>
        <time>2021-10-06T15:23:17Z</time>
      </trkpt>
      <trkpt lat="47.66088" lon="6.13639">
        <ele>222</ele>
        <time>2021-10-06T15:23:18Z</time>
      </trkpt>
      <trkpt lat="47.66094" lon="6.13644">
        <ele>222.1</ele>
        <time>2021-10-06T15:23:19Z</time>
      </trkpt>
      <trkpt lat="47.66099" lon="6.1365">
        <ele>222.1</ele>
        <time>2021-10-06T15:23:20Z</time>
      </trkpt>
      <trkpt lat="47.66104" lon="6.13656">
        <ele>222.2</ele>
        <time>2021-10-06T15:23:21Z</time>
      </trkpt>
      <trkpt lat="47.66108" lon="6.13662">
        <ele>222.3</ele>
        <time>2021-10-06T15:23:22Z</time>
      </trkpt>
      <trkpt lat="47.66112" lon="6.13668">
        <ele>222.4</ele>
        <time>2021-10-06T15:23:23Z</time>
      </trkpt>
      <trkpt lat="47.66116" lon="6.13675">
        <ele>222.5</ele>
        <time>2021-10-06T15:23:24Z</time>
      </trkpt>
      <trkpt lat="47.66119" lon="6.13682">
        <ele>222.6</ele>
        <time>2021-10-06T15:23:25Z</time>
      </trkpt>
      <trkpt lat="47.66122" lon="6.13689">
        <ele>222.7</ele>
        <time>2021-10-06T15:23:26Z</time>
      </trkpt>
      <trkpt lat="47.66125" lon="6.13696">
        <ele>222.9</ele>
        <time>2021-10-06T15:23:27Z</time>
      </trkpt>
      <trkpt lat="47.66127" lon="6.13703">
        <ele>223</ele>
        <time>2021-10-06T15:23:28Z</time>
      </trkpt>
      <trkpt lat="47.66129" lon="6.1371">
        <ele>223.1</ele>
        <time>2021-10-06T15:23:29Z</time>
      </trkpt>
      <trkpt lat="47.66131" lon="6.13717">
        <ele>223.3</ele>
        <time>2021-10-06T15:23:30Z</time>
      </trkpt>
      <trkpt lat="47.66133" lon="6.13725">
        <ele>223.4</ele>
        <time>2021-10-06T15:23:31Z</time>
      </trkpt>
      <trkpt lat="47.66134" lon="6.13732">
        <ele>223.6</ele>
        <time>2021-10-06T15:23:32Z</time>
      </trkpt>
      <trkpt lat="47.66136" lon="6.13739">
        <ele>223.7</ele>
        <time>2021-10-06T15:23:33Z</time>
      </trkpt>
      <trkpt lat="47.66137" lon="6.13746">
        <ele>223.9</ele>
        <time>2021-10-06T15:23:34Z</time>
      </trkpt>
      <trkpt lat="47.66138" lon="6.13753">
        <ele>224</ele>
        <time>2021-10-06T15:23:35Z</time>
      </trkpt>
      <trkpt lat="47.6614" lon="6.1376">
        <ele>224.3</ele>
        <time>2021-10-06T15:23:36Z</time>
      </trkpt>
      <trkpt lat="47.66141" lon="6.13766">
        <ele>224.5</ele>
        <time>2021-10-06T15:23:37Z</time>
      </trkpt>
      <trkpt lat="47.66143" lon="6.13773">
        <ele>224.7</ele>
        <time>2021-10-06T15:23:38Z</time>
      </trkpt>
      <trkpt lat="47.66145" lon="6.13783">
        <ele>225</ele>
        <time>2021-10-06T15:23:40Z</time>
      </trkpt>
      <trkpt lat="47.66148" lon="6.13794">
        <ele>225.4</ele>
        <time>2021-10-06T15:23:42Z</time>
      </trkpt>
      <trkpt lat="47.6615" lon="6.13803">
        <ele>225.7</ele>
        <time>2021-10-06T15:23:44Z</time>
      </trkpt>
      <trkpt lat="47.66151" lon="6.13811">
        <ele>225.9</ele>
        <time>2021-10-06T15:23:46Z</time>
      </trkpt>
      <trkpt lat="47.66153" lon="6.13818">
        <ele>226.1</ele>
        <time>2021-10-06T15:23:48Z</time>
      </trkpt>
      <trkpt lat="47.66156" lon="6.13825">
        <ele>226.4</ele>
        <time>2021-10-06T15:23:50Z</time>
      </trkpt>
      <trkpt lat="47.66157" lon="6.13832">
        <ele>226.6</ele>
        <time>2021-10-06T15:23:53Z</time>
      </trkpt>
      <trkpt lat="47.6616" lon="6.13839">
        <ele>226.8</ele>
        <time>2021-10-06T15:23:55Z</time>
      </trkpt>
      <trkpt lat="47.66164" lon="6.13846">
        <ele>227</ele>
        <time>2021-10-06T15:23:57Z</time>
      </trkpt>
      <trkpt lat="47.66166" lon="6.13852">
        <ele>227.2</ele>
        <time>2021-10-06T15:23:59Z</time>
      </trkpt>
      <trkpt lat="47.6617" lon="6.13859">
        <ele>227.4</ele>
        <time>2021-10-06T15:24:01Z</time>
      </trkpt>
      <trkpt lat="47.66173" lon="6.13864">
        <ele>227.5</ele>
        <time>2021-10-06T15:24:03Z</time>
      </trkpt>
      <trkpt lat="47.66177" lon="6.13869">
        <ele>227.7</ele>
        <time>2021-10-06T15:24:05Z</time>
      </trkpt>
      <trkpt lat="47.66181" lon="6.13876">
        <ele>227.9</ele>
        <time>2021-10-06T15:24:05Z</time>
      </trkpt>
      <trkpt lat="47.66185" lon="6.13884">
        <ele>228</ele>
        <time>2021-10-06T15:24:10Z</time>
      </trkpt>
      <trkpt lat="47.66188" lon="6.13889">
        <ele>228.2</ele>
        <time>2021-10-06T15:24:12Z</time>
      </trkpt>
      <trkpt lat="47.66193" lon="6.13897">
        <ele>228.4</ele>
        <time>2021-10-06T15:24:15Z</time>
      </trkpt>
      <trkpt lat="47.66196" lon="6.13904">
        <ele>228.6</ele>
        <time>2021-10-06T15:24:17Z</time>
      </trkpt>
      <trkpt lat="47.66199" lon="6.1391">
        <ele>228.7</ele>
        <time>2021-10-06T15:24:19Z</time>
      </trkpt>
      <trkpt lat="47.66202" lon="6.13916">
        <ele>228.8</ele>
        <time>2021-10-06T15:24:21Z</time>
      </trkpt>
      <trkpt lat="47.66206" lon="6.13922">
        <ele>229</ele>
        <time>2021-10-06T15:24:23Z</time>
      </trkpt>
      <trkpt lat="47.66209" lon="6.13929">
        <ele>229.2</ele>
        <time>2021-10-06T15:24:25Z</time>
      </trkpt>
      <trkpt lat="47.66212" lon="6.13934">
        <ele>229.4</ele>
        <time>2021-10-06T15:24:27Z</time>
      </trkpt>
      <trkpt lat="47.66215" lon="6.13942">
        <ele>229.6</ele>
        <time>2021-10-06T15:24:27Z</time>
      </trkpt>
      <trkpt lat="47.66218" lon="6.13947">
        <ele>229.8</ele>
        <time>2021-10-06T15:24:29Z</time>
      </trkpt>
      <trkpt lat="47.66221" lon="6.13954">
        <ele>230</ele>
        <time>2021-10-06T15:24:31Z</time>
      </trkpt>
      <trkpt lat="47.66224" lon="6.13961">
        <ele>230.3</ele>
        <time>2021-10-06T15:24:36Z</time>
      </trkpt>
      <trkpt lat="47.66227" lon="6.13969">
        <ele>230.5</ele>
        <time>2021-10-06T15:24:36Z</time>
      </trkpt>
      <trkpt lat="47.6623" lon="6.13976">
        <ele>230.8</ele>
        <time>2021-10-06T15:24:41Z</time>
      </trkpt>
      <trkpt lat="47.66232" lon="6.13982">
        <ele>231</ele>
        <time>2021-10-06T15:24:41Z</time>
      </trkpt>
      <trkpt lat="47.66235" lon="6.13988">
        <ele>231.2</ele>
        <time>2021-10-06T15:24:43Z</time>
      </trkpt>
      <trkpt lat="47.66238" lon="6.13995">
        <ele>231.5</ele>
        <time>2021-10-06T15:24:46Z</time>
      </trkpt>
      <trkpt lat="47.66241" lon="6.14003">
        <ele>231.7</ele>
        <time>2021-10-06T15:24:51Z</time>
      </trkpt>
      <trkpt lat="47.66245" lon="6.14009">
        <ele>231.8</ele>
        <time>2021-10-06T15:24:54Z</time>
      </trkpt>
      <trkpt lat="47.66248" lon="6.14015">
        <ele>231.9</ele>
        <time>2021-10-06T15:24:56Z</time>
      </trkpt>
      <trkpt lat="47.66252" lon="6.1402">
        <ele>232.1</ele>
        <time>2021-10-06T15:24:58Z</time>
      </trkpt>
      <trkpt lat="47.66256" lon="6.14028">
        <ele>232.3</ele>
        <time>2021-10-06T15:25:01Z</time>
      </trkpt>
      <trkpt lat="47.66261" lon="6.14035">
        <ele>232.5</ele>
        <time>2021-10-06T15:25:04Z</time>
      </trkpt>
      <trkpt lat="47.66264" lon="6.14041">
        <ele>232.7</ele>
        <time>2021-10-06T15:25:04Z</time>
      </trkpt>
      <trkpt lat="47.66267" lon="6.14046">
        <ele>232.9</ele>
        <time>2021-10-06T15:25:06Z</time>
      </trkpt>
      <trkpt lat="47.66271" lon="6.14051">
        <ele>233.1</ele>
        <time>2021-10-06T15:25:08Z</time>
      </trkpt>
      <trkpt lat="47.66274" lon="6.14056">
        <ele>233.3</ele>
        <time>2021-10-06T15:25:10Z</time>
      </trkpt>
      <trkpt lat="47.66277" lon="6.14062">
        <ele>233.5</ele>
        <time>2021-10-06T15:25:12Z</time>
      </trkpt>
      <trkpt lat="47.6628" lon="6.14068">
        <ele>233.7</ele>
        <time>2021-10-06T15:25:14Z</time>
      </trkpt>
      <trkpt lat="47.66284" lon="6.14073">
        <ele>233.9</ele>
        <time>2021-10-06T15:25:18Z</time>
      </trkpt>
      <trkpt lat="47.66288" lon="6.14079">
        <ele>234.2</ele>
        <time>2021-10-06T15:25:18Z</time>
      </trkpt>
      <trkpt lat="47.66293" lon="6.14087">
        <ele>234.6</ele>
        <time>2021-10-06T15:25:21Z</time>
      </trkpt>
      <trkpt lat="47.66297" lon="6.14093">
        <ele>234.9</ele>
        <time>2021-10-06T15:25:23Z</time>
      </trkpt>
      <trkpt lat="47.66301" lon="6.14098">
        <ele>235.1</ele>
        <time>2021-10-06T15:25:27Z</time>
      </trkpt>
      <trkpt lat="47.66304" lon="6.14104">
        <ele>235.3</ele>
        <time>2021-10-06T15:25:29Z</time>
      </trkpt>
      <trkpt lat="47.66308" lon="6.14109">
        <ele>235.6</ele>
        <time>2021-10-06T15:25:31Z</time>
      </trkpt>
      <trkpt lat="47.66312" lon="6.14114">
        <ele>235.8</ele>
        <time>2021-10-06T15:25:33Z</time>
      </trkpt>
      <trkpt lat="47.66316" lon="6.1412">
        <ele>236.1</ele>
        <time>2021-10-06T15:25:35Z</time>
      </trkpt>
      <trkpt lat="47.6632" lon="6.14125">
        <ele>236.3</ele>
        <time>2021-10-06T15:25:37Z</time>
      </trkpt>
      <trkpt lat="47.66325" lon="6.14131">
        <ele>236.5</ele>
        <time>2021-10-06T15:25:37Z</time>
      </trkpt>
      <trkpt lat="47.66329" lon="6.14136">
        <ele>236.8</ele>
        <time>2021-10-06T15:25:42Z</time>
      </trkpt>
      <trkpt lat="47.66334" lon="6.14141">
        <ele>237</ele>
        <time>2021-10-06T15:25:44Z</time>
      </trkpt>
      <trkpt lat="47.66338" lon="6.14144">
        <ele>237.2</ele>
        <time>2021-10-06T15:25:46Z</time>
      </trkpt>
      <trkpt lat="47.66343" lon="6.14148">
        <ele>237.4</ele>
        <time>2021-10-06T15:25:46Z</time>
      </trkpt>
      <trkpt lat="47.66346" lon="6.14155">
        <ele>237.6</ele>
        <time>2021-10-06T15:25:51Z</time>
      </trkpt>
      <trkpt lat="47.6635" lon="6.14159">
        <ele>237.8</ele>
        <time>2021-10-06T15:25:51Z</time>
      </trkpt>
      <trkpt lat="47.66355" lon="6.14165">
        <ele>238</ele>
        <time>2021-10-06T15:25:54Z</time>
      </trkpt>
      <trkpt lat="47.66358" lon="6.14171">
        <ele>238.2</ele>
        <time>2021-10-06T15:25:57Z</time>
      </trkpt>
      <trkpt lat="47.66361" lon="6.14176">
        <ele>238.3</ele>
        <time>2021-10-06T15:26:00Z</time>
      </trkpt>
      <trkpt lat="47.66365" lon="6.14181">
        <ele>238.5</ele>
        <time>2021-10-06T15:26:03Z</time>
      </trkpt>
      <trkpt lat="47.6637" lon="6.14189">
        <ele>238.8</ele>
        <time>2021-10-06T15:26:07Z</time>
      </trkpt>
      <trkpt lat="47.66373" lon="6.14195">
        <ele>239</ele>
        <time>2021-10-06T15:26:10Z</time>
      </trkpt>
      <trkpt lat="47.66376" lon="6.14201">
        <ele>239.3</ele>
        <time>2021-10-06T15:26:15Z</time>
      </trkpt>
      <trkpt lat="47.6638" lon="6.14207">
        <ele>239.6</ele>
        <time>2021-10-06T15:26:16Z</time>
      </trkpt>
      <trkpt lat="47.66384" lon="6.14213">
        <ele>240</ele>
        <time>2021-10-06T15:26:19Z</time>
      </trkpt>
      <trkpt lat="47.66387" lon="6.14219">
        <ele>240.3</ele>
        <time>2021-10-06T15:26:22Z</time>
      </trkpt>
      <trkpt lat="47.6639" lon="6.14225">
        <ele>240.7</ele>
        <time>2021-10-06T15:26:27Z</time>
      </trkpt>
      <trkpt lat="47.66394" lon="6.14231">
        <ele>241.2</ele>
        <time>2021-10-06T15:26:30Z</time>
      </trkpt>
      <trkpt lat="47.66397" lon="6.14236">
        <ele>241.6</ele>
        <time>2021-10-06T15:26:33Z</time>
      </trkpt>
      <trkpt lat="47.66401" lon="6.14241">
        <ele>242.1</ele>
        <time>2021-10-06T15:26:34Z</time>
      </trkpt>
      <trkpt lat="47.66405" lon="6.14246">
        <ele>242.6</ele>
        <time>2021-10-06T15:26:39Z</time>
      </trkpt>
      <trkpt lat="47.66409" lon="6.14252">
        <ele>243.2</ele>
        <time>2021-10-06T15:26:40Z</time>
      </trkpt>
      <trkpt lat="47.66412" lon="6.14257">
        <ele>243.7</ele>
        <time>2021-10-06T15:26:43Z</time>
      </trkpt>
      <trkpt lat="47.66416" lon="6.14261">
        <ele>244.2</ele>
        <time>2021-10-06T15:26:46Z</time>
      </trkpt>
      <trkpt lat="47.66419" lon="6.14266">
        <ele>244.6</ele>
        <time>2021-10-06T15:26:49Z</time>
      </trkpt>
      <trkpt lat="47.66422" lon="6.14271">
        <ele>245</ele>
        <time>2021-10-06T15:26:52Z</time>
      </trkpt>
      <trkpt lat="47.66426" lon="6.14277">
        <ele>245.6</ele>
        <time>2021-10-06T15:26:58Z</time>
      </trkpt>
      <trkpt lat="47.6643" lon="6.14282">
        <ele>246</ele>
        <time>2021-10-06T15:26:59Z</time>
      </trkpt>
      <trkpt lat="47.66433" lon="6.14288">
        <ele>246.5</ele>
        <time>2021-10-06T15:27:03Z</time>
      </trkpt>
      <trkpt lat="47.66437" lon="6.14294">
        <ele>247</ele>
        <time>2021-10-06T15:27:07Z</time>
      </trkpt>
      <trkpt lat="47.66441" lon="6.143">
        <ele>247.6</ele>
        <time>2021-10-06T15:27:11Z</time>
      </trkpt>
      <trkpt lat="47.66445" lon="6.14305">
        <ele>248</ele>
        <time>2021-10-06T15:27:18Z</time>
      </trkpt>
      <trkpt lat="47.66449" lon="6.14311">
        <ele>248.6</ele>
        <time>2021-10-06T15:27:20Z</time>
      </trkpt>
      <trkpt lat="47.66453" lon="6.14317">
        <ele>249.1</ele>
        <time>2021-10-06T15:27:26Z</time>
      </trkpt>
      <trkpt lat="47.66456" lon="6.14322">
        <ele>249.5</ele>
        <time>2021-10-06T15:27:26Z</time>
      </trkpt>
      <trkpt lat="47.66459" lon="6.14328">
        <ele>250</ele>
        <time>2021-10-06T15:27:31Z</time>
      </trkpt>
      <trkpt lat="47.66463" lon="6.14332">
        <ele>250.4</ele>
        <time>2021-10-06T15:27:31Z</time>
      </trkpt>
      <trkpt lat="47.66466" lon="6.14337">
        <ele>250.7</ele>
        <time>2021-10-06T15:27:34Z</time>
      </trkpt>
      <trkpt lat="47.66471" lon="6.14343">
        <ele>251</ele>
        <time>2021-10-06T15:27:38Z</time>
      </trkpt>
      <trkpt lat="47.66474" lon="6.14348">
        <ele>251.3</ele>
        <time>2021-10-06T15:27:42Z</time>
      </trkpt>
      <trkpt lat="47.66478" lon="6.14355">
        <ele>251.5</ele>
        <time>2021-10-06T15:27:46Z</time>
      </trkpt>
      <trkpt lat="47.66482" lon="6.14361">
        <ele>251.7</ele>
        <time>2021-10-06T15:27:50Z</time>
      </trkpt>
      <trkpt lat="47.66485" lon="6.14366">
        <ele>251.9</ele>
        <time>2021-10-06T15:27:56Z</time>
      </trkpt>
      <trkpt lat="47.6649" lon="6.14372">
        <ele>252.2</ele>
        <time>2021-10-06T15:27:58Z</time>
      </trkpt>
      <trkpt lat="47.66494" lon="6.14377">
        <ele>252.5</ele>
        <time>2021-10-06T15:28:02Z</time>
      </trkpt>
      <trkpt lat="47.66498" lon="6.14382">
        <ele>252.7</ele>
        <time>2021-10-06T15:28:06Z</time>
      </trkpt>
      <trkpt lat="47.66502" lon="6.14388">
        <ele>252.7</ele>
        <time>2021-10-06T15:28:10Z</time>
      </trkpt>
      <trkpt lat="47.66506" lon="6.14393">
        <ele>252.8</ele>
        <time>2021-10-06T15:28:15Z</time>
      </trkpt>
      <trkpt lat="47.6651" lon="6.14397">
        <ele>252.8</ele>
        <time>2021-10-06T15:28:18Z</time>
      </trkpt>
      <trkpt lat="47.66513" lon="6.14403">
        <ele>252.8</ele>
        <time>2021-10-06T15:28:21Z</time>
      </trkpt>
      <trkpt lat="47.66517" lon="6.14408">
        <ele>252.8</ele>
        <time>2021-10-06T15:28:22Z</time>
      </trkpt>
      <trkpt lat="47.66522" lon="6.14414">
        <ele>252.8</ele>
        <time>2021-10-06T15:28:26Z</time>
      </trkpt>
      <trkpt lat="47.66526" lon="6.1442">
        <ele>252.9</ele>
        <time>2021-10-06T15:28:30Z</time>
      </trkpt>
      <trkpt lat="47.66529" lon="6.14428">
        <ele>253.1</ele>
        <time>2021-10-06T15:28:34Z</time>
      </trkpt>
      <trkpt lat="47.66532" lon="6.14434">
        <ele>253.2</ele>
        <time>2021-10-06T15:28:37Z</time>
      </trkpt>
      <trkpt lat="47.66535" lon="6.14441">
        <ele>253.4</ele>
        <time>2021-10-06T15:28:40Z</time>
      </trkpt>
      <trkpt lat="47.66538" lon="6.14448">
        <ele>253.5</ele>
        <time>2021-10-06T15:28:45Z</time>
      </trkpt>
      <trkpt lat="47.66541" lon="6.14454">
        <ele>253.7</ele>
        <time>2021-10-06T15:28:48Z</time>
      </trkpt>
      <trkpt lat="47.66544" lon="6.14459">
        <ele>253.9</ele>
        <time>2021-10-06T15:28:48Z</time>
      </trkpt>
      <trkpt lat="47.66547" lon="6.14465">
        <ele>254</ele>
        <time>2021-10-06T15:28:53Z</time>
      </trkpt>
      <trkpt lat="47.66551" lon="6.14474">
        <ele>254.3</ele>
        <time>2021-10-06T15:28:54Z</time>
      </trkpt>
      <trkpt lat="47.66554" lon="6.14481">
        <ele>254.5</ele>
        <time>2021-10-06T15:28:56Z</time>
      </trkpt>
      <trkpt lat="47.66558" lon="6.14487">
        <ele>254.7</ele>
        <time>2021-10-06T15:29:00Z</time>
      </trkpt>
      <trkpt lat="47.66562" lon="6.14497">
        <ele>255</ele>
        <time>2021-10-06T15:29:00Z</time>
      </trkpt>
      <trkpt lat="47.66566" lon="6.14505">
        <ele>255</ele>
        <time>2021-10-06T15:29:02Z</time>
      </trkpt>
      <trkpt lat="47.6657" lon="6.14513">
        <ele>255</ele>
        <time>2021-10-06T15:29:04Z</time>
      </trkpt>
      <trkpt lat="47.66573" lon="6.14522">
        <ele>254.9</ele>
        <time>2021-10-06T15:29:06Z</time>
      </trkpt>
      <trkpt lat="47.66576" lon="6.14532">
        <ele>254.8</ele>
        <time>2021-10-06T15:29:08Z</time>
      </trkpt>
      <trkpt lat="47.66577" lon="6.14541">
        <ele>254.7</ele>
        <time>2021-10-06T15:29:12Z</time>
      </trkpt>
      <trkpt lat="47.66578" lon="6.14548">
        <ele>254.5</ele>
        <time>2021-10-06T15:29:13Z</time>
      </trkpt>
      <trkpt lat="47.6658" lon="6.1457">
        <ele>254.1</ele>
        <time>2021-10-06T15:29:16Z</time>
      </trkpt>
      <trkpt lat="47.66583" lon="6.14587">
        <ele>253.9</ele>
        <time>2021-10-06T15:29:16Z</time>
      </trkpt>
      <trkpt lat="47.66584" lon="6.14594">
        <ele>253.9</ele>
        <time>2021-10-06T15:29:17Z</time>
      </trkpt>
      <trkpt lat="47.66584" lon="6.14605">
        <ele>253.8</ele>
        <time>2021-10-06T15:29:21Z</time>
      </trkpt>
      <trkpt lat="47.66586" lon="6.14615">
        <ele>253.7</ele>
        <time>2021-10-06T15:29:22Z</time>
      </trkpt>
      <trkpt lat="47.66587" lon="6.14639">
        <ele>253.4</ele>
        <time>2021-10-06T15:29:25Z</time>
      </trkpt>
      <trkpt lat="47.66588" lon="6.14647">
        <ele>253.3</ele>
        <time>2021-10-06T15:29:26Z</time>
      </trkpt>
      <trkpt lat="47.6659" lon="6.14659">
        <ele>253.2</ele>
        <time>2021-10-06T15:29:28Z</time>
      </trkpt>
      <trkpt lat="47.66592" lon="6.1467">
        <ele>253.3</ele>
        <time>2021-10-06T15:29:30Z</time>
      </trkpt>
      <trkpt lat="47.66594" lon="6.14678">
        <ele>253.4</ele>
        <time>2021-10-06T15:29:31Z</time>
      </trkpt>
      <trkpt lat="47.66598" lon="6.14687">
        <ele>253.6</ele>
        <time>2021-10-06T15:29:33Z</time>
      </trkpt>
      <trkpt lat="47.66605" lon="6.14701">
        <ele>254</ele>
        <time>2021-10-06T15:29:36Z</time>
      </trkpt>
      <trkpt lat="47.66609" lon="6.14707">
        <ele>254.2</ele>
        <time>2021-10-06T15:29:37Z</time>
      </trkpt>
      <trkpt lat="47.66614" lon="6.14714">
        <ele>254.5</ele>
        <time>2021-10-06T15:29:37Z</time>
      </trkpt>
      <trkpt lat="47.66619" lon="6.14719">
        <ele>254.7</ele>
        <time>2021-10-06T15:29:41Z</time>
      </trkpt>
      <trkpt lat="47.66624" lon="6.14725">
        <ele>255</ele>
        <time>2021-10-06T15:29:43Z</time>
      </trkpt>
      <trkpt lat="47.66628" lon="6.1473">
        <ele>255.2</ele>
        <time>2021-10-06T15:29:43Z</time>
      </trkpt>
      <trkpt lat="47.66633" lon="6.14735">
        <ele>255.5</ele>
        <time>2021-10-06T15:29:45Z</time>
      </trkpt>
      <trkpt lat="47.66637" lon="6.1474">
        <ele>255.7</ele>
        <time>2021-10-06T15:29:50Z</time>
      </trkpt>
      <trkpt lat="47.66643" lon="6.14745">
        <ele>256</ele>
        <time>2021-10-06T15:29:52Z</time>
      </trkpt>
      <trkpt lat="47.66648" lon="6.1475">
        <ele>256.3</ele>
        <time>2021-10-06T15:29:55Z</time>
      </trkpt>
      <trkpt lat="47.66653" lon="6.14758">
        <ele>256.3</ele>
        <time>2021-10-06T15:29:58Z</time>
      </trkpt>
      <trkpt lat="47.66657" lon="6.14763">
        <ele>256.3</ele>
        <time>2021-10-06T15:29:58Z</time>
      </trkpt>
      <trkpt lat="47.66663" lon="6.1477">
        <ele>256.4</ele>
        <time>2021-10-06T15:30:01Z</time>
      </trkpt>
      <trkpt lat="47.66667" lon="6.14775">
        <ele>256.4</ele>
        <time>2021-10-06T15:30:03Z</time>
      </trkpt>
      <trkpt lat="47.66673" lon="6.14781">
        <ele>256.4</ele>
        <time>2021-10-06T15:30:06Z</time>
      </trkpt>
      <trkpt lat="47.66677" lon="6.14784">
        <ele>256.4</ele>
        <time>2021-10-06T15:30:08Z</time>
      </trkpt>
      <trkpt lat="47.66682" lon="6.14789">
        <ele>256.4</ele>
        <time>2021-10-06T15:30:13Z</time>
      </trkpt>
      <trkpt lat="47.66688" lon="6.14794">
        <ele>256.5</ele>
        <time>2021-10-06T15:30:15Z</time>
      </trkpt>
      <trkpt lat="47.66692" lon="6.14798">
        <ele>256.5</ele>
        <time>2021-10-06T15:30:17Z</time>
      </trkpt>
      <trkpt lat="47.66698" lon="6.14804">
        <ele>256.4</ele>
        <time>2021-10-06T15:30:19Z</time>
      </trkpt>
      <trkpt lat="47.66702" lon="6.14807">
        <ele>256.5</ele>
        <time>2021-10-06T15:30:21Z</time>
      </trkpt>
      <trkpt lat="47.66707" lon="6.14812">
        <ele>256.5</ele>
        <time>2021-10-06T15:30:23Z</time>
      </trkpt>
      <trkpt lat="47.66712" lon="6.14816">
        <ele>256.5</ele>
        <time>2021-10-06T15:30:25Z</time>
      </trkpt>
      <trkpt lat="47.66717" lon="6.1482">
        <ele>256.5</ele>
        <time>2021-10-06T15:30:27Z</time>
      </trkpt>
      <trkpt lat="47.66722" lon="6.14825">
        <ele>256.5</ele>
        <time>2021-10-06T15:30:27Z</time>
      </trkpt>
      <trkpt lat="47.66727" lon="6.1483">
        <ele>256.5</ele>
        <time>2021-10-06T15:30:31Z</time>
      </trkpt>
      <trkpt lat="47.6673" lon="6.14834">
        <ele>256.5</ele>
        <time>2021-10-06T15:30:33Z</time>
      </trkpt>
      <trkpt lat="47.66735" lon="6.14838">
        <ele>256.6</ele>
        <time>2021-10-06T15:30:35Z</time>
      </trkpt>
      <trkpt lat="47.66739" lon="6.14843">
        <ele>256.7</ele>
        <time>2021-10-06T15:30:37Z</time>
      </trkpt>
      <trkpt lat="47.66743" lon="6.14849">
        <ele>256.8</ele>
        <time>2021-10-06T15:30:37Z</time>
      </trkpt>
      <trkpt lat="47.66747" lon="6.14853">
        <ele>256.9</ele>
        <time>2021-10-06T15:30:41Z</time>
      </trkpt>
      <trkpt lat="47.66752" lon="6.14859">
        <ele>257</ele>
        <time>2021-10-06T15:30:41Z</time>
      </trkpt>
      <trkpt lat="47.66756" lon="6.14865">
        <ele>257.2</ele>
        <time>2021-10-06T15:30:46Z</time>
      </trkpt>
      <trkpt lat="47.66761" lon="6.14871">
        <ele>257.3</ele>
        <time>2021-10-06T15:30:46Z</time>
      </trkpt>
      <trkpt lat="47.66766" lon="6.14876">
        <ele>257.5</ele>
        <time>2021-10-06T15:30:50Z</time>
      </trkpt>
      <trkpt lat="47.66771" lon="6.14881">
        <ele>257.6</ele>
        <time>2021-10-06T15:30:52Z</time>
      </trkpt>
      <trkpt lat="47.66776" lon="6.14888">
        <ele>257.7</ele>
        <time>2021-10-06T15:30:54Z</time>
      </trkpt>
      <trkpt lat="47.66781" lon="6.14895">
        <ele>257.9</ele>
        <time>2021-10-06T15:30:54Z</time>
      </trkpt>
      <trkpt lat="47.66789" lon="6.14905">
        <ele>258</ele>
        <time>2021-10-06T15:30:59Z</time>
      </trkpt>
      <trkpt lat="47.66792" lon="6.14909">
        <ele>258.1</ele>
        <time>2021-10-06T15:31:02Z</time>
      </trkpt>
      <trkpt lat="47.66796" lon="6.14914">
        <ele>258.1</ele>
        <time>2021-10-06T15:31:03Z</time>
      </trkpt>
      <trkpt lat="47.66801" lon="6.1492">
        <ele>258.2</ele>
        <time>2021-10-06T15:31:04Z</time>
      </trkpt>
      <trkpt lat="47.6681" lon="6.14934">
        <ele>258.5</ele>
        <time>2021-10-06T15:31:05Z</time>
      </trkpt>
      <trkpt lat="47.66815" lon="6.1494">
        <ele>258.6</ele>
        <time>2021-10-06T15:31:07Z</time>
      </trkpt>
      <trkpt lat="47.6682" lon="6.14947">
        <ele>258.7</ele>
        <time>2021-10-06T15:31:09Z</time>
      </trkpt>
      <trkpt lat="47.66826" lon="6.14953">
        <ele>258.8</ele>
        <time>2021-10-06T15:31:11Z</time>
      </trkpt>
      <trkpt lat="47.66831" lon="6.1496">
        <ele>258.9</ele>
        <time>2021-10-06T15:31:13Z</time>
      </trkpt>
      <trkpt lat="47.66835" lon="6.14966">
        <ele>259</ele>
        <time>2021-10-06T15:31:17Z</time>
      </trkpt>
      <trkpt lat="47.66839" lon="6.14972">
        <ele>259.1</ele>
        <time>2021-10-06T15:31:19Z</time>
      </trkpt>
      <trkpt lat="47.66843" lon="6.14978">
        <ele>259.2</ele>
        <time>2021-10-06T15:31:20Z</time>
      </trkpt>
      <trkpt lat="47.66849" lon="6.14985">
        <ele>259.3</ele>
        <time>2021-10-06T15:31:20Z</time>
      </trkpt>
      <trkpt lat="47.66854" lon="6.14993">
        <ele>259.4</ele>
        <time>2021-10-06T15:31:22Z</time>
      </trkpt>
      <trkpt lat="47.66858" lon="6.14999">
        <ele>259.6</ele>
        <time>2021-10-06T15:31:26Z</time>
      </trkpt>
      <trkpt lat="47.66863" lon="6.15006">
        <ele>259.8</ele>
        <time>2021-10-06T15:31:28Z</time>
      </trkpt>
      <trkpt lat="47.66867" lon="6.15011">
        <ele>259.9</ele>
        <time>2021-10-06T15:31:30Z</time>
      </trkpt>
      <trkpt lat="47.66875" lon="6.15022">
        <ele>260.3</ele>
        <time>2021-10-06T15:31:33Z</time>
      </trkpt>
      <trkpt lat="47.6688" lon="6.1503">
        <ele>260.5</ele>
        <time>2021-10-06T15:31:35Z</time>
      </trkpt>
      <trkpt lat="47.66884" lon="6.15035">
        <ele>260.6</ele>
        <time>2021-10-06T15:31:37Z</time>
      </trkpt>
      <trkpt lat="47.66889" lon="6.15042">
        <ele>260.9</ele>
        <time>2021-10-06T15:31:37Z</time>
      </trkpt>
      <trkpt lat="47.66894" lon="6.15048">
        <ele>261</ele>
        <time>2021-10-06T15:31:39Z</time>
      </trkpt>
      <trkpt lat="47.66898" lon="6.15054">
        <ele>261.2</ele>
        <time>2021-10-06T15:31:43Z</time>
      </trkpt>
      <trkpt lat="47.66901" lon="6.15059">
        <ele>261.3</ele>
        <time>2021-10-06T15:31:45Z</time>
      </trkpt>
      <trkpt lat="47.66904" lon="6.15065">
        <ele>261.5</ele>
        <time>2021-10-06T15:31:47Z</time>
      </trkpt>
      <trkpt lat="47.66907" lon="6.15071">
        <ele>261.6</ele>
        <time>2021-10-06T15:31:49Z</time>
      </trkpt>
      <trkpt lat="47.6691" lon="6.15078">
        <ele>261.8</ele>
        <time>2021-10-06T15:31:51Z</time>
      </trkpt>
      <trkpt lat="47.66913" lon="6.15086">
        <ele>262</ele>
        <time>2021-10-06T15:31:52Z</time>
      </trkpt>
      <trkpt lat="47.66916" lon="6.15094">
        <ele>262.4</ele>
        <time>2021-10-06T15:31:55Z</time>
      </trkpt>
      <trkpt lat="47.6692" lon="6.151">
        <ele>262.7</ele>
        <time>2021-10-06T15:32:00Z</time>
      </trkpt>
      <trkpt lat="47.66924" lon="6.15104">
        <ele>263</ele>
        <time>2021-10-06T15:32:02Z</time>
      </trkpt>
      <trkpt lat="47.66926" lon="6.15114">
        <ele>263.3</ele>
        <time>2021-10-06T15:32:03Z</time>
      </trkpt>
      <trkpt lat="47.66927" lon="6.15121">
        <ele>263.5</ele>
        <time>2021-10-06T15:32:08Z</time>
      </trkpt>
      <trkpt lat="47.66929" lon="6.15129">
        <ele>263.7</ele>
        <time>2021-10-06T15:32:08Z</time>
      </trkpt>
      <trkpt lat="47.66931" lon="6.15137">
        <ele>263.9</ele>
        <time>2021-10-06T15:32:11Z</time>
      </trkpt>
      <trkpt lat="47.66931" lon="6.15146">
        <ele>264.2</ele>
        <time>2021-10-06T15:32:14Z</time>
      </trkpt>
      <trkpt lat="47.66931" lon="6.15153">
        <ele>264.3</ele>
        <time>2021-10-06T15:32:19Z</time>
      </trkpt>
      <trkpt lat="47.66931" lon="6.15161">
        <ele>264.5</ele>
        <time>2021-10-06T15:32:21Z</time>
      </trkpt>
      <trkpt lat="47.66929" lon="6.1517">
        <ele>264.6</ele>
        <time>2021-10-06T15:32:22Z</time>
      </trkpt>
      <trkpt lat="47.66926" lon="6.15178">
        <ele>264.6</ele>
        <time>2021-10-06T15:32:25Z</time>
      </trkpt>
      <trkpt lat="47.66924" lon="6.15184">
        <ele>264.5</ele>
        <time>2021-10-06T15:32:27Z</time>
      </trkpt>
      <trkpt lat="47.66922" lon="6.1519">
        <ele>264.5</ele>
        <time>2021-10-06T15:32:29Z</time>
      </trkpt>
      <trkpt lat="47.66919" lon="6.15196">
        <ele>264.6</ele>
        <time>2021-10-06T15:32:31Z</time>
      </trkpt>
      <trkpt lat="47.66915" lon="6.15202">
        <ele>264.5</ele>
        <time>2021-10-06T15:32:36Z</time>
      </trkpt>
      <trkpt lat="47.66912" lon="6.15208">
        <ele>264.4</ele>
        <time>2021-10-06T15:32:36Z</time>
      </trkpt>
      <trkpt lat="47.66911" lon="6.15215">
        <ele>264.2</ele>
        <time>2021-10-06T15:32:39Z</time>
      </trkpt>
      <trkpt lat="47.66914" lon="6.15222">
        <ele>264.3</ele>
        <time>2021-10-06T15:32:44Z</time>
      </trkpt>
      <trkpt lat="47.66917" lon="6.15231">
        <ele>264.2</ele>
        <time>2021-10-06T15:32:45Z</time>
      </trkpt>
      <trkpt lat="47.6692" lon="6.15237">
        <ele>264</ele>
        <time>2021-10-06T15:32:49Z</time>
      </trkpt>
      <trkpt lat="47.66923" lon="6.15245">
        <ele>263.7</ele>
        <time>2021-10-06T15:32:49Z</time>
      </trkpt>
      <trkpt lat="47.66925" lon="6.15253">
        <ele>263.4</ele>
        <time>2021-10-06T15:32:51Z</time>
      </trkpt>
      <trkpt lat="47.66926" lon="6.15262">
        <ele>262.9</ele>
        <time>2021-10-06T15:32:53Z</time>
      </trkpt>
      <trkpt lat="47.66928" lon="6.1527">
        <ele>262.5</ele>
        <time>2021-10-06T15:32:55Z</time>
      </trkpt>
      <trkpt lat="47.6693" lon="6.15279">
        <ele>262.1</ele>
        <time>2021-10-06T15:32:59Z</time>
      </trkpt>
      <trkpt lat="47.66935" lon="6.15296">
        <ele>261.3</ele>
        <time>2021-10-06T15:33:02Z</time>
      </trkpt>
      <trkpt lat="47.66937" lon="6.1531">
        <ele>260.8</ele>
        <time>2021-10-06T15:33:04Z</time>
      </trkpt>
      <trkpt lat="47.6694" lon="6.1533">
        <ele>260.1</ele>
        <time>2021-10-06T15:33:07Z</time>
      </trkpt>
      <trkpt lat="47.66941" lon="6.15337">
        <ele>259.9</ele>
        <time>2021-10-06T15:33:08Z</time>
      </trkpt>
      <trkpt lat="47.66941" lon="6.15347">
        <ele>259.5</ele>
        <time>2021-10-06T15:33:09Z</time>
      </trkpt>
      <trkpt lat="47.66942" lon="6.15377">
        <ele>258.6</ele>
        <time>2021-10-06T15:33:10Z</time>
      </trkpt>
      <trkpt lat="47.66942" lon="6.15388">
        <ele>258.2</ele>
        <time>2021-10-06T15:33:11Z</time>
      </trkpt>
      <trkpt lat="47.66943" lon="6.154">
        <ele>257.8</ele>
        <time>2021-10-06T15:33:12Z</time>
      </trkpt>
      <trkpt lat="47.66943" lon="6.15411">
        <ele>257.4</ele>
        <time>2021-10-06T15:33:13Z</time>
      </trkpt>
      <trkpt lat="47.66943" lon="6.15424">
        <ele>257.4</ele>
        <time>2021-10-06T15:33:14Z</time>
      </trkpt>
      <trkpt lat="47.66944" lon="6.15434">
        <ele>257.6</ele>
        <time>2021-10-06T15:33:15Z</time>
      </trkpt>
      <trkpt lat="47.66944" lon="6.15445">
        <ele>257.7</ele>
        <time>2021-10-06T15:33:16Z</time>
      </trkpt>
      <trkpt lat="47.66944" lon="6.15455">
        <ele>257.9</ele>
        <time>2021-10-06T15:33:17Z</time>
      </trkpt>
      <trkpt lat="47.66944" lon="6.15464">
        <ele>258.1</ele>
        <time>2021-10-06T15:33:18Z</time>
      </trkpt>
      <trkpt lat="47.66944" lon="6.15473">
        <ele>258.2</ele>
        <time>2021-10-06T15:33:19Z</time>
      </trkpt>
      <trkpt lat="47.66944" lon="6.15482">
        <ele>258.4</ele>
        <time>2021-10-06T15:33:20Z</time>
      </trkpt>
      <trkpt lat="47.66945" lon="6.1549">
        <ele>258.5</ele>
        <time>2021-10-06T15:33:21Z</time>
      </trkpt>
      <trkpt lat="47.66945" lon="6.15499">
        <ele>258.7</ele>
        <time>2021-10-06T15:33:22Z</time>
      </trkpt>
      <trkpt lat="47.66945" lon="6.15506">
        <ele>258.8</ele>
        <time>2021-10-06T15:33:23Z</time>
      </trkpt>
      <trkpt lat="47.66945" lon="6.15513">
        <ele>258.9</ele>
        <time>2021-10-06T15:33:24Z</time>
      </trkpt>
      <trkpt lat="47.66945" lon="6.1552">
        <ele>259</ele>
        <time>2021-10-06T15:33:25Z</time>
      </trkpt>
      <trkpt lat="47.66946" lon="6.15531">
        <ele>259.2</ele>
        <time>2021-10-06T15:33:27Z</time>
      </trkpt>
      <trkpt lat="47.66946" lon="6.15539">
        <ele>259.4</ele>
        <time>2021-10-06T15:33:29Z</time>
      </trkpt>
      <trkpt lat="47.66947" lon="6.15551">
        <ele>259.5</ele>
        <time>2021-10-06T15:33:31Z</time>
      </trkpt>
      <trkpt lat="47.66949" lon="6.15559">
        <ele>259.7</ele>
        <time>2021-10-06T15:33:34Z</time>
      </trkpt>
      <trkpt lat="47.66949" lon="6.15573">
        <ele>259.9</ele>
        <time>2021-10-06T15:33:37Z</time>
      </trkpt>
      <trkpt lat="47.66949" lon="6.15586">
        <ele>260</ele>
        <time>2021-10-06T15:33:39Z</time>
      </trkpt>
      <trkpt lat="47.6695" lon="6.15595">
        <ele>260</ele>
        <time>2021-10-06T15:33:41Z</time>
      </trkpt>
      <trkpt lat="47.66951" lon="6.15612">
        <ele>260.1</ele>
        <time>2021-10-06T15:33:44Z</time>
      </trkpt>
      <trkpt lat="47.66951" lon="6.15619">
        <ele>260.1</ele>
        <time>2021-10-06T15:33:45Z</time>
      </trkpt>
      <trkpt lat="47.66953" lon="6.15637">
        <ele>260.1</ele>
        <time>2021-10-06T15:33:48Z</time>
      </trkpt>
      <trkpt lat="47.66953" lon="6.15647">
        <ele>260.1</ele>
        <time>2021-10-06T15:33:50Z</time>
      </trkpt>
      <trkpt lat="47.66955" lon="6.15674">
        <ele>260.1</ele>
        <time>2021-10-06T15:33:52Z</time>
      </trkpt>
      <trkpt lat="47.66956" lon="6.15682">
        <ele>260.2</ele>
        <time>2021-10-06T15:33:53Z</time>
      </trkpt>
      <trkpt lat="47.66956" lon="6.1569">
        <ele>260.2</ele>
        <time>2021-10-06T15:33:54Z</time>
      </trkpt>
      <trkpt lat="47.66955" lon="6.15698">
        <ele>260.2</ele>
        <time>2021-10-06T15:33:55Z</time>
      </trkpt>
      <trkpt lat="47.66955" lon="6.15706">
        <ele>260.3</ele>
        <time>2021-10-06T15:33:56Z</time>
      </trkpt>
      <trkpt lat="47.66956" lon="6.15714">
        <ele>260.3</ele>
        <time>2021-10-06T15:33:57Z</time>
      </trkpt>
      <trkpt lat="47.66956" lon="6.15722">
        <ele>260.4</ele>
        <time>2021-10-06T15:33:58Z</time>
      </trkpt>
      <trkpt lat="47.66957" lon="6.1573">
        <ele>260.4</ele>
        <time>2021-10-06T15:33:59Z</time>
      </trkpt>
      <trkpt lat="47.66958" lon="6.15738">
        <ele>260.4</ele>
        <time>2021-10-06T15:34:00Z</time>
      </trkpt>
      <trkpt lat="47.66958" lon="6.15746">
        <ele>260.5</ele>
        <time>2021-10-06T15:34:01Z</time>
      </trkpt>
      <trkpt lat="47.66959" lon="6.15755">
        <ele>260.4</ele>
        <time>2021-10-06T15:34:02Z</time>
      </trkpt>
      <trkpt lat="47.6696" lon="6.15764">
        <ele>260.3</ele>
        <time>2021-10-06T15:34:03Z</time>
      </trkpt>
      <trkpt lat="47.66961" lon="6.15773">
        <ele>260.2</ele>
        <time>2021-10-06T15:34:04Z</time>
      </trkpt>
      <trkpt lat="47.66962" lon="6.15782">
        <ele>260</ele>
        <time>2021-10-06T15:34:05Z</time>
      </trkpt>
      <trkpt lat="47.66963" lon="6.15791">
        <ele>259.9</ele>
        <time>2021-10-06T15:34:06Z</time>
      </trkpt>
      <trkpt lat="47.66964" lon="6.15801">
        <ele>259.7</ele>
        <time>2021-10-06T15:34:07Z</time>
      </trkpt>
      <trkpt lat="47.66965" lon="6.15811">
        <ele>259.6</ele>
        <time>2021-10-06T15:34:08Z</time>
      </trkpt>
      <trkpt lat="47.66966" lon="6.15821">
        <ele>259.4</ele>
        <time>2021-10-06T15:34:09Z</time>
      </trkpt>
      <trkpt lat="47.66968" lon="6.15833">
        <ele>259.2</ele>
        <time>2021-10-06T15:34:10Z</time>
      </trkpt>
      <trkpt lat="47.66969" lon="6.15844">
        <ele>258.7</ele>
        <time>2021-10-06T15:34:11Z</time>
      </trkpt>
      <trkpt lat="47.6697" lon="6.15855">
        <ele>258.2</ele>
        <time>2021-10-06T15:34:12Z</time>
      </trkpt>
      <trkpt lat="47.66971" lon="6.15867">
        <ele>257.7</ele>
        <time>2021-10-06T15:34:13Z</time>
      </trkpt>
      <trkpt lat="47.66973" lon="6.15879">
        <ele>257.1</ele>
        <time>2021-10-06T15:34:14Z</time>
      </trkpt>
      <trkpt lat="47.66975" lon="6.15892">
        <ele>256.6</ele>
        <time>2021-10-06T15:34:15Z</time>
      </trkpt>
      <trkpt lat="47.66976" lon="6.15905">
        <ele>256</ele>
        <time>2021-10-06T15:34:16Z</time>
      </trkpt>
      <trkpt lat="47.66978" lon="6.15918">
        <ele>255.5</ele>
        <time>2021-10-06T15:34:17Z</time>
      </trkpt>
      <trkpt lat="47.6698" lon="6.15932">
        <ele>255.3</ele>
        <time>2021-10-06T15:34:18Z</time>
      </trkpt>
      <trkpt lat="47.66983" lon="6.15945">
        <ele>255.1</ele>
        <time>2021-10-06T15:34:19Z</time>
      </trkpt>
      <trkpt lat="47.66985" lon="6.15959">
        <ele>255</ele>
        <time>2021-10-06T15:34:20Z</time>
      </trkpt>
      <trkpt lat="47.66986" lon="6.15973">
        <ele>254.9</ele>
        <time>2021-10-06T15:34:21Z</time>
      </trkpt>
      <trkpt lat="47.66988" lon="6.15987">
        <ele>254.8</ele>
        <time>2021-10-06T15:34:22Z</time>
      </trkpt>
      <trkpt lat="47.66989" lon="6.16002">
        <ele>254.7</ele>
        <time>2021-10-06T15:34:23Z</time>
      </trkpt>
      <trkpt lat="47.66991" lon="6.16016">
        <ele>254.2</ele>
        <time>2021-10-06T15:34:24Z</time>
      </trkpt>
      <trkpt lat="47.66993" lon="6.1603">
        <ele>253.8</ele>
        <time>2021-10-06T15:34:25Z</time>
      </trkpt>
      <trkpt lat="47.66994" lon="6.16044">
        <ele>253.3</ele>
        <time>2021-10-06T15:34:26Z</time>
      </trkpt>
      <trkpt lat="47.66995" lon="6.16059">
        <ele>252.8</ele>
        <time>2021-10-06T15:34:27Z</time>
      </trkpt>
      <trkpt lat="47.66995" lon="6.16073">
        <ele>252.3</ele>
        <time>2021-10-06T15:34:28Z</time>
      </trkpt>
      <trkpt lat="47.66995" lon="6.16087">
        <ele>251.7</ele>
        <time>2021-10-06T15:34:29Z</time>
      </trkpt>
      <trkpt lat="47.66994" lon="6.16101">
        <ele>250.7</ele>
        <time>2021-10-06T15:34:30Z</time>
      </trkpt>
      <trkpt lat="47.66992" lon="6.16115">
        <ele>249.7</ele>
        <time>2021-10-06T15:34:31Z</time>
      </trkpt>
      <trkpt lat="47.66991" lon="6.16129">
        <ele>248.7</ele>
        <time>2021-10-06T15:34:32Z</time>
      </trkpt>
      <trkpt lat="47.66988" lon="6.16143">
        <ele>247.7</ele>
        <time>2021-10-06T15:34:33Z</time>
      </trkpt>
      <trkpt lat="47.66985" lon="6.16156">
        <ele>246.7</ele>
        <time>2021-10-06T15:34:34Z</time>
      </trkpt>
      <trkpt lat="47.66982" lon="6.1617">
        <ele>245.9</ele>
        <time>2021-10-06T15:34:35Z</time>
      </trkpt>
      <trkpt lat="47.66978" lon="6.16182">
        <ele>245.3</ele>
        <time>2021-10-06T15:34:36Z</time>
      </trkpt>
      <trkpt lat="47.66975" lon="6.16195">
        <ele>244.7</ele>
        <time>2021-10-06T15:34:37Z</time>
      </trkpt>
      <trkpt lat="47.66972" lon="6.16207">
        <ele>244.2</ele>
        <time>2021-10-06T15:34:38Z</time>
      </trkpt>
      <trkpt lat="47.66968" lon="6.1622">
        <ele>243.7</ele>
        <time>2021-10-06T15:34:39Z</time>
      </trkpt>
      <trkpt lat="47.66965" lon="6.16232">
        <ele>243.2</ele>
        <time>2021-10-06T15:34:40Z</time>
      </trkpt>
      <trkpt lat="47.66963" lon="6.16244">
        <ele>242.7</ele>
        <time>2021-10-06T15:34:41Z</time>
      </trkpt>
      <trkpt lat="47.66963" lon="6.16257">
        <ele>242.3</ele>
        <time>2021-10-06T15:34:42Z</time>
      </trkpt>
      <trkpt lat="47.66963" lon="6.1627">
        <ele>242</ele>
        <time>2021-10-06T15:34:43Z</time>
      </trkpt>
      <trkpt lat="47.66965" lon="6.16282">
        <ele>241.7</ele>
        <time>2021-10-06T15:34:44Z</time>
      </trkpt>
      <trkpt lat="47.66967" lon="6.16295">
        <ele>241.3</ele>
        <time>2021-10-06T15:34:45Z</time>
      </trkpt>
      <trkpt lat="47.66972" lon="6.16307">
        <ele>240.8</ele>
        <time>2021-10-06T15:34:46Z</time>
      </trkpt>
      <trkpt lat="47.66975" lon="6.16319">
        <ele>240.2</ele>
        <time>2021-10-06T15:34:47Z</time>
      </trkpt>
      <trkpt lat="47.66978" lon="6.16332">
        <ele>239.7</ele>
        <time>2021-10-06T15:34:48Z</time>
      </trkpt>
      <trkpt lat="47.66978" lon="6.16345">
        <ele>239</ele>
        <time>2021-10-06T15:34:49Z</time>
      </trkpt>
      <trkpt lat="47.66978" lon="6.16358">
        <ele>238.3</ele>
        <time>2021-10-06T15:34:50Z</time>
      </trkpt>
      <trkpt lat="47.66977" lon="6.16372">
        <ele>237.8</ele>
        <time>2021-10-06T15:34:51Z</time>
      </trkpt>
      <trkpt lat="47.66974" lon="6.16386">
        <ele>237.2</ele>
        <time>2021-10-06T15:34:52Z</time>
      </trkpt>
      <trkpt lat="47.66971" lon="6.16399">
        <ele>236.6</ele>
        <time>2021-10-06T15:34:53Z</time>
      </trkpt>
      <trkpt lat="47.6697" lon="6.16412">
        <ele>236</ele>
        <time>2021-10-06T15:34:54Z</time>
      </trkpt>
      <trkpt lat="47.66968" lon="6.16423">
        <ele>235.5</ele>
        <time>2021-10-06T15:34:55Z</time>
      </trkpt>
      <trkpt lat="47.66967" lon="6.16433">
        <ele>235.2</ele>
        <time>2021-10-06T15:34:56Z</time>
      </trkpt>
      <trkpt lat="47.66966" lon="6.16441">
        <ele>235</ele>
        <time>2021-10-06T15:34:57Z</time>
      </trkpt>
      <trkpt lat="47.66962" lon="6.16449">
        <ele>234.8</ele>
        <time>2021-10-06T15:34:59Z</time>
      </trkpt>
      <trkpt lat="47.66959" lon="6.16454">
        <ele>234.6</ele>
        <time>2021-10-06T15:35:13Z</time>
      </trkpt>
      <trkpt lat="47.66957" lon="6.16461">
        <ele>234.4</ele>
        <time>2021-10-06T15:35:17Z</time>
      </trkpt>
      <trkpt lat="47.66957" lon="6.16478">
        <ele>233.8</ele>
        <time>2021-10-06T15:35:19Z</time>
      </trkpt>
      <trkpt lat="47.66957" lon="6.16488">
        <ele>233.4</ele>
        <time>2021-10-06T15:35:20Z</time>
      </trkpt>
      <trkpt lat="47.66956" lon="6.16498">
        <ele>233.1</ele>
        <time>2021-10-06T15:35:21Z</time>
      </trkpt>
      <trkpt lat="47.66956" lon="6.16509">
        <ele>232.7</ele>
        <time>2021-10-06T15:35:22Z</time>
      </trkpt>
      <trkpt lat="47.66956" lon="6.16518">
        <ele>232.4</ele>
        <time>2021-10-06T15:35:23Z</time>
      </trkpt>
      <trkpt lat="47.66956" lon="6.16527">
        <ele>232</ele>
        <time>2021-10-06T15:35:24Z</time>
      </trkpt>
      <trkpt lat="47.66955" lon="6.16536">
        <ele>231.7</ele>
        <time>2021-10-06T15:35:25Z</time>
      </trkpt>
      <trkpt lat="47.66955" lon="6.16544">
        <ele>231.4</ele>
        <time>2021-10-06T15:35:26Z</time>
      </trkpt>
      <trkpt lat="47.66954" lon="6.16552">
        <ele>231.1</ele>
        <time>2021-10-06T15:35:27Z</time>
      </trkpt>
      <trkpt lat="47.66952" lon="6.16559">
        <ele>230.9</ele>
        <time>2021-10-06T15:35:28Z</time>
      </trkpt>
      <trkpt lat="47.6695" lon="6.16566">
        <ele>230.6</ele>
        <time>2021-10-06T15:35:29Z</time>
      </trkpt>
      <trkpt lat="47.66948" lon="6.16573">
        <ele>230.4</ele>
        <time>2021-10-06T15:35:30Z</time>
      </trkpt>
      <trkpt lat="47.66946" lon="6.1658">
        <ele>230.1</ele>
        <time>2021-10-06T15:35:31Z</time>
      </trkpt>
      <trkpt lat="47.66944" lon="6.16588">
        <ele>230.1</ele>
        <time>2021-10-06T15:35:32Z</time>
      </trkpt>
      <trkpt lat="47.66942" lon="6.16595">
        <ele>230.2</ele>
        <time>2021-10-06T15:35:33Z</time>
      </trkpt>
      <trkpt lat="47.66941" lon="6.16602">
        <ele>230.3</ele>
        <time>2021-10-06T15:35:34Z</time>
      </trkpt>
      <trkpt lat="47.6694" lon="6.16609">
        <ele>230.4</ele>
        <time>2021-10-06T15:35:35Z</time>
      </trkpt>
      <trkpt lat="47.6694" lon="6.16616">
        <ele>230.6</ele>
        <time>2021-10-06T15:35:36Z</time>
      </trkpt>
      <trkpt lat="47.66938" lon="6.16628">
        <ele>230.8</ele>
        <time>2021-10-06T15:35:38Z</time>
      </trkpt>
      <trkpt lat="47.66937" lon="6.16639">
        <ele>231</ele>
        <time>2021-10-06T15:35:40Z</time>
      </trkpt>
      <trkpt lat="47.66935" lon="6.1665">
        <ele>231.2</ele>
        <time>2021-10-06T15:35:42Z</time>
      </trkpt>
      <trkpt lat="47.66933" lon="6.1666">
        <ele>231.5</ele>
        <time>2021-10-06T15:35:44Z</time>
      </trkpt>
      <trkpt lat="47.66932" lon="6.16668">
        <ele>231.7</ele>
        <time>2021-10-06T15:35:47Z</time>
      </trkpt>
      <trkpt lat="47.66931" lon="6.16675">
        <ele>231.7</ele>
        <time>2021-10-06T15:35:48Z</time>
      </trkpt>
      <trkpt lat="47.66929" lon="6.16685">
        <ele>231.9</ele>
        <time>2021-10-06T15:35:50Z</time>
      </trkpt>
      <trkpt lat="47.66928" lon="6.16691">
        <ele>231.9</ele>
        <time>2021-10-06T15:35:51Z</time>
      </trkpt>
      <trkpt lat="47.66928" lon="6.167">
        <ele>232</ele>
        <time>2021-10-06T15:35:53Z</time>
      </trkpt>
      <trkpt lat="47.66928" lon="6.16711">
        <ele>232.1</ele>
        <time>2021-10-06T15:35:55Z</time>
      </trkpt>
      <trkpt lat="47.66931" lon="6.1673">
        <ele>232.1</ele>
        <time>2021-10-06T15:35:57Z</time>
      </trkpt>
      <trkpt lat="47.66932" lon="6.16741">
        <ele>232.2</ele>
        <time>2021-10-06T15:35:59Z</time>
      </trkpt>
      <trkpt lat="47.66934" lon="6.16751">
        <ele>232.2</ele>
        <time>2021-10-06T15:36:02Z</time>
      </trkpt>
      <trkpt lat="47.66942" lon="6.16766">
        <ele>232</ele>
        <time>2021-10-06T15:36:04Z</time>
      </trkpt>
      <trkpt lat="47.66946" lon="6.16774">
        <ele>232</ele>
        <time>2021-10-06T15:36:07Z</time>
      </trkpt>
      <trkpt lat="47.66949" lon="6.16779">
        <ele>231.9</ele>
        <time>2021-10-06T15:36:08Z</time>
      </trkpt>
      <trkpt lat="47.66956" lon="6.16786">
        <ele>231.8</ele>
        <time>2021-10-06T15:36:10Z</time>
      </trkpt>
      <trkpt lat="47.66962" lon="6.16793">
        <ele>231.6</ele>
        <time>2021-10-06T15:36:12Z</time>
      </trkpt>
      <trkpt lat="47.66973" lon="6.16804">
        <ele>231.4</ele>
        <time>2021-10-06T15:36:14Z</time>
      </trkpt>
      <trkpt lat="47.66978" lon="6.16809">
        <ele>231.3</ele>
        <time>2021-10-06T15:36:17Z</time>
      </trkpt>
      <trkpt lat="47.66992" lon="6.1682">
        <ele>231</ele>
        <time>2021-10-06T15:36:19Z</time>
      </trkpt>
      <trkpt lat="47.66999" lon="6.16826">
        <ele>230.9</ele>
        <time>2021-10-06T15:36:22Z</time>
      </trkpt>
      <trkpt lat="47.67008" lon="6.16834">
        <ele>230.6</ele>
        <time>2021-10-06T15:36:23Z</time>
      </trkpt>
      <trkpt lat="47.67013" lon="6.16838">
        <ele>230.4</ele>
        <time>2021-10-06T15:36:24Z</time>
      </trkpt>
      <trkpt lat="47.67017" lon="6.16842">
        <ele>230.3</ele>
        <time>2021-10-06T15:36:25Z</time>
      </trkpt>
      <trkpt lat="47.67021" lon="6.16846">
        <ele>230.1</ele>
        <time>2021-10-06T15:36:26Z</time>
      </trkpt>
      <trkpt lat="47.67025" lon="6.1685">
        <ele>229.9</ele>
        <time>2021-10-06T15:36:27Z</time>
      </trkpt>
      <trkpt lat="47.67029" lon="6.16854">
        <ele>229.7</ele>
        <time>2021-10-06T15:36:28Z</time>
      </trkpt>
      <trkpt lat="47.67033" lon="6.16858">
        <ele>229.5</ele>
        <time>2021-10-06T15:36:29Z</time>
      </trkpt>
      <trkpt lat="47.67037" lon="6.16863">
        <ele>229.3</ele>
        <time>2021-10-06T15:36:30Z</time>
      </trkpt>
      <trkpt lat="47.67041" lon="6.16867">
        <ele>229</ele>
        <time>2021-10-06T15:36:31Z</time>
      </trkpt>
      <trkpt lat="47.67045" lon="6.16873">
        <ele>228.8</ele>
        <time>2021-10-06T15:36:32Z</time>
      </trkpt>
      <trkpt lat="47.67049" lon="6.16878">
        <ele>228.5</ele>
        <time>2021-10-06T15:36:33Z</time>
      </trkpt>
      <trkpt lat="47.67053" lon="6.16884">
        <ele>228.3</ele>
        <time>2021-10-06T15:36:34Z</time>
      </trkpt>
      <trkpt lat="47.67057" lon="6.1689">
        <ele>228</ele>
        <time>2021-10-06T15:36:35Z</time>
      </trkpt>
      <trkpt lat="47.67061" lon="6.16898">
        <ele>227.7</ele>
        <time>2021-10-06T15:36:36Z</time>
      </trkpt>
      <trkpt lat="47.67066" lon="6.16905">
        <ele>227.4</ele>
        <time>2021-10-06T15:36:37Z</time>
      </trkpt>
      <trkpt lat="47.67069" lon="6.16914">
        <ele>227</ele>
        <time>2021-10-06T15:36:38Z</time>
      </trkpt>
      <trkpt lat="47.67072" lon="6.16922">
        <ele>226.8</ele>
        <time>2021-10-06T15:36:39Z</time>
      </trkpt>
      <trkpt lat="47.67074" lon="6.16932">
        <ele>226.6</ele>
        <time>2021-10-06T15:36:40Z</time>
      </trkpt>
      <trkpt lat="47.67074" lon="6.16941">
        <ele>226.5</ele>
        <time>2021-10-06T15:36:41Z</time>
      </trkpt>
      <trkpt lat="47.67073" lon="6.16949">
        <ele>226.5</ele>
        <time>2021-10-06T15:36:42Z</time>
      </trkpt>
      <trkpt lat="47.67072" lon="6.16957">
        <ele>226.6</ele>
        <time>2021-10-06T15:36:43Z</time>
      </trkpt>
      <trkpt lat="47.6707" lon="6.16965">
        <ele>226.6</ele>
        <time>2021-10-06T15:36:44Z</time>
      </trkpt>
      <trkpt lat="47.67068" lon="6.16973">
        <ele>226.6</ele>
        <time>2021-10-06T15:36:45Z</time>
      </trkpt>
      <trkpt lat="47.67067" lon="6.1698">
        <ele>226.6</ele>
        <time>2021-10-06T15:36:46Z</time>
      </trkpt>
      <trkpt lat="47.67066" lon="6.16987">
        <ele>226.5</ele>
        <time>2021-10-06T15:36:47Z</time>
      </trkpt>
      <trkpt lat="47.67065" lon="6.16994">
        <ele>226.5</ele>
        <time>2021-10-06T15:36:48Z</time>
      </trkpt>
      <trkpt lat="47.67063" lon="6.17001">
        <ele>226.5</ele>
        <time>2021-10-06T15:36:49Z</time>
      </trkpt>
      <trkpt lat="47.67062" lon="6.17008">
        <ele>226.5</ele>
        <time>2021-10-06T15:36:50Z</time>
      </trkpt>
      <trkpt lat="47.67061" lon="6.17016">
        <ele>226.4</ele>
        <time>2021-10-06T15:36:51Z</time>
      </trkpt>
      <trkpt lat="47.67059" lon="6.17023">
        <ele>226.4</ele>
        <time>2021-10-06T15:36:52Z</time>
      </trkpt>
      <trkpt lat="47.67058" lon="6.1703">
        <ele>226.4</ele>
        <time>2021-10-06T15:36:53Z</time>
      </trkpt>
      <trkpt lat="47.67057" lon="6.17037">
        <ele>226.3</ele>
        <time>2021-10-06T15:36:54Z</time>
      </trkpt>
      <trkpt lat="47.67057" lon="6.17044">
        <ele>226.3</ele>
        <time>2021-10-06T15:36:55Z</time>
      </trkpt>
      <trkpt lat="47.67056" lon="6.17052">
        <ele>226.2</ele>
        <time>2021-10-06T15:36:56Z</time>
      </trkpt>
      <trkpt lat="47.67056" lon="6.17059">
        <ele>226.2</ele>
        <time>2021-10-06T15:36:57Z</time>
      </trkpt>
      <trkpt lat="47.67057" lon="6.17066">
        <ele>226.1</ele>
        <time>2021-10-06T15:36:58Z</time>
      </trkpt>
      <trkpt lat="47.67057" lon="6.17073">
        <ele>226.1</ele>
        <time>2021-10-06T15:36:59Z</time>
      </trkpt>
      <trkpt lat="47.67057" lon="6.1708">
        <ele>226</ele>
        <time>2021-10-06T15:37:00Z</time>
      </trkpt>
      <trkpt lat="47.67057" lon="6.17087">
        <ele>226</ele>
        <time>2021-10-06T15:37:01Z</time>
      </trkpt>
      <trkpt lat="47.67057" lon="6.17095">
        <ele>226</ele>
        <time>2021-10-06T15:37:02Z</time>
      </trkpt>
      <trkpt lat="47.67057" lon="6.17103">
        <ele>226</ele>
        <time>2021-10-06T15:37:03Z</time>
      </trkpt>
      <trkpt lat="47.67058" lon="6.17111">
        <ele>226</ele>
        <time>2021-10-06T15:37:04Z</time>
      </trkpt>
      <trkpt lat="47.67058" lon="6.17119">
        <ele>226</ele>
        <time>2021-10-06T15:37:05Z</time>
      </trkpt>
      <trkpt lat="47.67059" lon="6.17127">
        <ele>226</ele>
        <time>2021-10-06T15:37:06Z</time>
      </trkpt>
      <trkpt lat="47.67059" lon="6.17135">
        <ele>226</ele>
        <time>2021-10-06T15:37:07Z</time>
      </trkpt>
      <trkpt lat="47.6706" lon="6.17143">
        <ele>226</ele>
        <time>2021-10-06T15:37:08Z</time>
      </trkpt>
      <trkpt lat="47.6706" lon="6.17151">
        <ele>226</ele>
        <time>2021-10-06T15:37:09Z</time>
      </trkpt>
      <trkpt lat="47.6706" lon="6.17159">
        <ele>226</ele>
        <time>2021-10-06T15:37:10Z</time>
      </trkpt>
      <trkpt lat="47.67061" lon="6.17167">
        <ele>226</ele>
        <time>2021-10-06T15:37:11Z</time>
      </trkpt>
      <trkpt lat="47.67061" lon="6.17175">
        <ele>226.7</ele>
        <time>2021-10-06T15:37:12Z</time>
      </trkpt>
      <trkpt lat="47.67062" lon="6.17183">
        <ele>227.4</ele>
        <time>2021-10-06T15:37:13Z</time>
      </trkpt>
      <trkpt lat="47.67062" lon="6.1719">
        <ele>228.1</ele>
        <time>2021-10-06T15:37:14Z</time>
      </trkpt>
      <trkpt lat="47.67062" lon="6.17198">
        <ele>228.8</ele>
        <time>2021-10-06T15:37:15Z</time>
      </trkpt>
      <trkpt lat="47.67063" lon="6.17206">
        <ele>229.5</ele>
        <time>2021-10-06T15:37:16Z</time>
      </trkpt>
      <trkpt lat="47.67062" lon="6.17213">
        <ele>230.1</ele>
        <time>2021-10-06T15:37:17Z</time>
      </trkpt>
      <trkpt lat="47.67062" lon="6.1722">
        <ele>230.8</ele>
        <time>2021-10-06T15:37:18Z</time>
      </trkpt>
      <trkpt lat="47.67061" lon="6.17227">
        <ele>231.4</ele>
        <time>2021-10-06T15:37:19Z</time>
      </trkpt>
      <trkpt lat="47.6706" lon="6.17234">
        <ele>231.9</ele>
        <time>2021-10-06T15:37:20Z</time>
      </trkpt>
      <trkpt lat="47.67059" lon="6.17241">
        <ele>232.4</ele>
        <time>2021-10-06T15:37:21Z</time>
      </trkpt>
      <trkpt lat="47.67057" lon="6.17247">
        <ele>232.9</ele>
        <time>2021-10-06T15:37:22Z</time>
      </trkpt>
      <trkpt lat="47.67055" lon="6.17253">
        <ele>233.4</ele>
        <time>2021-10-06T15:37:23Z</time>
      </trkpt>
      <trkpt lat="47.67054" lon="6.1726">
        <ele>233.9</ele>
        <time>2021-10-06T15:37:24Z</time>
      </trkpt>
      <trkpt lat="47.6705" lon="6.17271">
        <ele>234.8</ele>
        <time>2021-10-06T15:37:26Z</time>
      </trkpt>
      <trkpt lat="47.67045" lon="6.17283">
        <ele>235.6</ele>
        <time>2021-10-06T15:37:28Z</time>
      </trkpt>
      <trkpt lat="47.67044" lon="6.17289">
        <ele>236</ele>
        <time>2021-10-06T15:37:29Z</time>
      </trkpt>
      <trkpt lat="47.67041" lon="6.17296">
        <ele>236.4</ele>
        <time>2021-10-06T15:37:30Z</time>
      </trkpt>
      <trkpt lat="47.67039" lon="6.17301">
        <ele>236.6</ele>
        <time>2021-10-06T15:37:31Z</time>
      </trkpt>
      <trkpt lat="47.67036" lon="6.17307">
        <ele>236.7</ele>
        <time>2021-10-06T15:37:32Z</time>
      </trkpt>
      <trkpt lat="47.67034" lon="6.17313">
        <ele>236.9</ele>
        <time>2021-10-06T15:37:33Z</time>
      </trkpt>
      <trkpt lat="47.6703" lon="6.17322">
        <ele>237.1</ele>
        <time>2021-10-06T15:37:35Z</time>
      </trkpt>
      <trkpt lat="47.67026" lon="6.17329">
        <ele>237</ele>
        <time>2021-10-06T15:37:37Z</time>
      </trkpt>
      <trkpt lat="47.6702" lon="6.17338">
        <ele>236.6</ele>
        <time>2021-10-06T15:37:39Z</time>
      </trkpt>
      <trkpt lat="47.67014" lon="6.17345">
        <ele>235.8</ele>
        <time>2021-10-06T15:37:41Z</time>
      </trkpt>
      <trkpt lat="47.67007" lon="6.17347">
        <ele>234.7</ele>
        <time>2021-10-06T15:37:44Z</time>
      </trkpt>
      <trkpt lat="47.67002" lon="6.17352">
        <ele>234</ele>
        <time>2021-10-06T15:37:46Z</time>
      </trkpt>
      <trkpt lat="47.66997" lon="6.17357">
        <ele>233.6</ele>
        <time>2021-10-06T15:37:47Z</time>
      </trkpt>
      <trkpt lat="47.66992" lon="6.1736">
        <ele>233.4</ele>
        <time>2021-10-06T15:37:48Z</time>
      </trkpt>
      <trkpt lat="47.66987" lon="6.17364">
        <ele>233.1</ele>
        <time>2021-10-06T15:37:50Z</time>
      </trkpt>
      <trkpt lat="47.66983" lon="6.17368">
        <ele>233</ele>
        <time>2021-10-06T15:37:51Z</time>
      </trkpt>
      <trkpt lat="47.66976" lon="6.17373">
        <ele>232.5</ele>
        <time>2021-10-06T15:37:52Z</time>
      </trkpt>
      <trkpt lat="47.6697" lon="6.17377">
        <ele>232.2</ele>
        <time>2021-10-06T15:37:55Z</time>
      </trkpt>
      <trkpt lat="47.66966" lon="6.17379">
        <ele>231.9</ele>
        <time>2021-10-06T15:37:56Z</time>
      </trkpt>
      <trkpt lat="47.66956" lon="6.17386">
        <ele>231.4</ele>
        <time>2021-10-06T15:37:59Z</time>
      </trkpt>
      <trkpt lat="47.66948" lon="6.17391">
        <ele>230.9</ele>
        <time>2021-10-06T15:38:00Z</time>
      </trkpt>
      <trkpt lat="47.66942" lon="6.17396">
        <ele>230.6</ele>
        <time>2021-10-06T15:38:03Z</time>
      </trkpt>
      <trkpt lat="47.66931" lon="6.17402">
        <ele>229.9</ele>
        <time>2021-10-06T15:38:06Z</time>
      </trkpt>
      <trkpt lat="47.66927" lon="6.17405">
        <ele>229.6</ele>
        <time>2021-10-06T15:38:07Z</time>
      </trkpt>
      <trkpt lat="47.66915" lon="6.17413">
        <ele>228.9</ele>
        <time>2021-10-06T15:38:09Z</time>
      </trkpt>
      <trkpt lat="47.66909" lon="6.17417">
        <ele>228.8</ele>
        <time>2021-10-06T15:38:12Z</time>
      </trkpt>
      <trkpt lat="47.669" lon="6.17421">
        <ele>228.7</ele>
        <time>2021-10-06T15:38:14Z</time>
      </trkpt>
      <trkpt lat="47.66895" lon="6.17425">
        <ele>228.7</ele>
        <time>2021-10-06T15:38:16Z</time>
      </trkpt>
      <trkpt lat="47.66888" lon="6.17429">
        <ele>228.6</ele>
        <time>2021-10-06T15:38:18Z</time>
      </trkpt>
      <trkpt lat="47.66877" lon="6.17433">
        <ele>228.4</ele>
        <time>2021-10-06T15:38:21Z</time>
      </trkpt>
      <trkpt lat="47.66866" lon="6.17436">
        <ele>228.2</ele>
        <time>2021-10-06T15:38:24Z</time>
      </trkpt>
      <trkpt lat="47.66857" lon="6.17437">
        <ele>228</ele>
        <time>2021-10-06T15:38:26Z</time>
      </trkpt>
      <trkpt lat="47.66852" lon="6.17437">
        <ele>227.9</ele>
        <time>2021-10-06T15:38:27Z</time>
      </trkpt>
      <trkpt lat="47.66847" lon="6.17436">
        <ele>227.8</ele>
        <time>2021-10-06T15:38:28Z</time>
      </trkpt>
      <trkpt lat="47.66835" lon="6.17434">
        <ele>227.4</ele>
        <time>2021-10-06T15:38:31Z</time>
      </trkpt>
      <trkpt lat="47.66826" lon="6.17433">
        <ele>227.4</ele>
        <time>2021-10-06T15:38:32Z</time>
      </trkpt>
      <trkpt lat="47.6682" lon="6.17433">
        <ele>227.4</ele>
        <time>2021-10-06T15:38:35Z</time>
      </trkpt>
      <trkpt lat="47.66815" lon="6.17432">
        <ele>227.4</ele>
        <time>2021-10-06T15:38:36Z</time>
      </trkpt>
      <trkpt lat="47.66804" lon="6.17432">
        <ele>227.4</ele>
        <time>2021-10-06T15:38:39Z</time>
      </trkpt>
      <trkpt lat="47.66799" lon="6.17433">
        <ele>227.5</ele>
        <time>2021-10-06T15:38:40Z</time>
      </trkpt>
      <trkpt lat="47.66791" lon="6.17433">
        <ele>227.5</ele>
        <time>2021-10-06T15:38:42Z</time>
      </trkpt>
      <trkpt lat="47.66784" lon="6.17434">
        <ele>227.5</ele>
        <time>2021-10-06T15:38:44Z</time>
      </trkpt>
      <trkpt lat="47.66776" lon="6.17435">
        <ele>227.6</ele>
        <time>2021-10-06T15:38:45Z</time>
      </trkpt>
      <trkpt lat="47.6677" lon="6.17435">
        <ele>227.6</ele>
        <time>2021-10-06T15:38:48Z</time>
      </trkpt>
      <trkpt lat="47.66756" lon="6.17437">
        <ele>227.7</ele>
        <time>2021-10-06T15:38:51Z</time>
      </trkpt>
      <trkpt lat="47.66749" lon="6.17438">
        <ele>227.8</ele>
        <time>2021-10-06T15:38:53Z</time>
      </trkpt>
      <trkpt lat="47.66744" lon="6.17439">
        <ele>227.8</ele>
        <time>2021-10-06T15:38:54Z</time>
      </trkpt>
      <trkpt lat="47.66738" lon="6.1744">
        <ele>227.8</ele>
        <time>2021-10-06T15:38:56Z</time>
      </trkpt>
      <trkpt lat="47.66724" lon="6.17442">
        <ele>227.8</ele>
        <time>2021-10-06T15:38:59Z</time>
      </trkpt>
      <trkpt lat="47.66712" lon="6.17445">
        <ele>227.9</ele>
        <time>2021-10-06T15:39:01Z</time>
      </trkpt>
      <trkpt lat="47.66706" lon="6.17446">
        <ele>227.9</ele>
        <time>2021-10-06T15:39:04Z</time>
      </trkpt>
      <trkpt lat="47.667" lon="6.17448">
        <ele>227.9</ele>
        <time>2021-10-06T15:39:05Z</time>
      </trkpt>
      <trkpt lat="47.66695" lon="6.17449">
        <ele>227.9</ele>
        <time>2021-10-06T15:39:06Z</time>
      </trkpt>
      <trkpt lat="47.66689" lon="6.1745">
        <ele>227.9</ele>
        <time>2021-10-06T15:39:08Z</time>
      </trkpt>
      <trkpt lat="47.66684" lon="6.17451">
        <ele>227.9</ele>
        <time>2021-10-06T15:39:09Z</time>
      </trkpt>
      <trkpt lat="47.66671" lon="6.17455">
        <ele>227.9</ele>
        <time>2021-10-06T15:39:12Z</time>
      </trkpt>
      <trkpt lat="47.66667" lon="6.17457">
        <ele>228</ele>
        <time>2021-10-06T15:39:13Z</time>
      </trkpt>
      <trkpt lat="47.66661" lon="6.17459">
        <ele>227.9</ele>
        <time>2021-10-06T15:39:14Z</time>
      </trkpt>
      <trkpt lat="47.66656" lon="6.17462">
        <ele>227.9</ele>
        <time>2021-10-06T15:39:15Z</time>
      </trkpt>
      <trkpt lat="47.66649" lon="6.17465">
        <ele>227.8</ele>
        <time>2021-10-06T15:39:17Z</time>
      </trkpt>
      <trkpt lat="47.66641" lon="6.17469">
        <ele>227.8</ele>
        <time>2021-10-06T15:39:19Z</time>
      </trkpt>
      <trkpt lat="47.66636" lon="6.17472">
        <ele>227.7</ele>
        <time>2021-10-06T15:39:20Z</time>
      </trkpt>
      <trkpt lat="47.6663" lon="6.17475">
        <ele>227.6</ele>
        <time>2021-10-06T15:39:22Z</time>
      </trkpt>
      <trkpt lat="47.66625" lon="6.17477">
        <ele>227.6</ele>
        <time>2021-10-06T15:39:23Z</time>
      </trkpt>
      <trkpt lat="47.66612" lon="6.17484">
        <ele>227.4</ele>
        <time>2021-10-06T15:39:26Z</time>
      </trkpt>
      <trkpt lat="47.66607" lon="6.17487">
        <ele>227.4</ele>
        <time>2021-10-06T15:39:27Z</time>
      </trkpt>
      <trkpt lat="47.66594" lon="6.17493">
        <ele>227.2</ele>
        <time>2021-10-06T15:39:30Z</time>
      </trkpt>
      <trkpt lat="47.6659" lon="6.17495">
        <ele>227.1</ele>
        <time>2021-10-06T15:39:31Z</time>
      </trkpt>
      <trkpt lat="47.66583" lon="6.17498">
        <ele>227</ele>
        <time>2021-10-06T15:39:33Z</time>
      </trkpt>
      <trkpt lat="47.66576" lon="6.17502">
        <ele>226.9</ele>
        <time>2021-10-06T15:39:35Z</time>
      </trkpt>
      <trkpt lat="47.66565" lon="6.17508">
        <ele>226.8</ele>
        <time>2021-10-06T15:39:38Z</time>
      </trkpt>
      <trkpt lat="47.6656" lon="6.17512">
        <ele>226.8</ele>
        <time>2021-10-06T15:39:39Z</time>
      </trkpt>
      <trkpt lat="47.66551" lon="6.17517">
        <ele>226.7</ele>
        <time>2021-10-06T15:39:41Z</time>
      </trkpt>
      <trkpt lat="47.66546" lon="6.17521">
        <ele>226.7</ele>
        <time>2021-10-06T15:39:43Z</time>
      </trkpt>
      <trkpt lat="47.66533" lon="6.17529">
        <ele>226.6</ele>
        <time>2021-10-06T15:39:46Z</time>
      </trkpt>
      <trkpt lat="47.66527" lon="6.17533">
        <ele>226.6</ele>
        <time>2021-10-06T15:39:48Z</time>
      </trkpt>
      <trkpt lat="47.66523" lon="6.17536">
        <ele>226.6</ele>
        <time>2021-10-06T15:39:49Z</time>
      </trkpt>
      <trkpt lat="47.66517" lon="6.17541">
        <ele>226.6</ele>
        <time>2021-10-06T15:39:50Z</time>
      </trkpt>
      <trkpt lat="47.6651" lon="6.17546">
        <ele>226.6</ele>
        <time>2021-10-06T15:39:52Z</time>
      </trkpt>
      <trkpt lat="47.66505" lon="6.17549">
        <ele>226.6</ele>
        <time>2021-10-06T15:39:53Z</time>
      </trkpt>
      <trkpt lat="47.66498" lon="6.17553">
        <ele>226.6</ele>
        <time>2021-10-06T15:39:55Z</time>
      </trkpt>
      <trkpt lat="47.66486" lon="6.17562">
        <ele>226.6</ele>
        <time>2021-10-06T15:39:58Z</time>
      </trkpt>
      <trkpt lat="47.66482" lon="6.17564">
        <ele>226.6</ele>
        <time>2021-10-06T15:39:59Z</time>
      </trkpt>
      <trkpt lat="47.66474" lon="6.17569">
        <ele>226.6</ele>
        <time>2021-10-06T15:40:01Z</time>
      </trkpt>
      <trkpt lat="47.66467" lon="6.17573">
        <ele>226.5</ele>
        <time>2021-10-06T15:40:03Z</time>
      </trkpt>
      <trkpt lat="47.66461" lon="6.17577">
        <ele>226.5</ele>
        <time>2021-10-06T15:40:04Z</time>
      </trkpt>
      <trkpt lat="47.66456" lon="6.1758">
        <ele>226.5</ele>
        <time>2021-10-06T15:40:06Z</time>
      </trkpt>
      <trkpt lat="47.66447" lon="6.17586">
        <ele>226.4</ele>
        <time>2021-10-06T15:40:08Z</time>
      </trkpt>
      <trkpt lat="47.66441" lon="6.1759">
        <ele>226.4</ele>
        <time>2021-10-06T15:40:10Z</time>
      </trkpt>
      <trkpt lat="47.66437" lon="6.17593">
        <ele>226.4</ele>
        <time>2021-10-06T15:40:11Z</time>
      </trkpt>
      <trkpt lat="47.66429" lon="6.17598">
        <ele>226.3</ele>
        <time>2021-10-06T15:40:13Z</time>
      </trkpt>
      <trkpt lat="47.6642" lon="6.17605">
        <ele>226.3</ele>
        <time>2021-10-06T15:40:16Z</time>
      </trkpt>
      <trkpt lat="47.66415" lon="6.1761">
        <ele>226.3</ele>
        <time>2021-10-06T15:40:17Z</time>
      </trkpt>
      <trkpt lat="47.66411" lon="6.17615">
        <ele>226.3</ele>
        <time>2021-10-06T15:40:18Z</time>
      </trkpt>
      <trkpt lat="47.66405" lon="6.17622">
        <ele>226.2</ele>
        <time>2021-10-06T15:40:20Z</time>
      </trkpt>
      <trkpt lat="47.66402" lon="6.17626">
        <ele>226.2</ele>
        <time>2021-10-06T15:40:21Z</time>
      </trkpt>
      <trkpt lat="47.66396" lon="6.17635">
        <ele>226.1</ele>
        <time>2021-10-06T15:40:23Z</time>
      </trkpt>
      <trkpt lat="47.66392" lon="6.17642">
        <ele>226</ele>
        <time>2021-10-06T15:40:24Z</time>
      </trkpt>
      <trkpt lat="47.66384" lon="6.17656">
        <ele>225.8</ele>
        <time>2021-10-06T15:40:27Z</time>
      </trkpt>
      <trkpt lat="47.66381" lon="6.17661">
        <ele>225.7</ele>
        <time>2021-10-06T15:40:28Z</time>
      </trkpt>
      <trkpt lat="47.66374" lon="6.17673">
        <ele>225.5</ele>
        <time>2021-10-06T15:40:29Z</time>
      </trkpt>
      <trkpt lat="47.66369" lon="6.17683">
        <ele>225.5</ele>
        <time>2021-10-06T15:40:32Z</time>
      </trkpt>
      <trkpt lat="47.66364" lon="6.17696">
        <ele>225.4</ele>
        <time>2021-10-06T15:40:33Z</time>
      </trkpt>
      <trkpt lat="47.66361" lon="6.17704">
        <ele>225.4</ele>
        <time>2021-10-06T15:40:36Z</time>
      </trkpt>
      <trkpt lat="47.66358" lon="6.17712">
        <ele>225.4</ele>
        <time>2021-10-06T15:40:37Z</time>
      </trkpt>
      <trkpt lat="47.66355" lon="6.17719">
        <ele>225.4</ele>
        <time>2021-10-06T15:40:38Z</time>
      </trkpt>
      <trkpt lat="47.66353" lon="6.17729">
        <ele>225.5</ele>
        <time>2021-10-06T15:40:40Z</time>
      </trkpt>
      <trkpt lat="47.66351" lon="6.17736">
        <ele>225.5</ele>
        <time>2021-10-06T15:40:41Z</time>
      </trkpt>
      <trkpt lat="47.6635" lon="6.17744">
        <ele>225.5</ele>
        <time>2021-10-06T15:40:42Z</time>
      </trkpt>
      <trkpt lat="47.66346" lon="6.17764">
        <ele>225.9</ele>
        <time>2021-10-06T15:40:44Z</time>
      </trkpt>
      <trkpt lat="47.66345" lon="6.17777">
        <ele>226.2</ele>
        <time>2021-10-06T15:40:46Z</time>
      </trkpt>
      <trkpt lat="47.66344" lon="6.17784">
        <ele>226.3</ele>
        <time>2021-10-06T15:40:47Z</time>
      </trkpt>
      <trkpt lat="47.66343" lon="6.17791">
        <ele>226.4</ele>
        <time>2021-10-06T15:40:48Z</time>
      </trkpt>
      <trkpt lat="47.66342" lon="6.17798">
        <ele>226.6</ele>
        <time>2021-10-06T15:40:49Z</time>
      </trkpt>
      <trkpt lat="47.66341" lon="6.17805">
        <ele>226.7</ele>
        <time>2021-10-06T15:40:50Z</time>
      </trkpt>
      <trkpt lat="47.66341" lon="6.17812">
        <ele>226.9</ele>
        <time>2021-10-06T15:40:51Z</time>
      </trkpt>
      <trkpt lat="47.6634" lon="6.17818">
        <ele>227</ele>
        <time>2021-10-06T15:40:52Z</time>
      </trkpt>
      <trkpt lat="47.6634" lon="6.17825">
        <ele>227.2</ele>
        <time>2021-10-06T15:40:53Z</time>
      </trkpt>
      <trkpt lat="47.66339" lon="6.17832">
        <ele>227.3</ele>
        <time>2021-10-06T15:40:54Z</time>
      </trkpt>
      <trkpt lat="47.66338" lon="6.17839">
        <ele>227.3</ele>
        <time>2021-10-06T15:40:55Z</time>
      </trkpt>
      <trkpt lat="47.66337" lon="6.17852">
        <ele>227.2</ele>
        <time>2021-10-06T15:40:57Z</time>
      </trkpt>
      <trkpt lat="47.66337" lon="6.17865">
        <ele>227.2</ele>
        <time>2021-10-06T15:40:59Z</time>
      </trkpt>
      <trkpt lat="47.66336" lon="6.17875">
        <ele>227.2</ele>
        <time>2021-10-06T15:41:01Z</time>
      </trkpt>
      <trkpt lat="47.66335" lon="6.17886">
        <ele>227.1</ele>
        <time>2021-10-06T15:41:03Z</time>
      </trkpt>
      <trkpt lat="47.66334" lon="6.17898">
        <ele>227.1</ele>
        <time>2021-10-06T15:41:05Z</time>
      </trkpt>
      <trkpt lat="47.66338" lon="6.17903">
        <ele>227.3</ele>
        <time>2021-10-06T15:41:08Z</time>
      </trkpt>
      <trkpt lat="47.66337" lon="6.1791">
        <ele>227.2</ele>
        <time>2021-10-06T15:41:09Z</time>
      </trkpt>
      <trkpt lat="47.66333" lon="6.17929">
        <ele>227</ele>
        <time>2021-10-06T15:41:12Z</time>
      </trkpt>
      <trkpt lat="47.66333" lon="6.17936">
        <ele>227</ele>
        <time>2021-10-06T15:41:13Z</time>
      </trkpt>
      <trkpt lat="47.66332" lon="6.17954">
        <ele>227</ele>
        <time>2021-10-06T15:41:16Z</time>
      </trkpt>
      <trkpt lat="47.66328" lon="6.17972">
        <ele>227.1</ele>
        <time>2021-10-06T15:41:18Z</time>
      </trkpt>
      <trkpt lat="47.66323" lon="6.17976">
        <ele>227.3</ele>
        <time>2021-10-06T15:41:21Z</time>
      </trkpt>
      <trkpt lat="47.66318" lon="6.17978">
        <ele>227.4</ele>
        <time>2021-10-06T15:41:22Z</time>
      </trkpt>
      <trkpt lat="47.66312" lon="6.17978">
        <ele>227.6</ele>
        <time>2021-10-06T15:41:24Z</time>
      </trkpt>
      <trkpt lat="47.66307" lon="6.17977">
        <ele>227.7</ele>
        <time>2021-10-06T15:41:25Z</time>
      </trkpt>
      <trkpt lat="47.663" lon="6.17977">
        <ele>227.9</ele>
        <time>2021-10-06T15:41:26Z</time>
      </trkpt>
      <trkpt lat="47.66294" lon="6.17976">
        <ele>228</ele>
        <time>2021-10-06T15:41:29Z</time>
      </trkpt>
      <trkpt lat="47.66286" lon="6.17975">
        <ele>228.2</ele>
        <time>2021-10-06T15:41:30Z</time>
      </trkpt>
      <trkpt lat="47.6628" lon="6.17975">
        <ele>228.4</ele>
        <time>2021-10-06T15:41:32Z</time>
      </trkpt>
      <trkpt lat="47.66273" lon="6.17975">
        <ele>228.5</ele>
        <time>2021-10-06T15:41:34Z</time>
      </trkpt>
      <trkpt lat="47.66268" lon="6.17973">
        <ele>228.6</ele>
        <time>2021-10-06T15:41:36Z</time>
      </trkpt>
      <trkpt lat="47.66261" lon="6.17973">
        <ele>228.8</ele>
        <time>2021-10-06T15:41:40Z</time>
      </trkpt>
      <trkpt lat="47.66256" lon="6.17971">
        <ele>228.8</ele>
        <time>2021-10-06T15:41:41Z</time>
      </trkpt>
      <trkpt lat="47.66251" lon="6.17971">
        <ele>228.9</ele>
        <time>2021-10-06T15:41:45Z</time>
      </trkpt>
      <trkpt lat="47.66246" lon="6.1797">
        <ele>229</ele>
        <time>2021-10-06T15:41:47Z</time>
      </trkpt>
      <trkpt lat="47.66239" lon="6.17968">
        <ele>229.1</ele>
        <time>2021-10-06T15:41:50Z</time>
      </trkpt>
      <trkpt lat="47.66233" lon="6.17967">
        <ele>229.3</ele>
        <time>2021-10-06T15:41:51Z</time>
      </trkpt>
      <trkpt lat="47.66226" lon="6.17965">
        <ele>229.4</ele>
        <time>2021-10-06T15:41:55Z</time>
      </trkpt>
      <trkpt lat="47.66221" lon="6.17964">
        <ele>229.5</ele>
        <time>2021-10-06T15:41:57Z</time>
      </trkpt>
      <trkpt lat="47.66215" lon="6.17963">
        <ele>229.5</ele>
        <time>2021-10-06T15:41:59Z</time>
      </trkpt>
      <trkpt lat="47.6621" lon="6.17961">
        <ele>229.6</ele>
        <time>2021-10-06T15:42:01Z</time>
      </trkpt>
      <trkpt lat="47.66204" lon="6.17959">
        <ele>229.6</ele>
        <time>2021-10-06T15:42:03Z</time>
      </trkpt>
      <trkpt lat="47.66195" lon="6.17958">
        <ele>229.8</ele>
        <time>2021-10-06T15:42:03Z</time>
      </trkpt>
      <trkpt lat="47.66188" lon="6.17956">
        <ele>229.9</ele>
        <time>2021-10-06T15:42:07Z</time>
      </trkpt>
      <trkpt lat="47.66181" lon="6.17955">
        <ele>230</ele>
        <time>2021-10-06T15:42:09Z</time>
      </trkpt>
      <trkpt lat="47.66176" lon="6.17954">
        <ele>230.1</ele>
        <time>2021-10-06T15:42:10Z</time>
      </trkpt>
      <trkpt lat="47.66163" lon="6.17954">
        <ele>230.3</ele>
        <time>2021-10-06T15:42:13Z</time>
      </trkpt>
      <trkpt lat="47.66156" lon="6.17954">
        <ele>230.3</ele>
        <time>2021-10-06T15:42:15Z</time>
      </trkpt>
      <trkpt lat="47.66143" lon="6.17954">
        <ele>230.5</ele>
        <time>2021-10-06T15:42:18Z</time>
      </trkpt>
      <trkpt lat="47.66132" lon="6.17954">
        <ele>230.6</ele>
        <time>2021-10-06T15:42:20Z</time>
      </trkpt>
      <trkpt lat="47.66127" lon="6.17954">
        <ele>230.7</ele>
        <time>2021-10-06T15:42:22Z</time>
      </trkpt>
      <trkpt lat="47.66122" lon="6.17954">
        <ele>230.7</ele>
        <time>2021-10-06T15:42:23Z</time>
      </trkpt>
      <trkpt lat="47.6611" lon="6.17955">
        <ele>230.9</ele>
        <time>2021-10-06T15:42:26Z</time>
      </trkpt>
      <trkpt lat="47.66103" lon="6.17955">
        <ele>231</ele>
        <time>2021-10-06T15:42:27Z</time>
      </trkpt>
      <trkpt lat="47.66089" lon="6.17956">
        <ele>231.2</ele>
        <time>2021-10-06T15:42:30Z</time>
      </trkpt>
      <trkpt lat="47.66083" lon="6.17956">
        <ele>231.3</ele>
        <time>2021-10-06T15:42:31Z</time>
      </trkpt>
      <trkpt lat="47.66069" lon="6.17956">
        <ele>231.3</ele>
        <time>2021-10-06T15:42:31Z</time>
      </trkpt>
      <trkpt lat="47.66064" lon="6.17955">
        <ele>231.2</ele>
        <time>2021-10-06T15:42:32Z</time>
      </trkpt>
      <trkpt lat="47.66059" lon="6.17955">
        <ele>231.2</ele>
        <time>2021-10-06T15:42:33Z</time>
      </trkpt>
      <trkpt lat="47.66053" lon="6.17955">
        <ele>231.2</ele>
        <time>2021-10-06T15:42:34Z</time>
      </trkpt>
      <trkpt lat="47.66048" lon="6.17955">
        <ele>231.2</ele>
        <time>2021-10-06T15:42:35Z</time>
      </trkpt>
      <trkpt lat="47.66043" lon="6.17955">
        <ele>231.2</ele>
        <time>2021-10-06T15:42:36Z</time>
      </trkpt>
      <trkpt lat="47.66038" lon="6.17954">
        <ele>231.2</ele>
        <time>2021-10-06T15:42:37Z</time>
      </trkpt>
      <trkpt lat="47.66033" lon="6.17954">
        <ele>231.1</ele>
        <time>2021-10-06T15:42:38Z</time>
      </trkpt>
      <trkpt lat="47.66028" lon="6.17954">
        <ele>231.1</ele>
        <time>2021-10-06T15:42:39Z</time>
      </trkpt>
      <trkpt lat="47.66022" lon="6.17954">
        <ele>231.1</ele>
        <time>2021-10-06T15:42:40Z</time>
      </trkpt>
      <trkpt lat="47.66017" lon="6.17954">
        <ele>231.1</ele>
        <time>2021-10-06T15:42:41Z</time>
      </trkpt>
      <trkpt lat="47.66013" lon="6.17954">
        <ele>231.1</ele>
        <time>2021-10-06T15:42:42Z</time>
      </trkpt>
      <trkpt lat="47.66008" lon="6.17953">
        <ele>231.1</ele>
        <time>2021-10-06T15:42:43Z</time>
      </trkpt>
      <trkpt lat="47.65999" lon="6.17953">
        <ele>231.1</ele>
        <time>2021-10-06T15:42:45Z</time>
      </trkpt>
      <trkpt lat="47.65991" lon="6.17953">
        <ele>231.2</ele>
        <time>2021-10-06T15:42:47Z</time>
      </trkpt>
      <trkpt lat="47.65984" lon="6.17953">
        <ele>231.3</ele>
        <time>2021-10-06T15:42:49Z</time>
      </trkpt>
      <trkpt lat="47.65978" lon="6.17952">
        <ele>231.3</ele>
        <time>2021-10-06T15:42:51Z</time>
      </trkpt>
      <trkpt lat="47.65971" lon="6.17952">
        <ele>231.4</ele>
        <time>2021-10-06T15:42:53Z</time>
      </trkpt>
      <trkpt lat="47.65965" lon="6.17951">
        <ele>231.4</ele>
        <time>2021-10-06T15:42:55Z</time>
      </trkpt>
      <trkpt lat="47.65958" lon="6.17949">
        <ele>231.3</ele>
        <time>2021-10-06T15:43:00Z</time>
      </trkpt>
      <trkpt lat="47.65946" lon="6.17949">
        <ele>231.5</ele>
        <time>2021-10-06T15:43:01Z</time>
      </trkpt>
      <trkpt lat="47.6594" lon="6.17949">
        <ele>231.6</ele>
        <time>2021-10-06T15:43:05Z</time>
      </trkpt>
      <trkpt lat="47.65933" lon="6.17949">
        <ele>231.7</ele>
        <time>2021-10-06T15:43:05Z</time>
      </trkpt>
      <trkpt lat="47.65928" lon="6.17948">
        <ele>231.6</ele>
        <time>2021-10-06T15:43:07Z</time>
      </trkpt>
      <trkpt lat="47.65923" lon="6.17947">
        <ele>231.6</ele>
        <time>2021-10-06T15:43:09Z</time>
      </trkpt>
      <trkpt lat="47.65917" lon="6.17949">
        <ele>231.9</ele>
        <time>2021-10-06T15:43:12Z</time>
      </trkpt>
      <trkpt lat="47.65911" lon="6.17949">
        <ele>231.9</ele>
        <time>2021-10-06T15:43:15Z</time>
      </trkpt>
      <trkpt lat="47.65905" lon="6.17949">
        <ele>232</ele>
        <time>2021-10-06T15:43:22Z</time>
      </trkpt>
      <trkpt lat="47.659" lon="6.17951">
        <ele>232.3</ele>
        <time>2021-10-06T15:43:25Z</time>
      </trkpt>
      <trkpt lat="47.65895" lon="6.17952">
        <ele>232.5</ele>
        <time>2021-10-06T15:43:28Z</time>
      </trkpt>
      <trkpt lat="47.65889" lon="6.17953">
        <ele>232.7</ele>
        <time>2021-10-06T15:43:29Z</time>
      </trkpt>
      <trkpt lat="47.65882" lon="6.17954">
        <ele>232.9</ele>
        <time>2021-10-06T15:43:34Z</time>
      </trkpt>
      <trkpt lat="47.65878" lon="6.17955">
        <ele>233.1</ele>
        <time>2021-10-06T15:43:34Z</time>
      </trkpt>
      <trkpt lat="47.65873" lon="6.17957">
        <ele>233.3</ele>
        <time>2021-10-06T15:43:36Z</time>
      </trkpt>
      <trkpt lat="47.65867" lon="6.17959">
        <ele>233.6</ele>
        <time>2021-10-06T15:43:41Z</time>
      </trkpt>
      <trkpt lat="47.65862" lon="6.1796">
        <ele>233.9</ele>
        <time>2021-10-06T15:43:43Z</time>
      </trkpt>
      <trkpt lat="47.65856" lon="6.17964">
        <ele>234.4</ele>
        <time>2021-10-06T15:43:45Z</time>
      </trkpt>
      <trkpt lat="47.65852" lon="6.17967">
        <ele>234.9</ele>
        <time>2021-10-06T15:43:47Z</time>
      </trkpt>
      <trkpt lat="47.65846" lon="6.17972">
        <ele>235.5</ele>
        <time>2021-10-06T15:43:47Z</time>
      </trkpt>
      <trkpt lat="47.65842" lon="6.17976">
        <ele>236</ele>
        <time>2021-10-06T15:43:49Z</time>
      </trkpt>
      <trkpt lat="47.65836" lon="6.17981">
        <ele>236.7</ele>
        <time>2021-10-06T15:43:53Z</time>
      </trkpt>
      <trkpt lat="47.65832" lon="6.17984">
        <ele>237</ele>
        <time>2021-10-06T15:43:53Z</time>
      </trkpt>
      <trkpt lat="47.65826" lon="6.17989">
        <ele>237.1</ele>
        <time>2021-10-06T15:43:58Z</time>
      </trkpt>
      <trkpt lat="47.65819" lon="6.17993">
        <ele>237</ele>
        <time>2021-10-06T15:43:58Z</time>
      </trkpt>
      <trkpt lat="47.65815" lon="6.17996">
        <ele>237</ele>
        <time>2021-10-06T15:44:02Z</time>
      </trkpt>
      <trkpt lat="47.65809" lon="6.18">
        <ele>237</ele>
        <time>2021-10-06T15:44:02Z</time>
      </trkpt>
      <trkpt lat="47.65804" lon="6.18007">
        <ele>237.4</ele>
        <time>2021-10-06T15:44:07Z</time>
      </trkpt>
      <trkpt lat="47.65798" lon="6.1801">
        <ele>237.2</ele>
        <time>2021-10-06T15:44:09Z</time>
      </trkpt>
      <trkpt lat="47.65793" lon="6.18014">
        <ele>237.2</ele>
        <time>2021-10-06T15:44:11Z</time>
      </trkpt>
      <trkpt lat="47.65787" lon="6.18018">
        <ele>237.2</ele>
        <time>2021-10-06T15:44:13Z</time>
      </trkpt>
      <trkpt lat="47.65782" lon="6.18022">
        <ele>237.2</ele>
        <time>2021-10-06T15:44:15Z</time>
      </trkpt>
      <trkpt lat="47.65777" lon="6.18026">
        <ele>237.2</ele>
        <time>2021-10-06T15:44:17Z</time>
      </trkpt>
      <trkpt lat="47.65773" lon="6.18029">
        <ele>237.1</ele>
        <time>2021-10-06T15:44:18Z</time>
      </trkpt>
      <trkpt lat="47.65766" lon="6.18031">
        <ele>236.6</ele>
        <time>2021-10-06T15:44:20Z</time>
      </trkpt>
      <trkpt lat="47.65754" lon="6.18039">
        <ele>236.1</ele>
        <time>2021-10-06T15:44:23Z</time>
      </trkpt>
      <trkpt lat="47.65748" lon="6.18043">
        <ele>236</ele>
        <time>2021-10-06T15:44:24Z</time>
      </trkpt>
      <trkpt lat="47.65743" lon="6.18048">
        <ele>235.8</ele>
        <time>2021-10-06T15:44:25Z</time>
      </trkpt>
      <trkpt lat="47.65736" lon="6.18052">
        <ele>235.5</ele>
        <time>2021-10-06T15:44:26Z</time>
      </trkpt>
      <trkpt lat="47.65716" lon="6.18068">
        <ele>234.5</ele>
        <time>2021-10-06T15:44:26Z</time>
      </trkpt>
      <trkpt lat="47.6571" lon="6.18076">
        <ele>234.2</ele>
        <time>2021-10-06T15:44:27Z</time>
      </trkpt>
      <trkpt lat="47.65704" lon="6.18083">
        <ele>234</ele>
        <time>2021-10-06T15:44:28Z</time>
      </trkpt>
      <trkpt lat="47.65699" lon="6.18091">
        <ele>234.2</ele>
        <time>2021-10-06T15:44:29Z</time>
      </trkpt>
      <trkpt lat="47.65695" lon="6.18099">
        <ele>234.5</ele>
        <time>2021-10-06T15:44:30Z</time>
      </trkpt>
      <trkpt lat="47.65692" lon="6.18108">
        <ele>234.9</ele>
        <time>2021-10-06T15:44:31Z</time>
      </trkpt>
      <trkpt lat="47.65688" lon="6.18116">
        <ele>235.3</ele>
        <time>2021-10-06T15:44:32Z</time>
      </trkpt>
      <trkpt lat="47.65684" lon="6.18124">
        <ele>235.5</ele>
        <time>2021-10-06T15:44:33Z</time>
      </trkpt>
      <trkpt lat="47.6568" lon="6.18132">
        <ele>235.7</ele>
        <time>2021-10-06T15:44:34Z</time>
      </trkpt>
      <trkpt lat="47.65675" lon="6.18139">
        <ele>235.7</ele>
        <time>2021-10-06T15:44:35Z</time>
      </trkpt>
      <trkpt lat="47.65671" lon="6.18144">
        <ele>235.5</ele>
        <time>2021-10-06T15:44:36Z</time>
      </trkpt>
      <trkpt lat="47.65667" lon="6.18149">
        <ele>235.3</ele>
        <time>2021-10-06T15:44:37Z</time>
      </trkpt>
      <trkpt lat="47.65662" lon="6.18152">
        <ele>235.2</ele>
        <time>2021-10-06T15:44:38Z</time>
      </trkpt>
      <trkpt lat="47.65658" lon="6.18156">
        <ele>235.1</ele>
        <time>2021-10-06T15:44:39Z</time>
      </trkpt>
      <trkpt lat="47.65653" lon="6.1816">
        <ele>235</ele>
        <time>2021-10-06T15:44:40Z</time>
      </trkpt>
      <trkpt lat="47.65649" lon="6.18164">
        <ele>234.8</ele>
        <time>2021-10-06T15:44:41Z</time>
      </trkpt>
      <trkpt lat="47.65641" lon="6.18168">
        <ele>234.4</ele>
        <time>2021-10-06T15:44:43Z</time>
      </trkpt>
      <trkpt lat="47.65635" lon="6.18169">
        <ele>234</ele>
        <time>2021-10-06T15:44:44Z</time>
      </trkpt>
      <trkpt lat="47.65628" lon="6.18169">
        <ele>233.2</ele>
        <time>2021-10-06T15:44:45Z</time>
      </trkpt>
      <trkpt lat="47.65621" lon="6.18168">
        <ele>232.4</ele>
        <time>2021-10-06T15:44:46Z</time>
      </trkpt>
      <trkpt lat="47.65614" lon="6.18169">
        <ele>231.8</ele>
        <time>2021-10-06T15:44:47Z</time>
      </trkpt>
      <trkpt lat="47.65608" lon="6.18172">
        <ele>231.6</ele>
        <time>2021-10-06T15:44:48Z</time>
      </trkpt>
      <trkpt lat="47.65603" lon="6.18177">
        <ele>231.8</ele>
        <time>2021-10-06T15:44:49Z</time>
      </trkpt>
      <trkpt lat="47.65599" lon="6.18182">
        <ele>232.2</ele>
        <time>2021-10-06T15:44:50Z</time>
      </trkpt>
      <trkpt lat="47.65594" lon="6.18192">
        <ele>233.1</ele>
        <time>2021-10-06T15:44:52Z</time>
      </trkpt>
      <trkpt lat="47.6559" lon="6.182">
        <ele>234</ele>
        <time>2021-10-06T15:44:54Z</time>
      </trkpt>
      <trkpt lat="47.65585" lon="6.18208">
        <ele>234.6</ele>
        <time>2021-10-06T15:44:56Z</time>
      </trkpt>
      <trkpt lat="47.65579" lon="6.18215">
        <ele>235.2</ele>
        <time>2021-10-06T15:44:58Z</time>
      </trkpt>
      <trkpt lat="47.65573" lon="6.18222">
        <ele>235.8</ele>
        <time>2021-10-06T15:45:00Z</time>
      </trkpt>
      <trkpt lat="47.65568" lon="6.18227">
        <ele>236.1</ele>
        <time>2021-10-06T15:45:02Z</time>
      </trkpt>
      <trkpt lat="47.65562" lon="6.18232">
        <ele>236.3</ele>
        <time>2021-10-06T15:45:05Z</time>
      </trkpt>
      <trkpt lat="47.65557" lon="6.18235">
        <ele>236.3</ele>
        <time>2021-10-06T15:45:07Z</time>
      </trkpt>
      <trkpt lat="47.65553" lon="6.18237">
        <ele>236.1</ele>
        <time>2021-10-06T15:45:09Z</time>
      </trkpt>
      <trkpt lat="47.65547" lon="6.1824">
        <ele>235.8</ele>
        <time>2021-10-06T15:45:13Z</time>
      </trkpt>
      <trkpt lat="47.65542" lon="6.18242">
        <ele>235.6</ele>
        <time>2021-10-06T15:45:15Z</time>
      </trkpt>
      <trkpt lat="47.65537" lon="6.18243">
        <ele>235.2</ele>
        <time>2021-10-06T15:45:16Z</time>
      </trkpt>
      <trkpt lat="47.65524" lon="6.18248">
        <ele>234.4</ele>
        <time>2021-10-06T15:45:16Z</time>
      </trkpt>
      <trkpt lat="47.65517" lon="6.1825">
        <ele>234</ele>
        <time>2021-10-06T15:45:17Z</time>
      </trkpt>
      <trkpt lat="47.65511" lon="6.18253">
        <ele>233.9</ele>
        <time>2021-10-06T15:45:18Z</time>
      </trkpt>
      <trkpt lat="47.65505" lon="6.18256">
        <ele>233.9</ele>
        <time>2021-10-06T15:45:19Z</time>
      </trkpt>
      <trkpt lat="47.65498" lon="6.18259">
        <ele>234</ele>
        <time>2021-10-06T15:45:20Z</time>
      </trkpt>
      <trkpt lat="47.65492" lon="6.18261">
        <ele>234.3</ele>
        <time>2021-10-06T15:45:21Z</time>
      </trkpt>
      <trkpt lat="47.65485" lon="6.18263">
        <ele>234.5</ele>
        <time>2021-10-06T15:45:22Z</time>
      </trkpt>
      <trkpt lat="47.65478" lon="6.18264">
        <ele>234.5</ele>
        <time>2021-10-06T15:45:23Z</time>
      </trkpt>
      <trkpt lat="47.65472" lon="6.18265">
        <ele>234.4</ele>
        <time>2021-10-06T15:45:24Z</time>
      </trkpt>
      <trkpt lat="47.65465" lon="6.18265">
        <ele>234.2</ele>
        <time>2021-10-06T15:45:25Z</time>
      </trkpt>
      <trkpt lat="47.65457" lon="6.18265">
        <ele>233.8</ele>
        <time>2021-10-06T15:45:26Z</time>
      </trkpt>
      <trkpt lat="47.6545" lon="6.18263">
        <ele>233.2</ele>
        <time>2021-10-06T15:45:27Z</time>
      </trkpt>
      <trkpt lat="47.65442" lon="6.18261">
        <ele>232.5</ele>
        <time>2021-10-06T15:45:28Z</time>
      </trkpt>
      <trkpt lat="47.65434" lon="6.18258">
        <ele>231.5</ele>
        <time>2021-10-06T15:45:29Z</time>
      </trkpt>
      <trkpt lat="47.65427" lon="6.18255">
        <ele>230.5</ele>
        <time>2021-10-06T15:45:30Z</time>
      </trkpt>
      <trkpt lat="47.65419" lon="6.18251">
        <ele>229.4</ele>
        <time>2021-10-06T15:45:31Z</time>
      </trkpt>
      <trkpt lat="47.65412" lon="6.18247">
        <ele>229.6</ele>
        <time>2021-10-06T15:45:32Z</time>
      </trkpt>
      <trkpt lat="47.65405" lon="6.18241">
        <ele>230.3</ele>
        <time>2021-10-06T15:45:33Z</time>
      </trkpt>
      <trkpt lat="47.65398" lon="6.18236">
        <ele>230.9</ele>
        <time>2021-10-06T15:45:34Z</time>
      </trkpt>
      <trkpt lat="47.65391" lon="6.18231">
        <ele>231.5</ele>
        <time>2021-10-06T15:45:35Z</time>
      </trkpt>
      <trkpt lat="47.65385" lon="6.18225">
        <ele>231.8</ele>
        <time>2021-10-06T15:45:36Z</time>
      </trkpt>
      <trkpt lat="47.65379" lon="6.1822">
        <ele>232.1</ele>
        <time>2021-10-06T15:45:37Z</time>
      </trkpt>
      <trkpt lat="47.65373" lon="6.18214">
        <ele>232.2</ele>
        <time>2021-10-06T15:45:38Z</time>
      </trkpt>
      <trkpt lat="47.65367" lon="6.18208">
        <ele>232.3</ele>
        <time>2021-10-06T15:45:39Z</time>
      </trkpt>
      <trkpt lat="47.65362" lon="6.18203">
        <ele>232.3</ele>
        <time>2021-10-06T15:45:40Z</time>
      </trkpt>
      <trkpt lat="47.65356" lon="6.18198">
        <ele>232.2</ele>
        <time>2021-10-06T15:45:41Z</time>
      </trkpt>
      <trkpt lat="47.65351" lon="6.18192">
        <ele>232.1</ele>
        <time>2021-10-06T15:45:42Z</time>
      </trkpt>
      <trkpt lat="47.65346" lon="6.18187">
        <ele>231.8</ele>
        <time>2021-10-06T15:45:43Z</time>
      </trkpt>
      <trkpt lat="47.65342" lon="6.18181">
        <ele>231.4</ele>
        <time>2021-10-06T15:45:44Z</time>
      </trkpt>
      <trkpt lat="47.65338" lon="6.18175">
        <ele>230.9</ele>
        <time>2021-10-06T15:45:45Z</time>
      </trkpt>
      <trkpt lat="47.65334" lon="6.18169">
        <ele>230.3</ele>
        <time>2021-10-06T15:45:46Z</time>
      </trkpt>
      <trkpt lat="47.6533" lon="6.18163">
        <ele>230.6</ele>
        <time>2021-10-06T15:45:47Z</time>
      </trkpt>
      <trkpt lat="47.65327" lon="6.18157">
        <ele>231.1</ele>
        <time>2021-10-06T15:45:48Z</time>
      </trkpt>
      <trkpt lat="47.65324" lon="6.18151">
        <ele>231.5</ele>
        <time>2021-10-06T15:45:49Z</time>
      </trkpt>
      <trkpt lat="47.65321" lon="6.18145">
        <ele>231.8</ele>
        <time>2021-10-06T15:45:50Z</time>
      </trkpt>
      <trkpt lat="47.65319" lon="6.18139">
        <ele>232</ele>
        <time>2021-10-06T15:45:51Z</time>
      </trkpt>
      <trkpt lat="47.65317" lon="6.18133">
        <ele>232.1</ele>
        <time>2021-10-06T15:45:52Z</time>
      </trkpt>
      <trkpt lat="47.65315" lon="6.18126">
        <ele>232.2</ele>
        <time>2021-10-06T15:45:53Z</time>
      </trkpt>
      <trkpt lat="47.65313" lon="6.18119">
        <ele>232.2</ele>
        <time>2021-10-06T15:45:54Z</time>
      </trkpt>
      <trkpt lat="47.65311" lon="6.18113">
        <ele>232.1</ele>
        <time>2021-10-06T15:45:55Z</time>
      </trkpt>
      <trkpt lat="47.6531" lon="6.18106">
        <ele>232</ele>
        <time>2021-10-06T15:45:56Z</time>
      </trkpt>
      <trkpt lat="47.65309" lon="6.18099">
        <ele>231.8</ele>
        <time>2021-10-06T15:45:57Z</time>
      </trkpt>
      <trkpt lat="47.65307" lon="6.18088">
        <ele>231.4</ele>
        <time>2021-10-06T15:45:59Z</time>
      </trkpt>
      <trkpt lat="47.65305" lon="6.18075">
        <ele>230.9</ele>
        <time>2021-10-06T15:46:01Z</time>
      </trkpt>
      <trkpt lat="47.65304" lon="6.18069">
        <ele>230.6</ele>
        <time>2021-10-06T15:46:02Z</time>
      </trkpt>
      <trkpt lat="47.65302" lon="6.18057">
        <ele>230.1</ele>
        <time>2021-10-06T15:46:04Z</time>
      </trkpt>
      <trkpt lat="47.65302" lon="6.18046">
        <ele>229.2</ele>
        <time>2021-10-06T15:46:06Z</time>
      </trkpt>
      <trkpt lat="47.65301" lon="6.18037">
        <ele>228.8</ele>
        <time>2021-10-06T15:46:10Z</time>
      </trkpt>
      <trkpt lat="47.65299" lon="6.1803">
        <ele>228.4</ele>
        <time>2021-10-06T15:46:11Z</time>
      </trkpt>
      <trkpt lat="47.65297" lon="6.18022">
        <ele>228</ele>
        <time>2021-10-06T15:46:13Z</time>
      </trkpt>
      <trkpt lat="47.65291" lon="6.18011">
        <ele>227.6</ele>
        <time>2021-10-06T15:46:15Z</time>
      </trkpt>
      <trkpt lat="47.65287" lon="6.18004">
        <ele>227.1</ele>
        <time>2021-10-06T15:46:17Z</time>
      </trkpt>
      <trkpt lat="47.65282" lon="6.17997">
        <ele>227</ele>
        <time>2021-10-06T15:46:17Z</time>
      </trkpt>
      <trkpt lat="47.65277" lon="6.17991">
        <ele>227.1</ele>
        <time>2021-10-06T15:46:21Z</time>
      </trkpt>
      <trkpt lat="47.65269" lon="6.17984">
        <ele>227.3</ele>
        <time>2021-10-06T15:46:24Z</time>
      </trkpt>
      <trkpt lat="47.65258" lon="6.17978">
        <ele>227.6</ele>
        <time>2021-10-06T15:46:25Z</time>
      </trkpt>
      <trkpt lat="47.65253" lon="6.17976">
        <ele>227.8</ele>
        <time>2021-10-06T15:46:29Z</time>
      </trkpt>
      <trkpt lat="47.65247" lon="6.17975">
        <ele>227.7</ele>
        <time>2021-10-06T15:46:31Z</time>
      </trkpt>
      <trkpt lat="47.6524" lon="6.17976">
        <ele>227.4</ele>
        <time>2021-10-06T15:46:33Z</time>
      </trkpt>
      <trkpt lat="47.65234" lon="6.17976">
        <ele>227.2</ele>
        <time>2021-10-06T15:46:35Z</time>
      </trkpt>
      <trkpt lat="47.65221" lon="6.17981">
        <ele>226.8</ele>
        <time>2021-10-06T15:46:36Z</time>
      </trkpt>
      <trkpt lat="47.65216" lon="6.17983">
        <ele>226.7</ele>
        <time>2021-10-06T15:46:40Z</time>
      </trkpt>
      <trkpt lat="47.65207" lon="6.17991">
        <ele>226.3</ele>
        <time>2021-10-06T15:46:43Z</time>
      </trkpt>
      <trkpt lat="47.65198" lon="6.18002">
        <ele>226.1</ele>
        <time>2021-10-06T15:46:46Z</time>
      </trkpt>
      <trkpt lat="47.65189" lon="6.18016">
        <ele>227.4</ele>
        <time>2021-10-06T15:46:49Z</time>
      </trkpt>
      <trkpt lat="47.65183" lon="6.18025">
        <ele>228.2</ele>
        <time>2021-10-06T15:46:51Z</time>
      </trkpt>
      <trkpt lat="47.65179" lon="6.18033">
        <ele>228.9</ele>
        <time>2021-10-06T15:46:53Z</time>
      </trkpt>
      <trkpt lat="47.65166" lon="6.18055">
        <ele>230.6</ele>
        <time>2021-10-06T15:46:53Z</time>
      </trkpt>
      <trkpt lat="47.65162" lon="6.18062">
        <ele>231.5</ele>
        <time>2021-10-06T15:46:54Z</time>
      </trkpt>
      <trkpt lat="47.65158" lon="6.18069">
        <ele>232.1</ele>
        <time>2021-10-06T15:46:55Z</time>
      </trkpt>
      <trkpt lat="47.65154" lon="6.18074">
        <ele>232.6</ele>
        <time>2021-10-06T15:46:56Z</time>
      </trkpt>
      <trkpt lat="47.6515" lon="6.18079">
        <ele>233</ele>
        <time>2021-10-06T15:46:57Z</time>
      </trkpt>
      <trkpt lat="47.65146" lon="6.18084">
        <ele>233.4</ele>
        <time>2021-10-06T15:46:58Z</time>
      </trkpt>
      <trkpt lat="47.65141" lon="6.18088">
        <ele>234</ele>
        <time>2021-10-06T15:46:59Z</time>
      </trkpt>
      <trkpt lat="47.65137" lon="6.18092">
        <ele>234.5</ele>
        <time>2021-10-06T15:47:00Z</time>
      </trkpt>
      <trkpt lat="47.65132" lon="6.18095">
        <ele>234.9</ele>
        <time>2021-10-06T15:47:01Z</time>
      </trkpt>
      <trkpt lat="47.65127" lon="6.18098">
        <ele>235.3</ele>
        <time>2021-10-06T15:47:02Z</time>
      </trkpt>
      <trkpt lat="47.65123" lon="6.181">
        <ele>235.6</ele>
        <time>2021-10-06T15:47:03Z</time>
      </trkpt>
      <trkpt lat="47.65118" lon="6.18102">
        <ele>235.7</ele>
        <time>2021-10-06T15:47:04Z</time>
      </trkpt>
      <trkpt lat="47.65109" lon="6.18104">
        <ele>235.8</ele>
        <time>2021-10-06T15:47:06Z</time>
      </trkpt>
      <trkpt lat="47.65102" lon="6.18105">
        <ele>235.7</ele>
        <time>2021-10-06T15:47:08Z</time>
      </trkpt>
      <trkpt lat="47.65097" lon="6.18105">
        <ele>235.5</ele>
        <time>2021-10-06T15:47:09Z</time>
      </trkpt>
      <trkpt lat="47.65088" lon="6.18104">
        <ele>235.1</ele>
        <time>2021-10-06T15:47:11Z</time>
      </trkpt>
      <trkpt lat="47.65083" lon="6.18103">
        <ele>234.8</ele>
        <time>2021-10-06T15:47:12Z</time>
      </trkpt>
      <trkpt lat="47.65079" lon="6.181">
        <ele>234.1</ele>
        <time>2021-10-06T15:47:17Z</time>
      </trkpt>
      <trkpt lat="47.65073" lon="6.18099">
        <ele>233.8</ele>
        <time>2021-10-06T15:47:18Z</time>
      </trkpt>
      <trkpt lat="47.65064" lon="6.18096">
        <ele>233.1</ele>
        <time>2021-10-06T15:47:20Z</time>
      </trkpt>
      <trkpt lat="47.65057" lon="6.18096">
        <ele>232.9</ele>
        <time>2021-10-06T15:47:22Z</time>
      </trkpt>
      <trkpt lat="47.6505" lon="6.18096">
        <ele>232.8</ele>
        <time>2021-10-06T15:47:24Z</time>
      </trkpt>
      <trkpt lat="47.65036" lon="6.18094">
        <ele>232.1</ele>
        <time>2021-10-06T15:47:25Z</time>
      </trkpt>
      <trkpt lat="47.6503" lon="6.18093">
        <ele>232</ele>
        <time>2021-10-06T15:47:29Z</time>
      </trkpt>
      <trkpt lat="47.6502" lon="6.18095">
        <ele>232.1</ele>
        <time>2021-10-06T15:47:29Z</time>
      </trkpt>
      <trkpt lat="47.65013" lon="6.18096">
        <ele>232.1</ele>
        <time>2021-10-06T15:47:33Z</time>
      </trkpt>
      <trkpt lat="47.65005" lon="6.18097">
        <ele>232</ele>
        <time>2021-10-06T15:47:35Z</time>
      </trkpt>
      <trkpt lat="47.64997" lon="6.18098">
        <ele>232</ele>
        <time>2021-10-06T15:47:35Z</time>
      </trkpt>
      <trkpt lat="47.64991" lon="6.18099">
        <ele>231.9</ele>
        <time>2021-10-06T15:47:39Z</time>
      </trkpt>
      <trkpt lat="47.64985" lon="6.18101">
        <ele>231.9</ele>
        <time>2021-10-06T15:47:41Z</time>
      </trkpt>
      <trkpt lat="47.64972" lon="6.18102">
        <ele>231.4</ele>
        <time>2021-10-06T15:47:44Z</time>
      </trkpt>
      <trkpt lat="47.64964" lon="6.18101">
        <ele>231</ele>
        <time>2021-10-06T15:47:46Z</time>
      </trkpt>
      <trkpt lat="47.64951" lon="6.18098">
        <ele>230.1</ele>
        <time>2021-10-06T15:47:49Z</time>
      </trkpt>
      <trkpt lat="47.64938" lon="6.18096">
        <ele>229.2</ele>
        <time>2021-10-06T15:47:52Z</time>
      </trkpt>
      <trkpt lat="47.64931" lon="6.18095">
        <ele>228.9</ele>
        <time>2021-10-06T15:47:54Z</time>
      </trkpt>
      <trkpt lat="47.64926" lon="6.18095">
        <ele>228.6</ele>
        <time>2021-10-06T15:47:55Z</time>
      </trkpt>
      <trkpt lat="47.64918" lon="6.18093">
        <ele>228.1</ele>
        <time>2021-10-06T15:47:57Z</time>
      </trkpt>
      <trkpt lat="47.64912" lon="6.18092">
        <ele>227.8</ele>
        <time>2021-10-06T15:47:59Z</time>
      </trkpt>
      <trkpt lat="47.64906" lon="6.18091">
        <ele>227.6</ele>
        <time>2021-10-06T15:48:00Z</time>
      </trkpt>
      <trkpt lat="47.64895" lon="6.18088">
        <ele>227</ele>
        <time>2021-10-06T15:48:03Z</time>
      </trkpt>
      <trkpt lat="47.64888" lon="6.18086">
        <ele>226.7</ele>
        <time>2021-10-06T15:48:05Z</time>
      </trkpt>
      <trkpt lat="47.64882" lon="6.18085">
        <ele>226.3</ele>
        <time>2021-10-06T15:48:07Z</time>
      </trkpt>
      <trkpt lat="47.64875" lon="6.18083">
        <ele>226</ele>
        <time>2021-10-06T15:48:09Z</time>
      </trkpt>
      <trkpt lat="47.64868" lon="6.18081">
        <ele>225.8</ele>
        <time>2021-10-06T15:48:09Z</time>
      </trkpt>
      <trkpt lat="47.64862" lon="6.1808">
        <ele>225.6</ele>
        <time>2021-10-06T15:48:11Z</time>
      </trkpt>
      <trkpt lat="47.64857" lon="6.1808">
        <ele>225.5</ele>
        <time>2021-10-06T15:48:16Z</time>
      </trkpt>
      <trkpt lat="47.64852" lon="6.18078">
        <ele>225.4</ele>
        <time>2021-10-06T15:48:18Z</time>
      </trkpt>
      <trkpt lat="47.64847" lon="6.18076">
        <ele>225.2</ele>
        <time>2021-10-06T15:48:21Z</time>
      </trkpt>
      <trkpt lat="47.6484" lon="6.18074">
        <ele>225</ele>
        <time>2021-10-06T15:48:24Z</time>
      </trkpt>
      <trkpt lat="47.64834" lon="6.18072">
        <ele>224.8</ele>
        <time>2021-10-06T15:48:24Z</time>
      </trkpt>
      <trkpt lat="47.64828" lon="6.18072">
        <ele>225.3</ele>
        <time>2021-10-06T15:48:28Z</time>
      </trkpt>
      <trkpt lat="47.64823" lon="6.18071">
        <ele>225.8</ele>
        <time>2021-10-06T15:48:29Z</time>
      </trkpt>
      <trkpt lat="47.64818" lon="6.18071">
        <ele>226.4</ele>
        <time>2021-10-06T15:48:30Z</time>
      </trkpt>
      <trkpt lat="47.64813" lon="6.18073">
        <ele>227</ele>
        <time>2021-10-06T15:49:02Z</time>
      </trkpt>
      <trkpt lat="47.64809" lon="6.18071">
        <ele>227.4</ele>
        <time>2021-10-06T15:49:35Z</time>
      </trkpt>
      <trkpt lat="47.64804" lon="6.18071">
        <ele>227.9</ele>
        <time>2021-10-06T15:49:39Z</time>
      </trkpt>
      <trkpt lat="47.64799" lon="6.18068">
        <ele>228.2</ele>
        <time>2021-10-06T15:50:12Z</time>
      </trkpt>
      <trkpt lat="47.64796" lon="6.18064">
        <ele>228.2</ele>
        <time>2021-10-06T15:50:37Z</time>
      </trkpt>
      <trkpt lat="47.6479" lon="6.18061">
        <ele>228.4</ele>
        <time>2021-10-06T15:50:46Z</time>
      </trkpt>
      <trkpt lat="47.64785" lon="6.18061">
        <ele>228.7</ele>
        <time>2021-10-06T15:50:47Z</time>
      </trkpt>
      <trkpt lat="47.6478" lon="6.18061">
        <ele>229.3</ele>
        <time>2021-10-06T15:51:55Z</time>
      </trkpt>
      <trkpt lat="47.64775" lon="6.18055">
        <ele>228.9</ele>
        <time>2021-10-06T15:51:57Z</time>
      </trkpt>
      <trkpt lat="47.6477" lon="6.18049">
        <ele>228.6</ele>
        <time>2021-10-06T15:52:01Z</time>
      </trkpt>
      <trkpt lat="47.64765" lon="6.18045">
        <ele>228.2</ele>
        <time>2021-10-06T15:52:03Z</time>
      </trkpt>
      <trkpt lat="47.64762" lon="6.18039">
        <ele>227.5</ele>
        <time>2021-10-06T15:52:07Z</time>
      </trkpt>
      <trkpt lat="47.64759" lon="6.18034">
        <ele>226.7</ele>
        <time>2021-10-06T15:52:11Z</time>
      </trkpt>
      <trkpt lat="47.64755" lon="6.18026">
        <ele>225.6</ele>
        <time>2021-10-06T15:52:14Z</time>
      </trkpt>
      <trkpt lat="47.64751" lon="6.1802">
        <ele>224.5</ele>
        <time>2021-10-06T15:52:17Z</time>
      </trkpt>
      <trkpt lat="47.64748" lon="6.18014">
        <ele>223.8</ele>
        <time>2021-10-06T15:52:19Z</time>
      </trkpt>
      <trkpt lat="47.64741" lon="6.18">
        <ele>222.6</ele>
        <time>2021-10-06T15:52:22Z</time>
      </trkpt>
      <trkpt lat="47.64737" lon="6.17992">
        <ele>222.9</ele>
        <time>2021-10-06T15:52:23Z</time>
      </trkpt>
      <trkpt lat="47.64734" lon="6.17986">
        <ele>223</ele>
        <time>2021-10-06T15:52:26Z</time>
      </trkpt>
      <trkpt lat="47.64729" lon="6.17977">
        <ele>223.2</ele>
        <time>2021-10-06T15:52:28Z</time>
      </trkpt>
      <trkpt lat="47.64726" lon="6.1797">
        <ele>223.2</ele>
        <time>2021-10-06T15:52:30Z</time>
      </trkpt>
      <trkpt lat="47.64723" lon="6.17964">
        <ele>223.2</ele>
        <time>2021-10-06T15:52:32Z</time>
      </trkpt>
      <trkpt lat="47.64719" lon="6.17958">
        <ele>223.2</ele>
        <time>2021-10-06T15:52:34Z</time>
      </trkpt>
      <trkpt lat="47.64715" lon="6.1795">
        <ele>222.9</ele>
        <time>2021-10-06T15:52:35Z</time>
      </trkpt>
      <trkpt lat="47.64711" lon="6.17944">
        <ele>222.8</ele>
        <time>2021-10-06T15:52:38Z</time>
      </trkpt>
      <trkpt lat="47.64707" lon="6.17939">
        <ele>222.6</ele>
        <time>2021-10-06T15:52:40Z</time>
      </trkpt>
      <trkpt lat="47.64702" lon="6.17933">
        <ele>222.4</ele>
        <time>2021-10-06T15:52:42Z</time>
      </trkpt>
      <trkpt lat="47.64696" lon="6.17925">
        <ele>221.8</ele>
        <time>2021-10-06T15:52:43Z</time>
      </trkpt>
      <trkpt lat="47.64692" lon="6.17919">
        <ele>221.4</ele>
        <time>2021-10-06T15:52:45Z</time>
      </trkpt>
      <trkpt lat="47.64688" lon="6.17914">
        <ele>221.2</ele>
        <time>2021-10-06T15:52:48Z</time>
      </trkpt>
      <trkpt lat="47.64682" lon="6.17907">
        <ele>221.4</ele>
        <time>2021-10-06T15:52:50Z</time>
      </trkpt>
      <trkpt lat="47.64678" lon="6.17901">
        <ele>221.5</ele>
        <time>2021-10-06T15:52:51Z</time>
      </trkpt>
      <trkpt lat="47.64672" lon="6.17895">
        <ele>221.6</ele>
        <time>2021-10-06T15:52:53Z</time>
      </trkpt>
      <trkpt lat="47.64668" lon="6.1789">
        <ele>221.7</ele>
        <time>2021-10-06T15:52:56Z</time>
      </trkpt>
      <trkpt lat="47.64662" lon="6.17884">
        <ele>221.8</ele>
        <time>2021-10-06T15:52:58Z</time>
      </trkpt>
      <trkpt lat="47.64656" lon="6.17879">
        <ele>221.9</ele>
        <time>2021-10-06T15:53:00Z</time>
      </trkpt>
      <trkpt lat="47.64652" lon="6.17874">
        <ele>222</ele>
        <time>2021-10-06T15:53:02Z</time>
      </trkpt>
      <trkpt lat="47.64648" lon="6.1787">
        <ele>222.2</ele>
        <time>2021-10-06T15:53:03Z</time>
      </trkpt>
      <trkpt lat="47.6464" lon="6.17866">
        <ele>222.4</ele>
        <time>2021-10-06T15:53:05Z</time>
      </trkpt>
      <trkpt lat="47.64627" lon="6.17868">
        <ele>222.9</ele>
        <time>2021-10-06T15:53:07Z</time>
      </trkpt>
      <trkpt lat="47.64621" lon="6.17869">
        <ele>223.1</ele>
        <time>2021-10-06T15:53:09Z</time>
      </trkpt>
      <trkpt lat="47.64607" lon="6.17877">
        <ele>223.6</ele>
        <time>2021-10-06T15:53:12Z</time>
      </trkpt>
      <trkpt lat="47.64601" lon="6.17882">
        <ele>223.8</ele>
        <time>2021-10-06T15:53:14Z</time>
      </trkpt>
      <trkpt lat="47.6459" lon="6.17887">
        <ele>224.1</ele>
        <time>2021-10-06T15:53:17Z</time>
      </trkpt>
      <trkpt lat="47.64586" lon="6.17891">
        <ele>224.2</ele>
        <time>2021-10-06T15:53:19Z</time>
      </trkpt>
      <trkpt lat="47.64579" lon="6.17898">
        <ele>224.1</ele>
        <time>2021-10-06T15:53:20Z</time>
      </trkpt>
      <trkpt lat="47.64576" lon="6.17903">
        <ele>224</ele>
        <time>2021-10-06T15:53:23Z</time>
      </trkpt>
      <trkpt lat="47.64571" lon="6.17908">
        <ele>223.8</ele>
        <time>2021-10-06T15:53:25Z</time>
      </trkpt>
      <trkpt lat="47.64566" lon="6.17914">
        <ele>223.6</ele>
        <time>2021-10-06T15:53:27Z</time>
      </trkpt>
      <trkpt lat="47.64561" lon="6.1792">
        <ele>223.7</ele>
        <time>2021-10-06T15:53:31Z</time>
      </trkpt>
      <trkpt lat="47.64559" lon="6.17927">
        <ele>224.2</ele>
        <time>2021-10-06T15:53:35Z</time>
      </trkpt>
      <trkpt lat="47.64557" lon="6.17936">
        <ele>224.9</ele>
        <time>2021-10-06T15:53:37Z</time>
      </trkpt>
      <trkpt lat="47.64555" lon="6.17946">
        <ele>225.5</ele>
        <time>2021-10-06T15:53:38Z</time>
      </trkpt>
      <trkpt lat="47.64553" lon="6.17953">
        <ele>225.9</ele>
        <time>2021-10-06T15:53:41Z</time>
      </trkpt>
      <trkpt lat="47.64552" lon="6.17962">
        <ele>226.5</ele>
        <time>2021-10-06T15:53:42Z</time>
      </trkpt>
      <trkpt lat="47.64551" lon="6.1797">
        <ele>227</ele>
        <time>2021-10-06T15:53:44Z</time>
      </trkpt>
      <trkpt lat="47.6455" lon="6.17979">
        <ele>227.5</ele>
        <time>2021-10-06T15:53:46Z</time>
      </trkpt>
      <trkpt lat="47.64548" lon="6.17987">
        <ele>227.9</ele>
        <time>2021-10-06T15:53:49Z</time>
      </trkpt>
      <trkpt lat="47.64546" lon="6.17994">
        <ele>228.2</ele>
        <time>2021-10-06T15:53:52Z</time>
      </trkpt>
      <trkpt lat="47.64544" lon="6.18001">
        <ele>228.4</ele>
        <time>2021-10-06T15:53:55Z</time>
      </trkpt>
      <trkpt lat="47.64542" lon="6.1801">
        <ele>228.5</ele>
        <time>2021-10-06T15:53:58Z</time>
      </trkpt>
      <trkpt lat="47.64539" lon="6.18017">
        <ele>228.4</ele>
        <time>2021-10-06T15:54:00Z</time>
      </trkpt>
      <trkpt lat="47.64536" lon="6.18026">
        <ele>228.2</ele>
        <time>2021-10-06T15:54:02Z</time>
      </trkpt>
      <trkpt lat="47.6453" lon="6.18036">
        <ele>227.6</ele>
        <time>2021-10-06T15:54:04Z</time>
      </trkpt>
      <trkpt lat="47.64522" lon="6.18042">
        <ele>226.5</ele>
        <time>2021-10-06T15:54:06Z</time>
      </trkpt>
      <trkpt lat="47.64515" lon="6.18045">
        <ele>225.5</ele>
        <time>2021-10-06T15:54:07Z</time>
      </trkpt>
      <trkpt lat="47.64509" lon="6.18047">
        <ele>224.5</ele>
        <time>2021-10-06T15:54:08Z</time>
      </trkpt>
      <trkpt lat="47.64502" lon="6.18047">
        <ele>223.4</ele>
        <time>2021-10-06T15:54:09Z</time>
      </trkpt>
      <trkpt lat="47.64496" lon="6.18045">
        <ele>223</ele>
        <time>2021-10-06T15:54:10Z</time>
      </trkpt>
      <trkpt lat="47.64489" lon="6.18042">
        <ele>222.9</ele>
        <time>2021-10-06T15:54:11Z</time>
      </trkpt>
      <trkpt lat="47.64483" lon="6.18038">
        <ele>222.9</ele>
        <time>2021-10-06T15:54:12Z</time>
      </trkpt>
      <trkpt lat="47.64479" lon="6.18034">
        <ele>222.9</ele>
        <time>2021-10-06T15:54:13Z</time>
      </trkpt>
      <trkpt lat="47.64473" lon="6.1803">
        <ele>222.8</ele>
        <time>2021-10-06T15:54:15Z</time>
      </trkpt>
      <trkpt lat="47.64468" lon="6.18033">
        <ele>222.8</ele>
        <time>2021-10-06T15:54:17Z</time>
      </trkpt>
      <trkpt lat="47.64466" lon="6.18039">
        <ele>222.8</ele>
        <time>2021-10-06T15:54:19Z</time>
      </trkpt>
      <trkpt lat="47.64465" lon="6.18047">
        <ele>222.8</ele>
        <time>2021-10-06T15:54:24Z</time>
      </trkpt>
      <trkpt lat="47.64463" lon="6.18055">
        <ele>222.8</ele>
        <time>2021-10-06T15:54:28Z</time>
      </trkpt>
      <trkpt lat="47.64468" lon="6.18055">
        <ele>222.9</ele>
        <time>2021-10-06T15:55:06Z</time>
      </trkpt>
      <trkpt lat="47.64473" lon="6.18054">
        <ele>222.9</ele>
        <time>2021-10-06T15:55:40Z</time>
      </trkpt>
      <trkpt lat="47.64468" lon="6.18053">
        <ele>222.9</ele>
        <time>2021-10-06T15:59:36Z</time>
      </trkpt>
      <trkpt lat="47.64467" lon="6.18047">
        <ele>222.8</ele>
        <time>2021-10-06T16:00:04Z</time>
      </trkpt>
      <trkpt lat="47.64471" lon="6.1804">
        <ele>222.8</ele>
        <time>2021-10-06T16:00:09Z</time>
      </trkpt>
      <trkpt lat="47.64477" lon="6.18042">
        <ele>222.9</ele>
        <time>2021-10-06T16:00:10Z</time>
      </trkpt>
      <trkpt lat="47.64483" lon="6.18045">
        <ele>222.9</ele>
        <time>2021-10-06T16:00:13Z</time>
      </trkpt>
      <trkpt lat="47.64488" lon="6.18047">
        <ele>222.9</ele>
        <time>2021-10-06T16:00:15Z</time>
      </trkpt>
      <trkpt lat="47.64492" lon="6.1805">
        <ele>223</ele>
        <time>2021-10-06T16:00:17Z</time>
      </trkpt>
      <trkpt lat="47.64499" lon="6.18053">
        <ele>223</ele>
        <time>2021-10-06T16:00:22Z</time>
      </trkpt>
      <trkpt lat="47.64505" lon="6.18054">
        <ele>223.9</ele>
        <time>2021-10-06T16:00:22Z</time>
      </trkpt>
      <trkpt lat="47.64511" lon="6.18057">
        <ele>225</ele>
        <time>2021-10-06T16:00:25Z</time>
      </trkpt>
      <trkpt lat="47.64513" lon="6.18065">
        <ele>225.5</ele>
        <time>2021-10-06T16:00:28Z</time>
      </trkpt>
      <trkpt lat="47.64512" lon="6.18074">
        <ele>225.3</ele>
        <time>2021-10-06T16:00:32Z</time>
      </trkpt>
      <trkpt lat="47.64509" lon="6.1808">
        <ele>224.9</ele>
        <time>2021-10-06T16:00:34Z</time>
      </trkpt>
      <trkpt lat="47.64506" lon="6.18089">
        <ele>224.4</ele>
        <time>2021-10-06T16:00:38Z</time>
      </trkpt>
      <trkpt lat="47.64505" lon="6.18096">
        <ele>224.3</ele>
        <time>2021-10-06T16:00:40Z</time>
      </trkpt>
      <trkpt lat="47.64502" lon="6.18107">
        <ele>224</ele>
        <time>2021-10-06T16:00:42Z</time>
      </trkpt>
      <trkpt lat="47.645" lon="6.18118">
        <ele>223.8</ele>
        <time>2021-10-06T16:00:44Z</time>
      </trkpt>
      <trkpt lat="47.64499" lon="6.18127">
        <ele>224</ele>
        <time>2021-10-06T16:00:46Z</time>
      </trkpt>
      <trkpt lat="47.64498" lon="6.18135">
        <ele>224.2</ele>
        <time>2021-10-06T16:00:47Z</time>
      </trkpt>
      <trkpt lat="47.64498" lon="6.18146">
        <ele>224.5</ele>
        <time>2021-10-06T16:00:47Z</time>
      </trkpt>
      <trkpt lat="47.64499" lon="6.18155">
        <ele>224.7</ele>
        <time>2021-10-06T16:00:49Z</time>
      </trkpt>
      <trkpt lat="47.64502" lon="6.18165">
        <ele>225.3</ele>
        <time>2021-10-06T16:00:51Z</time>
      </trkpt>
      <trkpt lat="47.64503" lon="6.18174">
        <ele>226.2</ele>
        <time>2021-10-06T16:00:53Z</time>
      </trkpt>
      <trkpt lat="47.64504" lon="6.18182">
        <ele>227</ele>
        <time>2021-10-06T16:00:55Z</time>
      </trkpt>
      <trkpt lat="47.64504" lon="6.18189">
        <ele>227.5</ele>
        <time>2021-10-06T16:00:57Z</time>
      </trkpt>
      <trkpt lat="47.64502" lon="6.18196">
        <ele>227.5</ele>
        <time>2021-10-06T16:00:59Z</time>
      </trkpt>
      <trkpt lat="47.645" lon="6.18202">
        <ele>227.7</ele>
        <time>2021-10-06T16:01:01Z</time>
      </trkpt>
      <trkpt lat="47.64497" lon="6.18211">
        <ele>228</ele>
        <time>2021-10-06T16:01:04Z</time>
      </trkpt>
      <trkpt lat="47.64495" lon="6.18219">
        <ele>228.4</ele>
        <time>2021-10-06T16:01:07Z</time>
      </trkpt>
      <trkpt lat="47.64492" lon="6.18227">
        <ele>228.6</ele>
        <time>2021-10-06T16:01:10Z</time>
      </trkpt>
      <trkpt lat="47.64488" lon="6.18233">
        <ele>228.7</ele>
        <time>2021-10-06T16:01:12Z</time>
      </trkpt>
      <trkpt lat="47.64485" lon="6.1824">
        <ele>228.8</ele>
        <time>2021-10-06T16:01:14Z</time>
      </trkpt>
      <trkpt lat="47.6448" lon="6.18249">
        <ele>228.9</ele>
        <time>2021-10-06T16:01:16Z</time>
      </trkpt>
      <trkpt lat="47.64476" lon="6.18258">
        <ele>229.5</ele>
        <time>2021-10-06T16:01:18Z</time>
      </trkpt>
      <trkpt lat="47.64473" lon="6.18263">
        <ele>229.7</ele>
        <time>2021-10-06T16:01:20Z</time>
      </trkpt>
      <trkpt lat="47.64469" lon="6.18268">
        <ele>229.9</ele>
        <time>2021-10-06T16:01:22Z</time>
      </trkpt>
      <trkpt lat="47.64464" lon="6.18273">
        <ele>230</ele>
        <time>2021-10-06T16:01:25Z</time>
      </trkpt>
      <trkpt lat="47.64459" lon="6.18279">
        <ele>230</ele>
        <time>2021-10-06T16:01:28Z</time>
      </trkpt>
      <trkpt lat="47.64455" lon="6.18285">
        <ele>230</ele>
        <time>2021-10-06T16:01:31Z</time>
      </trkpt>
      <trkpt lat="47.64449" lon="6.18292">
        <ele>229.9</ele>
        <time>2021-10-06T16:01:34Z</time>
      </trkpt>
      <trkpt lat="47.64445" lon="6.18297">
        <ele>229.8</ele>
        <time>2021-10-06T16:01:36Z</time>
      </trkpt>
      <trkpt lat="47.64442" lon="6.18302">
        <ele>229.8</ele>
        <time>2021-10-06T16:01:38Z</time>
      </trkpt>
      <trkpt lat="47.64441" lon="6.1831">
        <ele>230.5</ele>
        <time>2021-10-06T16:01:40Z</time>
      </trkpt>
      <trkpt lat="47.64444" lon="6.18317">
        <ele>231.6</ele>
        <time>2021-10-06T16:01:43Z</time>
      </trkpt>
      <trkpt lat="47.64441" lon="6.18322">
        <ele>231.5</ele>
        <time>2021-10-06T16:01:49Z</time>
      </trkpt>
      <trkpt lat="47.64437" lon="6.18325">
        <ele>231</ele>
        <time>2021-10-06T16:01:58Z</time>
      </trkpt>
    </trkseg>
  </trk>
</gpx>